<?xml version="1.0" encoding="UTF-8" standalone="no" ?>
<gpx xmlns="http://www.topografix.com/GPX/1/1" xmlns:xsi="http://www.w3.org/2001/XMLSchema-instance" xsi:schemaLocation="http://www.topografix.com/GPX/1/1 http://www.topografix.com/GPX/1/1/gpx.xsd" version="1.1" creator="VisuGPX - https://www.visugpx.com">
  <metadata>
    <name>Plouzané - Blancs Sablons</name>
  </metadata>
  <trk>
    <name><![CDATA[Plouzané Cyclisme]]></name>
    <trkseg>
      <trkpt lat="48.35815" lon="-4.57836">
        <ele>68</ele>
        <time>2022-03-30T15:15:11.000Z</time>
      </trkpt>
      <trkpt lat="48.35815" lon="-4.57836">
        <ele>68</ele>
        <time>2022-03-30T15:15:12.000Z</time>
      </trkpt>
      <trkpt lat="48.35815" lon="-4.57834">
        <ele>68</ele>
        <time>2022-03-30T15:15:19.000Z</time>
      </trkpt>
      <trkpt lat="48.35811" lon="-4.57831">
        <ele>67.800003051758</ele>
        <time>2022-03-30T15:15:21.000Z</time>
      </trkpt>
      <trkpt lat="48.35792" lon="-4.57825">
        <ele>67</ele>
        <time>2022-03-30T15:15:27.000Z</time>
      </trkpt>
      <trkpt lat="48.35779" lon="-4.57821">
        <ele>66.400001525879</ele>
        <time>2022-03-30T15:15:31.000Z</time>
      </trkpt>
      <trkpt lat="48.35765" lon="-4.57831">
        <ele>65.599998474121</ele>
        <time>2022-03-30T15:15:35.000Z</time>
      </trkpt>
      <trkpt lat="48.35751" lon="-4.57845">
        <ele>64.800003051758</ele>
        <time>2022-03-30T15:15:39.000Z</time>
      </trkpt>
      <trkpt lat="48.35748" lon="-4.57849">
        <ele>64.599998474121</ele>
        <time>2022-03-30T15:15:42.000Z</time>
      </trkpt>
      <trkpt lat="48.35747" lon="-4.57853">
        <ele>64.400001525879</ele>
        <time>2022-03-30T15:15:48.000Z</time>
      </trkpt>
      <trkpt lat="48.35746" lon="-4.57875">
        <ele>64</ele>
        <time>2022-03-30T15:15:52.000Z</time>
      </trkpt>
      <trkpt lat="48.35743" lon="-4.57916">
        <ele>64</ele>
        <time>2022-03-30T15:15:58.000Z</time>
      </trkpt>
      <trkpt lat="48.35739" lon="-4.57973">
        <ele>65</ele>
        <time>2022-03-30T15:16:06.000Z</time>
      </trkpt>
      <trkpt lat="48.35737" lon="-4.58">
        <ele>65.599998474121</ele>
        <time>2022-03-30T15:16:10.000Z</time>
      </trkpt>
      <trkpt lat="48.35737" lon="-4.58012">
        <ele>65.599998474121</ele>
        <time>2022-03-30T15:16:12.000Z</time>
      </trkpt>
      <trkpt lat="48.35734" lon="-4.5806">
        <ele>66.599998474121</ele>
        <time>2022-03-30T15:16:20.000Z</time>
      </trkpt>
      <trkpt lat="48.35732" lon="-4.58078">
        <ele>66.400001525879</ele>
        <time>2022-03-30T15:16:23.000Z</time>
      </trkpt>
      <trkpt lat="48.3573" lon="-4.58102">
        <ele>66.400001525879</ele>
        <time>2022-03-30T15:16:27.000Z</time>
      </trkpt>
      <trkpt lat="48.35731" lon="-4.58126">
        <ele>66.400001525879</ele>
        <time>2022-03-30T15:16:32.000Z</time>
      </trkpt>
      <trkpt lat="48.35726" lon="-4.58153">
        <ele>66.800003051758</ele>
        <time>2022-03-30T15:16:38.000Z</time>
      </trkpt>
      <trkpt lat="48.3572" lon="-4.58173">
        <ele>67.199996948242</ele>
        <time>2022-03-30T15:16:42.000Z</time>
      </trkpt>
      <trkpt lat="48.35714" lon="-4.58195">
        <ele>68</ele>
        <time>2022-03-30T15:16:47.000Z</time>
      </trkpt>
      <trkpt lat="48.35712" lon="-4.582">
        <ele>68.199996948242</ele>
        <time>2022-03-30T15:16:48.000Z</time>
      </trkpt>
      <trkpt lat="48.35702" lon="-4.58216">
        <ele>68.800003051758</ele>
        <time>2022-03-30T15:16:51.000Z</time>
      </trkpt>
      <trkpt lat="48.35697" lon="-4.58226">
        <ele>69.400001525879</ele>
        <time>2022-03-30T15:16:53.000Z</time>
      </trkpt>
      <trkpt lat="48.35698" lon="-4.58237">
        <ele>69.800003051758</ele>
        <time>2022-03-30T15:16:55.000Z</time>
      </trkpt>
      <trkpt lat="48.3571" lon="-4.58248">
        <ele>70</ele>
        <time>2022-03-30T15:16:59.000Z</time>
      </trkpt>
      <trkpt lat="48.35716" lon="-4.58262">
        <ele>70</ele>
        <time>2022-03-30T15:17:03.000Z</time>
      </trkpt>
      <trkpt lat="48.35706" lon="-4.58286">
        <ele>70</ele>
        <time>2022-03-30T15:17:08.000Z</time>
      </trkpt>
      <trkpt lat="48.35699" lon="-4.58312">
        <ele>70</ele>
        <time>2022-03-30T15:17:13.000Z</time>
      </trkpt>
      <trkpt lat="48.35703" lon="-4.58321">
        <ele>70</ele>
        <time>2022-03-30T15:17:15.000Z</time>
      </trkpt>
      <trkpt lat="48.35706" lon="-4.58323">
        <ele>69.800003051758</ele>
        <time>2022-03-30T15:17:16.000Z</time>
      </trkpt>
      <trkpt lat="48.3572" lon="-4.58339">
        <ele>69</ele>
        <time>2022-03-30T15:17:22.000Z</time>
      </trkpt>
      <trkpt lat="48.35731" lon="-4.5836">
        <ele>69</ele>
        <time>2022-03-30T15:17:28.000Z</time>
      </trkpt>
      <trkpt lat="48.35742" lon="-4.58382">
        <ele>69</ele>
        <time>2022-03-30T15:17:34.000Z</time>
      </trkpt>
      <trkpt lat="48.3575" lon="-4.58391">
        <ele>69.199996948242</ele>
        <time>2022-03-30T15:17:37.000Z</time>
      </trkpt>
      <trkpt lat="48.35752" lon="-4.584">
        <ele>69.800003051758</ele>
        <time>2022-03-30T15:17:39.000Z</time>
      </trkpt>
      <trkpt lat="48.3575" lon="-4.58419">
        <ele>70.199996948242</ele>
        <time>2022-03-30T15:17:43.000Z</time>
      </trkpt>
      <trkpt lat="48.35749" lon="-4.58436">
        <ele>70.199996948242</ele>
        <time>2022-03-30T15:17:48.000Z</time>
      </trkpt>
      <trkpt lat="48.35749" lon="-4.58451">
        <ele>70</ele>
        <time>2022-03-30T15:17:53.000Z</time>
      </trkpt>
      <trkpt lat="48.35748" lon="-4.58478">
        <ele>70</ele>
        <time>2022-03-30T15:17:58.000Z</time>
      </trkpt>
      <trkpt lat="48.35748" lon="-4.58499">
        <ele>70</ele>
        <time>2022-03-30T15:18:02.000Z</time>
      </trkpt>
      <trkpt lat="48.35747" lon="-4.58535">
        <ele>70</ele>
        <time>2022-03-30T15:18:08.000Z</time>
      </trkpt>
      <trkpt lat="48.35746" lon="-4.58542">
        <ele>70</ele>
        <time>2022-03-30T15:18:09.000Z</time>
      </trkpt>
      <trkpt lat="48.35748" lon="-4.58554">
        <ele>70</ele>
        <time>2022-03-30T15:18:11.000Z</time>
      </trkpt>
      <trkpt lat="48.3575" lon="-4.58558">
        <ele>70</ele>
        <time>2022-03-30T15:18:12.000Z</time>
      </trkpt>
      <trkpt lat="48.35755" lon="-4.58573">
        <ele>70</ele>
        <time>2022-03-30T15:18:15.000Z</time>
      </trkpt>
      <trkpt lat="48.35755" lon="-4.5858">
        <ele>70</ele>
        <time>2022-03-30T15:18:16.000Z</time>
      </trkpt>
      <trkpt lat="48.35755" lon="-4.58595">
        <ele>69.599998474121</ele>
        <time>2022-03-30T15:18:18.000Z</time>
      </trkpt>
      <trkpt lat="48.35753" lon="-4.58622">
        <ele>68.800003051758</ele>
        <time>2022-03-30T15:18:21.000Z</time>
      </trkpt>
      <trkpt lat="48.35753" lon="-4.5864">
        <ele>68</ele>
        <time>2022-03-30T15:18:23.000Z</time>
      </trkpt>
      <trkpt lat="48.35752" lon="-4.58658">
        <ele>66.800003051758</ele>
        <time>2022-03-30T15:18:25.000Z</time>
      </trkpt>
      <trkpt lat="48.35751" lon="-4.58665">
        <ele>66.400001525879</ele>
        <time>2022-03-30T15:18:26.000Z</time>
      </trkpt>
      <trkpt lat="48.35751" lon="-4.58689">
        <ele>64.800003051758</ele>
        <time>2022-03-30T15:18:29.000Z</time>
      </trkpt>
      <trkpt lat="48.35749" lon="-4.58698">
        <ele>64</ele>
        <time>2022-03-30T15:18:30.000Z</time>
      </trkpt>
      <trkpt lat="48.35747" lon="-4.58706">
        <ele>63.799999237061</ele>
        <time>2022-03-30T15:18:31.000Z</time>
      </trkpt>
      <trkpt lat="48.35747" lon="-4.58724">
        <ele>63</ele>
        <time>2022-03-30T15:18:33.000Z</time>
      </trkpt>
      <trkpt lat="48.35758" lon="-4.58738">
        <ele>63</ele>
        <time>2022-03-30T15:18:35.000Z</time>
      </trkpt>
      <trkpt lat="48.35764" lon="-4.58741">
        <ele>63</ele>
        <time>2022-03-30T15:18:36.000Z</time>
      </trkpt>
      <trkpt lat="48.35781" lon="-4.58745">
        <ele>63.599998474121</ele>
        <time>2022-03-30T15:18:39.000Z</time>
      </trkpt>
      <trkpt lat="48.35786" lon="-4.58747">
        <ele>63.599998474121</ele>
        <time>2022-03-30T15:18:40.000Z</time>
      </trkpt>
      <trkpt lat="48.35805" lon="-4.58752">
        <ele>64.199996948242</ele>
        <time>2022-03-30T15:18:45.000Z</time>
      </trkpt>
      <trkpt lat="48.35825" lon="-4.58751">
        <ele>65.800003051758</ele>
        <time>2022-03-30T15:18:51.000Z</time>
      </trkpt>
      <trkpt lat="48.35837" lon="-4.58758">
        <ele>66.199996948242</ele>
        <time>2022-03-30T15:18:55.000Z</time>
      </trkpt>
      <trkpt lat="48.35847" lon="-4.58771">
        <ele>67</ele>
        <time>2022-03-30T15:19:00.000Z</time>
      </trkpt>
      <trkpt lat="48.35851" lon="-4.58789">
        <ele>67.599998474121</ele>
        <time>2022-03-30T15:19:04.000Z</time>
      </trkpt>
      <trkpt lat="48.35853" lon="-4.58809">
        <ele>67.800003051758</ele>
        <time>2022-03-30T15:19:08.000Z</time>
      </trkpt>
      <trkpt lat="48.35858" lon="-4.58842">
        <ele>68</ele>
        <time>2022-03-30T15:19:14.000Z</time>
      </trkpt>
      <trkpt lat="48.35865" lon="-4.58858">
        <ele>68.599998474121</ele>
        <time>2022-03-30T15:19:18.000Z</time>
      </trkpt>
      <trkpt lat="48.35867" lon="-4.58859">
        <ele>68.800003051758</ele>
        <time>2022-03-30T15:19:19.000Z</time>
      </trkpt>
      <trkpt lat="48.35877" lon="-4.58858">
        <ele>69.400001525879</ele>
        <time>2022-03-30T15:19:23.000Z</time>
      </trkpt>
      <trkpt lat="48.35891" lon="-4.58855">
        <ele>70.199996948242</ele>
        <time>2022-03-30T15:19:28.000Z</time>
      </trkpt>
      <trkpt lat="48.35906" lon="-4.58853">
        <ele>70.800003051758</ele>
        <time>2022-03-30T15:19:34.000Z</time>
      </trkpt>
      <trkpt lat="48.35919" lon="-4.58853">
        <ele>71.400001525879</ele>
        <time>2022-03-30T15:19:39.000Z</time>
      </trkpt>
      <trkpt lat="48.35934" lon="-4.58852">
        <ele>72.599998474121</ele>
        <time>2022-03-30T15:19:44.000Z</time>
      </trkpt>
      <trkpt lat="48.35943" lon="-4.58851">
        <ele>73.400001525879</ele>
        <time>2022-03-30T15:19:48.000Z</time>
      </trkpt>
      <trkpt lat="48.3596" lon="-4.58852">
        <ele>74.800003051758</ele>
        <time>2022-03-30T15:19:54.000Z</time>
      </trkpt>
      <trkpt lat="48.35976" lon="-4.58853">
        <ele>76</ele>
        <time>2022-03-30T15:20:00.000Z</time>
      </trkpt>
      <trkpt lat="48.35987" lon="-4.58853">
        <ele>76.800003051758</ele>
        <time>2022-03-30T15:20:04.000Z</time>
      </trkpt>
      <trkpt lat="48.36001" lon="-4.58853">
        <ele>77.599998474121</ele>
        <time>2022-03-30T15:20:09.000Z</time>
      </trkpt>
      <trkpt lat="48.36019" lon="-4.58853">
        <ele>78.199996948242</ele>
        <time>2022-03-30T15:20:15.000Z</time>
      </trkpt>
      <trkpt lat="48.36036" lon="-4.5885">
        <ele>78.800003051758</ele>
        <time>2022-03-30T15:20:21.000Z</time>
      </trkpt>
      <trkpt lat="48.36051" lon="-4.5885">
        <ele>80</ele>
        <time>2022-03-30T15:20:27.000Z</time>
      </trkpt>
      <trkpt lat="48.36061" lon="-4.58849">
        <ele>80.599998474121</ele>
        <time>2022-03-30T15:20:31.000Z</time>
      </trkpt>
      <trkpt lat="48.36078" lon="-4.58849">
        <ele>82</ele>
        <time>2022-03-30T15:20:37.000Z</time>
      </trkpt>
      <trkpt lat="48.36093" lon="-4.58851">
        <ele>83</ele>
        <time>2022-03-30T15:20:43.000Z</time>
      </trkpt>
      <trkpt lat="48.36112" lon="-4.58851">
        <ele>84.199996948242</ele>
        <time>2022-03-30T15:20:49.000Z</time>
      </trkpt>
      <trkpt lat="48.36124" lon="-4.5885">
        <ele>84.400001525879</ele>
        <time>2022-03-30T15:20:54.000Z</time>
      </trkpt>
      <trkpt lat="48.3614" lon="-4.58851">
        <ele>84.800003051758</ele>
        <time>2022-03-30T15:21:00.000Z</time>
      </trkpt>
      <trkpt lat="48.36151" lon="-4.58851">
        <ele>85.599998474121</ele>
        <time>2022-03-30T15:21:05.000Z</time>
      </trkpt>
      <trkpt lat="48.36167" lon="-4.58852">
        <ele>86.599998474121</ele>
        <time>2022-03-30T15:21:10.000Z</time>
      </trkpt>
      <trkpt lat="48.3618" lon="-4.58857">
        <ele>86.800003051758</ele>
        <time>2022-03-30T15:21:15.000Z</time>
      </trkpt>
      <trkpt lat="48.36194" lon="-4.58863">
        <ele>87.199996948242</ele>
        <time>2022-03-30T15:21:20.000Z</time>
      </trkpt>
      <trkpt lat="48.36217" lon="-4.58876">
        <ele>88</ele>
        <time>2022-03-30T15:21:27.000Z</time>
      </trkpt>
      <trkpt lat="48.36235" lon="-4.58885">
        <ele>88</ele>
        <time>2022-03-30T15:21:33.000Z</time>
      </trkpt>
      <trkpt lat="48.36249" lon="-4.58895">
        <ele>88.199996948242</ele>
        <time>2022-03-30T15:21:38.000Z</time>
      </trkpt>
      <trkpt lat="48.36264" lon="-4.58915">
        <ele>88.400001525879</ele>
        <time>2022-03-30T15:21:44.000Z</time>
      </trkpt>
      <trkpt lat="48.36263" lon="-4.58928">
        <ele>88.400001525879</ele>
        <time>2022-03-30T15:21:46.000Z</time>
      </trkpt>
      <trkpt lat="48.3626" lon="-4.58941">
        <ele>88.599998474121</ele>
        <time>2022-03-30T15:21:48.000Z</time>
      </trkpt>
      <trkpt lat="48.36255" lon="-4.58971">
        <ele>87.800003051758</ele>
        <time>2022-03-30T15:21:52.000Z</time>
      </trkpt>
      <trkpt lat="48.36253" lon="-4.5898">
        <ele>87.400001525879</ele>
        <time>2022-03-30T15:21:53.000Z</time>
      </trkpt>
      <trkpt lat="48.36246" lon="-4.59038">
        <ele>83.400001525879</ele>
        <time>2022-03-30T15:21:59.000Z</time>
      </trkpt>
      <trkpt lat="48.36238" lon="-4.59099">
        <ele>80.800003051758</ele>
        <time>2022-03-30T15:22:04.000Z</time>
      </trkpt>
      <trkpt lat="48.36229" lon="-4.59181">
        <ele>77.199996948242</ele>
        <time>2022-03-30T15:22:10.000Z</time>
      </trkpt>
      <trkpt lat="48.36226" lon="-4.59195">
        <ele>76.400001525879</ele>
        <time>2022-03-30T15:22:11.000Z</time>
      </trkpt>
      <trkpt lat="48.36213" lon="-4.5927">
        <ele>73</ele>
        <time>2022-03-30T15:22:16.000Z</time>
      </trkpt>
      <trkpt lat="48.36201" lon="-4.59321">
        <ele>74.400001525879</ele>
        <time>2022-03-30T15:22:20.000Z</time>
      </trkpt>
      <trkpt lat="48.36193" lon="-4.59369">
        <ele>76.199996948242</ele>
        <time>2022-03-30T15:22:25.000Z</time>
      </trkpt>
      <trkpt lat="48.36188" lon="-4.59403">
        <ele>77</ele>
        <time>2022-03-30T15:22:30.000Z</time>
      </trkpt>
      <trkpt lat="48.36181" lon="-4.59444">
        <ele>77.800003051758</ele>
        <time>2022-03-30T15:22:37.000Z</time>
      </trkpt>
      <trkpt lat="48.36177" lon="-4.59472">
        <ele>79</ele>
        <time>2022-03-30T15:22:42.000Z</time>
      </trkpt>
      <trkpt lat="48.36175" lon="-4.59484">
        <ele>79.400001525879</ele>
        <time>2022-03-30T15:22:44.000Z</time>
      </trkpt>
      <trkpt lat="48.3617" lon="-4.59519">
        <ele>81.199996948242</ele>
        <time>2022-03-30T15:22:50.000Z</time>
      </trkpt>
      <trkpt lat="48.36164" lon="-4.59557">
        <ele>83</ele>
        <time>2022-03-30T15:22:57.000Z</time>
      </trkpt>
      <trkpt lat="48.36159" lon="-4.59589">
        <ele>83.800003051758</ele>
        <time>2022-03-30T15:23:03.000Z</time>
      </trkpt>
      <trkpt lat="48.36154" lon="-4.59614">
        <ele>83.800003051758</ele>
        <time>2022-03-30T15:23:08.000Z</time>
      </trkpt>
      <trkpt lat="48.36148" lon="-4.59648">
        <ele>84.400001525879</ele>
        <time>2022-03-30T15:23:14.000Z</time>
      </trkpt>
      <trkpt lat="48.36147" lon="-4.59677">
        <ele>85.400001525879</ele>
        <time>2022-03-30T15:23:19.000Z</time>
      </trkpt>
      <trkpt lat="48.36145" lon="-4.59692">
        <ele>86.199996948242</ele>
        <time>2022-03-30T15:23:22.000Z</time>
      </trkpt>
      <trkpt lat="48.36143" lon="-4.59694">
        <ele>86.199996948242</ele>
        <time>2022-03-30T15:23:23.000Z</time>
      </trkpt>
      <trkpt lat="48.36133" lon="-4.59697">
        <ele>85.800003051758</ele>
        <time>2022-03-30T15:23:26.000Z</time>
      </trkpt>
      <trkpt lat="48.36127" lon="-4.59699">
        <ele>85.400001525879</ele>
        <time>2022-03-30T15:23:27.000Z</time>
      </trkpt>
      <trkpt lat="48.36121" lon="-4.59701">
        <ele>85.199996948242</ele>
        <time>2022-03-30T15:23:28.000Z</time>
      </trkpt>
      <trkpt lat="48.36097" lon="-4.59705">
        <ele>84</ele>
        <time>2022-03-30T15:23:32.000Z</time>
      </trkpt>
      <trkpt lat="48.36091" lon="-4.59706">
        <ele>83.800003051758</ele>
        <time>2022-03-30T15:23:33.000Z</time>
      </trkpt>
      <trkpt lat="48.3608" lon="-4.59714">
        <ele>83.599998474121</ele>
        <time>2022-03-30T15:23:35.000Z</time>
      </trkpt>
      <trkpt lat="48.36075" lon="-4.59728">
        <ele>84</ele>
        <time>2022-03-30T15:23:37.000Z</time>
      </trkpt>
      <trkpt lat="48.36074" lon="-4.59736">
        <ele>84</ele>
        <time>2022-03-30T15:23:38.000Z</time>
      </trkpt>
      <trkpt lat="48.3607" lon="-4.59769">
        <ele>84.599998474121</ele>
        <time>2022-03-30T15:23:43.000Z</time>
      </trkpt>
      <trkpt lat="48.36067" lon="-4.59789">
        <ele>85.400001525879</ele>
        <time>2022-03-30T15:23:46.000Z</time>
      </trkpt>
      <trkpt lat="48.36066" lon="-4.59808">
        <ele>86</ele>
        <time>2022-03-30T15:23:49.000Z</time>
      </trkpt>
      <trkpt lat="48.36062" lon="-4.5985">
        <ele>86</ele>
        <time>2022-03-30T15:23:56.000Z</time>
      </trkpt>
      <trkpt lat="48.36055" lon="-4.59893">
        <ele>87</ele>
        <time>2022-03-30T15:24:03.000Z</time>
      </trkpt>
      <trkpt lat="48.3605" lon="-4.59922">
        <ele>87</ele>
        <time>2022-03-30T15:24:08.000Z</time>
      </trkpt>
      <trkpt lat="48.36043" lon="-4.59942">
        <ele>87.400001525879</ele>
        <time>2022-03-30T15:24:13.000Z</time>
      </trkpt>
      <trkpt lat="48.36038" lon="-4.59945">
        <ele>87.400001525879</ele>
        <time>2022-03-30T15:24:15.000Z</time>
      </trkpt>
      <trkpt lat="48.36031" lon="-4.59946">
        <ele>87.199996948242</ele>
        <time>2022-03-30T15:24:17.000Z</time>
      </trkpt>
      <trkpt lat="48.35999" lon="-4.59948">
        <ele>87</ele>
        <time>2022-03-30T15:24:24.000Z</time>
      </trkpt>
      <trkpt lat="48.35963" lon="-4.59955">
        <ele>87</ele>
        <time>2022-03-30T15:24:31.000Z</time>
      </trkpt>
      <trkpt lat="48.35928" lon="-4.59971">
        <ele>86.400001525879</ele>
        <time>2022-03-30T15:24:38.000Z</time>
      </trkpt>
      <trkpt lat="48.35901" lon="-4.59982">
        <ele>86</ele>
        <time>2022-03-30T15:24:43.000Z</time>
      </trkpt>
      <trkpt lat="48.35896" lon="-4.59983">
        <ele>86</ele>
        <time>2022-03-30T15:24:44.000Z</time>
      </trkpt>
      <trkpt lat="48.35853" lon="-4.59981">
        <ele>85</ele>
        <time>2022-03-30T15:24:51.000Z</time>
      </trkpt>
      <trkpt lat="48.35847" lon="-4.59982">
        <ele>85</ele>
        <time>2022-03-30T15:24:52.000Z</time>
      </trkpt>
      <trkpt lat="48.35844" lon="-4.59987">
        <ele>85</ele>
        <time>2022-03-30T15:24:53.000Z</time>
      </trkpt>
      <trkpt lat="48.35843" lon="-4.60002">
        <ele>85</ele>
        <time>2022-03-30T15:24:56.000Z</time>
      </trkpt>
      <trkpt lat="48.35843" lon="-4.60014">
        <ele>85</ele>
        <time>2022-03-30T15:24:58.000Z</time>
      </trkpt>
      <trkpt lat="48.35845" lon="-4.60034">
        <ele>85.599998474121</ele>
        <time>2022-03-30T15:25:01.000Z</time>
      </trkpt>
      <trkpt lat="48.35846" lon="-4.60047">
        <ele>85.800003051758</ele>
        <time>2022-03-30T15:25:03.000Z</time>
      </trkpt>
      <trkpt lat="48.35844" lon="-4.60059">
        <ele>86</ele>
        <time>2022-03-30T15:25:05.000Z</time>
      </trkpt>
      <trkpt lat="48.35841" lon="-4.6007">
        <ele>85.800003051758</ele>
        <time>2022-03-30T15:25:07.000Z</time>
      </trkpt>
      <trkpt lat="48.35838" lon="-4.6008">
        <ele>85.599998474121</ele>
        <time>2022-03-30T15:25:09.000Z</time>
      </trkpt>
      <trkpt lat="48.3583" lon="-4.601">
        <ele>85</ele>
        <time>2022-03-30T15:25:13.000Z</time>
      </trkpt>
      <trkpt lat="48.35825" lon="-4.60121">
        <ele>84.599998474121</ele>
        <time>2022-03-30T15:25:17.000Z</time>
      </trkpt>
      <trkpt lat="48.35822" lon="-4.60142">
        <ele>83.800003051758</ele>
        <time>2022-03-30T15:25:20.000Z</time>
      </trkpt>
      <trkpt lat="48.35821" lon="-4.6015">
        <ele>84</ele>
        <time>2022-03-30T15:25:21.000Z</time>
      </trkpt>
      <trkpt lat="48.3582" lon="-4.60195">
        <ele>84.599998474121</ele>
        <time>2022-03-30T15:25:27.000Z</time>
      </trkpt>
      <trkpt lat="48.35825" lon="-4.60208">
        <ele>85.199996948242</ele>
        <time>2022-03-30T15:25:29.000Z</time>
      </trkpt>
      <trkpt lat="48.35829" lon="-4.60219">
        <ele>85.800003051758</ele>
        <time>2022-03-30T15:25:31.000Z</time>
      </trkpt>
      <trkpt lat="48.3583" lon="-4.60225">
        <ele>86</ele>
        <time>2022-03-30T15:25:32.000Z</time>
      </trkpt>
      <trkpt lat="48.35834" lon="-4.60248">
        <ele>87</ele>
        <time>2022-03-30T15:25:36.000Z</time>
      </trkpt>
      <trkpt lat="48.35843" lon="-4.60289">
        <ele>88</ele>
        <time>2022-03-30T15:25:43.000Z</time>
      </trkpt>
      <trkpt lat="48.35846" lon="-4.60318">
        <ele>88.599998474121</ele>
        <time>2022-03-30T15:25:48.000Z</time>
      </trkpt>
      <trkpt lat="48.35847" lon="-4.6035">
        <ele>88.800003051758</ele>
        <time>2022-03-30T15:25:54.000Z</time>
      </trkpt>
      <trkpt lat="48.35849" lon="-4.60375">
        <ele>89.400001525879</ele>
        <time>2022-03-30T15:25:59.000Z</time>
      </trkpt>
      <trkpt lat="48.3585" lon="-4.60403">
        <ele>89.400001525879</ele>
        <time>2022-03-30T15:26:05.000Z</time>
      </trkpt>
      <trkpt lat="48.35851" lon="-4.60408">
        <ele>89.199996948242</ele>
        <time>2022-03-30T15:26:06.000Z</time>
      </trkpt>
      <trkpt lat="48.35851" lon="-4.60418">
        <ele>88.800003051758</ele>
        <time>2022-03-30T15:26:08.000Z</time>
      </trkpt>
      <trkpt lat="48.35854" lon="-4.6044">
        <ele>88.800003051758</ele>
        <time>2022-03-30T15:26:12.000Z</time>
      </trkpt>
      <trkpt lat="48.35856" lon="-4.60453">
        <ele>89</ele>
        <time>2022-03-30T15:26:14.000Z</time>
      </trkpt>
      <trkpt lat="48.35858" lon="-4.60478">
        <ele>89</ele>
        <time>2022-03-30T15:26:17.000Z</time>
      </trkpt>
      <trkpt lat="48.35863" lon="-4.60526">
        <ele>90</ele>
        <time>2022-03-30T15:26:22.000Z</time>
      </trkpt>
      <trkpt lat="48.35863" lon="-4.60567">
        <ele>90</ele>
        <time>2022-03-30T15:26:26.000Z</time>
      </trkpt>
      <trkpt lat="48.35862" lon="-4.60577">
        <ele>89.599998474121</ele>
        <time>2022-03-30T15:26:27.000Z</time>
      </trkpt>
      <trkpt lat="48.35857" lon="-4.60646">
        <ele>88</ele>
        <time>2022-03-30T15:26:34.000Z</time>
      </trkpt>
      <trkpt lat="48.35857" lon="-4.60703">
        <ele>87</ele>
        <time>2022-03-30T15:26:40.000Z</time>
      </trkpt>
      <trkpt lat="48.35856" lon="-4.6072">
        <ele>87</ele>
        <time>2022-03-30T15:26:42.000Z</time>
      </trkpt>
      <trkpt lat="48.35851" lon="-4.60736">
        <ele>86.800003051758</ele>
        <time>2022-03-30T15:26:44.000Z</time>
      </trkpt>
      <trkpt lat="48.35832" lon="-4.60768">
        <ele>86.599998474121</ele>
        <time>2022-03-30T15:26:49.000Z</time>
      </trkpt>
      <trkpt lat="48.35807" lon="-4.60812">
        <ele>86.199996948242</ele>
        <time>2022-03-30T15:26:56.000Z</time>
      </trkpt>
      <trkpt lat="48.35779" lon="-4.6086">
        <ele>86</ele>
        <time>2022-03-30T15:27:03.000Z</time>
      </trkpt>
      <trkpt lat="48.35764" lon="-4.60903">
        <ele>85.400001525879</ele>
        <time>2022-03-30T15:27:08.000Z</time>
      </trkpt>
      <trkpt lat="48.35755" lon="-4.60939">
        <ele>85.400001525879</ele>
        <time>2022-03-30T15:27:13.000Z</time>
      </trkpt>
      <trkpt lat="48.35747" lon="-4.60978">
        <ele>85.199996948242</ele>
        <time>2022-03-30T15:27:19.000Z</time>
      </trkpt>
      <trkpt lat="48.35744" lon="-4.60992">
        <ele>85.599998474121</ele>
        <time>2022-03-30T15:27:21.000Z</time>
      </trkpt>
      <trkpt lat="48.35743" lon="-4.61006">
        <ele>86</ele>
        <time>2022-03-30T15:27:23.000Z</time>
      </trkpt>
      <trkpt lat="48.35744" lon="-4.61012">
        <ele>86</ele>
        <time>2022-03-30T15:27:24.000Z</time>
      </trkpt>
      <trkpt lat="48.35747" lon="-4.61017">
        <ele>86</ele>
        <time>2022-03-30T15:27:25.000Z</time>
      </trkpt>
      <trkpt lat="48.35754" lon="-4.6102">
        <ele>86.400001525879</ele>
        <time>2022-03-30T15:27:27.000Z</time>
      </trkpt>
      <trkpt lat="48.35759" lon="-4.6102">
        <ele>86.599998474121</ele>
        <time>2022-03-30T15:27:28.000Z</time>
      </trkpt>
      <trkpt lat="48.3578" lon="-4.61027">
        <ele>88.400001525879</ele>
        <time>2022-03-30T15:27:33.000Z</time>
      </trkpt>
      <trkpt lat="48.35814" lon="-4.61042">
        <ele>90</ele>
        <time>2022-03-30T15:27:40.000Z</time>
      </trkpt>
      <trkpt lat="48.35817" lon="-4.61053">
        <ele>90</ele>
        <time>2022-03-30T15:27:42.000Z</time>
      </trkpt>
      <trkpt lat="48.35816" lon="-4.61075">
        <ele>90.599998474121</ele>
        <time>2022-03-30T15:27:45.000Z</time>
      </trkpt>
      <trkpt lat="48.35816" lon="-4.61082">
        <ele>90.800003051758</ele>
        <time>2022-03-30T15:27:46.000Z</time>
      </trkpt>
      <trkpt lat="48.35816" lon="-4.61103">
        <ele>91</ele>
        <time>2022-03-30T15:27:49.000Z</time>
      </trkpt>
      <trkpt lat="48.35815" lon="-4.6111">
        <ele>91</ele>
        <time>2022-03-30T15:27:50.000Z</time>
      </trkpt>
      <trkpt lat="48.35813" lon="-4.61124">
        <ele>91</ele>
        <time>2022-03-30T15:27:52.000Z</time>
      </trkpt>
      <trkpt lat="48.35805" lon="-4.61153">
        <ele>90.199996948242</ele>
        <time>2022-03-30T15:27:56.000Z</time>
      </trkpt>
      <trkpt lat="48.35794" lon="-4.61201">
        <ele>88.800003051758</ele>
        <time>2022-03-30T15:28:02.000Z</time>
      </trkpt>
      <trkpt lat="48.35794" lon="-4.61244">
        <ele>88</ele>
        <time>2022-03-30T15:28:07.000Z</time>
      </trkpt>
      <trkpt lat="48.35793" lon="-4.61252">
        <ele>88</ele>
        <time>2022-03-30T15:28:08.000Z</time>
      </trkpt>
      <trkpt lat="48.35791" lon="-4.61259">
        <ele>88.199996948242</ele>
        <time>2022-03-30T15:28:09.000Z</time>
      </trkpt>
      <trkpt lat="48.3579" lon="-4.61272">
        <ele>88.599998474121</ele>
        <time>2022-03-30T15:28:11.000Z</time>
      </trkpt>
      <trkpt lat="48.35799" lon="-4.6128">
        <ele>89</ele>
        <time>2022-03-30T15:28:14.000Z</time>
      </trkpt>
      <trkpt lat="48.35818" lon="-4.61289">
        <ele>89.199996948242</ele>
        <time>2022-03-30T15:28:19.000Z</time>
      </trkpt>
      <trkpt lat="48.3585" lon="-4.61309">
        <ele>88.800003051758</ele>
        <time>2022-03-30T15:28:27.000Z</time>
      </trkpt>
      <trkpt lat="48.3588" lon="-4.61324">
        <ele>89.800003051758</ele>
        <time>2022-03-30T15:28:34.000Z</time>
      </trkpt>
      <trkpt lat="48.35911" lon="-4.61344">
        <ele>91.199996948242</ele>
        <time>2022-03-30T15:28:42.000Z</time>
      </trkpt>
      <trkpt lat="48.3592" lon="-4.61356">
        <ele>91.599998474121</ele>
        <time>2022-03-30T15:28:45.000Z</time>
      </trkpt>
      <trkpt lat="48.35925" lon="-4.61366">
        <ele>92</ele>
        <time>2022-03-30T15:28:47.000Z</time>
      </trkpt>
      <trkpt lat="48.35939" lon="-4.61392">
        <ele>93</ele>
        <time>2022-03-30T15:28:52.000Z</time>
      </trkpt>
      <trkpt lat="48.35944" lon="-4.61404">
        <ele>93</ele>
        <time>2022-03-30T15:28:54.000Z</time>
      </trkpt>
      <trkpt lat="48.35953" lon="-4.61421">
        <ele>93</ele>
        <time>2022-03-30T15:28:57.000Z</time>
      </trkpt>
      <trkpt lat="48.3596" lon="-4.6143">
        <ele>92.599998474121</ele>
        <time>2022-03-30T15:28:59.000Z</time>
      </trkpt>
      <trkpt lat="48.35971" lon="-4.61444">
        <ele>92</ele>
        <time>2022-03-30T15:29:02.000Z</time>
      </trkpt>
      <trkpt lat="48.35978" lon="-4.61454">
        <ele>91.800003051758</ele>
        <time>2022-03-30T15:29:04.000Z</time>
      </trkpt>
      <trkpt lat="48.35987" lon="-4.61474">
        <ele>91</ele>
        <time>2022-03-30T15:29:07.000Z</time>
      </trkpt>
      <trkpt lat="48.36007" lon="-4.61516">
        <ele>91</ele>
        <time>2022-03-30T15:29:14.000Z</time>
      </trkpt>
      <trkpt lat="48.36016" lon="-4.61531">
        <ele>91.400001525879</ele>
        <time>2022-03-30T15:29:17.000Z</time>
      </trkpt>
      <trkpt lat="48.36024" lon="-4.61538">
        <ele>92</ele>
        <time>2022-03-30T15:29:19.000Z</time>
      </trkpt>
      <trkpt lat="48.3605" lon="-4.61551">
        <ele>93</ele>
        <time>2022-03-30T15:29:25.000Z</time>
      </trkpt>
      <trkpt lat="48.36076" lon="-4.61557">
        <ele>93</ele>
        <time>2022-03-30T15:29:31.000Z</time>
      </trkpt>
      <trkpt lat="48.36085" lon="-4.61559">
        <ele>93</ele>
        <time>2022-03-30T15:29:33.000Z</time>
      </trkpt>
      <trkpt lat="48.36093" lon="-4.61556">
        <ele>93</ele>
        <time>2022-03-30T15:29:35.000Z</time>
      </trkpt>
      <trkpt lat="48.36097" lon="-4.61546">
        <ele>93</ele>
        <time>2022-03-30T15:29:37.000Z</time>
      </trkpt>
      <trkpt lat="48.36097" lon="-4.61541">
        <ele>93</ele>
        <time>2022-03-30T15:29:38.000Z</time>
      </trkpt>
      <trkpt lat="48.36099" lon="-4.61525">
        <ele>92.800003051758</ele>
        <time>2022-03-30T15:29:41.000Z</time>
      </trkpt>
      <trkpt lat="48.36101" lon="-4.61518">
        <ele>92.599998474121</ele>
        <time>2022-03-30T15:29:42.000Z</time>
      </trkpt>
      <trkpt lat="48.36104" lon="-4.61505">
        <ele>92.199996948242</ele>
        <time>2022-03-30T15:29:44.000Z</time>
      </trkpt>
      <trkpt lat="48.36109" lon="-4.61485">
        <ele>92</ele>
        <time>2022-03-30T15:29:47.000Z</time>
      </trkpt>
      <trkpt lat="48.36114" lon="-4.61451">
        <ele>91.199996948242</ele>
        <time>2022-03-30T15:29:52.000Z</time>
      </trkpt>
      <trkpt lat="48.36115" lon="-4.61445">
        <ele>91</ele>
        <time>2022-03-30T15:29:53.000Z</time>
      </trkpt>
      <trkpt lat="48.36119" lon="-4.61416">
        <ele>90</ele>
        <time>2022-03-30T15:29:57.000Z</time>
      </trkpt>
      <trkpt lat="48.36119" lon="-4.61407">
        <ele>90</ele>
        <time>2022-03-30T15:29:58.000Z</time>
      </trkpt>
      <trkpt lat="48.36117" lon="-4.61377">
        <ele>90</ele>
        <time>2022-03-30T15:30:01.000Z</time>
      </trkpt>
      <trkpt lat="48.36118" lon="-4.61366">
        <ele>90</ele>
        <time>2022-03-30T15:30:02.000Z</time>
      </trkpt>
      <trkpt lat="48.36121" lon="-4.61356">
        <ele>90</ele>
        <time>2022-03-30T15:30:03.000Z</time>
      </trkpt>
      <trkpt lat="48.3613" lon="-4.61343">
        <ele>90</ele>
        <time>2022-03-30T15:30:05.000Z</time>
      </trkpt>
      <trkpt lat="48.36142" lon="-4.6134">
        <ele>90</ele>
        <time>2022-03-30T15:30:07.000Z</time>
      </trkpt>
      <trkpt lat="48.36149" lon="-4.6134">
        <ele>90</ele>
        <time>2022-03-30T15:30:08.000Z</time>
      </trkpt>
      <trkpt lat="48.3616" lon="-4.61339">
        <ele>90</ele>
        <time>2022-03-30T15:30:10.000Z</time>
      </trkpt>
      <trkpt lat="48.36171" lon="-4.61338">
        <ele>89.599998474121</ele>
        <time>2022-03-30T15:30:12.000Z</time>
      </trkpt>
      <trkpt lat="48.36187" lon="-4.61339">
        <ele>89.199996948242</ele>
        <time>2022-03-30T15:30:15.000Z</time>
      </trkpt>
      <trkpt lat="48.36195" lon="-4.61344">
        <ele>89.199996948242</ele>
        <time>2022-03-30T15:30:17.000Z</time>
      </trkpt>
      <trkpt lat="48.36203" lon="-4.61348">
        <ele>89.400001525879</ele>
        <time>2022-03-30T15:30:19.000Z</time>
      </trkpt>
      <trkpt lat="48.36211" lon="-4.61342">
        <ele>89.199996948242</ele>
        <time>2022-03-30T15:30:21.000Z</time>
      </trkpt>
      <trkpt lat="48.36225" lon="-4.61319">
        <ele>88.199996948242</ele>
        <time>2022-03-30T15:30:26.000Z</time>
      </trkpt>
      <trkpt lat="48.36241" lon="-4.61287">
        <ele>87.199996948242</ele>
        <time>2022-03-30T15:30:32.000Z</time>
      </trkpt>
      <trkpt lat="48.36244" lon="-4.61272">
        <ele>87</ele>
        <time>2022-03-30T15:30:34.000Z</time>
      </trkpt>
      <trkpt lat="48.36243" lon="-4.61233">
        <ele>87</ele>
        <time>2022-03-30T15:30:39.000Z</time>
      </trkpt>
      <trkpt lat="48.36242" lon="-4.61174">
        <ele>87.199996948242</ele>
        <time>2022-03-30T15:30:46.000Z</time>
      </trkpt>
      <trkpt lat="48.36245" lon="-4.61167">
        <ele>87</ele>
        <time>2022-03-30T15:30:47.000Z</time>
      </trkpt>
      <trkpt lat="48.36248" lon="-4.61162">
        <ele>86.599998474121</ele>
        <time>2022-03-30T15:30:48.000Z</time>
      </trkpt>
      <trkpt lat="48.36256" lon="-4.61156">
        <ele>86.199996948242</ele>
        <time>2022-03-30T15:30:50.000Z</time>
      </trkpt>
      <trkpt lat="48.36278" lon="-4.61148">
        <ele>85</ele>
        <time>2022-03-30T15:30:55.000Z</time>
      </trkpt>
      <trkpt lat="48.3631" lon="-4.61134">
        <ele>84.599998474121</ele>
        <time>2022-03-30T15:31:01.000Z</time>
      </trkpt>
      <trkpt lat="48.36334" lon="-4.61127">
        <ele>83.599998474121</ele>
        <time>2022-03-30T15:31:05.000Z</time>
      </trkpt>
      <trkpt lat="48.3634" lon="-4.61124">
        <ele>83.199996948242</ele>
        <time>2022-03-30T15:31:06.000Z</time>
      </trkpt>
      <trkpt lat="48.36357" lon="-4.61114">
        <ele>82</ele>
        <time>2022-03-30T15:31:09.000Z</time>
      </trkpt>
      <trkpt lat="48.36363" lon="-4.61112">
        <ele>81.400001525879</ele>
        <time>2022-03-30T15:31:10.000Z</time>
      </trkpt>
      <trkpt lat="48.3637" lon="-4.61114">
        <ele>80.599998474121</ele>
        <time>2022-03-30T15:31:11.000Z</time>
      </trkpt>
      <trkpt lat="48.36376" lon="-4.61118">
        <ele>80</ele>
        <time>2022-03-30T15:31:12.000Z</time>
      </trkpt>
      <trkpt lat="48.36382" lon="-4.61123">
        <ele>79.599998474121</ele>
        <time>2022-03-30T15:31:13.000Z</time>
      </trkpt>
      <trkpt lat="48.36395" lon="-4.61127">
        <ele>78.800003051758</ele>
        <time>2022-03-30T15:31:15.000Z</time>
      </trkpt>
      <trkpt lat="48.36431" lon="-4.61121">
        <ele>77.199996948242</ele>
        <time>2022-03-30T15:31:21.000Z</time>
      </trkpt>
      <trkpt lat="48.36466" lon="-4.61114">
        <ele>77</ele>
        <time>2022-03-30T15:31:27.000Z</time>
      </trkpt>
      <trkpt lat="48.36477" lon="-4.61114">
        <ele>76.400001525879</ele>
        <time>2022-03-30T15:31:29.000Z</time>
      </trkpt>
      <trkpt lat="48.36482" lon="-4.61118">
        <ele>76</ele>
        <time>2022-03-30T15:31:30.000Z</time>
      </trkpt>
      <trkpt lat="48.36486" lon="-4.61125">
        <ele>75.800003051758</ele>
        <time>2022-03-30T15:31:31.000Z</time>
      </trkpt>
      <trkpt lat="48.36492" lon="-4.6114">
        <ele>76</ele>
        <time>2022-03-30T15:31:33.000Z</time>
      </trkpt>
      <trkpt lat="48.36494" lon="-4.61148">
        <ele>76.199996948242</ele>
        <time>2022-03-30T15:31:34.000Z</time>
      </trkpt>
      <trkpt lat="48.36516" lon="-4.61225">
        <ele>79</ele>
        <time>2022-03-30T15:31:44.000Z</time>
      </trkpt>
      <trkpt lat="48.36533" lon="-4.61265">
        <ele>79.599998474121</ele>
        <time>2022-03-30T15:31:50.000Z</time>
      </trkpt>
      <trkpt lat="48.36545" lon="-4.61289">
        <ele>79</ele>
        <time>2022-03-30T15:31:54.000Z</time>
      </trkpt>
      <trkpt lat="48.36546" lon="-4.61296">
        <ele>78.599998474121</ele>
        <time>2022-03-30T15:31:55.000Z</time>
      </trkpt>
      <trkpt lat="48.36545" lon="-4.61302">
        <ele>78.400001525879</ele>
        <time>2022-03-30T15:31:56.000Z</time>
      </trkpt>
      <trkpt lat="48.3654" lon="-4.6132">
        <ele>78</ele>
        <time>2022-03-30T15:31:59.000Z</time>
      </trkpt>
      <trkpt lat="48.36533" lon="-4.61355">
        <ele>78.400001525879</ele>
        <time>2022-03-30T15:32:05.000Z</time>
      </trkpt>
      <trkpt lat="48.36523" lon="-4.61396">
        <ele>80.199996948242</ele>
        <time>2022-03-30T15:32:12.000Z</time>
      </trkpt>
      <trkpt lat="48.36519" lon="-4.61429">
        <ele>82.599998474121</ele>
        <time>2022-03-30T15:32:18.000Z</time>
      </trkpt>
      <trkpt lat="48.36515" lon="-4.61464">
        <ele>83.400001525879</ele>
        <time>2022-03-30T15:32:24.000Z</time>
      </trkpt>
      <trkpt lat="48.36511" lon="-4.61499">
        <ele>83.400001525879</ele>
        <time>2022-03-30T15:32:29.000Z</time>
      </trkpt>
      <trkpt lat="48.3651" lon="-4.61506">
        <ele>83.400001525879</ele>
        <time>2022-03-30T15:32:30.000Z</time>
      </trkpt>
      <trkpt lat="48.36504" lon="-4.61551">
        <ele>82</ele>
        <time>2022-03-30T15:32:36.000Z</time>
      </trkpt>
      <trkpt lat="48.36497" lon="-4.61599">
        <ele>80.599998474121</ele>
        <time>2022-03-30T15:32:42.000Z</time>
      </trkpt>
      <trkpt lat="48.36496" lon="-4.61606">
        <ele>80.199996948242</ele>
        <time>2022-03-30T15:32:45.000Z</time>
      </trkpt>
      <trkpt lat="48.36496" lon="-4.61609">
        <ele>80.199996948242</ele>
        <time>2022-03-30T15:32:51.000Z</time>
      </trkpt>
      <trkpt lat="48.36496" lon="-4.61612">
        <ele>80.199996948242</ele>
        <time>2022-03-30T15:32:52.000Z</time>
      </trkpt>
      <trkpt lat="48.36495" lon="-4.61616">
        <ele>80</ele>
        <time>2022-03-30T15:32:53.000Z</time>
      </trkpt>
      <trkpt lat="48.36493" lon="-4.61646">
        <ele>79</ele>
        <time>2022-03-30T15:32:58.000Z</time>
      </trkpt>
      <trkpt lat="48.36495" lon="-4.61687">
        <ele>77.400001525879</ele>
        <time>2022-03-30T15:33:03.000Z</time>
      </trkpt>
      <trkpt lat="48.36499" lon="-4.61756">
        <ele>75.800003051758</ele>
        <time>2022-03-30T15:33:10.000Z</time>
      </trkpt>
      <trkpt lat="48.36502" lon="-4.61818">
        <ele>75.599998474121</ele>
        <time>2022-03-30T15:33:16.000Z</time>
      </trkpt>
      <trkpt lat="48.36497" lon="-4.61873">
        <ele>75</ele>
        <time>2022-03-30T15:33:22.000Z</time>
      </trkpt>
      <trkpt lat="48.36493" lon="-4.61907">
        <ele>75.199996948242</ele>
        <time>2022-03-30T15:33:26.000Z</time>
      </trkpt>
      <trkpt lat="48.36491" lon="-4.61922">
        <ele>75.199996948242</ele>
        <time>2022-03-30T15:33:28.000Z</time>
      </trkpt>
      <trkpt lat="48.36495" lon="-4.61935">
        <ele>75</ele>
        <time>2022-03-30T15:33:30.000Z</time>
      </trkpt>
      <trkpt lat="48.36515" lon="-4.61947">
        <ele>73.599998474121</ele>
        <time>2022-03-30T15:33:34.000Z</time>
      </trkpt>
      <trkpt lat="48.36522" lon="-4.6196">
        <ele>73.599998474121</ele>
        <time>2022-03-30T15:33:36.000Z</time>
      </trkpt>
      <trkpt lat="48.36522" lon="-4.61967">
        <ele>73.800003051758</ele>
        <time>2022-03-30T15:33:37.000Z</time>
      </trkpt>
      <trkpt lat="48.3652" lon="-4.61973">
        <ele>74.199996948242</ele>
        <time>2022-03-30T15:33:38.000Z</time>
      </trkpt>
      <trkpt lat="48.36513" lon="-4.61992">
        <ele>74.800003051758</ele>
        <time>2022-03-30T15:33:41.000Z</time>
      </trkpt>
      <trkpt lat="48.36504" lon="-4.62011">
        <ele>75.800003051758</ele>
        <time>2022-03-30T15:33:44.000Z</time>
      </trkpt>
      <trkpt lat="48.36493" lon="-4.62027">
        <ele>76.800003051758</ele>
        <time>2022-03-30T15:33:47.000Z</time>
      </trkpt>
      <trkpt lat="48.36488" lon="-4.62039">
        <ele>77</ele>
        <time>2022-03-30T15:33:49.000Z</time>
      </trkpt>
      <trkpt lat="48.36485" lon="-4.62053">
        <ele>77</ele>
        <time>2022-03-30T15:33:51.000Z</time>
      </trkpt>
      <trkpt lat="48.36483" lon="-4.6206">
        <ele>77</ele>
        <time>2022-03-30T15:33:52.000Z</time>
      </trkpt>
      <trkpt lat="48.36479" lon="-4.62097">
        <ele>76.599998474121</ele>
        <time>2022-03-30T15:33:57.000Z</time>
      </trkpt>
      <trkpt lat="48.36475" lon="-4.62141">
        <ele>76.800003051758</ele>
        <time>2022-03-30T15:34:03.000Z</time>
      </trkpt>
      <trkpt lat="48.36476" lon="-4.62203">
        <ele>75.800003051758</ele>
        <time>2022-03-30T15:34:11.000Z</time>
      </trkpt>
      <trkpt lat="48.36471" lon="-4.62252">
        <ele>76</ele>
        <time>2022-03-30T15:34:17.000Z</time>
      </trkpt>
      <trkpt lat="48.36469" lon="-4.62259">
        <ele>76</ele>
        <time>2022-03-30T15:34:18.000Z</time>
      </trkpt>
      <trkpt lat="48.36462" lon="-4.62272">
        <ele>76</ele>
        <time>2022-03-30T15:34:20.000Z</time>
      </trkpt>
      <trkpt lat="48.36458" lon="-4.62278">
        <ele>76</ele>
        <time>2022-03-30T15:34:21.000Z</time>
      </trkpt>
      <trkpt lat="48.36455" lon="-4.62285">
        <ele>75.800003051758</ele>
        <time>2022-03-30T15:34:22.000Z</time>
      </trkpt>
      <trkpt lat="48.36452" lon="-4.62303">
        <ele>75.199996948242</ele>
        <time>2022-03-30T15:34:24.000Z</time>
      </trkpt>
      <trkpt lat="48.36446" lon="-4.62365">
        <ele>75</ele>
        <time>2022-03-30T15:34:30.000Z</time>
      </trkpt>
      <trkpt lat="48.36445" lon="-4.62373">
        <ele>75</ele>
        <time>2022-03-30T15:34:31.000Z</time>
      </trkpt>
      <trkpt lat="48.36446" lon="-4.62379">
        <ele>75</ele>
        <time>2022-03-30T15:34:32.000Z</time>
      </trkpt>
      <trkpt lat="48.36448" lon="-4.6238">
        <ele>75</ele>
        <time>2022-03-30T15:34:33.000Z</time>
      </trkpt>
      <trkpt lat="48.36451" lon="-4.62378">
        <ele>75</ele>
        <time>2022-03-30T15:34:34.000Z</time>
      </trkpt>
      <trkpt lat="48.36462" lon="-4.62377">
        <ele>75</ele>
        <time>2022-03-30T15:34:38.000Z</time>
      </trkpt>
      <trkpt lat="48.36485" lon="-4.62386">
        <ele>74.400001525879</ele>
        <time>2022-03-30T15:34:44.000Z</time>
      </trkpt>
      <trkpt lat="48.36524" lon="-4.62407">
        <ele>73</ele>
        <time>2022-03-30T15:34:53.000Z</time>
      </trkpt>
      <trkpt lat="48.36528" lon="-4.62411">
        <ele>72.800003051758</ele>
        <time>2022-03-30T15:34:54.000Z</time>
      </trkpt>
      <trkpt lat="48.36529" lon="-4.62417">
        <ele>72.800003051758</ele>
        <time>2022-03-30T15:34:55.000Z</time>
      </trkpt>
      <trkpt lat="48.36528" lon="-4.62422">
        <ele>72.599998474121</ele>
        <time>2022-03-30T15:34:56.000Z</time>
      </trkpt>
      <trkpt lat="48.36517" lon="-4.62456">
        <ele>71.599998474121</ele>
        <time>2022-03-30T15:35:01.000Z</time>
      </trkpt>
      <trkpt lat="48.36498" lon="-4.62527">
        <ele>69.199996948242</ele>
        <time>2022-03-30T15:35:09.000Z</time>
      </trkpt>
      <trkpt lat="48.36485" lon="-4.62571">
        <ele>68</ele>
        <time>2022-03-30T15:35:14.000Z</time>
      </trkpt>
      <trkpt lat="48.3648" lon="-4.62579">
        <ele>67.800003051758</ele>
        <time>2022-03-30T15:35:15.000Z</time>
      </trkpt>
      <trkpt lat="48.36466" lon="-4.626">
        <ele>68</ele>
        <time>2022-03-30T15:35:18.000Z</time>
      </trkpt>
      <trkpt lat="48.3646" lon="-4.62606">
        <ele>68</ele>
        <time>2022-03-30T15:35:19.000Z</time>
      </trkpt>
      <trkpt lat="48.36442" lon="-4.62619">
        <ele>68</ele>
        <time>2022-03-30T15:35:22.000Z</time>
      </trkpt>
      <trkpt lat="48.36433" lon="-4.6263">
        <ele>67.800003051758</ele>
        <time>2022-03-30T15:35:24.000Z</time>
      </trkpt>
      <trkpt lat="48.36424" lon="-4.62641">
        <ele>67.400001525879</ele>
        <time>2022-03-30T15:35:26.000Z</time>
      </trkpt>
      <trkpt lat="48.36414" lon="-4.62648">
        <ele>67</ele>
        <time>2022-03-30T15:35:28.000Z</time>
      </trkpt>
      <trkpt lat="48.36409" lon="-4.62652">
        <ele>67.199996948242</ele>
        <time>2022-03-30T15:35:29.000Z</time>
      </trkpt>
      <trkpt lat="48.36403" lon="-4.62666">
        <ele>67.400001525879</ele>
        <time>2022-03-30T15:35:31.000Z</time>
      </trkpt>
      <trkpt lat="48.36388" lon="-4.62719">
        <ele>68.800003051758</ele>
        <time>2022-03-30T15:35:38.000Z</time>
      </trkpt>
      <trkpt lat="48.36383" lon="-4.62733">
        <ele>69.199996948242</ele>
        <time>2022-03-30T15:35:40.000Z</time>
      </trkpt>
      <trkpt lat="48.36374" lon="-4.62753">
        <ele>69.800003051758</ele>
        <time>2022-03-30T15:35:43.000Z</time>
      </trkpt>
      <trkpt lat="48.36352" lon="-4.62799">
        <ele>70.599998474121</ele>
        <time>2022-03-30T15:35:50.000Z</time>
      </trkpt>
      <trkpt lat="48.36332" lon="-4.62846">
        <ele>69.599998474121</ele>
        <time>2022-03-30T15:35:57.000Z</time>
      </trkpt>
      <trkpt lat="48.3631" lon="-4.62901">
        <ele>69.800003051758</ele>
        <time>2022-03-30T15:36:05.000Z</time>
      </trkpt>
      <trkpt lat="48.36308" lon="-4.62907">
        <ele>69.800003051758</ele>
        <time>2022-03-30T15:36:06.000Z</time>
      </trkpt>
      <trkpt lat="48.3631" lon="-4.62919">
        <ele>69.800003051758</ele>
        <time>2022-03-30T15:36:08.000Z</time>
      </trkpt>
      <trkpt lat="48.36329" lon="-4.62938">
        <ele>69</ele>
        <time>2022-03-30T15:36:13.000Z</time>
      </trkpt>
      <trkpt lat="48.36355" lon="-4.6295">
        <ele>67.199996948242</ele>
        <time>2022-03-30T15:36:18.000Z</time>
      </trkpt>
      <trkpt lat="48.36399" lon="-4.62967">
        <ele>66.400001525879</ele>
        <time>2022-03-30T15:36:26.000Z</time>
      </trkpt>
      <trkpt lat="48.36431" lon="-4.62974">
        <ele>67</ele>
        <time>2022-03-30T15:36:32.000Z</time>
      </trkpt>
      <trkpt lat="48.36436" lon="-4.62976">
        <ele>67</ele>
        <time>2022-03-30T15:36:33.000Z</time>
      </trkpt>
      <trkpt lat="48.3644" lon="-4.6298">
        <ele>67</ele>
        <time>2022-03-30T15:36:34.000Z</time>
      </trkpt>
      <trkpt lat="48.36441" lon="-4.62985">
        <ele>67</ele>
        <time>2022-03-30T15:36:35.000Z</time>
      </trkpt>
      <trkpt lat="48.36442" lon="-4.6299">
        <ele>67</ele>
        <time>2022-03-30T15:36:36.000Z</time>
      </trkpt>
      <trkpt lat="48.3644" lon="-4.63001">
        <ele>67</ele>
        <time>2022-03-30T15:36:38.000Z</time>
      </trkpt>
      <trkpt lat="48.36438" lon="-4.63008">
        <ele>66.599998474121</ele>
        <time>2022-03-30T15:36:39.000Z</time>
      </trkpt>
      <trkpt lat="48.36433" lon="-4.63024">
        <ele>65.599998474121</ele>
        <time>2022-03-30T15:36:41.000Z</time>
      </trkpt>
      <trkpt lat="48.36432" lon="-4.63032">
        <ele>65</ele>
        <time>2022-03-30T15:36:42.000Z</time>
      </trkpt>
      <trkpt lat="48.36431" lon="-4.6304">
        <ele>65</ele>
        <time>2022-03-30T15:36:43.000Z</time>
      </trkpt>
      <trkpt lat="48.36431" lon="-4.63078">
        <ele>63.599998474121</ele>
        <time>2022-03-30T15:36:47.000Z</time>
      </trkpt>
      <trkpt lat="48.36432" lon="-4.6313">
        <ele>62.599998474121</ele>
        <time>2022-03-30T15:36:52.000Z</time>
      </trkpt>
      <trkpt lat="48.36438" lon="-4.63194">
        <ele>61.200000762939</ele>
        <time>2022-03-30T15:36:58.000Z</time>
      </trkpt>
      <trkpt lat="48.36439" lon="-4.63205">
        <ele>60.799999237061</ele>
        <time>2022-03-30T15:36:59.000Z</time>
      </trkpt>
      <trkpt lat="48.36447" lon="-4.63234">
        <ele>60</ele>
        <time>2022-03-30T15:37:02.000Z</time>
      </trkpt>
      <trkpt lat="48.36462" lon="-4.63255">
        <ele>60</ele>
        <time>2022-03-30T15:37:05.000Z</time>
      </trkpt>
      <trkpt lat="48.36481" lon="-4.6327">
        <ele>60</ele>
        <time>2022-03-30T15:37:08.000Z</time>
      </trkpt>
      <trkpt lat="48.36492" lon="-4.6328">
        <ele>60</ele>
        <time>2022-03-30T15:37:10.000Z</time>
      </trkpt>
      <trkpt lat="48.365" lon="-4.63294">
        <ele>59.400001525879</ele>
        <time>2022-03-30T15:37:13.000Z</time>
      </trkpt>
      <trkpt lat="48.36514" lon="-4.63301">
        <ele>58.599998474121</ele>
        <time>2022-03-30T15:37:17.000Z</time>
      </trkpt>
      <trkpt lat="48.36545" lon="-4.63318">
        <ele>58</ele>
        <time>2022-03-30T15:37:24.000Z</time>
      </trkpt>
      <trkpt lat="48.3657" lon="-4.63346">
        <ele>59.400001525879</ele>
        <time>2022-03-30T15:37:31.000Z</time>
      </trkpt>
      <trkpt lat="48.36598" lon="-4.63367">
        <ele>60</ele>
        <time>2022-03-30T15:37:38.000Z</time>
      </trkpt>
      <trkpt lat="48.36631" lon="-4.63381">
        <ele>60.599998474121</ele>
        <time>2022-03-30T15:37:46.000Z</time>
      </trkpt>
      <trkpt lat="48.36659" lon="-4.63393">
        <ele>61.799999237061</ele>
        <time>2022-03-30T15:37:53.000Z</time>
      </trkpt>
      <trkpt lat="48.36676" lon="-4.63397">
        <ele>62</ele>
        <time>2022-03-30T15:37:57.000Z</time>
      </trkpt>
      <trkpt lat="48.36685" lon="-4.63396">
        <ele>62</ele>
        <time>2022-03-30T15:37:59.000Z</time>
      </trkpt>
      <trkpt lat="48.36706" lon="-4.63403">
        <ele>63</ele>
        <time>2022-03-30T15:38:04.000Z</time>
      </trkpt>
      <trkpt lat="48.3671" lon="-4.63406">
        <ele>63.200000762939</ele>
        <time>2022-03-30T15:38:05.000Z</time>
      </trkpt>
      <trkpt lat="48.36714" lon="-4.6341">
        <ele>63.400001525879</ele>
        <time>2022-03-30T15:38:06.000Z</time>
      </trkpt>
      <trkpt lat="48.36726" lon="-4.63431">
        <ele>63.799999237061</ele>
        <time>2022-03-30T15:38:10.000Z</time>
      </trkpt>
      <trkpt lat="48.36729" lon="-4.63436">
        <ele>63.599998474121</ele>
        <time>2022-03-30T15:38:11.000Z</time>
      </trkpt>
      <trkpt lat="48.36743" lon="-4.63452">
        <ele>63.200000762939</ele>
        <time>2022-03-30T15:38:15.000Z</time>
      </trkpt>
      <trkpt lat="48.36751" lon="-4.63457">
        <ele>63.400001525879</ele>
        <time>2022-03-30T15:38:17.000Z</time>
      </trkpt>
      <trkpt lat="48.36768" lon="-4.63464">
        <ele>64</ele>
        <time>2022-03-30T15:38:21.000Z</time>
      </trkpt>
      <trkpt lat="48.36773" lon="-4.63466">
        <ele>64</ele>
        <time>2022-03-30T15:38:22.000Z</time>
      </trkpt>
      <trkpt lat="48.36799" lon="-4.63478">
        <ele>64</ele>
        <time>2022-03-30T15:38:28.000Z</time>
      </trkpt>
      <trkpt lat="48.36803" lon="-4.63479">
        <ele>64</ele>
        <time>2022-03-30T15:38:29.000Z</time>
      </trkpt>
      <trkpt lat="48.36822" lon="-4.63481">
        <ele>63.400001525879</ele>
        <time>2022-03-30T15:38:33.000Z</time>
      </trkpt>
      <trkpt lat="48.36835" lon="-4.63483">
        <ele>63</ele>
        <time>2022-03-30T15:38:36.000Z</time>
      </trkpt>
      <trkpt lat="48.36864" lon="-4.63488">
        <ele>62.200000762939</ele>
        <time>2022-03-30T15:38:42.000Z</time>
      </trkpt>
      <trkpt lat="48.36874" lon="-4.6349">
        <ele>61.799999237061</ele>
        <time>2022-03-30T15:38:44.000Z</time>
      </trkpt>
      <trkpt lat="48.36883" lon="-4.63485">
        <ele>61.200000762939</ele>
        <time>2022-03-30T15:38:46.000Z</time>
      </trkpt>
      <trkpt lat="48.36887" lon="-4.63472">
        <ele>61</ele>
        <time>2022-03-30T15:38:48.000Z</time>
      </trkpt>
      <trkpt lat="48.36888" lon="-4.63466">
        <ele>61</ele>
        <time>2022-03-30T15:38:49.000Z</time>
      </trkpt>
      <trkpt lat="48.36894" lon="-4.63419">
        <ele>60.599998474121</ele>
        <time>2022-03-30T15:38:56.000Z</time>
      </trkpt>
      <trkpt lat="48.36903" lon="-4.63372">
        <ele>60.400001525879</ele>
        <time>2022-03-30T15:39:02.000Z</time>
      </trkpt>
      <trkpt lat="48.36915" lon="-4.63307">
        <ele>60</ele>
        <time>2022-03-30T15:39:11.000Z</time>
      </trkpt>
      <trkpt lat="48.36932" lon="-4.63235">
        <ele>58.400001525879</ele>
        <time>2022-03-30T15:39:21.000Z</time>
      </trkpt>
      <trkpt lat="48.36938" lon="-4.63226">
        <ele>58</ele>
        <time>2022-03-30T15:39:23.000Z</time>
      </trkpt>
      <trkpt lat="48.36941" lon="-4.63221">
        <ele>57.799999237061</ele>
        <time>2022-03-30T15:39:24.000Z</time>
      </trkpt>
      <trkpt lat="48.36943" lon="-4.63215">
        <ele>57.599998474121</ele>
        <time>2022-03-30T15:39:25.000Z</time>
      </trkpt>
      <trkpt lat="48.36949" lon="-4.63191">
        <ele>57.200000762939</ele>
        <time>2022-03-30T15:39:28.000Z</time>
      </trkpt>
      <trkpt lat="48.36952" lon="-4.63184">
        <ele>57.400001525879</ele>
        <time>2022-03-30T15:39:29.000Z</time>
      </trkpt>
      <trkpt lat="48.36961" lon="-4.63171">
        <ele>57.799999237061</ele>
        <time>2022-03-30T15:39:31.000Z</time>
      </trkpt>
      <trkpt lat="48.36972" lon="-4.63167">
        <ele>58.200000762939</ele>
        <time>2022-03-30T15:39:33.000Z</time>
      </trkpt>
      <trkpt lat="48.36983" lon="-4.63183">
        <ele>57.599998474121</ele>
        <time>2022-03-30T15:39:36.000Z</time>
      </trkpt>
      <trkpt lat="48.37001" lon="-4.63207">
        <ele>57.599998474121</ele>
        <time>2022-03-30T15:39:40.000Z</time>
      </trkpt>
      <trkpt lat="48.37012" lon="-4.63216">
        <ele>57</ele>
        <time>2022-03-30T15:39:42.000Z</time>
      </trkpt>
      <trkpt lat="48.37029" lon="-4.63222">
        <ele>57</ele>
        <time>2022-03-30T15:39:45.000Z</time>
      </trkpt>
      <trkpt lat="48.37036" lon="-4.63225">
        <ele>57</ele>
        <time>2022-03-30T15:39:46.000Z</time>
      </trkpt>
      <trkpt lat="48.37078" lon="-4.63243">
        <ele>58</ele>
        <time>2022-03-30T15:39:52.000Z</time>
      </trkpt>
      <trkpt lat="48.37131" lon="-4.63264">
        <ele>56.599998474121</ele>
        <time>2022-03-30T15:40:00.000Z</time>
      </trkpt>
      <trkpt lat="48.37174" lon="-4.63278">
        <ele>55.799999237061</ele>
        <time>2022-03-30T15:40:07.000Z</time>
      </trkpt>
      <trkpt lat="48.3718" lon="-4.63282">
        <ele>56</ele>
        <time>2022-03-30T15:40:08.000Z</time>
      </trkpt>
      <trkpt lat="48.37183" lon="-4.63288">
        <ele>56</ele>
        <time>2022-03-30T15:40:09.000Z</time>
      </trkpt>
      <trkpt lat="48.37183" lon="-4.633">
        <ele>56</ele>
        <time>2022-03-30T15:40:11.000Z</time>
      </trkpt>
      <trkpt lat="48.37176" lon="-4.63336">
        <ele>56</ele>
        <time>2022-03-30T15:40:15.000Z</time>
      </trkpt>
      <trkpt lat="48.37166" lon="-4.63386">
        <ele>55.200000762939</ele>
        <time>2022-03-30T15:40:20.000Z</time>
      </trkpt>
      <trkpt lat="48.37167" lon="-4.63394">
        <ele>55</ele>
        <time>2022-03-30T15:40:21.000Z</time>
      </trkpt>
      <trkpt lat="48.37173" lon="-4.63405">
        <ele>55</ele>
        <time>2022-03-30T15:40:24.000Z</time>
      </trkpt>
      <trkpt lat="48.37177" lon="-4.63407">
        <ele>55</ele>
        <time>2022-03-30T15:40:25.000Z</time>
      </trkpt>
      <trkpt lat="48.37189" lon="-4.63403">
        <ele>55</ele>
        <time>2022-03-30T15:40:27.000Z</time>
      </trkpt>
      <trkpt lat="48.37194" lon="-4.634">
        <ele>54.799999237061</ele>
        <time>2022-03-30T15:40:28.000Z</time>
      </trkpt>
      <trkpt lat="48.37211" lon="-4.63399">
        <ele>54.200000762939</ele>
        <time>2022-03-30T15:40:31.000Z</time>
      </trkpt>
      <trkpt lat="48.37241" lon="-4.634">
        <ele>54</ele>
        <time>2022-03-30T15:40:36.000Z</time>
      </trkpt>
      <trkpt lat="48.37269" lon="-4.63398">
        <ele>54.799999237061</ele>
        <time>2022-03-30T15:40:41.000Z</time>
      </trkpt>
      <trkpt lat="48.37295" lon="-4.63393">
        <ele>55</ele>
        <time>2022-03-30T15:40:46.000Z</time>
      </trkpt>
      <trkpt lat="48.3732" lon="-4.63382">
        <ele>54</ele>
        <time>2022-03-30T15:40:51.000Z</time>
      </trkpt>
      <trkpt lat="48.37326" lon="-4.63379">
        <ele>53.799999237061</ele>
        <time>2022-03-30T15:40:52.000Z</time>
      </trkpt>
      <trkpt lat="48.37351" lon="-4.63367">
        <ele>52.400001525879</ele>
        <time>2022-03-30T15:40:57.000Z</time>
      </trkpt>
      <trkpt lat="48.37384" lon="-4.63355">
        <ele>52</ele>
        <time>2022-03-30T15:41:03.000Z</time>
      </trkpt>
      <trkpt lat="48.37417" lon="-4.63347">
        <ele>50.799999237061</ele>
        <time>2022-03-30T15:41:09.000Z</time>
      </trkpt>
      <trkpt lat="48.37443" lon="-4.63345">
        <ele>50.400001525879</ele>
        <time>2022-03-30T15:41:14.000Z</time>
      </trkpt>
      <trkpt lat="48.37453" lon="-4.63345">
        <ele>50.799999237061</ele>
        <time>2022-03-30T15:41:16.000Z</time>
      </trkpt>
      <trkpt lat="48.37469" lon="-4.63342">
        <ele>50.799999237061</ele>
        <time>2022-03-30T15:41:19.000Z</time>
      </trkpt>
      <trkpt lat="48.37512" lon="-4.63337">
        <ele>49.400001525879</ele>
        <time>2022-03-30T15:41:27.000Z</time>
      </trkpt>
      <trkpt lat="48.3755" lon="-4.63335">
        <ele>49</ele>
        <time>2022-03-30T15:41:34.000Z</time>
      </trkpt>
      <trkpt lat="48.37596" lon="-4.63333">
        <ele>48.799999237061</ele>
        <time>2022-03-30T15:41:42.000Z</time>
      </trkpt>
      <trkpt lat="48.37607" lon="-4.63334">
        <ele>48.799999237061</ele>
        <time>2022-03-30T15:41:44.000Z</time>
      </trkpt>
      <trkpt lat="48.37616" lon="-4.6334">
        <ele>48.599998474121</ele>
        <time>2022-03-30T15:41:46.000Z</time>
      </trkpt>
      <trkpt lat="48.37615" lon="-4.63349">
        <ele>48.799999237061</ele>
        <time>2022-03-30T15:41:48.000Z</time>
      </trkpt>
      <trkpt lat="48.37603" lon="-4.63376">
        <ele>49.400001525879</ele>
        <time>2022-03-30T15:41:52.000Z</time>
      </trkpt>
      <trkpt lat="48.37583" lon="-4.63422">
        <ele>50</ele>
        <time>2022-03-30T15:41:58.000Z</time>
      </trkpt>
      <trkpt lat="48.37563" lon="-4.63471">
        <ele>49.200000762939</ele>
        <time>2022-03-30T15:42:04.000Z</time>
      </trkpt>
      <trkpt lat="48.37559" lon="-4.6348">
        <ele>49</ele>
        <time>2022-03-30T15:42:05.000Z</time>
      </trkpt>
      <trkpt lat="48.37559" lon="-4.63498">
        <ele>49</ele>
        <time>2022-03-30T15:42:07.000Z</time>
      </trkpt>
      <trkpt lat="48.37563" lon="-4.63514">
        <ele>48.599998474121</ele>
        <time>2022-03-30T15:42:09.000Z</time>
      </trkpt>
      <trkpt lat="48.37563" lon="-4.63521">
        <ele>48.599998474121</ele>
        <time>2022-03-30T15:42:10.000Z</time>
      </trkpt>
      <trkpt lat="48.3756" lon="-4.63528">
        <ele>48.599998474121</ele>
        <time>2022-03-30T15:42:11.000Z</time>
      </trkpt>
      <trkpt lat="48.37553" lon="-4.63552">
        <ele>48.200000762939</ele>
        <time>2022-03-30T15:42:14.000Z</time>
      </trkpt>
      <trkpt lat="48.37544" lon="-4.63598">
        <ele>47.400001525879</ele>
        <time>2022-03-30T15:42:19.000Z</time>
      </trkpt>
      <trkpt lat="48.37542" lon="-4.63616">
        <ele>46.599998474121</ele>
        <time>2022-03-30T15:42:21.000Z</time>
      </trkpt>
      <trkpt lat="48.37537" lon="-4.63653">
        <ele>45.799999237061</ele>
        <time>2022-03-30T15:42:25.000Z</time>
      </trkpt>
      <trkpt lat="48.37534" lon="-4.63672">
        <ele>46.400001525879</ele>
        <time>2022-03-30T15:42:27.000Z</time>
      </trkpt>
      <trkpt lat="48.37527" lon="-4.63723">
        <ele>47</ele>
        <time>2022-03-30T15:42:33.000Z</time>
      </trkpt>
      <trkpt lat="48.37526" lon="-4.63732">
        <ele>47</ele>
        <time>2022-03-30T15:42:34.000Z</time>
      </trkpt>
      <trkpt lat="48.37524" lon="-4.63756">
        <ele>47</ele>
        <time>2022-03-30T15:42:37.000Z</time>
      </trkpt>
      <trkpt lat="48.37519" lon="-4.63789">
        <ele>48.200000762939</ele>
        <time>2022-03-30T15:42:41.000Z</time>
      </trkpt>
      <trkpt lat="48.37518" lon="-4.63796">
        <ele>48.599998474121</ele>
        <time>2022-03-30T15:42:42.000Z</time>
      </trkpt>
      <trkpt lat="48.37523" lon="-4.63807">
        <ele>49</ele>
        <time>2022-03-30T15:42:44.000Z</time>
      </trkpt>
      <trkpt lat="48.37533" lon="-4.63809">
        <ele>49.200000762939</ele>
        <time>2022-03-30T15:42:46.000Z</time>
      </trkpt>
      <trkpt lat="48.37543" lon="-4.63811">
        <ele>49.599998474121</ele>
        <time>2022-03-30T15:42:48.000Z</time>
      </trkpt>
      <trkpt lat="48.37558" lon="-4.63814">
        <ele>50</ele>
        <time>2022-03-30T15:42:51.000Z</time>
      </trkpt>
      <trkpt lat="48.37568" lon="-4.63821">
        <ele>50</ele>
        <time>2022-03-30T15:42:53.000Z</time>
      </trkpt>
      <trkpt lat="48.3757" lon="-4.63834">
        <ele>50</ele>
        <time>2022-03-30T15:42:55.000Z</time>
      </trkpt>
      <trkpt lat="48.37567" lon="-4.63847">
        <ele>50</ele>
        <time>2022-03-30T15:42:57.000Z</time>
      </trkpt>
      <trkpt lat="48.37564" lon="-4.63853">
        <ele>50</ele>
        <time>2022-03-30T15:42:58.000Z</time>
      </trkpt>
      <trkpt lat="48.37561" lon="-4.63858">
        <ele>50</ele>
        <time>2022-03-30T15:42:59.000Z</time>
      </trkpt>
      <trkpt lat="48.3755" lon="-4.63874">
        <ele>49.599998474121</ele>
        <time>2022-03-30T15:43:02.000Z</time>
      </trkpt>
      <trkpt lat="48.37536" lon="-4.63896">
        <ele>49</ele>
        <time>2022-03-30T15:43:06.000Z</time>
      </trkpt>
      <trkpt lat="48.37528" lon="-4.63905">
        <ele>49</ele>
        <time>2022-03-30T15:43:08.000Z</time>
      </trkpt>
      <trkpt lat="48.37524" lon="-4.63909">
        <ele>49</ele>
        <time>2022-03-30T15:43:09.000Z</time>
      </trkpt>
      <trkpt lat="48.37515" lon="-4.63916">
        <ele>49</ele>
        <time>2022-03-30T15:43:11.000Z</time>
      </trkpt>
      <trkpt lat="48.37511" lon="-4.6392">
        <ele>49</ele>
        <time>2022-03-30T15:43:12.000Z</time>
      </trkpt>
      <trkpt lat="48.37508" lon="-4.63926">
        <ele>48.799999237061</ele>
        <time>2022-03-30T15:43:13.000Z</time>
      </trkpt>
      <trkpt lat="48.37501" lon="-4.63937">
        <ele>48.400001525879</ele>
        <time>2022-03-30T15:43:15.000Z</time>
      </trkpt>
      <trkpt lat="48.37497" lon="-4.63942">
        <ele>48.200000762939</ele>
        <time>2022-03-30T15:43:16.000Z</time>
      </trkpt>
      <trkpt lat="48.3748" lon="-4.63961">
        <ele>48</ele>
        <time>2022-03-30T15:43:20.000Z</time>
      </trkpt>
      <trkpt lat="48.37476" lon="-4.63966">
        <ele>48</ele>
        <time>2022-03-30T15:43:21.000Z</time>
      </trkpt>
      <trkpt lat="48.37473" lon="-4.63973">
        <ele>48</ele>
        <time>2022-03-30T15:43:22.000Z</time>
      </trkpt>
      <trkpt lat="48.37471" lon="-4.63987">
        <ele>48.400001525879</ele>
        <time>2022-03-30T15:43:24.000Z</time>
      </trkpt>
      <trkpt lat="48.37467" lon="-4.64016">
        <ele>49.400001525879</ele>
        <time>2022-03-30T15:43:29.000Z</time>
      </trkpt>
      <trkpt lat="48.37456" lon="-4.6403">
        <ele>49.400001525879</ele>
        <time>2022-03-30T15:43:33.000Z</time>
      </trkpt>
      <trkpt lat="48.37436" lon="-4.64038">
        <ele>49.200000762939</ele>
        <time>2022-03-30T15:43:39.000Z</time>
      </trkpt>
      <trkpt lat="48.37418" lon="-4.64034">
        <ele>49</ele>
        <time>2022-03-30T15:43:44.000Z</time>
      </trkpt>
      <trkpt lat="48.37397" lon="-4.64029">
        <ele>49.599998474121</ele>
        <time>2022-03-30T15:43:50.000Z</time>
      </trkpt>
      <trkpt lat="48.37383" lon="-4.64032">
        <ele>50</ele>
        <time>2022-03-30T15:43:54.000Z</time>
      </trkpt>
      <trkpt lat="48.37379" lon="-4.64049">
        <ele>49.400001525879</ele>
        <time>2022-03-30T15:43:57.000Z</time>
      </trkpt>
      <trkpt lat="48.37376" lon="-4.64062">
        <ele>49</ele>
        <time>2022-03-30T15:43:59.000Z</time>
      </trkpt>
      <trkpt lat="48.37376" lon="-4.64076">
        <ele>49</ele>
        <time>2022-03-30T15:44:02.000Z</time>
      </trkpt>
      <trkpt lat="48.37375" lon="-4.64087">
        <ele>49</ele>
        <time>2022-03-30T15:44:04.000Z</time>
      </trkpt>
      <trkpt lat="48.37374" lon="-4.64101">
        <ele>48.599998474121</ele>
        <time>2022-03-30T15:44:06.000Z</time>
      </trkpt>
      <trkpt lat="48.37373" lon="-4.64108">
        <ele>48.200000762939</ele>
        <time>2022-03-30T15:44:07.000Z</time>
      </trkpt>
      <trkpt lat="48.37376" lon="-4.64121">
        <ele>48</ele>
        <time>2022-03-30T15:44:09.000Z</time>
      </trkpt>
      <trkpt lat="48.37386" lon="-4.64138">
        <ele>48</ele>
        <time>2022-03-30T15:44:13.000Z</time>
      </trkpt>
      <trkpt lat="48.37391" lon="-4.64155">
        <ele>48.799999237061</ele>
        <time>2022-03-30T15:44:17.000Z</time>
      </trkpt>
      <trkpt lat="48.37394" lon="-4.64157">
        <ele>49.200000762939</ele>
        <time>2022-03-30T15:44:18.000Z</time>
      </trkpt>
      <trkpt lat="48.37402" lon="-4.6416">
        <ele>49.599998474121</ele>
        <time>2022-03-30T15:44:20.000Z</time>
      </trkpt>
      <trkpt lat="48.37406" lon="-4.64163">
        <ele>49.799999237061</ele>
        <time>2022-03-30T15:44:21.000Z</time>
      </trkpt>
      <trkpt lat="48.37415" lon="-4.64177">
        <ele>50</ele>
        <time>2022-03-30T15:44:24.000Z</time>
      </trkpt>
      <trkpt lat="48.37424" lon="-4.64191">
        <ele>50.200000762939</ele>
        <time>2022-03-30T15:44:28.000Z</time>
      </trkpt>
      <trkpt lat="48.37437" lon="-4.64209">
        <ele>51.200000762939</ele>
        <time>2022-03-30T15:44:33.000Z</time>
      </trkpt>
      <trkpt lat="48.37455" lon="-4.64216">
        <ele>51.599998474121</ele>
        <time>2022-03-30T15:44:38.000Z</time>
      </trkpt>
      <trkpt lat="48.37476" lon="-4.64221">
        <ele>51.799999237061</ele>
        <time>2022-03-30T15:44:44.000Z</time>
      </trkpt>
      <trkpt lat="48.37493" lon="-4.64226">
        <ele>51.200000762939</ele>
        <time>2022-03-30T15:44:48.000Z</time>
      </trkpt>
      <trkpt lat="48.37514" lon="-4.6423">
        <ele>51.200000762939</ele>
        <time>2022-03-30T15:44:53.000Z</time>
      </trkpt>
      <trkpt lat="48.37518" lon="-4.6423">
        <ele>51.200000762939</ele>
        <time>2022-03-30T15:44:54.000Z</time>
      </trkpt>
      <trkpt lat="48.37538" lon="-4.64227">
        <ele>51.599998474121</ele>
        <time>2022-03-30T15:44:59.000Z</time>
      </trkpt>
      <trkpt lat="48.37561" lon="-4.64231">
        <ele>52</ele>
        <time>2022-03-30T15:45:05.000Z</time>
      </trkpt>
      <trkpt lat="48.37571" lon="-4.64236">
        <ele>52</ele>
        <time>2022-03-30T15:45:08.000Z</time>
      </trkpt>
      <trkpt lat="48.37574" lon="-4.64232">
        <ele>52</ele>
        <time>2022-03-30T15:45:09.000Z</time>
      </trkpt>
      <trkpt lat="48.37593" lon="-4.64208">
        <ele>52.400001525879</ele>
        <time>2022-03-30T15:45:15.000Z</time>
      </trkpt>
      <trkpt lat="48.37613" lon="-4.64189">
        <ele>52.400001525879</ele>
        <time>2022-03-30T15:45:20.000Z</time>
      </trkpt>
      <trkpt lat="48.37616" lon="-4.64186">
        <ele>52.200000762939</ele>
        <time>2022-03-30T15:45:21.000Z</time>
      </trkpt>
      <trkpt lat="48.37627" lon="-4.64182">
        <ele>51.599998474121</ele>
        <time>2022-03-30T15:45:24.000Z</time>
      </trkpt>
      <trkpt lat="48.37631" lon="-4.64184">
        <ele>51.400001525879</ele>
        <time>2022-03-30T15:45:25.000Z</time>
      </trkpt>
      <trkpt lat="48.3764" lon="-4.64189">
        <ele>50.599998474121</ele>
        <time>2022-03-30T15:45:27.000Z</time>
      </trkpt>
      <trkpt lat="48.37643" lon="-4.64194">
        <ele>50.400001525879</ele>
        <time>2022-03-30T15:45:28.000Z</time>
      </trkpt>
      <trkpt lat="48.37647" lon="-4.642">
        <ele>50.200000762939</ele>
        <time>2022-03-30T15:45:29.000Z</time>
      </trkpt>
      <trkpt lat="48.37655" lon="-4.64216">
        <ele>50</ele>
        <time>2022-03-30T15:45:32.000Z</time>
      </trkpt>
      <trkpt lat="48.37659" lon="-4.6422">
        <ele>50</ele>
        <time>2022-03-30T15:45:33.000Z</time>
      </trkpt>
      <trkpt lat="48.3767" lon="-4.64233">
        <ele>49.799999237061</ele>
        <time>2022-03-30T15:45:36.000Z</time>
      </trkpt>
      <trkpt lat="48.37676" lon="-4.64243">
        <ele>49.599998474121</ele>
        <time>2022-03-30T15:45:38.000Z</time>
      </trkpt>
      <trkpt lat="48.37681" lon="-4.64264">
        <ele>50</ele>
        <time>2022-03-30T15:45:41.000Z</time>
      </trkpt>
      <trkpt lat="48.37682" lon="-4.64271">
        <ele>50</ele>
        <time>2022-03-30T15:45:42.000Z</time>
      </trkpt>
      <trkpt lat="48.37684" lon="-4.64337">
        <ele>50</ele>
        <time>2022-03-30T15:45:51.000Z</time>
      </trkpt>
      <trkpt lat="48.37684" lon="-4.64345">
        <ele>50.200000762939</ele>
        <time>2022-03-30T15:45:52.000Z</time>
      </trkpt>
      <trkpt lat="48.3769" lon="-4.64356">
        <ele>50.599998474121</ele>
        <time>2022-03-30T15:45:54.000Z</time>
      </trkpt>
      <trkpt lat="48.377" lon="-4.64358">
        <ele>50.799999237061</ele>
        <time>2022-03-30T15:45:56.000Z</time>
      </trkpt>
      <trkpt lat="48.37705" lon="-4.64358">
        <ele>50.799999237061</ele>
        <time>2022-03-30T15:45:57.000Z</time>
      </trkpt>
      <trkpt lat="48.37739" lon="-4.64357">
        <ele>51</ele>
        <time>2022-03-30T15:46:04.000Z</time>
      </trkpt>
      <trkpt lat="48.37774" lon="-4.64371">
        <ele>50</ele>
        <time>2022-03-30T15:46:11.000Z</time>
      </trkpt>
      <trkpt lat="48.37809" lon="-4.64385">
        <ele>50</ele>
        <time>2022-03-30T15:46:18.000Z</time>
      </trkpt>
      <trkpt lat="48.37842" lon="-4.64399">
        <ele>49.599998474121</ele>
        <time>2022-03-30T15:46:25.000Z</time>
      </trkpt>
      <trkpt lat="48.37846" lon="-4.644">
        <ele>49.400001525879</ele>
        <time>2022-03-30T15:46:26.000Z</time>
      </trkpt>
      <trkpt lat="48.37887" lon="-4.64417">
        <ele>48</ele>
        <time>2022-03-30T15:46:35.000Z</time>
      </trkpt>
      <trkpt lat="48.37921" lon="-4.64435">
        <ele>49.200000762939</ele>
        <time>2022-03-30T15:46:43.000Z</time>
      </trkpt>
      <trkpt lat="48.37946" lon="-4.64448">
        <ele>50</ele>
        <time>2022-03-30T15:46:49.000Z</time>
      </trkpt>
      <trkpt lat="48.37951" lon="-4.6445">
        <ele>50</ele>
        <time>2022-03-30T15:46:50.000Z</time>
      </trkpt>
      <trkpt lat="48.37959" lon="-4.64455">
        <ele>50.200000762939</ele>
        <time>2022-03-30T15:46:52.000Z</time>
      </trkpt>
      <trkpt lat="48.37972" lon="-4.64462">
        <ele>50.400001525879</ele>
        <time>2022-03-30T15:46:55.000Z</time>
      </trkpt>
      <trkpt lat="48.38004" lon="-4.64479">
        <ele>50</ele>
        <time>2022-03-30T15:47:03.000Z</time>
      </trkpt>
      <trkpt lat="48.38008" lon="-4.64481">
        <ele>50</ele>
        <time>2022-03-30T15:47:04.000Z</time>
      </trkpt>
      <trkpt lat="48.38029" lon="-4.64493">
        <ele>50</ele>
        <time>2022-03-30T15:47:09.000Z</time>
      </trkpt>
      <trkpt lat="48.38035" lon="-4.64502">
        <ele>50.200000762939</ele>
        <time>2022-03-30T15:47:11.000Z</time>
      </trkpt>
      <trkpt lat="48.38036" lon="-4.64508">
        <ele>50.599998474121</ele>
        <time>2022-03-30T15:47:12.000Z</time>
      </trkpt>
      <trkpt lat="48.38028" lon="-4.64522">
        <ele>50.799999237061</ele>
        <time>2022-03-30T15:47:15.000Z</time>
      </trkpt>
      <trkpt lat="48.38013" lon="-4.64541">
        <ele>51</ele>
        <time>2022-03-30T15:47:20.000Z</time>
      </trkpt>
      <trkpt lat="48.37997" lon="-4.64565">
        <ele>51</ele>
        <time>2022-03-30T15:47:25.000Z</time>
      </trkpt>
      <trkpt lat="48.37987" lon="-4.6458">
        <ele>51</ele>
        <time>2022-03-30T15:47:28.000Z</time>
      </trkpt>
      <trkpt lat="48.37984" lon="-4.64584">
        <ele>51</ele>
        <time>2022-03-30T15:47:29.000Z</time>
      </trkpt>
      <trkpt lat="48.37965" lon="-4.64611">
        <ele>50.400001525879</ele>
        <time>2022-03-30T15:47:35.000Z</time>
      </trkpt>
      <trkpt lat="48.37951" lon="-4.64631">
        <ele>50.599998474121</ele>
        <time>2022-03-30T15:47:39.000Z</time>
      </trkpt>
      <trkpt lat="48.37948" lon="-4.64637">
        <ele>50.799999237061</ele>
        <time>2022-03-30T15:47:40.000Z</time>
      </trkpt>
      <trkpt lat="48.37933" lon="-4.64661">
        <ele>51</ele>
        <time>2022-03-30T15:47:45.000Z</time>
      </trkpt>
      <trkpt lat="48.37922" lon="-4.64675">
        <ele>51</ele>
        <time>2022-03-30T15:47:48.000Z</time>
      </trkpt>
      <trkpt lat="48.37915" lon="-4.64685">
        <ele>51</ele>
        <time>2022-03-30T15:47:50.000Z</time>
      </trkpt>
      <trkpt lat="48.37896" lon="-4.64711">
        <ele>51</ele>
        <time>2022-03-30T15:47:55.000Z</time>
      </trkpt>
      <trkpt lat="48.37878" lon="-4.64735">
        <ele>51</ele>
        <time>2022-03-30T15:48:00.000Z</time>
      </trkpt>
      <trkpt lat="48.37855" lon="-4.64767">
        <ele>51</ele>
        <time>2022-03-30T15:48:06.000Z</time>
      </trkpt>
      <trkpt lat="48.37836" lon="-4.64792">
        <ele>51.400001525879</ele>
        <time>2022-03-30T15:48:11.000Z</time>
      </trkpt>
      <trkpt lat="48.37827" lon="-4.64813">
        <ele>52</ele>
        <time>2022-03-30T15:48:14.000Z</time>
      </trkpt>
      <trkpt lat="48.37826" lon="-4.64821">
        <ele>52.200000762939</ele>
        <time>2022-03-30T15:48:15.000Z</time>
      </trkpt>
      <trkpt lat="48.37824" lon="-4.64829">
        <ele>52.400001525879</ele>
        <time>2022-03-30T15:48:16.000Z</time>
      </trkpt>
      <trkpt lat="48.37819" lon="-4.64851">
        <ele>52.400001525879</ele>
        <time>2022-03-30T15:48:19.000Z</time>
      </trkpt>
      <trkpt lat="48.37808" lon="-4.64886">
        <ele>52</ele>
        <time>2022-03-30T15:48:24.000Z</time>
      </trkpt>
      <trkpt lat="48.37803" lon="-4.64898">
        <ele>52</ele>
        <time>2022-03-30T15:48:26.000Z</time>
      </trkpt>
      <trkpt lat="48.378" lon="-4.6491">
        <ele>52.200000762939</ele>
        <time>2022-03-30T15:48:28.000Z</time>
      </trkpt>
      <trkpt lat="48.37792" lon="-4.64936">
        <ele>52.799999237061</ele>
        <time>2022-03-30T15:48:32.000Z</time>
      </trkpt>
      <trkpt lat="48.3779" lon="-4.64943">
        <ele>52.799999237061</ele>
        <time>2022-03-30T15:48:33.000Z</time>
      </trkpt>
      <trkpt lat="48.37774" lon="-4.64975">
        <ele>54</ele>
        <time>2022-03-30T15:48:38.000Z</time>
      </trkpt>
      <trkpt lat="48.37771" lon="-4.6498">
        <ele>54.200000762939</ele>
        <time>2022-03-30T15:48:39.000Z</time>
      </trkpt>
      <trkpt lat="48.37766" lon="-4.64991">
        <ele>54.400001525879</ele>
        <time>2022-03-30T15:48:41.000Z</time>
      </trkpt>
      <trkpt lat="48.37763" lon="-4.64997">
        <ele>54.400001525879</ele>
        <time>2022-03-30T15:48:42.000Z</time>
      </trkpt>
      <trkpt lat="48.3776" lon="-4.65003">
        <ele>54.599998474121</ele>
        <time>2022-03-30T15:48:43.000Z</time>
      </trkpt>
      <trkpt lat="48.3775" lon="-4.65026">
        <ele>54.799999237061</ele>
        <time>2022-03-30T15:48:47.000Z</time>
      </trkpt>
      <trkpt lat="48.37743" lon="-4.65033">
        <ele>55.200000762939</ele>
        <time>2022-03-30T15:48:49.000Z</time>
      </trkpt>
      <trkpt lat="48.37734" lon="-4.65038">
        <ele>55.400001525879</ele>
        <time>2022-03-30T15:48:51.000Z</time>
      </trkpt>
      <trkpt lat="48.37725" lon="-4.6504">
        <ele>55.799999237061</ele>
        <time>2022-03-30T15:48:53.000Z</time>
      </trkpt>
      <trkpt lat="48.37716" lon="-4.6504">
        <ele>56</ele>
        <time>2022-03-30T15:48:55.000Z</time>
      </trkpt>
      <trkpt lat="48.37707" lon="-4.65038">
        <ele>56.200000762939</ele>
        <time>2022-03-30T15:48:57.000Z</time>
      </trkpt>
      <trkpt lat="48.37699" lon="-4.65033">
        <ele>56.599998474121</ele>
        <time>2022-03-30T15:48:59.000Z</time>
      </trkpt>
      <trkpt lat="48.37687" lon="-4.65025">
        <ele>57</ele>
        <time>2022-03-30T15:49:02.000Z</time>
      </trkpt>
      <trkpt lat="48.37677" lon="-4.65022">
        <ele>57</ele>
        <time>2022-03-30T15:49:04.000Z</time>
      </trkpt>
      <trkpt lat="48.37657" lon="-4.65026">
        <ele>57</ele>
        <time>2022-03-30T15:49:08.000Z</time>
      </trkpt>
      <trkpt lat="48.37652" lon="-4.65028">
        <ele>57</ele>
        <time>2022-03-30T15:49:09.000Z</time>
      </trkpt>
      <trkpt lat="48.37637" lon="-4.65034">
        <ele>57</ele>
        <time>2022-03-30T15:49:12.000Z</time>
      </trkpt>
      <trkpt lat="48.37613" lon="-4.65046">
        <ele>55.400001525879</ele>
        <time>2022-03-30T15:49:17.000Z</time>
      </trkpt>
      <trkpt lat="48.37605" lon="-4.65052">
        <ele>54.799999237061</ele>
        <time>2022-03-30T15:49:19.000Z</time>
      </trkpt>
      <trkpt lat="48.37597" lon="-4.65059">
        <ele>54.599998474121</ele>
        <time>2022-03-30T15:49:21.000Z</time>
      </trkpt>
      <trkpt lat="48.37579" lon="-4.65086">
        <ele>54</ele>
        <time>2022-03-30T15:49:26.000Z</time>
      </trkpt>
      <trkpt lat="48.3756" lon="-4.65111">
        <ele>54.799999237061</ele>
        <time>2022-03-30T15:49:31.000Z</time>
      </trkpt>
      <trkpt lat="48.37556" lon="-4.65116">
        <ele>55</ele>
        <time>2022-03-30T15:49:32.000Z</time>
      </trkpt>
      <trkpt lat="48.37553" lon="-4.65121">
        <ele>55</ele>
        <time>2022-03-30T15:49:33.000Z</time>
      </trkpt>
      <trkpt lat="48.37539" lon="-4.65141">
        <ele>55</ele>
        <time>2022-03-30T15:49:38.000Z</time>
      </trkpt>
      <trkpt lat="48.37534" lon="-4.65153">
        <ele>55</ele>
        <time>2022-03-30T15:49:41.000Z</time>
      </trkpt>
      <trkpt lat="48.37535" lon="-4.65157">
        <ele>55</ele>
        <time>2022-03-30T15:49:42.000Z</time>
      </trkpt>
      <trkpt lat="48.37541" lon="-4.6517">
        <ele>55.599998474121</ele>
        <time>2022-03-30T15:49:47.000Z</time>
      </trkpt>
      <trkpt lat="48.37557" lon="-4.65195">
        <ele>56</ele>
        <time>2022-03-30T15:49:54.000Z</time>
      </trkpt>
      <trkpt lat="48.37571" lon="-4.65218">
        <ele>56</ele>
        <time>2022-03-30T15:50:00.000Z</time>
      </trkpt>
      <trkpt lat="48.37594" lon="-4.65248">
        <ele>56.799999237061</ele>
        <time>2022-03-30T15:50:08.000Z</time>
      </trkpt>
      <trkpt lat="48.37597" lon="-4.65252">
        <ele>57</ele>
        <time>2022-03-30T15:50:09.000Z</time>
      </trkpt>
      <trkpt lat="48.37618" lon="-4.65271">
        <ele>57.599998474121</ele>
        <time>2022-03-30T15:50:15.000Z</time>
      </trkpt>
      <trkpt lat="48.37641" lon="-4.65289">
        <ele>58</ele>
        <time>2022-03-30T15:50:22.000Z</time>
      </trkpt>
      <trkpt lat="48.37669" lon="-4.65308">
        <ele>59.200000762939</ele>
        <time>2022-03-30T15:50:30.000Z</time>
      </trkpt>
      <trkpt lat="48.37696" lon="-4.65322">
        <ele>59.599998474121</ele>
        <time>2022-03-30T15:50:37.000Z</time>
      </trkpt>
      <trkpt lat="48.3772" lon="-4.65338">
        <ele>59</ele>
        <time>2022-03-30T15:50:43.000Z</time>
      </trkpt>
      <trkpt lat="48.37724" lon="-4.65342">
        <ele>59</ele>
        <time>2022-03-30T15:50:44.000Z</time>
      </trkpt>
      <trkpt lat="48.37727" lon="-4.65346">
        <ele>59</ele>
        <time>2022-03-30T15:50:45.000Z</time>
      </trkpt>
      <trkpt lat="48.37734" lon="-4.65362">
        <ele>58.799999237061</ele>
        <time>2022-03-30T15:50:48.000Z</time>
      </trkpt>
      <trkpt lat="48.37738" lon="-4.65396">
        <ele>59</ele>
        <time>2022-03-30T15:50:54.000Z</time>
      </trkpt>
      <trkpt lat="48.37742" lon="-4.65436">
        <ele>59.400001525879</ele>
        <time>2022-03-30T15:51:01.000Z</time>
      </trkpt>
      <trkpt lat="48.37746" lon="-4.6548">
        <ele>60</ele>
        <time>2022-03-30T15:51:09.000Z</time>
      </trkpt>
      <trkpt lat="48.37751" lon="-4.6552">
        <ele>60.200000762939</ele>
        <time>2022-03-30T15:51:16.000Z</time>
      </trkpt>
      <trkpt lat="48.37759" lon="-4.65555">
        <ele>62.200000762939</ele>
        <time>2022-03-30T15:51:23.000Z</time>
      </trkpt>
      <trkpt lat="48.37772" lon="-4.65572">
        <ele>63.400001525879</ele>
        <time>2022-03-30T15:51:28.000Z</time>
      </trkpt>
      <trkpt lat="48.37795" lon="-4.65582">
        <ele>65.199996948242</ele>
        <time>2022-03-30T15:51:36.000Z</time>
      </trkpt>
      <trkpt lat="48.37817" lon="-4.6559">
        <ele>66.599998474121</ele>
        <time>2022-03-30T15:51:44.000Z</time>
      </trkpt>
      <trkpt lat="48.37841" lon="-4.65597">
        <ele>67.800003051758</ele>
        <time>2022-03-30T15:51:52.000Z</time>
      </trkpt>
      <trkpt lat="48.37862" lon="-4.65604">
        <ele>69</ele>
        <time>2022-03-30T15:51:59.000Z</time>
      </trkpt>
      <trkpt lat="48.37883" lon="-4.65613">
        <ele>69.800003051758</ele>
        <time>2022-03-30T15:52:06.000Z</time>
      </trkpt>
      <trkpt lat="48.37898" lon="-4.65628">
        <ele>70</ele>
        <time>2022-03-30T15:52:12.000Z</time>
      </trkpt>
      <trkpt lat="48.37899" lon="-4.65633">
        <ele>70</ele>
        <time>2022-03-30T15:52:13.000Z</time>
      </trkpt>
      <trkpt lat="48.37897" lon="-4.65643">
        <ele>70</ele>
        <time>2022-03-30T15:52:15.000Z</time>
      </trkpt>
      <trkpt lat="48.37893" lon="-4.65691">
        <ele>71</ele>
        <time>2022-03-30T15:52:24.000Z</time>
      </trkpt>
      <trkpt lat="48.37888" lon="-4.6573">
        <ele>72.199996948242</ele>
        <time>2022-03-30T15:52:32.000Z</time>
      </trkpt>
      <trkpt lat="48.37885" lon="-4.65755">
        <ele>73</ele>
        <time>2022-03-30T15:52:37.000Z</time>
      </trkpt>
      <trkpt lat="48.3788" lon="-4.6579">
        <ele>73.199996948242</ele>
        <time>2022-03-30T15:52:44.000Z</time>
      </trkpt>
      <trkpt lat="48.37877" lon="-4.65819">
        <ele>74.400001525879</ele>
        <time>2022-03-30T15:52:50.000Z</time>
      </trkpt>
      <trkpt lat="48.37871" lon="-4.65847">
        <ele>74.800003051758</ele>
        <time>2022-03-30T15:52:56.000Z</time>
      </trkpt>
      <trkpt lat="48.37869" lon="-4.65851">
        <ele>75.199996948242</ele>
        <time>2022-03-30T15:52:57.000Z</time>
      </trkpt>
      <trkpt lat="48.3786" lon="-4.65858">
        <ele>75.599998474121</ele>
        <time>2022-03-30T15:53:00.000Z</time>
      </trkpt>
      <trkpt lat="48.37837" lon="-4.65869">
        <ele>76.199996948242</ele>
        <time>2022-03-30T15:53:07.000Z</time>
      </trkpt>
      <trkpt lat="48.37833" lon="-4.65878">
        <ele>76.400001525879</ele>
        <time>2022-03-30T15:53:09.000Z</time>
      </trkpt>
      <trkpt lat="48.37833" lon="-4.65884">
        <ele>76.599998474121</ele>
        <time>2022-03-30T15:53:10.000Z</time>
      </trkpt>
      <trkpt lat="48.3784" lon="-4.65921">
        <ele>77</ele>
        <time>2022-03-30T15:53:17.000Z</time>
      </trkpt>
      <trkpt lat="48.37846" lon="-4.65952">
        <ele>77.599998474121</ele>
        <time>2022-03-30T15:53:23.000Z</time>
      </trkpt>
      <trkpt lat="48.37852" lon="-4.6599">
        <ele>78.400001525879</ele>
        <time>2022-03-30T15:53:31.000Z</time>
      </trkpt>
      <trkpt lat="48.3786" lon="-4.66027">
        <ele>79.800003051758</ele>
        <time>2022-03-30T15:53:39.000Z</time>
      </trkpt>
      <trkpt lat="48.37865" lon="-4.66052">
        <ele>80</ele>
        <time>2022-03-30T15:53:44.000Z</time>
      </trkpt>
      <trkpt lat="48.37871" lon="-4.66076">
        <ele>81</ele>
        <time>2022-03-30T15:53:49.000Z</time>
      </trkpt>
      <trkpt lat="48.37878" lon="-4.66107">
        <ele>81.800003051758</ele>
        <time>2022-03-30T15:53:55.000Z</time>
      </trkpt>
      <trkpt lat="48.37887" lon="-4.66145">
        <ele>82</ele>
        <time>2022-03-30T15:54:02.000Z</time>
      </trkpt>
      <trkpt lat="48.37896" lon="-4.66179">
        <ele>82</ele>
        <time>2022-03-30T15:54:09.000Z</time>
      </trkpt>
      <trkpt lat="48.37903" lon="-4.66204">
        <ele>82.800003051758</ele>
        <time>2022-03-30T15:54:14.000Z</time>
      </trkpt>
      <trkpt lat="48.37912" lon="-4.66244">
        <ele>84</ele>
        <time>2022-03-30T15:54:22.000Z</time>
      </trkpt>
      <trkpt lat="48.37921" lon="-4.66277">
        <ele>85</ele>
        <time>2022-03-30T15:54:29.000Z</time>
      </trkpt>
      <trkpt lat="48.37928" lon="-4.663">
        <ele>85.199996948242</ele>
        <time>2022-03-30T15:54:34.000Z</time>
      </trkpt>
      <trkpt lat="48.37934" lon="-4.66328">
        <ele>86</ele>
        <time>2022-03-30T15:54:40.000Z</time>
      </trkpt>
      <trkpt lat="48.3794" lon="-4.66355">
        <ele>86.599998474121</ele>
        <time>2022-03-30T15:54:46.000Z</time>
      </trkpt>
      <trkpt lat="48.37942" lon="-4.66373">
        <ele>87</ele>
        <time>2022-03-30T15:54:50.000Z</time>
      </trkpt>
      <trkpt lat="48.37941" lon="-4.66378">
        <ele>87</ele>
        <time>2022-03-30T15:54:51.000Z</time>
      </trkpt>
      <trkpt lat="48.3793" lon="-4.66396">
        <ele>87</ele>
        <time>2022-03-30T15:54:56.000Z</time>
      </trkpt>
      <trkpt lat="48.37915" lon="-4.66426">
        <ele>87</ele>
        <time>2022-03-30T15:55:03.000Z</time>
      </trkpt>
      <trkpt lat="48.37903" lon="-4.66446">
        <ele>86.599998474121</ele>
        <time>2022-03-30T15:55:08.000Z</time>
      </trkpt>
      <trkpt lat="48.37894" lon="-4.66447">
        <ele>86.400001525879</ele>
        <time>2022-03-30T15:55:10.000Z</time>
      </trkpt>
      <trkpt lat="48.3789" lon="-4.66445">
        <ele>86.199996948242</ele>
        <time>2022-03-30T15:55:11.000Z</time>
      </trkpt>
      <trkpt lat="48.37872" lon="-4.66437">
        <ele>85</ele>
        <time>2022-03-30T15:55:15.000Z</time>
      </trkpt>
      <trkpt lat="48.37863" lon="-4.66434">
        <ele>84.400001525879</ele>
        <time>2022-03-30T15:55:17.000Z</time>
      </trkpt>
      <trkpt lat="48.37827" lon="-4.66429">
        <ele>84</ele>
        <time>2022-03-30T15:55:24.000Z</time>
      </trkpt>
      <trkpt lat="48.37817" lon="-4.66428">
        <ele>83.599998474121</ele>
        <time>2022-03-30T15:55:26.000Z</time>
      </trkpt>
      <trkpt lat="48.37795" lon="-4.66427">
        <ele>82.599998474121</ele>
        <time>2022-03-30T15:55:30.000Z</time>
      </trkpt>
      <trkpt lat="48.37758" lon="-4.66422">
        <ele>81.400001525879</ele>
        <time>2022-03-30T15:55:37.000Z</time>
      </trkpt>
      <trkpt lat="48.37754" lon="-4.66423">
        <ele>81.199996948242</ele>
        <time>2022-03-30T15:55:38.000Z</time>
      </trkpt>
      <trkpt lat="48.37747" lon="-4.66429">
        <ele>80.800003051758</ele>
        <time>2022-03-30T15:55:40.000Z</time>
      </trkpt>
      <trkpt lat="48.37748" lon="-4.66446">
        <ele>80.199996948242</ele>
        <time>2022-03-30T15:55:43.000Z</time>
      </trkpt>
      <trkpt lat="48.37755" lon="-4.66483">
        <ele>79.599998474121</ele>
        <time>2022-03-30T15:55:49.000Z</time>
      </trkpt>
      <trkpt lat="48.37767" lon="-4.66528">
        <ele>80.599998474121</ele>
        <time>2022-03-30T15:55:56.000Z</time>
      </trkpt>
      <trkpt lat="48.37779" lon="-4.66572">
        <ele>82.199996948242</ele>
        <time>2022-03-30T15:56:03.000Z</time>
      </trkpt>
      <trkpt lat="48.37791" lon="-4.66617">
        <ele>83.199996948242</ele>
        <time>2022-03-30T15:56:10.000Z</time>
      </trkpt>
      <trkpt lat="48.37803" lon="-4.66651">
        <ele>84</ele>
        <time>2022-03-30T15:56:16.000Z</time>
      </trkpt>
      <trkpt lat="48.37805" lon="-4.66657">
        <ele>84</ele>
        <time>2022-03-30T15:56:17.000Z</time>
      </trkpt>
      <trkpt lat="48.37807" lon="-4.66663">
        <ele>84.199996948242</ele>
        <time>2022-03-30T15:56:18.000Z</time>
      </trkpt>
      <trkpt lat="48.37812" lon="-4.66673">
        <ele>84.400001525879</ele>
        <time>2022-03-30T15:56:20.000Z</time>
      </trkpt>
      <trkpt lat="48.37815" lon="-4.66684">
        <ele>84.400001525879</ele>
        <time>2022-03-30T15:56:22.000Z</time>
      </trkpt>
      <trkpt lat="48.37826" lon="-4.66716">
        <ele>84</ele>
        <time>2022-03-30T15:56:28.000Z</time>
      </trkpt>
      <trkpt lat="48.37834" lon="-4.66743">
        <ele>83.800003051758</ele>
        <time>2022-03-30T15:56:33.000Z</time>
      </trkpt>
      <trkpt lat="48.3784" lon="-4.66775">
        <ele>83.599998474121</ele>
        <time>2022-03-30T15:56:38.000Z</time>
      </trkpt>
      <trkpt lat="48.37847" lon="-4.66804">
        <ele>84.199996948242</ele>
        <time>2022-03-30T15:56:43.000Z</time>
      </trkpt>
      <trkpt lat="48.37847" lon="-4.66811">
        <ele>84.599998474121</ele>
        <time>2022-03-30T15:56:44.000Z</time>
      </trkpt>
      <trkpt lat="48.37848" lon="-4.66831">
        <ele>85.400001525879</ele>
        <time>2022-03-30T15:56:47.000Z</time>
      </trkpt>
      <trkpt lat="48.37851" lon="-4.6685">
        <ele>86</ele>
        <time>2022-03-30T15:56:50.000Z</time>
      </trkpt>
      <trkpt lat="48.37858" lon="-4.66885">
        <ele>87</ele>
        <time>2022-03-30T15:56:56.000Z</time>
      </trkpt>
      <trkpt lat="48.3786" lon="-4.66898">
        <ele>87</ele>
        <time>2022-03-30T15:56:58.000Z</time>
      </trkpt>
      <trkpt lat="48.37864" lon="-4.66924">
        <ele>87.199996948242</ele>
        <time>2022-03-30T15:57:02.000Z</time>
      </trkpt>
      <trkpt lat="48.37867" lon="-4.66944">
        <ele>87.400001525879</ele>
        <time>2022-03-30T15:57:05.000Z</time>
      </trkpt>
      <trkpt lat="48.37869" lon="-4.66957">
        <ele>87.400001525879</ele>
        <time>2022-03-30T15:57:07.000Z</time>
      </trkpt>
      <trkpt lat="48.37871" lon="-4.66963">
        <ele>87.400001525879</ele>
        <time>2022-03-30T15:57:08.000Z</time>
      </trkpt>
      <trkpt lat="48.37875" lon="-4.66982">
        <ele>87.800003051758</ele>
        <time>2022-03-30T15:57:11.000Z</time>
      </trkpt>
      <trkpt lat="48.37877" lon="-4.66988">
        <ele>88</ele>
        <time>2022-03-30T15:57:12.000Z</time>
      </trkpt>
      <trkpt lat="48.37879" lon="-4.67">
        <ele>88</ele>
        <time>2022-03-30T15:57:14.000Z</time>
      </trkpt>
      <trkpt lat="48.37881" lon="-4.67013">
        <ele>88</ele>
        <time>2022-03-30T15:57:16.000Z</time>
      </trkpt>
      <trkpt lat="48.37882" lon="-4.67019">
        <ele>88</ele>
        <time>2022-03-30T15:57:17.000Z</time>
      </trkpt>
      <trkpt lat="48.37887" lon="-4.67047">
        <ele>87.400001525879</ele>
        <time>2022-03-30T15:57:22.000Z</time>
      </trkpt>
      <trkpt lat="48.37893" lon="-4.67079">
        <ele>86</ele>
        <time>2022-03-30T15:57:28.000Z</time>
      </trkpt>
      <trkpt lat="48.37894" lon="-4.6709">
        <ele>86</ele>
        <time>2022-03-30T15:57:32.000Z</time>
      </trkpt>
      <trkpt lat="48.37894" lon="-4.67092">
        <ele>86</ele>
        <time>2022-03-30T15:57:34.000Z</time>
      </trkpt>
      <trkpt lat="48.37894" lon="-4.67096">
        <ele>86</ele>
        <time>2022-03-30T15:57:43.000Z</time>
      </trkpt>
      <trkpt lat="48.37895" lon="-4.67098">
        <ele>86</ele>
        <time>2022-03-30T15:57:44.000Z</time>
      </trkpt>
      <trkpt lat="48.37898" lon="-4.67103">
        <ele>86</ele>
        <time>2022-03-30T15:57:48.000Z</time>
      </trkpt>
      <trkpt lat="48.37901" lon="-4.67105">
        <ele>85.800003051758</ele>
        <time>2022-03-30T15:57:50.000Z</time>
      </trkpt>
      <trkpt lat="48.37902" lon="-4.67106">
        <ele>85.800003051758</ele>
        <time>2022-03-30T15:57:51.000Z</time>
      </trkpt>
      <trkpt lat="48.37904" lon="-4.67113">
        <ele>85.400001525879</ele>
        <time>2022-03-30T15:57:54.000Z</time>
      </trkpt>
      <trkpt lat="48.37905" lon="-4.67115">
        <ele>85.400001525879</ele>
        <time>2022-03-30T15:57:55.000Z</time>
      </trkpt>
      <trkpt lat="48.37904" lon="-4.67117">
        <ele>85.199996948242</ele>
        <time>2022-03-30T15:57:58.000Z</time>
      </trkpt>
      <trkpt lat="48.37904" lon="-4.67123">
        <ele>85</ele>
        <time>2022-03-30T15:58:08.000Z</time>
      </trkpt>
      <trkpt lat="48.3791" lon="-4.6714">
        <ele>85</ele>
        <time>2022-03-30T15:58:13.000Z</time>
      </trkpt>
      <trkpt lat="48.37919" lon="-4.67177">
        <ele>84.199996948242</ele>
        <time>2022-03-30T15:58:20.000Z</time>
      </trkpt>
      <trkpt lat="48.37928" lon="-4.6721">
        <ele>85</ele>
        <time>2022-03-30T15:58:26.000Z</time>
      </trkpt>
      <trkpt lat="48.37934" lon="-4.6725">
        <ele>85.800003051758</ele>
        <time>2022-03-30T15:58:32.000Z</time>
      </trkpt>
      <trkpt lat="48.37934" lon="-4.67281">
        <ele>86</ele>
        <time>2022-03-30T15:58:36.000Z</time>
      </trkpt>
      <trkpt lat="48.37933" lon="-4.67298">
        <ele>86</ele>
        <time>2022-03-30T15:58:38.000Z</time>
      </trkpt>
      <trkpt lat="48.37931" lon="-4.67334">
        <ele>85.400001525879</ele>
        <time>2022-03-30T15:58:42.000Z</time>
      </trkpt>
      <trkpt lat="48.3793" lon="-4.67343">
        <ele>85.199996948242</ele>
        <time>2022-03-30T15:58:43.000Z</time>
      </trkpt>
      <trkpt lat="48.37928" lon="-4.67361">
        <ele>84.599998474121</ele>
        <time>2022-03-30T15:58:45.000Z</time>
      </trkpt>
      <trkpt lat="48.37928" lon="-4.67376">
        <ele>84</ele>
        <time>2022-03-30T15:58:47.000Z</time>
      </trkpt>
      <trkpt lat="48.37924" lon="-4.67413">
        <ele>83</ele>
        <time>2022-03-30T15:58:51.000Z</time>
      </trkpt>
      <trkpt lat="48.3792" lon="-4.67437">
        <ele>82.400001525879</ele>
        <time>2022-03-30T15:58:55.000Z</time>
      </trkpt>
      <trkpt lat="48.3792" lon="-4.67451">
        <ele>82.199996948242</ele>
        <time>2022-03-30T15:59:00.000Z</time>
      </trkpt>
      <trkpt lat="48.37921" lon="-4.67457">
        <ele>82.199996948242</ele>
        <time>2022-03-30T15:59:03.000Z</time>
      </trkpt>
      <trkpt lat="48.37923" lon="-4.67462">
        <ele>82.400001525879</ele>
        <time>2022-03-30T15:59:06.000Z</time>
      </trkpt>
      <trkpt lat="48.37922" lon="-4.67464">
        <ele>82.400001525879</ele>
        <time>2022-03-30T15:59:07.000Z</time>
      </trkpt>
      <trkpt lat="48.37921" lon="-4.67483">
        <ele>82.199996948242</ele>
        <time>2022-03-30T15:59:14.000Z</time>
      </trkpt>
      <trkpt lat="48.37922" lon="-4.675">
        <ele>82.400001525879</ele>
        <time>2022-03-30T15:59:19.000Z</time>
      </trkpt>
      <trkpt lat="48.37924" lon="-4.67523">
        <ele>83</ele>
        <time>2022-03-30T15:59:24.000Z</time>
      </trkpt>
      <trkpt lat="48.37925" lon="-4.67551">
        <ele>84</ele>
        <time>2022-03-30T15:59:30.000Z</time>
      </trkpt>
      <trkpt lat="48.37929" lon="-4.6757">
        <ele>84</ele>
        <time>2022-03-30T15:59:35.000Z</time>
      </trkpt>
      <trkpt lat="48.37932" lon="-4.67594">
        <ele>84.199996948242</ele>
        <time>2022-03-30T15:59:41.000Z</time>
      </trkpt>
      <trkpt lat="48.37934" lon="-4.67603">
        <ele>84.199996948242</ele>
        <time>2022-03-30T15:59:44.000Z</time>
      </trkpt>
      <trkpt lat="48.37935" lon="-4.6761">
        <ele>84.199996948242</ele>
        <time>2022-03-30T15:59:46.000Z</time>
      </trkpt>
      <trkpt lat="48.37937" lon="-4.67622">
        <ele>84.199996948242</ele>
        <time>2022-03-30T15:59:50.000Z</time>
      </trkpt>
      <trkpt lat="48.37937" lon="-4.67626">
        <ele>84.199996948242</ele>
        <time>2022-03-30T15:59:51.000Z</time>
      </trkpt>
      <trkpt lat="48.37937" lon="-4.67647">
        <ele>84.199996948242</ele>
        <time>2022-03-30T15:59:56.000Z</time>
      </trkpt>
      <trkpt lat="48.37937" lon="-4.6765">
        <ele>84.400001525879</ele>
        <time>2022-03-30T15:59:57.000Z</time>
      </trkpt>
      <trkpt lat="48.37938" lon="-4.67665">
        <ele>84.800003051758</ele>
        <time>2022-03-30T16:00:01.000Z</time>
      </trkpt>
      <trkpt lat="48.37939" lon="-4.6768">
        <ele>85.199996948242</ele>
        <time>2022-03-30T16:00:06.000Z</time>
      </trkpt>
      <trkpt lat="48.3794" lon="-4.67702">
        <ele>86</ele>
        <time>2022-03-30T16:00:13.000Z</time>
      </trkpt>
      <trkpt lat="48.37941" lon="-4.67708">
        <ele>86</ele>
        <time>2022-03-30T16:00:15.000Z</time>
      </trkpt>
      <trkpt lat="48.37942" lon="-4.67714">
        <ele>86</ele>
        <time>2022-03-30T16:00:17.000Z</time>
      </trkpt>
      <trkpt lat="48.37945" lon="-4.67731">
        <ele>86.199996948242</ele>
        <time>2022-03-30T16:00:22.000Z</time>
      </trkpt>
      <trkpt lat="48.37947" lon="-4.67734">
        <ele>86.199996948242</ele>
        <time>2022-03-30T16:00:24.000Z</time>
      </trkpt>
      <trkpt lat="48.37947" lon="-4.67735">
        <ele>86.199996948242</ele>
        <time>2022-03-30T16:00:25.000Z</time>
      </trkpt>
      <trkpt lat="48.37948" lon="-4.67738">
        <ele>86.400001525879</ele>
        <time>2022-03-30T16:00:36.000Z</time>
      </trkpt>
      <trkpt lat="48.37949" lon="-4.67741">
        <ele>86.599998474121</ele>
        <time>2022-03-30T16:00:37.000Z</time>
      </trkpt>
      <trkpt lat="48.37956" lon="-4.67764">
        <ele>87</ele>
        <time>2022-03-30T16:00:43.000Z</time>
      </trkpt>
      <trkpt lat="48.37965" lon="-4.67785">
        <ele>87</ele>
        <time>2022-03-30T16:00:49.000Z</time>
      </trkpt>
      <trkpt lat="48.37979" lon="-4.67811">
        <ele>87</ele>
        <time>2022-03-30T16:00:56.000Z</time>
      </trkpt>
      <trkpt lat="48.37998" lon="-4.67849">
        <ele>87</ele>
        <time>2022-03-30T16:01:05.000Z</time>
      </trkpt>
      <trkpt lat="48.38014" lon="-4.67879">
        <ele>86.599998474121</ele>
        <time>2022-03-30T16:01:12.000Z</time>
      </trkpt>
      <trkpt lat="48.38035" lon="-4.67915">
        <ele>86.400001525879</ele>
        <time>2022-03-30T16:01:20.000Z</time>
      </trkpt>
      <trkpt lat="48.38059" lon="-4.67953">
        <ele>86.800003051758</ele>
        <time>2022-03-30T16:01:28.000Z</time>
      </trkpt>
      <trkpt lat="48.38083" lon="-4.67987">
        <ele>86</ele>
        <time>2022-03-30T16:01:35.000Z</time>
      </trkpt>
      <trkpt lat="48.38101" lon="-4.68024">
        <ele>85.800003051758</ele>
        <time>2022-03-30T16:01:41.000Z</time>
      </trkpt>
      <trkpt lat="48.38103" lon="-4.68031">
        <ele>85.800003051758</ele>
        <time>2022-03-30T16:01:42.000Z</time>
      </trkpt>
      <trkpt lat="48.38105" lon="-4.68046">
        <ele>85.599998474121</ele>
        <time>2022-03-30T16:01:44.000Z</time>
      </trkpt>
      <trkpt lat="48.38108" lon="-4.68068">
        <ele>84.800003051758</ele>
        <time>2022-03-30T16:01:47.000Z</time>
      </trkpt>
      <trkpt lat="48.38113" lon="-4.68079">
        <ele>84.599998474121</ele>
        <time>2022-03-30T16:01:49.000Z</time>
      </trkpt>
      <trkpt lat="48.38118" lon="-4.68081">
        <ele>84.599998474121</ele>
        <time>2022-03-30T16:01:50.000Z</time>
      </trkpt>
      <trkpt lat="48.38123" lon="-4.68081">
        <ele>84.599998474121</ele>
        <time>2022-03-30T16:01:51.000Z</time>
      </trkpt>
      <trkpt lat="48.38139" lon="-4.68076">
        <ele>84.800003051758</ele>
        <time>2022-03-30T16:01:54.000Z</time>
      </trkpt>
      <trkpt lat="48.38144" lon="-4.68075">
        <ele>84.599998474121</ele>
        <time>2022-03-30T16:01:55.000Z</time>
      </trkpt>
      <trkpt lat="48.38155" lon="-4.68076">
        <ele>84.400001525879</ele>
        <time>2022-03-30T16:01:57.000Z</time>
      </trkpt>
      <trkpt lat="48.38159" lon="-4.68079">
        <ele>84.400001525879</ele>
        <time>2022-03-30T16:01:58.000Z</time>
      </trkpt>
      <trkpt lat="48.38163" lon="-4.68085">
        <ele>84.199996948242</ele>
        <time>2022-03-30T16:01:59.000Z</time>
      </trkpt>
      <trkpt lat="48.38171" lon="-4.68106">
        <ele>82.199996948242</ele>
        <time>2022-03-30T16:02:02.000Z</time>
      </trkpt>
      <trkpt lat="48.38185" lon="-4.68154">
        <ele>79.800003051758</ele>
        <time>2022-03-30T16:02:08.000Z</time>
      </trkpt>
      <trkpt lat="48.38205" lon="-4.68218">
        <ele>78.599998474121</ele>
        <time>2022-03-30T16:02:15.000Z</time>
      </trkpt>
      <trkpt lat="48.38223" lon="-4.68277">
        <ele>77.800003051758</ele>
        <time>2022-03-30T16:02:21.000Z</time>
      </trkpt>
      <trkpt lat="48.38241" lon="-4.68357">
        <ele>73.800003051758</ele>
        <time>2022-03-30T16:02:28.000Z</time>
      </trkpt>
      <trkpt lat="48.38248" lon="-4.68395">
        <ele>71.800003051758</ele>
        <time>2022-03-30T16:02:31.000Z</time>
      </trkpt>
      <trkpt lat="48.38249" lon="-4.68423">
        <ele>70</ele>
        <time>2022-03-30T16:02:33.000Z</time>
      </trkpt>
      <trkpt lat="48.38244" lon="-4.6845">
        <ele>69.199996948242</ele>
        <time>2022-03-30T16:02:35.000Z</time>
      </trkpt>
      <trkpt lat="48.38239" lon="-4.68463">
        <ele>69.199996948242</ele>
        <time>2022-03-30T16:02:36.000Z</time>
      </trkpt>
      <trkpt lat="48.38219" lon="-4.68518">
        <ele>68.599998474121</ele>
        <time>2022-03-30T16:02:40.000Z</time>
      </trkpt>
      <trkpt lat="48.38215" lon="-4.68533">
        <ele>68</ele>
        <time>2022-03-30T16:02:41.000Z</time>
      </trkpt>
      <trkpt lat="48.38213" lon="-4.68547">
        <ele>67.800003051758</ele>
        <time>2022-03-30T16:02:42.000Z</time>
      </trkpt>
      <trkpt lat="48.38214" lon="-4.68561">
        <ele>67.800003051758</ele>
        <time>2022-03-30T16:02:43.000Z</time>
      </trkpt>
      <trkpt lat="48.38214" lon="-4.68574">
        <ele>67.599998474121</ele>
        <time>2022-03-30T16:02:44.000Z</time>
      </trkpt>
      <trkpt lat="48.38211" lon="-4.68597">
        <ele>67.400001525879</ele>
        <time>2022-03-30T16:02:46.000Z</time>
      </trkpt>
      <trkpt lat="48.38205" lon="-4.68643">
        <ele>68</ele>
        <time>2022-03-30T16:02:51.000Z</time>
      </trkpt>
      <trkpt lat="48.38202" lon="-4.68664">
        <ele>68.599998474121</ele>
        <time>2022-03-30T16:02:54.000Z</time>
      </trkpt>
      <trkpt lat="48.38201" lon="-4.68676">
        <ele>69.400001525879</ele>
        <time>2022-03-30T16:02:56.000Z</time>
      </trkpt>
      <trkpt lat="48.38204" lon="-4.68703">
        <ele>71.199996948242</ele>
        <time>2022-03-30T16:03:01.000Z</time>
      </trkpt>
      <trkpt lat="48.38212" lon="-4.68732">
        <ele>72.800003051758</ele>
        <time>2022-03-30T16:03:08.000Z</time>
      </trkpt>
      <trkpt lat="48.38219" lon="-4.6876">
        <ele>73.199996948242</ele>
        <time>2022-03-30T16:03:15.000Z</time>
      </trkpt>
      <trkpt lat="48.38223" lon="-4.68782">
        <ele>74.199996948242</ele>
        <time>2022-03-30T16:03:21.000Z</time>
      </trkpt>
      <trkpt lat="48.38231" lon="-4.68817">
        <ele>75.599998474121</ele>
        <time>2022-03-30T16:03:30.000Z</time>
      </trkpt>
      <trkpt lat="48.38237" lon="-4.6885">
        <ele>76.599998474121</ele>
        <time>2022-03-30T16:03:38.000Z</time>
      </trkpt>
      <trkpt lat="48.38244" lon="-4.68877">
        <ele>77</ele>
        <time>2022-03-30T16:03:45.000Z</time>
      </trkpt>
      <trkpt lat="48.38251" lon="-4.68914">
        <ele>77</ele>
        <time>2022-03-30T16:03:54.000Z</time>
      </trkpt>
      <trkpt lat="48.38253" lon="-4.68934">
        <ele>77.400001525879</ele>
        <time>2022-03-30T16:03:59.000Z</time>
      </trkpt>
      <trkpt lat="48.38257" lon="-4.68952">
        <ele>77.800003051758</ele>
        <time>2022-03-30T16:04:04.000Z</time>
      </trkpt>
      <trkpt lat="48.38263" lon="-4.68978">
        <ele>79</ele>
        <time>2022-03-30T16:04:12.000Z</time>
      </trkpt>
      <trkpt lat="48.38264" lon="-4.68979">
        <ele>79</ele>
        <time>2022-03-30T16:04:14.000Z</time>
      </trkpt>
      <trkpt lat="48.38263" lon="-4.68983">
        <ele>79</ele>
        <time>2022-03-30T16:06:39.000Z</time>
      </trkpt>
      <trkpt lat="48.38263" lon="-4.68985">
        <ele>79</ele>
        <time>2022-03-30T16:06:40.000Z</time>
      </trkpt>
      <trkpt lat="48.38266" lon="-4.68999">
        <ele>79</ele>
        <time>2022-03-30T16:06:44.000Z</time>
      </trkpt>
      <trkpt lat="48.38272" lon="-4.69032">
        <ele>79</ele>
        <time>2022-03-30T16:06:50.000Z</time>
      </trkpt>
      <trkpt lat="48.38281" lon="-4.69074">
        <ele>79</ele>
        <time>2022-03-30T16:06:57.000Z</time>
      </trkpt>
      <trkpt lat="48.3829" lon="-4.69125">
        <ele>78</ele>
        <time>2022-03-30T16:07:04.000Z</time>
      </trkpt>
      <trkpt lat="48.38304" lon="-4.69192">
        <ele>77</ele>
        <time>2022-03-30T16:07:12.000Z</time>
      </trkpt>
      <trkpt lat="48.38318" lon="-4.69267">
        <ele>77</ele>
        <time>2022-03-30T16:07:20.000Z</time>
      </trkpt>
      <trkpt lat="48.38328" lon="-4.69347">
        <ele>76</ele>
        <time>2022-03-30T16:07:28.000Z</time>
      </trkpt>
      <trkpt lat="48.38333" lon="-4.69434">
        <ele>73.599998474121</ele>
        <time>2022-03-30T16:07:37.000Z</time>
      </trkpt>
      <trkpt lat="48.38339" lon="-4.6952">
        <ele>72.599998474121</ele>
        <time>2022-03-30T16:07:46.000Z</time>
      </trkpt>
      <trkpt lat="48.38348" lon="-4.69598">
        <ele>71.599998474121</ele>
        <time>2022-03-30T16:07:54.000Z</time>
      </trkpt>
      <trkpt lat="48.38363" lon="-4.69665">
        <ele>70.199996948242</ele>
        <time>2022-03-30T16:08:01.000Z</time>
      </trkpt>
      <trkpt lat="48.38387" lon="-4.69738">
        <ele>68.599998474121</ele>
        <time>2022-03-30T16:08:09.000Z</time>
      </trkpt>
      <trkpt lat="48.3839" lon="-4.69746">
        <ele>68.199996948242</ele>
        <time>2022-03-30T16:08:10.000Z</time>
      </trkpt>
      <trkpt lat="48.38396" lon="-4.69762">
        <ele>67.800003051758</ele>
        <time>2022-03-30T16:08:12.000Z</time>
      </trkpt>
      <trkpt lat="48.38406" lon="-4.69784">
        <ele>67</ele>
        <time>2022-03-30T16:08:15.000Z</time>
      </trkpt>
      <trkpt lat="48.38427" lon="-4.6983">
        <ele>67</ele>
        <time>2022-03-30T16:08:22.000Z</time>
      </trkpt>
      <trkpt lat="48.38451" lon="-4.69881">
        <ele>67</ele>
        <time>2022-03-30T16:08:30.000Z</time>
      </trkpt>
      <trkpt lat="48.38474" lon="-4.69932">
        <ele>66.199996948242</ele>
        <time>2022-03-30T16:08:38.000Z</time>
      </trkpt>
      <trkpt lat="48.38496" lon="-4.6998">
        <ele>67</ele>
        <time>2022-03-30T16:08:46.000Z</time>
      </trkpt>
      <trkpt lat="48.38514" lon="-4.70021">
        <ele>68</ele>
        <time>2022-03-30T16:08:53.000Z</time>
      </trkpt>
      <trkpt lat="48.38539" lon="-4.70075">
        <ele>69</ele>
        <time>2022-03-30T16:09:03.000Z</time>
      </trkpt>
      <trkpt lat="48.38544" lon="-4.70085">
        <ele>69</ele>
        <time>2022-03-30T16:09:05.000Z</time>
      </trkpt>
      <trkpt lat="48.38554" lon="-4.701">
        <ele>69</ele>
        <time>2022-03-30T16:09:09.000Z</time>
      </trkpt>
      <trkpt lat="48.38565" lon="-4.70119">
        <ele>69</ele>
        <time>2022-03-30T16:09:14.000Z</time>
      </trkpt>
      <trkpt lat="48.38569" lon="-4.7012">
        <ele>68.800003051758</ele>
        <time>2022-03-30T16:09:15.000Z</time>
      </trkpt>
      <trkpt lat="48.3859" lon="-4.70112">
        <ele>69.400001525879</ele>
        <time>2022-03-30T16:09:21.000Z</time>
      </trkpt>
      <trkpt lat="48.38624" lon="-4.70096">
        <ele>69.400001525879</ele>
        <time>2022-03-30T16:09:30.000Z</time>
      </trkpt>
      <trkpt lat="48.38656" lon="-4.70081">
        <ele>68.199996948242</ele>
        <time>2022-03-30T16:09:38.000Z</time>
      </trkpt>
      <trkpt lat="48.38696" lon="-4.70064">
        <ele>65.400001525879</ele>
        <time>2022-03-30T16:09:46.000Z</time>
      </trkpt>
      <trkpt lat="48.38744" lon="-4.70043">
        <ele>61.799999237061</ele>
        <time>2022-03-30T16:09:54.000Z</time>
      </trkpt>
      <trkpt lat="48.38796" lon="-4.70019">
        <ele>58.400001525879</ele>
        <time>2022-03-30T16:10:01.000Z</time>
      </trkpt>
      <trkpt lat="48.38811" lon="-4.70011">
        <ele>57.599998474121</ele>
        <time>2022-03-30T16:10:03.000Z</time>
      </trkpt>
      <trkpt lat="48.38835" lon="-4.69998">
        <ele>56.599998474121</ele>
        <time>2022-03-30T16:10:06.000Z</time>
      </trkpt>
      <trkpt lat="48.38849" lon="-4.70006">
        <ele>55.599998474121</ele>
        <time>2022-03-30T16:10:08.000Z</time>
      </trkpt>
      <trkpt lat="48.38852" lon="-4.70025">
        <ele>54.599998474121</ele>
        <time>2022-03-30T16:10:10.000Z</time>
      </trkpt>
      <trkpt lat="48.38845" lon="-4.70074">
        <ele>55</ele>
        <time>2022-03-30T16:10:16.000Z</time>
      </trkpt>
      <trkpt lat="48.38838" lon="-4.70136">
        <ele>55.799999237061</ele>
        <time>2022-03-30T16:10:25.000Z</time>
      </trkpt>
      <trkpt lat="48.38832" lon="-4.70187">
        <ele>57</ele>
        <time>2022-03-30T16:10:33.000Z</time>
      </trkpt>
      <trkpt lat="48.38827" lon="-4.70234">
        <ele>58.400001525879</ele>
        <time>2022-03-30T16:10:40.000Z</time>
      </trkpt>
      <trkpt lat="48.38821" lon="-4.70288">
        <ele>60</ele>
        <time>2022-03-30T16:10:48.000Z</time>
      </trkpt>
      <trkpt lat="48.38813" lon="-4.70355">
        <ele>59</ele>
        <time>2022-03-30T16:10:58.000Z</time>
      </trkpt>
      <trkpt lat="48.38813" lon="-4.70368">
        <ele>59</ele>
        <time>2022-03-30T16:11:00.000Z</time>
      </trkpt>
      <trkpt lat="48.38815" lon="-4.7038">
        <ele>59.400001525879</ele>
        <time>2022-03-30T16:11:02.000Z</time>
      </trkpt>
      <trkpt lat="48.38818" lon="-4.70384">
        <ele>59.400001525879</ele>
        <time>2022-03-30T16:11:03.000Z</time>
      </trkpt>
      <trkpt lat="48.38826" lon="-4.70388">
        <ele>59.200000762939</ele>
        <time>2022-03-30T16:11:05.000Z</time>
      </trkpt>
      <trkpt lat="48.38835" lon="-4.70389">
        <ele>58.799999237061</ele>
        <time>2022-03-30T16:11:07.000Z</time>
      </trkpt>
      <trkpt lat="48.38878" lon="-4.704">
        <ele>57.200000762939</ele>
        <time>2022-03-30T16:11:15.000Z</time>
      </trkpt>
      <trkpt lat="48.38883" lon="-4.70404">
        <ele>57</ele>
        <time>2022-03-30T16:11:16.000Z</time>
      </trkpt>
      <trkpt lat="48.38899" lon="-4.70417">
        <ele>56.799999237061</ele>
        <time>2022-03-30T16:11:19.000Z</time>
      </trkpt>
      <trkpt lat="48.38904" lon="-4.70423">
        <ele>56.400001525879</ele>
        <time>2022-03-30T16:11:20.000Z</time>
      </trkpt>
      <trkpt lat="48.38939" lon="-4.70465">
        <ele>55</ele>
        <time>2022-03-30T16:11:26.000Z</time>
      </trkpt>
      <trkpt lat="48.38961" lon="-4.70481">
        <ele>52.799999237061</ele>
        <time>2022-03-30T16:11:29.000Z</time>
      </trkpt>
      <trkpt lat="48.3897" lon="-4.70485">
        <ele>51.599998474121</ele>
        <time>2022-03-30T16:11:30.000Z</time>
      </trkpt>
      <trkpt lat="48.38979" lon="-4.70487">
        <ele>50.200000762939</ele>
        <time>2022-03-30T16:11:31.000Z</time>
      </trkpt>
      <trkpt lat="48.38989" lon="-4.70487">
        <ele>48.599998474121</ele>
        <time>2022-03-30T16:11:32.000Z</time>
      </trkpt>
      <trkpt lat="48.39" lon="-4.70483">
        <ele>47</ele>
        <time>2022-03-30T16:11:33.000Z</time>
      </trkpt>
      <trkpt lat="48.39016" lon="-4.70467">
        <ele>46</ele>
        <time>2022-03-30T16:11:35.000Z</time>
      </trkpt>
      <trkpt lat="48.39028" lon="-4.70453">
        <ele>45.599998474121</ele>
        <time>2022-03-30T16:11:36.000Z</time>
      </trkpt>
      <trkpt lat="48.39039" lon="-4.70447">
        <ele>45</ele>
        <time>2022-03-30T16:11:37.000Z</time>
      </trkpt>
      <trkpt lat="48.39049" lon="-4.70449">
        <ele>44.400001525879</ele>
        <time>2022-03-30T16:11:38.000Z</time>
      </trkpt>
      <trkpt lat="48.39058" lon="-4.70456">
        <ele>43.799999237061</ele>
        <time>2022-03-30T16:11:39.000Z</time>
      </trkpt>
      <trkpt lat="48.39064" lon="-4.70467">
        <ele>43.200000762939</ele>
        <time>2022-03-30T16:11:40.000Z</time>
      </trkpt>
      <trkpt lat="48.39068" lon="-4.70479">
        <ele>43</ele>
        <time>2022-03-30T16:11:41.000Z</time>
      </trkpt>
      <trkpt lat="48.3907" lon="-4.70491">
        <ele>43.200000762939</ele>
        <time>2022-03-30T16:11:42.000Z</time>
      </trkpt>
      <trkpt lat="48.39073" lon="-4.70526">
        <ele>43.400001525879</ele>
        <time>2022-03-30T16:11:45.000Z</time>
      </trkpt>
      <trkpt lat="48.39075" lon="-4.70546">
        <ele>43.599998474121</ele>
        <time>2022-03-30T16:11:47.000Z</time>
      </trkpt>
      <trkpt lat="48.39076" lon="-4.70564">
        <ele>43.799999237061</ele>
        <time>2022-03-30T16:11:49.000Z</time>
      </trkpt>
      <trkpt lat="48.39078" lon="-4.70579">
        <ele>44.400001525879</ele>
        <time>2022-03-30T16:11:51.000Z</time>
      </trkpt>
      <trkpt lat="48.39079" lon="-4.70599">
        <ele>45</ele>
        <time>2022-03-30T16:11:54.000Z</time>
      </trkpt>
      <trkpt lat="48.3908" lon="-4.70606">
        <ele>45</ele>
        <time>2022-03-30T16:11:55.000Z</time>
      </trkpt>
      <trkpt lat="48.39082" lon="-4.70618">
        <ele>45.200000762939</ele>
        <time>2022-03-30T16:11:57.000Z</time>
      </trkpt>
      <trkpt lat="48.39082" lon="-4.70624">
        <ele>45.200000762939</ele>
        <time>2022-03-30T16:11:58.000Z</time>
      </trkpt>
      <trkpt lat="48.39087" lon="-4.70679">
        <ele>46.599998474121</ele>
        <time>2022-03-30T16:12:06.000Z</time>
      </trkpt>
      <trkpt lat="48.39096" lon="-4.70704">
        <ele>46.599998474121</ele>
        <time>2022-03-30T16:12:10.000Z</time>
      </trkpt>
      <trkpt lat="48.39101" lon="-4.70718">
        <ele>46.799999237061</ele>
        <time>2022-03-30T16:12:12.000Z</time>
      </trkpt>
      <trkpt lat="48.39111" lon="-4.70758">
        <ele>47</ele>
        <time>2022-03-30T16:12:17.000Z</time>
      </trkpt>
      <trkpt lat="48.39121" lon="-4.70785">
        <ele>46.400001525879</ele>
        <time>2022-03-30T16:12:21.000Z</time>
      </trkpt>
      <trkpt lat="48.39126" lon="-4.708">
        <ele>45.799999237061</ele>
        <time>2022-03-30T16:12:23.000Z</time>
      </trkpt>
      <trkpt lat="48.39138" lon="-4.70839">
        <ele>45</ele>
        <time>2022-03-30T16:12:29.000Z</time>
      </trkpt>
      <trkpt lat="48.39156" lon="-4.70884">
        <ele>44.599998474121</ele>
        <time>2022-03-30T16:12:37.000Z</time>
      </trkpt>
      <trkpt lat="48.39158" lon="-4.70907">
        <ele>45</ele>
        <time>2022-03-30T16:12:41.000Z</time>
      </trkpt>
      <trkpt lat="48.39152" lon="-4.70915">
        <ele>45</ele>
        <time>2022-03-30T16:12:43.000Z</time>
      </trkpt>
      <trkpt lat="48.39148" lon="-4.70918">
        <ele>45</ele>
        <time>2022-03-30T16:12:44.000Z</time>
      </trkpt>
      <trkpt lat="48.39144" lon="-4.7092">
        <ele>45</ele>
        <time>2022-03-30T16:12:45.000Z</time>
      </trkpt>
      <trkpt lat="48.39126" lon="-4.70933">
        <ele>45</ele>
        <time>2022-03-30T16:12:49.000Z</time>
      </trkpt>
      <trkpt lat="48.39098" lon="-4.70964">
        <ele>44</ele>
        <time>2022-03-30T16:12:55.000Z</time>
      </trkpt>
      <trkpt lat="48.39092" lon="-4.70981">
        <ele>43</ele>
        <time>2022-03-30T16:12:57.000Z</time>
      </trkpt>
      <trkpt lat="48.39092" lon="-4.7099">
        <ele>42.599998474121</ele>
        <time>2022-03-30T16:12:58.000Z</time>
      </trkpt>
      <trkpt lat="48.39093" lon="-4.71">
        <ele>42</ele>
        <time>2022-03-30T16:12:59.000Z</time>
      </trkpt>
      <trkpt lat="48.39098" lon="-4.71026">
        <ele>41.400001525879</ele>
        <time>2022-03-30T16:13:02.000Z</time>
      </trkpt>
      <trkpt lat="48.39104" lon="-4.71081">
        <ele>43.799999237061</ele>
        <time>2022-03-30T16:13:09.000Z</time>
      </trkpt>
      <trkpt lat="48.39105" lon="-4.71095">
        <ele>44.200000762939</ele>
        <time>2022-03-30T16:13:11.000Z</time>
      </trkpt>
      <trkpt lat="48.39105" lon="-4.71108">
        <ele>45.200000762939</ele>
        <time>2022-03-30T16:13:13.000Z</time>
      </trkpt>
      <trkpt lat="48.39105" lon="-4.71114">
        <ele>45.599998474121</ele>
        <time>2022-03-30T16:13:14.000Z</time>
      </trkpt>
      <trkpt lat="48.39105" lon="-4.71158">
        <ele>45.799999237061</ele>
        <time>2022-03-30T16:13:21.000Z</time>
      </trkpt>
      <trkpt lat="48.39104" lon="-4.71201">
        <ele>45.799999237061</ele>
        <time>2022-03-30T16:13:28.000Z</time>
      </trkpt>
      <trkpt lat="48.39101" lon="-4.71247">
        <ele>46</ele>
        <time>2022-03-30T16:13:35.000Z</time>
      </trkpt>
      <trkpt lat="48.39102" lon="-4.71298">
        <ele>46</ele>
        <time>2022-03-30T16:13:43.000Z</time>
      </trkpt>
      <trkpt lat="48.39101" lon="-4.71351">
        <ele>46.200000762939</ele>
        <time>2022-03-30T16:13:51.000Z</time>
      </trkpt>
      <trkpt lat="48.39101" lon="-4.71405">
        <ele>46.400001525879</ele>
        <time>2022-03-30T16:13:59.000Z</time>
      </trkpt>
      <trkpt lat="48.39101" lon="-4.71458">
        <ele>46</ele>
        <time>2022-03-30T16:14:07.000Z</time>
      </trkpt>
      <trkpt lat="48.39101" lon="-4.71509">
        <ele>47</ele>
        <time>2022-03-30T16:14:15.000Z</time>
      </trkpt>
      <trkpt lat="48.39102" lon="-4.71561">
        <ele>48.799999237061</ele>
        <time>2022-03-30T16:14:23.000Z</time>
      </trkpt>
      <trkpt lat="48.39102" lon="-4.71567">
        <ele>49</ele>
        <time>2022-03-30T16:14:24.000Z</time>
      </trkpt>
      <trkpt lat="48.39105" lon="-4.71612">
        <ele>49.799999237061</ele>
        <time>2022-03-30T16:14:31.000Z</time>
      </trkpt>
      <trkpt lat="48.39107" lon="-4.71644">
        <ele>51.799999237061</ele>
        <time>2022-03-30T16:14:36.000Z</time>
      </trkpt>
      <trkpt lat="48.39108" lon="-4.71657">
        <ele>52</ele>
        <time>2022-03-30T16:14:38.000Z</time>
      </trkpt>
      <trkpt lat="48.39108" lon="-4.7167">
        <ele>52</ele>
        <time>2022-03-30T16:14:40.000Z</time>
      </trkpt>
      <trkpt lat="48.39111" lon="-4.71702">
        <ele>52.400001525879</ele>
        <time>2022-03-30T16:14:45.000Z</time>
      </trkpt>
      <trkpt lat="48.39115" lon="-4.71753">
        <ele>54.400001525879</ele>
        <time>2022-03-30T16:14:53.000Z</time>
      </trkpt>
      <trkpt lat="48.39116" lon="-4.71779">
        <ele>54.400001525879</ele>
        <time>2022-03-30T16:14:57.000Z</time>
      </trkpt>
      <trkpt lat="48.39118" lon="-4.71799">
        <ele>54.400001525879</ele>
        <time>2022-03-30T16:15:00.000Z</time>
      </trkpt>
      <trkpt lat="48.39123" lon="-4.71838">
        <ele>53</ele>
        <time>2022-03-30T16:15:07.000Z</time>
      </trkpt>
      <trkpt lat="48.39135" lon="-4.71847">
        <ele>52.799999237061</ele>
        <time>2022-03-30T16:15:11.000Z</time>
      </trkpt>
      <trkpt lat="48.39167" lon="-4.71861">
        <ele>51</ele>
        <time>2022-03-30T16:15:19.000Z</time>
      </trkpt>
      <trkpt lat="48.39209" lon="-4.71886">
        <ele>50</ele>
        <time>2022-03-30T16:15:29.000Z</time>
      </trkpt>
      <trkpt lat="48.39262" lon="-4.71919">
        <ele>49.400001525879</ele>
        <time>2022-03-30T16:15:41.000Z</time>
      </trkpt>
      <trkpt lat="48.39306" lon="-4.71949">
        <ele>48</ele>
        <time>2022-03-30T16:15:51.000Z</time>
      </trkpt>
      <trkpt lat="48.3931" lon="-4.71953">
        <ele>47.799999237061</ele>
        <time>2022-03-30T16:15:52.000Z</time>
      </trkpt>
      <trkpt lat="48.39314" lon="-4.71967">
        <ele>47.599998474121</ele>
        <time>2022-03-30T16:15:54.000Z</time>
      </trkpt>
      <trkpt lat="48.39311" lon="-4.71982">
        <ele>48.200000762939</ele>
        <time>2022-03-30T16:15:56.000Z</time>
      </trkpt>
      <trkpt lat="48.39308" lon="-4.71988">
        <ele>48.400001525879</ele>
        <time>2022-03-30T16:15:57.000Z</time>
      </trkpt>
      <trkpt lat="48.39281" lon="-4.72046">
        <ele>50.400001525879</ele>
        <time>2022-03-30T16:16:07.000Z</time>
      </trkpt>
      <trkpt lat="48.39257" lon="-4.72103">
        <ele>51</ele>
        <time>2022-03-30T16:16:17.000Z</time>
      </trkpt>
      <trkpt lat="48.39229" lon="-4.72169">
        <ele>51.400001525879</ele>
        <time>2022-03-30T16:16:28.000Z</time>
      </trkpt>
      <trkpt lat="48.39202" lon="-4.72233">
        <ele>50.200000762939</ele>
        <time>2022-03-30T16:16:38.000Z</time>
      </trkpt>
      <trkpt lat="48.39177" lon="-4.72279">
        <ele>51.599998474121</ele>
        <time>2022-03-30T16:16:46.000Z</time>
      </trkpt>
      <trkpt lat="48.39169" lon="-4.72289">
        <ele>51.799999237061</ele>
        <time>2022-03-30T16:16:48.000Z</time>
      </trkpt>
      <trkpt lat="48.3915" lon="-4.72307">
        <ele>51.599998474121</ele>
        <time>2022-03-30T16:16:52.000Z</time>
      </trkpt>
      <trkpt lat="48.39124" lon="-4.72327">
        <ele>51.200000762939</ele>
        <time>2022-03-30T16:16:57.000Z</time>
      </trkpt>
      <trkpt lat="48.39105" lon="-4.72344">
        <ele>51.200000762939</ele>
        <time>2022-03-30T16:17:01.000Z</time>
      </trkpt>
      <trkpt lat="48.39103" lon="-4.72351">
        <ele>51.400001525879</ele>
        <time>2022-03-30T16:17:02.000Z</time>
      </trkpt>
      <trkpt lat="48.39103" lon="-4.72358">
        <ele>51.599998474121</ele>
        <time>2022-03-30T16:17:03.000Z</time>
      </trkpt>
      <trkpt lat="48.39108" lon="-4.72369">
        <ele>52</ele>
        <time>2022-03-30T16:17:05.000Z</time>
      </trkpt>
      <trkpt lat="48.39131" lon="-4.72414">
        <ele>52.799999237061</ele>
        <time>2022-03-30T16:17:14.000Z</time>
      </trkpt>
      <trkpt lat="48.39151" lon="-4.72451">
        <ele>53.400001525879</ele>
        <time>2022-03-30T16:17:22.000Z</time>
      </trkpt>
      <trkpt lat="48.39168" lon="-4.72488">
        <ele>53.799999237061</ele>
        <time>2022-03-30T16:17:29.000Z</time>
      </trkpt>
      <trkpt lat="48.39181" lon="-4.72516">
        <ele>53.400001525879</ele>
        <time>2022-03-30T16:17:34.000Z</time>
      </trkpt>
      <trkpt lat="48.39182" lon="-4.72528">
        <ele>53.400001525879</ele>
        <time>2022-03-30T16:17:36.000Z</time>
      </trkpt>
      <trkpt lat="48.3918" lon="-4.72542">
        <ele>53.400001525879</ele>
        <time>2022-03-30T16:17:38.000Z</time>
      </trkpt>
      <trkpt lat="48.39176" lon="-4.72554">
        <ele>53.599998474121</ele>
        <time>2022-03-30T16:17:40.000Z</time>
      </trkpt>
      <trkpt lat="48.39158" lon="-4.72597">
        <ele>54</ele>
        <time>2022-03-30T16:17:47.000Z</time>
      </trkpt>
      <trkpt lat="48.39141" lon="-4.72642">
        <ele>53.200000762939</ele>
        <time>2022-03-30T16:17:54.000Z</time>
      </trkpt>
      <trkpt lat="48.39125" lon="-4.7268">
        <ele>53</ele>
        <time>2022-03-30T16:17:59.000Z</time>
      </trkpt>
      <trkpt lat="48.39098" lon="-4.7275">
        <ele>53</ele>
        <time>2022-03-30T16:18:07.000Z</time>
      </trkpt>
      <trkpt lat="48.39074" lon="-4.72806">
        <ele>52.200000762939</ele>
        <time>2022-03-30T16:18:14.000Z</time>
      </trkpt>
      <trkpt lat="48.39045" lon="-4.72863">
        <ele>51.400001525879</ele>
        <time>2022-03-30T16:18:22.000Z</time>
      </trkpt>
      <trkpt lat="48.39034" lon="-4.72886">
        <ele>51</ele>
        <time>2022-03-30T16:18:25.000Z</time>
      </trkpt>
      <trkpt lat="48.39027" lon="-4.72902">
        <ele>51</ele>
        <time>2022-03-30T16:18:27.000Z</time>
      </trkpt>
      <trkpt lat="48.39005" lon="-4.72968">
        <ele>51.799999237061</ele>
        <time>2022-03-30T16:18:35.000Z</time>
      </trkpt>
      <trkpt lat="48.38982" lon="-4.73035">
        <ele>52.400001525879</ele>
        <time>2022-03-30T16:18:44.000Z</time>
      </trkpt>
      <trkpt lat="48.38962" lon="-4.7309">
        <ele>52.200000762939</ele>
        <time>2022-03-30T16:18:52.000Z</time>
      </trkpt>
      <trkpt lat="48.38947" lon="-4.73136">
        <ele>54.400001525879</ele>
        <time>2022-03-30T16:18:59.000Z</time>
      </trkpt>
      <trkpt lat="48.38929" lon="-4.73186">
        <ele>56</ele>
        <time>2022-03-30T16:19:07.000Z</time>
      </trkpt>
      <trkpt lat="48.38911" lon="-4.73239">
        <ele>55</ele>
        <time>2022-03-30T16:19:15.000Z</time>
      </trkpt>
      <trkpt lat="48.38892" lon="-4.73292">
        <ele>54</ele>
        <time>2022-03-30T16:19:22.000Z</time>
      </trkpt>
      <trkpt lat="48.38871" lon="-4.73358">
        <ele>52.400001525879</ele>
        <time>2022-03-30T16:19:30.000Z</time>
      </trkpt>
      <trkpt lat="48.38856" lon="-4.73415">
        <ele>51.799999237061</ele>
        <time>2022-03-30T16:19:37.000Z</time>
      </trkpt>
      <trkpt lat="48.38839" lon="-4.73473">
        <ele>52.599998474121</ele>
        <time>2022-03-30T16:19:44.000Z</time>
      </trkpt>
      <trkpt lat="48.38818" lon="-4.73544">
        <ele>51.599998474121</ele>
        <time>2022-03-30T16:19:52.000Z</time>
      </trkpt>
      <trkpt lat="48.38797" lon="-4.73607">
        <ele>50.400001525879</ele>
        <time>2022-03-30T16:19:59.000Z</time>
      </trkpt>
      <trkpt lat="48.38785" lon="-4.7363">
        <ele>50</ele>
        <time>2022-03-30T16:20:02.000Z</time>
      </trkpt>
      <trkpt lat="48.38784" lon="-4.73639">
        <ele>50</ele>
        <time>2022-03-30T16:20:03.000Z</time>
      </trkpt>
      <trkpt lat="48.38786" lon="-4.73648">
        <ele>50</ele>
        <time>2022-03-30T16:20:04.000Z</time>
      </trkpt>
      <trkpt lat="48.38792" lon="-4.73662">
        <ele>50</ele>
        <time>2022-03-30T16:20:06.000Z</time>
      </trkpt>
      <trkpt lat="48.38801" lon="-4.73681">
        <ele>49.799999237061</ele>
        <time>2022-03-30T16:20:09.000Z</time>
      </trkpt>
      <trkpt lat="48.38807" lon="-4.73703">
        <ele>49</ele>
        <time>2022-03-30T16:20:12.000Z</time>
      </trkpt>
      <trkpt lat="48.3881" lon="-4.7375">
        <ele>47.200000762939</ele>
        <time>2022-03-30T16:20:18.000Z</time>
      </trkpt>
      <trkpt lat="48.38811" lon="-4.7377">
        <ele>47</ele>
        <time>2022-03-30T16:20:22.000Z</time>
      </trkpt>
      <trkpt lat="48.3881" lon="-4.73774">
        <ele>47</ele>
        <time>2022-03-30T16:20:23.000Z</time>
      </trkpt>
      <trkpt lat="48.38805" lon="-4.7378">
        <ele>47</ele>
        <time>2022-03-30T16:20:25.000Z</time>
      </trkpt>
      <trkpt lat="48.38794" lon="-4.73788">
        <ele>47.200000762939</ele>
        <time>2022-03-30T16:20:28.000Z</time>
      </trkpt>
      <trkpt lat="48.38786" lon="-4.73794">
        <ele>47.200000762939</ele>
        <time>2022-03-30T16:20:30.000Z</time>
      </trkpt>
      <trkpt lat="48.38752" lon="-4.73817">
        <ele>48.599998474121</ele>
        <time>2022-03-30T16:20:38.000Z</time>
      </trkpt>
      <trkpt lat="48.38722" lon="-4.73837">
        <ele>49.799999237061</ele>
        <time>2022-03-30T16:20:45.000Z</time>
      </trkpt>
      <trkpt lat="48.38719" lon="-4.73841">
        <ele>50</ele>
        <time>2022-03-30T16:20:46.000Z</time>
      </trkpt>
      <trkpt lat="48.38713" lon="-4.73852">
        <ele>50.400001525879</ele>
        <time>2022-03-30T16:20:48.000Z</time>
      </trkpt>
      <trkpt lat="48.38711" lon="-4.73858">
        <ele>50.599998474121</ele>
        <time>2022-03-30T16:20:49.000Z</time>
      </trkpt>
      <trkpt lat="48.38703" lon="-4.73903">
        <ele>50.799999237061</ele>
        <time>2022-03-30T16:20:56.000Z</time>
      </trkpt>
      <trkpt lat="48.387" lon="-4.73923">
        <ele>50.599998474121</ele>
        <time>2022-03-30T16:20:59.000Z</time>
      </trkpt>
      <trkpt lat="48.38696" lon="-4.73943">
        <ele>50.799999237061</ele>
        <time>2022-03-30T16:21:02.000Z</time>
      </trkpt>
      <trkpt lat="48.38684" lon="-4.73998">
        <ele>51</ele>
        <time>2022-03-30T16:21:10.000Z</time>
      </trkpt>
      <trkpt lat="48.38672" lon="-4.74055">
        <ele>51</ele>
        <time>2022-03-30T16:21:18.000Z</time>
      </trkpt>
      <trkpt lat="48.38658" lon="-4.7412">
        <ele>49.799999237061</ele>
        <time>2022-03-30T16:21:26.000Z</time>
      </trkpt>
      <trkpt lat="48.38642" lon="-4.7419">
        <ele>46.599998474121</ele>
        <time>2022-03-30T16:21:33.000Z</time>
      </trkpt>
      <trkpt lat="48.38626" lon="-4.74268">
        <ele>42.599998474121</ele>
        <time>2022-03-30T16:21:40.000Z</time>
      </trkpt>
      <trkpt lat="48.38624" lon="-4.7428">
        <ele>42.200000762939</ele>
        <time>2022-03-30T16:21:41.000Z</time>
      </trkpt>
      <trkpt lat="48.38614" lon="-4.7436">
        <ele>42.599998474121</ele>
        <time>2022-03-30T16:21:48.000Z</time>
      </trkpt>
      <trkpt lat="48.38607" lon="-4.74412">
        <ele>43</ele>
        <time>2022-03-30T16:21:53.000Z</time>
      </trkpt>
      <trkpt lat="48.38597" lon="-4.74449">
        <ele>43.400001525879</ele>
        <time>2022-03-30T16:21:58.000Z</time>
      </trkpt>
      <trkpt lat="48.38585" lon="-4.74497">
        <ele>43.200000762939</ele>
        <time>2022-03-30T16:22:05.000Z</time>
      </trkpt>
      <trkpt lat="48.38568" lon="-4.74543">
        <ele>41.599998474121</ele>
        <time>2022-03-30T16:22:12.000Z</time>
      </trkpt>
      <trkpt lat="48.38551" lon="-4.74568">
        <ele>41</ele>
        <time>2022-03-30T16:22:16.000Z</time>
      </trkpt>
      <trkpt lat="48.38547" lon="-4.74575">
        <ele>41</ele>
        <time>2022-03-30T16:22:17.000Z</time>
      </trkpt>
      <trkpt lat="48.38544" lon="-4.74583">
        <ele>41</ele>
        <time>2022-03-30T16:22:18.000Z</time>
      </trkpt>
      <trkpt lat="48.38539" lon="-4.746">
        <ele>41</ele>
        <time>2022-03-30T16:22:20.000Z</time>
      </trkpt>
      <trkpt lat="48.38537" lon="-4.74609">
        <ele>41</ele>
        <time>2022-03-30T16:22:21.000Z</time>
      </trkpt>
      <trkpt lat="48.38537" lon="-4.74619">
        <ele>41</ele>
        <time>2022-03-30T16:22:22.000Z</time>
      </trkpt>
      <trkpt lat="48.38537" lon="-4.74656">
        <ele>41</ele>
        <time>2022-03-30T16:22:26.000Z</time>
      </trkpt>
      <trkpt lat="48.38534" lon="-4.74738">
        <ele>38.599998474121</ele>
        <time>2022-03-30T16:22:35.000Z</time>
      </trkpt>
      <trkpt lat="48.38532" lon="-4.74745">
        <ele>38.400001525879</ele>
        <time>2022-03-30T16:22:36.000Z</time>
      </trkpt>
      <trkpt lat="48.38525" lon="-4.74753">
        <ele>38.200000762939</ele>
        <time>2022-03-30T16:22:38.000Z</time>
      </trkpt>
      <trkpt lat="48.38505" lon="-4.74751">
        <ele>38.200000762939</ele>
        <time>2022-03-30T16:22:43.000Z</time>
      </trkpt>
      <trkpt lat="48.38475" lon="-4.74749">
        <ele>38.200000762939</ele>
        <time>2022-03-30T16:22:49.000Z</time>
      </trkpt>
      <trkpt lat="48.38433" lon="-4.74746">
        <ele>36.799999237061</ele>
        <time>2022-03-30T16:22:56.000Z</time>
      </trkpt>
      <trkpt lat="48.38391" lon="-4.74737">
        <ele>36.599998474121</ele>
        <time>2022-03-30T16:23:02.000Z</time>
      </trkpt>
      <trkpt lat="48.38353" lon="-4.74717">
        <ele>38.200000762939</ele>
        <time>2022-03-30T16:23:08.000Z</time>
      </trkpt>
      <trkpt lat="48.38326" lon="-4.74703">
        <ele>39.200000762939</ele>
        <time>2022-03-30T16:23:13.000Z</time>
      </trkpt>
      <trkpt lat="48.38321" lon="-4.747">
        <ele>39.599998474121</ele>
        <time>2022-03-30T16:23:14.000Z</time>
      </trkpt>
      <trkpt lat="48.38288" lon="-4.74684">
        <ele>41</ele>
        <time>2022-03-30T16:23:21.000Z</time>
      </trkpt>
      <trkpt lat="48.38252" lon="-4.74667">
        <ele>41.599998474121</ele>
        <time>2022-03-30T16:23:29.000Z</time>
      </trkpt>
      <trkpt lat="48.38248" lon="-4.74667">
        <ele>41.799999237061</ele>
        <time>2022-03-30T16:23:30.000Z</time>
      </trkpt>
      <trkpt lat="48.38244" lon="-4.7467">
        <ele>41.799999237061</ele>
        <time>2022-03-30T16:23:31.000Z</time>
      </trkpt>
      <trkpt lat="48.38242" lon="-4.74675">
        <ele>42</ele>
        <time>2022-03-30T16:23:32.000Z</time>
      </trkpt>
      <trkpt lat="48.38242" lon="-4.747">
        <ele>42.799999237061</ele>
        <time>2022-03-30T16:23:36.000Z</time>
      </trkpt>
      <trkpt lat="48.38242" lon="-4.7476">
        <ele>41</ele>
        <time>2022-03-30T16:23:44.000Z</time>
      </trkpt>
      <trkpt lat="48.3824" lon="-4.74816">
        <ele>39.400001525879</ele>
        <time>2022-03-30T16:23:51.000Z</time>
      </trkpt>
      <trkpt lat="48.38238" lon="-4.74824">
        <ele>39.599998474121</ele>
        <time>2022-03-30T16:23:52.000Z</time>
      </trkpt>
      <trkpt lat="48.38235" lon="-4.7483">
        <ele>39.799999237061</ele>
        <time>2022-03-30T16:23:53.000Z</time>
      </trkpt>
      <trkpt lat="48.38225" lon="-4.74837">
        <ele>40.599998474121</ele>
        <time>2022-03-30T16:23:55.000Z</time>
      </trkpt>
      <trkpt lat="48.382" lon="-4.74842">
        <ele>42.400001525879</ele>
        <time>2022-03-30T16:24:00.000Z</time>
      </trkpt>
      <trkpt lat="48.38169" lon="-4.74847">
        <ele>43.799999237061</ele>
        <time>2022-03-30T16:24:08.000Z</time>
      </trkpt>
      <trkpt lat="48.38145" lon="-4.74852">
        <ele>44.599998474121</ele>
        <time>2022-03-30T16:24:14.000Z</time>
      </trkpt>
      <trkpt lat="48.38129" lon="-4.74858">
        <ele>44.799999237061</ele>
        <time>2022-03-30T16:24:18.000Z</time>
      </trkpt>
      <trkpt lat="48.38114" lon="-4.74865">
        <ele>44.200000762939</ele>
        <time>2022-03-30T16:24:21.000Z</time>
      </trkpt>
      <trkpt lat="48.38079" lon="-4.74891">
        <ele>42</ele>
        <time>2022-03-30T16:24:27.000Z</time>
      </trkpt>
      <trkpt lat="48.38052" lon="-4.74913">
        <ele>41</ele>
        <time>2022-03-30T16:24:31.000Z</time>
      </trkpt>
      <trkpt lat="48.38045" lon="-4.74916">
        <ele>40.799999237061</ele>
        <time>2022-03-30T16:24:32.000Z</time>
      </trkpt>
      <trkpt lat="48.38037" lon="-4.74918">
        <ele>40.400001525879</ele>
        <time>2022-03-30T16:24:33.000Z</time>
      </trkpt>
      <trkpt lat="48.38007" lon="-4.7492">
        <ele>40.599998474121</ele>
        <time>2022-03-30T16:24:37.000Z</time>
      </trkpt>
      <trkpt lat="48.37992" lon="-4.74922">
        <ele>41</ele>
        <time>2022-03-30T16:24:39.000Z</time>
      </trkpt>
      <trkpt lat="48.37978" lon="-4.74929">
        <ele>40.799999237061</ele>
        <time>2022-03-30T16:24:41.000Z</time>
      </trkpt>
      <trkpt lat="48.37956" lon="-4.74955">
        <ele>40</ele>
        <time>2022-03-30T16:24:45.000Z</time>
      </trkpt>
      <trkpt lat="48.37941" lon="-4.74974">
        <ele>40</ele>
        <time>2022-03-30T16:24:48.000Z</time>
      </trkpt>
      <trkpt lat="48.37936" lon="-4.74992">
        <ele>40</ele>
        <time>2022-03-30T16:24:50.000Z</time>
      </trkpt>
      <trkpt lat="48.37938" lon="-4.75009">
        <ele>40</ele>
        <time>2022-03-30T16:24:52.000Z</time>
      </trkpt>
      <trkpt lat="48.3794" lon="-4.75026">
        <ele>40.599998474121</ele>
        <time>2022-03-30T16:24:54.000Z</time>
      </trkpt>
      <trkpt lat="48.37945" lon="-4.75089">
        <ele>40.799999237061</ele>
        <time>2022-03-30T16:25:02.000Z</time>
      </trkpt>
      <trkpt lat="48.3795" lon="-4.75151">
        <ele>41.200000762939</ele>
        <time>2022-03-30T16:25:10.000Z</time>
      </trkpt>
      <trkpt lat="48.37952" lon="-4.75188">
        <ele>41.599998474121</ele>
        <time>2022-03-30T16:25:15.000Z</time>
      </trkpt>
      <trkpt lat="48.37953" lon="-4.75203">
        <ele>42</ele>
        <time>2022-03-30T16:25:17.000Z</time>
      </trkpt>
      <trkpt lat="48.37957" lon="-4.75231">
        <ele>43</ele>
        <time>2022-03-30T16:25:21.000Z</time>
      </trkpt>
      <trkpt lat="48.3796" lon="-4.75253">
        <ele>42.400001525879</ele>
        <time>2022-03-30T16:25:24.000Z</time>
      </trkpt>
      <trkpt lat="48.37973" lon="-4.75305">
        <ele>41.200000762939</ele>
        <time>2022-03-30T16:25:31.000Z</time>
      </trkpt>
      <trkpt lat="48.37974" lon="-4.75313">
        <ele>41</ele>
        <time>2022-03-30T16:25:32.000Z</time>
      </trkpt>
      <trkpt lat="48.37975" lon="-4.75329">
        <ele>40.400001525879</ele>
        <time>2022-03-30T16:25:34.000Z</time>
      </trkpt>
      <trkpt lat="48.37965" lon="-4.75367">
        <ele>39.200000762939</ele>
        <time>2022-03-30T16:25:39.000Z</time>
      </trkpt>
      <trkpt lat="48.37947" lon="-4.75442">
        <ele>38.799999237061</ele>
        <time>2022-03-30T16:25:48.000Z</time>
      </trkpt>
      <trkpt lat="48.37935" lon="-4.75486">
        <ele>38</ele>
        <time>2022-03-30T16:25:53.000Z</time>
      </trkpt>
      <trkpt lat="48.37926" lon="-4.75498">
        <ele>38</ele>
        <time>2022-03-30T16:25:55.000Z</time>
      </trkpt>
      <trkpt lat="48.37914" lon="-4.755">
        <ele>38.200000762939</ele>
        <time>2022-03-30T16:25:57.000Z</time>
      </trkpt>
      <trkpt lat="48.37908" lon="-4.75499">
        <ele>38.400001525879</ele>
        <time>2022-03-30T16:25:58.000Z</time>
      </trkpt>
      <trkpt lat="48.37853" lon="-4.75492">
        <ele>37.400001525879</ele>
        <time>2022-03-30T16:26:07.000Z</time>
      </trkpt>
      <trkpt lat="48.37813" lon="-4.7548">
        <ele>36.400001525879</ele>
        <time>2022-03-30T16:26:14.000Z</time>
      </trkpt>
      <trkpt lat="48.37803" lon="-4.75488">
        <ele>36</ele>
        <time>2022-03-30T16:26:16.000Z</time>
      </trkpt>
      <trkpt lat="48.37799" lon="-4.75496">
        <ele>36</ele>
        <time>2022-03-30T16:26:17.000Z</time>
      </trkpt>
      <trkpt lat="48.37781" lon="-4.75546">
        <ele>35.799999237061</ele>
        <time>2022-03-30T16:26:23.000Z</time>
      </trkpt>
      <trkpt lat="48.37779" lon="-4.75584">
        <ele>35</ele>
        <time>2022-03-30T16:26:27.000Z</time>
      </trkpt>
      <trkpt lat="48.37778" lon="-4.75621">
        <ele>35</ele>
        <time>2022-03-30T16:26:31.000Z</time>
      </trkpt>
      <trkpt lat="48.37781" lon="-4.7565">
        <ele>35</ele>
        <time>2022-03-30T16:26:34.000Z</time>
      </trkpt>
      <trkpt lat="48.37783" lon="-4.75669">
        <ele>35.200000762939</ele>
        <time>2022-03-30T16:26:36.000Z</time>
      </trkpt>
      <trkpt lat="48.3779" lon="-4.75719">
        <ele>35</ele>
        <time>2022-03-30T16:26:41.000Z</time>
      </trkpt>
      <trkpt lat="48.37803" lon="-4.75788">
        <ele>34</ele>
        <time>2022-03-30T16:26:48.000Z</time>
      </trkpt>
      <trkpt lat="48.3782" lon="-4.75845">
        <ele>33</ele>
        <time>2022-03-30T16:26:54.000Z</time>
      </trkpt>
      <trkpt lat="48.3784" lon="-4.75896">
        <ele>33</ele>
        <time>2022-03-30T16:27:00.000Z</time>
      </trkpt>
      <trkpt lat="48.37857" lon="-4.75961">
        <ele>30.60000038147</ele>
        <time>2022-03-30T16:27:08.000Z</time>
      </trkpt>
      <trkpt lat="48.37863" lon="-4.75983">
        <ele>29.60000038147</ele>
        <time>2022-03-30T16:27:11.000Z</time>
      </trkpt>
      <trkpt lat="48.37863" lon="-4.75991">
        <ele>29</ele>
        <time>2022-03-30T16:27:12.000Z</time>
      </trkpt>
      <trkpt lat="48.37861" lon="-4.75997">
        <ele>28.60000038147</ele>
        <time>2022-03-30T16:27:13.000Z</time>
      </trkpt>
      <trkpt lat="48.37858" lon="-4.76001">
        <ele>28.39999961853</ele>
        <time>2022-03-30T16:27:14.000Z</time>
      </trkpt>
      <trkpt lat="48.37853" lon="-4.76004">
        <ele>28.60000038147</ele>
        <time>2022-03-30T16:27:15.000Z</time>
      </trkpt>
      <trkpt lat="48.37828" lon="-4.76019">
        <ele>28.60000038147</ele>
        <time>2022-03-30T16:27:21.000Z</time>
      </trkpt>
      <trkpt lat="48.37823" lon="-4.76021">
        <ele>29</ele>
        <time>2022-03-30T16:27:22.000Z</time>
      </trkpt>
      <trkpt lat="48.3781" lon="-4.76029">
        <ele>29.799999237061</ele>
        <time>2022-03-30T16:27:25.000Z</time>
      </trkpt>
      <trkpt lat="48.37802" lon="-4.76034">
        <ele>30</ele>
        <time>2022-03-30T16:27:27.000Z</time>
      </trkpt>
      <trkpt lat="48.37768" lon="-4.76053">
        <ele>30.200000762939</ele>
        <time>2022-03-30T16:27:35.000Z</time>
      </trkpt>
      <trkpt lat="48.37733" lon="-4.76072">
        <ele>30.200000762939</ele>
        <time>2022-03-30T16:27:43.000Z</time>
      </trkpt>
      <trkpt lat="48.37728" lon="-4.76074">
        <ele>30.200000762939</ele>
        <time>2022-03-30T16:27:44.000Z</time>
      </trkpt>
      <trkpt lat="48.37709" lon="-4.76074">
        <ele>30.60000038147</ele>
        <time>2022-03-30T16:27:48.000Z</time>
      </trkpt>
      <trkpt lat="48.37672" lon="-4.76069">
        <ele>30.200000762939</ele>
        <time>2022-03-30T16:27:55.000Z</time>
      </trkpt>
      <trkpt lat="48.37622" lon="-4.76062">
        <ele>29</ele>
        <time>2022-03-30T16:28:04.000Z</time>
      </trkpt>
      <trkpt lat="48.37586" lon="-4.76057">
        <ele>26.799999237061</ele>
        <time>2022-03-30T16:28:11.000Z</time>
      </trkpt>
      <trkpt lat="48.37554" lon="-4.76048">
        <ele>25</ele>
        <time>2022-03-30T16:28:17.000Z</time>
      </trkpt>
      <trkpt lat="48.37544" lon="-4.76043">
        <ele>23.799999237061</ele>
        <time>2022-03-30T16:28:21.000Z</time>
      </trkpt>
      <trkpt lat="48.37533" lon="-4.76037">
        <ele>23.60000038147</ele>
        <time>2022-03-30T16:28:27.000Z</time>
      </trkpt>
      <trkpt lat="48.37533" lon="-4.76037">
        <ele>23.799999237061</ele>
        <time>2022-03-30T16:28:28.000Z</time>
      </trkpt>
      <trkpt lat="48.37534" lon="-4.76033">
        <ele>24.60000038147</ele>
        <time>2022-03-30T16:28:34.000Z</time>
      </trkpt>
      <trkpt lat="48.37538" lon="-4.76035">
        <ele>25</ele>
        <time>2022-03-30T16:28:36.000Z</time>
      </trkpt>
      <trkpt lat="48.37541" lon="-4.7604">
        <ele>24</ele>
        <time>2022-03-30T16:28:39.000Z</time>
      </trkpt>
      <trkpt lat="48.37542" lon="-4.76041">
        <ele>24</ele>
        <time>2022-03-30T16:28:40.000Z</time>
      </trkpt>
      <trkpt lat="48.37542" lon="-4.76041">
        <ele>24</ele>
        <time>2022-03-30T16:28:41.000Z</time>
      </trkpt>
      <trkpt lat="48.37542" lon="-4.76039">
        <ele>24.60000038147</ele>
        <time>2022-03-30T16:30:24.000Z</time>
      </trkpt>
      <trkpt lat="48.37542" lon="-4.76036">
        <ele>25.200000762939</ele>
        <time>2022-03-30T16:30:26.000Z</time>
      </trkpt>
      <trkpt lat="48.37539" lon="-4.76035">
        <ele>25.200000762939</ele>
        <time>2022-03-30T16:30:28.000Z</time>
      </trkpt>
      <trkpt lat="48.37537" lon="-4.76036">
        <ele>24.60000038147</ele>
        <time>2022-03-30T16:30:30.000Z</time>
      </trkpt>
      <trkpt lat="48.37526" lon="-4.7603">
        <ele>24</ele>
        <time>2022-03-30T16:30:36.000Z</time>
      </trkpt>
      <trkpt lat="48.3751" lon="-4.76018">
        <ele>24.200000762939</ele>
        <time>2022-03-30T16:30:41.000Z</time>
      </trkpt>
      <trkpt lat="48.37493" lon="-4.75996">
        <ele>25.799999237061</ele>
        <time>2022-03-30T16:30:46.000Z</time>
      </trkpt>
      <trkpt lat="48.37491" lon="-4.7599">
        <ele>26</ele>
        <time>2022-03-30T16:30:47.000Z</time>
      </trkpt>
      <trkpt lat="48.37472" lon="-4.75942">
        <ele>27.60000038147</ele>
        <time>2022-03-30T16:30:55.000Z</time>
      </trkpt>
      <trkpt lat="48.37466" lon="-4.75891">
        <ele>28.799999237061</ele>
        <time>2022-03-30T16:31:02.000Z</time>
      </trkpt>
      <trkpt lat="48.3746" lon="-4.75823">
        <ele>28</ele>
        <time>2022-03-30T16:31:11.000Z</time>
      </trkpt>
      <trkpt lat="48.37445" lon="-4.75769">
        <ele>28.200000762939</ele>
        <time>2022-03-30T16:31:19.000Z</time>
      </trkpt>
      <trkpt lat="48.3744" lon="-4.7575">
        <ele>28</ele>
        <time>2022-03-30T16:31:22.000Z</time>
      </trkpt>
      <trkpt lat="48.37436" lon="-4.75731">
        <ele>27.799999237061</ele>
        <time>2022-03-30T16:31:25.000Z</time>
      </trkpt>
      <trkpt lat="48.37421" lon="-4.75674">
        <ele>28</ele>
        <time>2022-03-30T16:31:33.000Z</time>
      </trkpt>
      <trkpt lat="48.37406" lon="-4.75609">
        <ele>29</ele>
        <time>2022-03-30T16:31:42.000Z</time>
      </trkpt>
      <trkpt lat="48.37392" lon="-4.75551">
        <ele>28.200000762939</ele>
        <time>2022-03-30T16:31:50.000Z</time>
      </trkpt>
      <trkpt lat="48.37373" lon="-4.75475">
        <ele>29</ele>
        <time>2022-03-30T16:32:00.000Z</time>
      </trkpt>
      <trkpt lat="48.37355" lon="-4.75406">
        <ele>30</ele>
        <time>2022-03-30T16:32:09.000Z</time>
      </trkpt>
      <trkpt lat="48.3734" lon="-4.75365">
        <ele>30.60000038147</ele>
        <time>2022-03-30T16:32:15.000Z</time>
      </trkpt>
      <trkpt lat="48.37318" lon="-4.75308">
        <ele>31</ele>
        <time>2022-03-30T16:32:25.000Z</time>
      </trkpt>
      <trkpt lat="48.373" lon="-4.75267">
        <ele>32.599998474121</ele>
        <time>2022-03-30T16:32:33.000Z</time>
      </trkpt>
      <trkpt lat="48.37284" lon="-4.75233">
        <ele>34.599998474121</ele>
        <time>2022-03-30T16:32:41.000Z</time>
      </trkpt>
      <trkpt lat="48.3728" lon="-4.7522">
        <ele>35</ele>
        <time>2022-03-30T16:32:45.000Z</time>
      </trkpt>
      <trkpt lat="48.37281" lon="-4.7521">
        <ele>35</ele>
        <time>2022-03-30T16:32:48.000Z</time>
      </trkpt>
      <trkpt lat="48.3728" lon="-4.75207">
        <ele>35</ele>
        <time>2022-03-30T16:32:49.000Z</time>
      </trkpt>
      <trkpt lat="48.3727" lon="-4.75192">
        <ele>35.400001525879</ele>
        <time>2022-03-30T16:32:55.000Z</time>
      </trkpt>
      <trkpt lat="48.37257" lon="-4.7517">
        <ele>35.599998474121</ele>
        <time>2022-03-30T16:33:01.000Z</time>
      </trkpt>
      <trkpt lat="48.37239" lon="-4.75139">
        <ele>36</ele>
        <time>2022-03-30T16:33:09.000Z</time>
      </trkpt>
      <trkpt lat="48.37223" lon="-4.7511">
        <ele>36.799999237061</ele>
        <time>2022-03-30T16:33:16.000Z</time>
      </trkpt>
      <trkpt lat="48.37212" lon="-4.7509">
        <ele>37.200000762939</ele>
        <time>2022-03-30T16:33:21.000Z</time>
      </trkpt>
      <trkpt lat="48.37199" lon="-4.75072">
        <ele>37.799999237061</ele>
        <time>2022-03-30T16:33:26.000Z</time>
      </trkpt>
      <trkpt lat="48.37197" lon="-4.7507">
        <ele>37.799999237061</ele>
        <time>2022-03-30T16:33:27.000Z</time>
      </trkpt>
      <trkpt lat="48.37197" lon="-4.75061">
        <ele>37.799999237061</ele>
        <time>2022-03-30T16:33:29.000Z</time>
      </trkpt>
      <trkpt lat="48.37201" lon="-4.75034">
        <ele>37</ele>
        <time>2022-03-30T16:33:34.000Z</time>
      </trkpt>
      <trkpt lat="48.37207" lon="-4.74986">
        <ele>38.400001525879</ele>
        <time>2022-03-30T16:33:42.000Z</time>
      </trkpt>
      <trkpt lat="48.37215" lon="-4.74938">
        <ele>40.799999237061</ele>
        <time>2022-03-30T16:33:49.000Z</time>
      </trkpt>
      <trkpt lat="48.37229" lon="-4.74863">
        <ele>38.799999237061</ele>
        <time>2022-03-30T16:33:59.000Z</time>
      </trkpt>
      <trkpt lat="48.37244" lon="-4.74787">
        <ele>36</ele>
        <time>2022-03-30T16:34:08.000Z</time>
      </trkpt>
      <trkpt lat="48.37256" lon="-4.74711">
        <ele>36</ele>
        <time>2022-03-30T16:34:16.000Z</time>
      </trkpt>
      <trkpt lat="48.37251" lon="-4.74684">
        <ele>36.599998474121</ele>
        <time>2022-03-30T16:34:19.000Z</time>
      </trkpt>
      <trkpt lat="48.37241" lon="-4.74677">
        <ele>37.400001525879</ele>
        <time>2022-03-30T16:34:21.000Z</time>
      </trkpt>
      <trkpt lat="48.37237" lon="-4.74678">
        <ele>38</ele>
        <time>2022-03-30T16:34:22.000Z</time>
      </trkpt>
      <trkpt lat="48.37234" lon="-4.74677">
        <ele>38.599998474121</ele>
        <time>2022-03-30T16:34:23.000Z</time>
      </trkpt>
      <trkpt lat="48.37232" lon="-4.74673">
        <ele>39</ele>
        <time>2022-03-30T16:34:25.000Z</time>
      </trkpt>
      <trkpt lat="48.3723" lon="-4.74664">
        <ele>39.799999237061</ele>
        <time>2022-03-30T16:34:28.000Z</time>
      </trkpt>
      <trkpt lat="48.37228" lon="-4.74662">
        <ele>40</ele>
        <time>2022-03-30T16:34:29.000Z</time>
      </trkpt>
      <trkpt lat="48.37217" lon="-4.74652">
        <ele>41.799999237061</ele>
        <time>2022-03-30T16:34:33.000Z</time>
      </trkpt>
      <trkpt lat="48.37213" lon="-4.7465">
        <ele>42.200000762939</ele>
        <time>2022-03-30T16:34:34.000Z</time>
      </trkpt>
      <trkpt lat="48.37205" lon="-4.74647">
        <ele>43.400001525879</ele>
        <time>2022-03-30T16:34:36.000Z</time>
      </trkpt>
      <trkpt lat="48.37196" lon="-4.74643">
        <ele>44.599998474121</ele>
        <time>2022-03-30T16:34:38.000Z</time>
      </trkpt>
      <trkpt lat="48.37187" lon="-4.74639">
        <ele>45.200000762939</ele>
        <time>2022-03-30T16:34:40.000Z</time>
      </trkpt>
      <trkpt lat="48.37175" lon="-4.74634">
        <ele>45.599998474121</ele>
        <time>2022-03-30T16:34:43.000Z</time>
      </trkpt>
      <trkpt lat="48.37154" lon="-4.74624">
        <ele>46</ele>
        <time>2022-03-30T16:34:47.000Z</time>
      </trkpt>
      <trkpt lat="48.37149" lon="-4.74624">
        <ele>46</ele>
        <time>2022-03-30T16:34:48.000Z</time>
      </trkpt>
      <trkpt lat="48.37145" lon="-4.74624">
        <ele>46</ele>
        <time>2022-03-30T16:34:49.000Z</time>
      </trkpt>
      <trkpt lat="48.37134" lon="-4.7462">
        <ele>46</ele>
        <time>2022-03-30T16:34:51.000Z</time>
      </trkpt>
      <trkpt lat="48.37122" lon="-4.7462">
        <ele>45.599998474121</ele>
        <time>2022-03-30T16:34:53.000Z</time>
      </trkpt>
      <trkpt lat="48.37116" lon="-4.74619">
        <ele>45.400001525879</ele>
        <time>2022-03-30T16:34:54.000Z</time>
      </trkpt>
      <trkpt lat="48.37103" lon="-4.74616">
        <ele>44.400001525879</ele>
        <time>2022-03-30T16:34:56.000Z</time>
      </trkpt>
      <trkpt lat="48.37089" lon="-4.74619">
        <ele>43</ele>
        <time>2022-03-30T16:34:58.000Z</time>
      </trkpt>
      <trkpt lat="48.37083" lon="-4.74618">
        <ele>42.400001525879</ele>
        <time>2022-03-30T16:34:59.000Z</time>
      </trkpt>
      <trkpt lat="48.37076" lon="-4.74615">
        <ele>41.400001525879</ele>
        <time>2022-03-30T16:35:00.000Z</time>
      </trkpt>
      <trkpt lat="48.3707" lon="-4.74613">
        <ele>40.599998474121</ele>
        <time>2022-03-30T16:35:01.000Z</time>
      </trkpt>
      <trkpt lat="48.37056" lon="-4.74614">
        <ele>39.200000762939</ele>
        <time>2022-03-30T16:35:03.000Z</time>
      </trkpt>
      <trkpt lat="48.37049" lon="-4.74614">
        <ele>38.400001525879</ele>
        <time>2022-03-30T16:35:04.000Z</time>
      </trkpt>
      <trkpt lat="48.37026" lon="-4.74616">
        <ele>37</ele>
        <time>2022-03-30T16:35:07.000Z</time>
      </trkpt>
      <trkpt lat="48.37011" lon="-4.74621">
        <ele>35.799999237061</ele>
        <time>2022-03-30T16:35:09.000Z</time>
      </trkpt>
      <trkpt lat="48.37004" lon="-4.74626">
        <ele>35.400001525879</ele>
        <time>2022-03-30T16:35:10.000Z</time>
      </trkpt>
      <trkpt lat="48.36984" lon="-4.74645">
        <ele>33</ele>
        <time>2022-03-30T16:35:13.000Z</time>
      </trkpt>
      <trkpt lat="48.36979" lon="-4.74653">
        <ele>32.799999237061</ele>
        <time>2022-03-30T16:35:14.000Z</time>
      </trkpt>
      <trkpt lat="48.36956" lon="-4.74683">
        <ele>31</ele>
        <time>2022-03-30T16:35:17.000Z</time>
      </trkpt>
      <trkpt lat="48.36956" lon="-4.74683">
        <ele>31</ele>
        <time>2022-03-30T16:35:18.000Z</time>
      </trkpt>
      <trkpt lat="48.36949" lon="-4.7469">
        <ele>30.60000038147</ele>
        <time>2022-03-30T16:35:19.000Z</time>
      </trkpt>
      <trkpt lat="48.36939" lon="-4.74706">
        <ele>30.200000762939</ele>
        <time>2022-03-30T16:35:21.000Z</time>
      </trkpt>
      <trkpt lat="48.36913" lon="-4.74725">
        <ele>28.39999961853</ele>
        <time>2022-03-30T16:35:25.000Z</time>
      </trkpt>
      <trkpt lat="48.3689" lon="-4.74728">
        <ele>28.799999237061</ele>
        <time>2022-03-30T16:35:28.000Z</time>
      </trkpt>
      <trkpt lat="48.36868" lon="-4.74737">
        <ele>29.200000762939</ele>
        <time>2022-03-30T16:35:31.000Z</time>
      </trkpt>
      <trkpt lat="48.36861" lon="-4.7474">
        <ele>29.200000762939</ele>
        <time>2022-03-30T16:35:32.000Z</time>
      </trkpt>
      <trkpt lat="48.36833" lon="-4.74755">
        <ele>28</ele>
        <time>2022-03-30T16:35:36.000Z</time>
      </trkpt>
      <trkpt lat="48.36826" lon="-4.74759">
        <ele>28.200000762939</ele>
        <time>2022-03-30T16:35:37.000Z</time>
      </trkpt>
      <trkpt lat="48.36806" lon="-4.74768">
        <ele>28.39999961853</ele>
        <time>2022-03-30T16:35:40.000Z</time>
      </trkpt>
      <trkpt lat="48.368" lon="-4.74771">
        <ele>28.39999961853</ele>
        <time>2022-03-30T16:35:41.000Z</time>
      </trkpt>
      <trkpt lat="48.36795" lon="-4.74772">
        <ele>28.60000038147</ele>
        <time>2022-03-30T16:35:42.000Z</time>
      </trkpt>
      <trkpt lat="48.3679" lon="-4.7477">
        <ele>28.39999961853</ele>
        <time>2022-03-30T16:35:43.000Z</time>
      </trkpt>
      <trkpt lat="48.36787" lon="-4.74765">
        <ele>27.60000038147</ele>
        <time>2022-03-30T16:35:44.000Z</time>
      </trkpt>
      <trkpt lat="48.36778" lon="-4.74755">
        <ele>25.799999237061</ele>
        <time>2022-03-30T16:35:46.000Z</time>
      </trkpt>
      <trkpt lat="48.36773" lon="-4.74751">
        <ele>25.200000762939</ele>
        <time>2022-03-30T16:35:47.000Z</time>
      </trkpt>
      <trkpt lat="48.36755" lon="-4.74742">
        <ele>23.799999237061</ele>
        <time>2022-03-30T16:35:50.000Z</time>
      </trkpt>
      <trkpt lat="48.36743" lon="-4.74734">
        <ele>22.39999961853</ele>
        <time>2022-03-30T16:35:52.000Z</time>
      </trkpt>
      <trkpt lat="48.36738" lon="-4.74733">
        <ele>22.200000762939</ele>
        <time>2022-03-30T16:35:53.000Z</time>
      </trkpt>
      <trkpt lat="48.36718" lon="-4.74728">
        <ele>20.799999237061</ele>
        <time>2022-03-30T16:35:56.000Z</time>
      </trkpt>
      <trkpt lat="48.3671" lon="-4.74724">
        <ele>19.200000762939</ele>
        <time>2022-03-30T16:35:57.000Z</time>
      </trkpt>
      <trkpt lat="48.367" lon="-4.74712">
        <ele>16.200000762939</ele>
        <time>2022-03-30T16:35:59.000Z</time>
      </trkpt>
      <trkpt lat="48.36693" lon="-4.74703">
        <ele>14.39999961853</ele>
        <time>2022-03-30T16:36:01.000Z</time>
      </trkpt>
      <trkpt lat="48.36691" lon="-4.74702">
        <ele>14</ele>
        <time>2022-03-30T16:36:02.000Z</time>
      </trkpt>
      <trkpt lat="48.36688" lon="-4.74703">
        <ele>13.800000190735</ele>
        <time>2022-03-30T16:36:03.000Z</time>
      </trkpt>
      <trkpt lat="48.36685" lon="-4.74707">
        <ele>14</ele>
        <time>2022-03-30T16:36:05.000Z</time>
      </trkpt>
      <trkpt lat="48.36683" lon="-4.74713">
        <ele>14.60000038147</ele>
        <time>2022-03-30T16:36:08.000Z</time>
      </trkpt>
      <trkpt lat="48.3668" lon="-4.74716">
        <ele>14.60000038147</ele>
        <time>2022-03-30T16:36:11.000Z</time>
      </trkpt>
      <trkpt lat="48.36679" lon="-4.74719">
        <ele>14.800000190735</ele>
        <time>2022-03-30T16:36:13.000Z</time>
      </trkpt>
      <trkpt lat="48.36674" lon="-4.74724">
        <ele>14.800000190735</ele>
        <time>2022-03-30T16:36:16.000Z</time>
      </trkpt>
      <trkpt lat="48.36671" lon="-4.7473">
        <ele>15.199999809265</ele>
        <time>2022-03-30T16:36:21.000Z</time>
      </trkpt>
      <trkpt lat="48.36662" lon="-4.74743">
        <ele>15.39999961853</ele>
        <time>2022-03-30T16:36:26.000Z</time>
      </trkpt>
      <trkpt lat="48.36657" lon="-4.74752">
        <ele>15.60000038147</ele>
        <time>2022-03-30T16:36:29.000Z</time>
      </trkpt>
      <trkpt lat="48.36654" lon="-4.74757">
        <ele>15.800000190735</ele>
        <time>2022-03-30T16:36:31.000Z</time>
      </trkpt>
      <trkpt lat="48.36649" lon="-4.74763">
        <ele>15.60000038147</ele>
        <time>2022-03-30T16:36:33.000Z</time>
      </trkpt>
      <trkpt lat="48.36641" lon="-4.74782">
        <ele>15.800000190735</ele>
        <time>2022-03-30T16:36:37.000Z</time>
      </trkpt>
      <trkpt lat="48.36638" lon="-4.7479">
        <ele>16</ele>
        <time>2022-03-30T16:36:39.000Z</time>
      </trkpt>
      <trkpt lat="48.36634" lon="-4.74796">
        <ele>15.60000038147</ele>
        <time>2022-03-30T16:36:41.000Z</time>
      </trkpt>
      <trkpt lat="48.3663" lon="-4.74804">
        <ele>15.199999809265</ele>
        <time>2022-03-30T16:36:43.000Z</time>
      </trkpt>
      <trkpt lat="48.36627" lon="-4.74814">
        <ele>15.39999961853</ele>
        <time>2022-03-30T16:36:45.000Z</time>
      </trkpt>
      <trkpt lat="48.36619" lon="-4.74841">
        <ele>15</ele>
        <time>2022-03-30T16:36:50.000Z</time>
      </trkpt>
      <trkpt lat="48.36611" lon="-4.74868">
        <ele>13.800000190735</ele>
        <time>2022-03-30T16:36:54.000Z</time>
      </trkpt>
      <trkpt lat="48.36607" lon="-4.74882">
        <ele>13.800000190735</ele>
        <time>2022-03-30T16:36:56.000Z</time>
      </trkpt>
      <trkpt lat="48.36596" lon="-4.74911">
        <ele>14.199999809265</ele>
        <time>2022-03-30T16:37:00.000Z</time>
      </trkpt>
      <trkpt lat="48.36586" lon="-4.74935">
        <ele>14.199999809265</ele>
        <time>2022-03-30T16:37:03.000Z</time>
      </trkpt>
      <trkpt lat="48.3658" lon="-4.7495">
        <ele>14</ele>
        <time>2022-03-30T16:37:05.000Z</time>
      </trkpt>
      <trkpt lat="48.36572" lon="-4.74974">
        <ele>14.39999961853</ele>
        <time>2022-03-30T16:37:08.000Z</time>
      </trkpt>
      <trkpt lat="48.36568" lon="-4.74989">
        <ele>14.800000190735</ele>
        <time>2022-03-30T16:37:10.000Z</time>
      </trkpt>
      <trkpt lat="48.36559" lon="-4.75018">
        <ele>14.800000190735</ele>
        <time>2022-03-30T16:37:14.000Z</time>
      </trkpt>
      <trkpt lat="48.36558" lon="-4.75026">
        <ele>15</ele>
        <time>2022-03-30T16:37:15.000Z</time>
      </trkpt>
      <trkpt lat="48.36554" lon="-4.75041">
        <ele>15.39999961853</ele>
        <time>2022-03-30T16:37:17.000Z</time>
      </trkpt>
      <trkpt lat="48.36549" lon="-4.75057">
        <ele>15.60000038147</ele>
        <time>2022-03-30T16:37:19.000Z</time>
      </trkpt>
      <trkpt lat="48.36541" lon="-4.75081">
        <ele>15.199999809265</ele>
        <time>2022-03-30T16:37:22.000Z</time>
      </trkpt>
      <trkpt lat="48.36536" lon="-4.75096">
        <ele>15</ele>
        <time>2022-03-30T16:37:24.000Z</time>
      </trkpt>
      <trkpt lat="48.36533" lon="-4.75111">
        <ele>15</ele>
        <time>2022-03-30T16:37:26.000Z</time>
      </trkpt>
      <trkpt lat="48.3653" lon="-4.75126">
        <ele>15.39999961853</ele>
        <time>2022-03-30T16:37:28.000Z</time>
      </trkpt>
      <trkpt lat="48.36528" lon="-4.7514">
        <ele>15.800000190735</ele>
        <time>2022-03-30T16:37:30.000Z</time>
      </trkpt>
      <trkpt lat="48.36526" lon="-4.75148">
        <ele>15.60000038147</ele>
        <time>2022-03-30T16:37:31.000Z</time>
      </trkpt>
      <trkpt lat="48.3651" lon="-4.75198">
        <ele>12.60000038147</ele>
        <time>2022-03-30T16:37:38.000Z</time>
      </trkpt>
      <trkpt lat="48.36508" lon="-4.75206">
        <ele>12.199999809265</ele>
        <time>2022-03-30T16:37:39.000Z</time>
      </trkpt>
      <trkpt lat="48.36506" lon="-4.75227">
        <ele>12</ele>
        <time>2022-03-30T16:37:42.000Z</time>
      </trkpt>
      <trkpt lat="48.36508" lon="-4.75245">
        <ele>11.60000038147</ele>
        <time>2022-03-30T16:37:46.000Z</time>
      </trkpt>
      <trkpt lat="48.36504" lon="-4.75266">
        <ele>10.800000190735</ele>
        <time>2022-03-30T16:37:50.000Z</time>
      </trkpt>
      <trkpt lat="48.36495" lon="-4.75289">
        <ele>9.8000001907349</ele>
        <time>2022-03-30T16:37:54.000Z</time>
      </trkpt>
      <trkpt lat="48.36487" lon="-4.75318">
        <ele>9.3999996185303</ele>
        <time>2022-03-30T16:37:59.000Z</time>
      </trkpt>
      <trkpt lat="48.36483" lon="-4.75341">
        <ele>10</ele>
        <time>2022-03-30T16:38:04.000Z</time>
      </trkpt>
      <trkpt lat="48.3648" lon="-4.7536">
        <ele>10.60000038147</ele>
        <time>2022-03-30T16:38:09.000Z</time>
      </trkpt>
      <trkpt lat="48.36474" lon="-4.75376">
        <ele>10.60000038147</ele>
        <time>2022-03-30T16:38:13.000Z</time>
      </trkpt>
      <trkpt lat="48.3647" lon="-4.75393">
        <ele>11</ele>
        <time>2022-03-30T16:38:17.000Z</time>
      </trkpt>
      <trkpt lat="48.36455" lon="-4.75417">
        <ele>9.1999998092651</ele>
        <time>2022-03-30T16:38:22.000Z</time>
      </trkpt>
      <trkpt lat="48.36446" lon="-4.75422">
        <ele>8.3999996185303</ele>
        <time>2022-03-30T16:38:24.000Z</time>
      </trkpt>
      <trkpt lat="48.36441" lon="-4.75422">
        <ele>8</ele>
        <time>2022-03-30T16:38:25.000Z</time>
      </trkpt>
      <trkpt lat="48.36437" lon="-4.75424">
        <ele>7.5999999046326</ele>
        <time>2022-03-30T16:38:26.000Z</time>
      </trkpt>
      <trkpt lat="48.36431" lon="-4.75433">
        <ele>7</ele>
        <time>2022-03-30T16:38:28.000Z</time>
      </trkpt>
      <trkpt lat="48.36418" lon="-4.75467">
        <ele>6.1999998092651</ele>
        <time>2022-03-30T16:38:34.000Z</time>
      </trkpt>
      <trkpt lat="48.36403" lon="-4.75508">
        <ele>5</ele>
        <time>2022-03-30T16:38:41.000Z</time>
      </trkpt>
      <trkpt lat="48.364" lon="-4.75521">
        <ele>4.5999999046326</ele>
        <time>2022-03-30T16:38:43.000Z</time>
      </trkpt>
      <trkpt lat="48.36398" lon="-4.75538">
        <ele>4.4000000953674</ele>
        <time>2022-03-30T16:38:46.000Z</time>
      </trkpt>
      <trkpt lat="48.36393" lon="-4.75546">
        <ele>3.7999999523163</ele>
        <time>2022-03-30T16:38:48.000Z</time>
      </trkpt>
      <trkpt lat="48.36389" lon="-4.7555">
        <ele>3.4000000953674</ele>
        <time>2022-03-30T16:38:50.000Z</time>
      </trkpt>
      <trkpt lat="48.3639" lon="-4.75559">
        <ele>3.5999999046326</ele>
        <time>2022-03-30T16:38:53.000Z</time>
      </trkpt>
      <trkpt lat="48.36391" lon="-4.75563">
        <ele>3.5999999046326</ele>
        <time>2022-03-30T16:38:54.000Z</time>
      </trkpt>
      <trkpt lat="48.3639" lon="-4.75575">
        <ele>4</ele>
        <time>2022-03-30T16:38:57.000Z</time>
      </trkpt>
      <trkpt lat="48.36393" lon="-4.75597">
        <ele>4.5999999046326</ele>
        <time>2022-03-30T16:39:02.000Z</time>
      </trkpt>
      <trkpt lat="48.36394" lon="-4.75619">
        <ele>4.5999999046326</ele>
        <time>2022-03-30T16:39:07.000Z</time>
      </trkpt>
      <trkpt lat="48.36396" lon="-4.75639">
        <ele>4.8000001907349</ele>
        <time>2022-03-30T16:39:12.000Z</time>
      </trkpt>
      <trkpt lat="48.364" lon="-4.75657">
        <ele>5</ele>
        <time>2022-03-30T16:39:16.000Z</time>
      </trkpt>
      <trkpt lat="48.36402" lon="-4.75662">
        <ele>5</ele>
        <time>2022-03-30T16:39:17.000Z</time>
      </trkpt>
      <trkpt lat="48.36403" lon="-4.75686">
        <ele>4.5999999046326</ele>
        <time>2022-03-30T16:39:21.000Z</time>
      </trkpt>
      <trkpt lat="48.36409" lon="-4.75709">
        <ele>4.8000001907349</ele>
        <time>2022-03-30T16:39:26.000Z</time>
      </trkpt>
      <trkpt lat="48.36416" lon="-4.75727">
        <ele>5.4000000953674</ele>
        <time>2022-03-30T16:39:31.000Z</time>
      </trkpt>
      <trkpt lat="48.3642" lon="-4.75747">
        <ele>6.4000000953674</ele>
        <time>2022-03-30T16:39:36.000Z</time>
      </trkpt>
      <trkpt lat="48.36419" lon="-4.75767">
        <ele>7</ele>
        <time>2022-03-30T16:39:41.000Z</time>
      </trkpt>
      <trkpt lat="48.36416" lon="-4.75794">
        <ele>7.5999999046326</ele>
        <time>2022-03-30T16:39:46.000Z</time>
      </trkpt>
      <trkpt lat="48.36416" lon="-4.75811">
        <ele>8.3999996185303</ele>
        <time>2022-03-30T16:39:50.000Z</time>
      </trkpt>
      <trkpt lat="48.36416" lon="-4.75812">
        <ele>8.3999996185303</ele>
        <time>2022-03-30T16:39:51.000Z</time>
      </trkpt>
      <trkpt lat="48.36416" lon="-4.75806">
        <ele>8</ele>
        <time>2022-03-30T16:39:58.000Z</time>
      </trkpt>
      <trkpt lat="48.36411" lon="-4.75802">
        <ele>7.4000000953674</ele>
        <time>2022-03-30T16:40:00.000Z</time>
      </trkpt>
      <trkpt lat="48.36407" lon="-4.75803">
        <ele>7</ele>
        <time>2022-03-30T16:40:01.000Z</time>
      </trkpt>
      <trkpt lat="48.36402" lon="-4.75809">
        <ele>6.5999999046326</ele>
        <time>2022-03-30T16:40:03.000Z</time>
      </trkpt>
      <trkpt lat="48.36386" lon="-4.75826">
        <ele>5.5999999046326</ele>
        <time>2022-03-30T16:40:09.000Z</time>
      </trkpt>
      <trkpt lat="48.36381" lon="-4.75844">
        <ele>5.5999999046326</ele>
        <time>2022-03-30T16:40:14.000Z</time>
      </trkpt>
      <trkpt lat="48.36378" lon="-4.75863">
        <ele>6</ele>
        <time>2022-03-30T16:40:20.000Z</time>
      </trkpt>
      <trkpt lat="48.36378" lon="-4.75863">
        <ele>6</ele>
        <time>2022-03-30T16:40:22.000Z</time>
      </trkpt>
      <trkpt lat="48.36378" lon="-4.75862">
        <ele>6</ele>
        <time>2022-03-30T16:40:34.000Z</time>
      </trkpt>
      <trkpt lat="48.36381" lon="-4.75862">
        <ele>6.4000000953674</ele>
        <time>2022-03-30T16:40:36.000Z</time>
      </trkpt>
      <trkpt lat="48.36382" lon="-4.75861">
        <ele>6.4000000953674</ele>
        <time>2022-03-30T16:40:37.000Z</time>
      </trkpt>
      <trkpt lat="48.36384" lon="-4.75856">
        <ele>6.4000000953674</ele>
        <time>2022-03-30T16:40:39.000Z</time>
      </trkpt>
      <trkpt lat="48.36384" lon="-4.75854">
        <ele>6.4000000953674</ele>
        <time>2022-03-30T16:40:40.000Z</time>
      </trkpt>
      <trkpt lat="48.36385" lon="-4.75833">
        <ele>5.5999999046326</ele>
        <time>2022-03-30T16:40:46.000Z</time>
      </trkpt>
      <trkpt lat="48.36393" lon="-4.75819">
        <ele>6.1999998092651</ele>
        <time>2022-03-30T16:40:51.000Z</time>
      </trkpt>
      <trkpt lat="48.36404" lon="-4.75804">
        <ele>6.8000001907349</ele>
        <time>2022-03-30T16:40:57.000Z</time>
      </trkpt>
      <trkpt lat="48.36409" lon="-4.75801">
        <ele>7.1999998092651</ele>
        <time>2022-03-30T16:40:59.000Z</time>
      </trkpt>
      <trkpt lat="48.36413" lon="-4.75802">
        <ele>7.5999999046326</ele>
        <time>2022-03-30T16:41:01.000Z</time>
      </trkpt>
      <trkpt lat="48.36414" lon="-4.75803">
        <ele>7.8000001907349</ele>
        <time>2022-03-30T16:41:02.000Z</time>
      </trkpt>
      <trkpt lat="48.36416" lon="-4.75808">
        <ele>8.1999998092651</ele>
        <time>2022-03-30T16:41:04.000Z</time>
      </trkpt>
      <trkpt lat="48.36416" lon="-4.75824">
        <ele>9.1999998092651</ele>
        <time>2022-03-30T16:41:09.000Z</time>
      </trkpt>
      <trkpt lat="48.36422" lon="-4.75845">
        <ele>11</ele>
        <time>2022-03-30T16:41:16.000Z</time>
      </trkpt>
      <trkpt lat="48.36425" lon="-4.75856">
        <ele>11.800000190735</ele>
        <time>2022-03-30T16:41:21.000Z</time>
      </trkpt>
      <trkpt lat="48.36428" lon="-4.75871">
        <ele>13.199999809265</ele>
        <time>2022-03-30T16:41:26.000Z</time>
      </trkpt>
      <trkpt lat="48.36434" lon="-4.75886">
        <ele>14</ele>
        <time>2022-03-30T16:41:32.000Z</time>
      </trkpt>
      <trkpt lat="48.36435" lon="-4.75888">
        <ele>14.199999809265</ele>
        <time>2022-03-30T16:41:33.000Z</time>
      </trkpt>
      <trkpt lat="48.36442" lon="-4.75894">
        <ele>15.199999809265</ele>
        <time>2022-03-30T16:41:37.000Z</time>
      </trkpt>
      <trkpt lat="48.36447" lon="-4.759">
        <ele>16</ele>
        <time>2022-03-30T16:41:40.000Z</time>
      </trkpt>
      <trkpt lat="48.3645" lon="-4.75908">
        <ele>16.200000762939</ele>
        <time>2022-03-30T16:41:43.000Z</time>
      </trkpt>
      <trkpt lat="48.36455" lon="-4.75929">
        <ele>17</ele>
        <time>2022-03-30T16:41:50.000Z</time>
      </trkpt>
      <trkpt lat="48.36461" lon="-4.7595">
        <ele>17.200000762939</ele>
        <time>2022-03-30T16:41:57.000Z</time>
      </trkpt>
      <trkpt lat="48.36468" lon="-4.75974">
        <ele>18.799999237061</ele>
        <time>2022-03-30T16:42:05.000Z</time>
      </trkpt>
      <trkpt lat="48.36469" lon="-4.75998">
        <ele>19.799999237061</ele>
        <time>2022-03-30T16:42:12.000Z</time>
      </trkpt>
      <trkpt lat="48.3647" lon="-4.76025">
        <ele>20.200000762939</ele>
        <time>2022-03-30T16:42:18.000Z</time>
      </trkpt>
      <trkpt lat="48.36471" lon="-4.76055">
        <ele>20.39999961853</ele>
        <time>2022-03-30T16:42:24.000Z</time>
      </trkpt>
      <trkpt lat="48.36471" lon="-4.76097">
        <ele>20.200000762939</ele>
        <time>2022-03-30T16:42:31.000Z</time>
      </trkpt>
      <trkpt lat="48.3647" lon="-4.76137">
        <ele>21</ele>
        <time>2022-03-30T16:42:39.000Z</time>
      </trkpt>
      <trkpt lat="48.36463" lon="-4.76162">
        <ele>21</ele>
        <time>2022-03-30T16:42:44.000Z</time>
      </trkpt>
      <trkpt lat="48.36455" lon="-4.76186">
        <ele>20.60000038147</ele>
        <time>2022-03-30T16:42:48.000Z</time>
      </trkpt>
      <trkpt lat="48.36456" lon="-4.76199">
        <ele>20.60000038147</ele>
        <time>2022-03-30T16:42:50.000Z</time>
      </trkpt>
      <trkpt lat="48.36461" lon="-4.76206">
        <ele>21.200000762939</ele>
        <time>2022-03-30T16:42:52.000Z</time>
      </trkpt>
      <trkpt lat="48.36464" lon="-4.76207">
        <ele>21.60000038147</ele>
        <time>2022-03-30T16:42:53.000Z</time>
      </trkpt>
      <trkpt lat="48.36478" lon="-4.76207">
        <ele>23.200000762939</ele>
        <time>2022-03-30T16:42:59.000Z</time>
      </trkpt>
      <trkpt lat="48.36491" lon="-4.76207">
        <ele>24.60000038147</ele>
        <time>2022-03-30T16:43:05.000Z</time>
      </trkpt>
      <trkpt lat="48.36501" lon="-4.76202">
        <ele>25.60000038147</ele>
        <time>2022-03-30T16:43:10.000Z</time>
      </trkpt>
      <trkpt lat="48.36514" lon="-4.76198">
        <ele>27</ele>
        <time>2022-03-30T16:43:15.000Z</time>
      </trkpt>
      <trkpt lat="48.36527" lon="-4.762">
        <ele>28.200000762939</ele>
        <time>2022-03-30T16:43:21.000Z</time>
      </trkpt>
      <trkpt lat="48.36542" lon="-4.76202">
        <ele>30</ele>
        <time>2022-03-30T16:43:27.000Z</time>
      </trkpt>
      <trkpt lat="48.36555" lon="-4.76201">
        <ele>31.200000762939</ele>
        <time>2022-03-30T16:43:33.000Z</time>
      </trkpt>
      <trkpt lat="48.36567" lon="-4.76206">
        <ele>31.60000038147</ele>
        <time>2022-03-30T16:43:39.000Z</time>
      </trkpt>
      <trkpt lat="48.3657" lon="-4.76216">
        <ele>31.799999237061</ele>
        <time>2022-03-30T16:43:43.000Z</time>
      </trkpt>
      <trkpt lat="48.36569" lon="-4.76222">
        <ele>32</ele>
        <time>2022-03-30T16:43:45.000Z</time>
      </trkpt>
      <trkpt lat="48.36565" lon="-4.7625">
        <ele>32.400001525879</ele>
        <time>2022-03-30T16:43:52.000Z</time>
      </trkpt>
      <trkpt lat="48.36559" lon="-4.76268">
        <ele>32.200000762939</ele>
        <time>2022-03-30T16:43:56.000Z</time>
      </trkpt>
      <trkpt lat="48.36556" lon="-4.763">
        <ele>32.400001525879</ele>
        <time>2022-03-30T16:44:02.000Z</time>
      </trkpt>
      <trkpt lat="48.36553" lon="-4.76336">
        <ele>32.200000762939</ele>
        <time>2022-03-30T16:44:07.000Z</time>
      </trkpt>
      <trkpt lat="48.36549" lon="-4.7638">
        <ele>30.799999237061</ele>
        <time>2022-03-30T16:44:12.000Z</time>
      </trkpt>
      <trkpt lat="48.36546" lon="-4.76406">
        <ele>30.39999961853</ele>
        <time>2022-03-30T16:44:15.000Z</time>
      </trkpt>
      <trkpt lat="48.36544" lon="-4.76412">
        <ele>30.200000762939</ele>
        <time>2022-03-30T16:44:16.000Z</time>
      </trkpt>
      <trkpt lat="48.3654" lon="-4.76424">
        <ele>29.60000038147</ele>
        <time>2022-03-30T16:44:18.000Z</time>
      </trkpt>
      <trkpt lat="48.36532" lon="-4.7643">
        <ele>29</ele>
        <time>2022-03-30T16:44:20.000Z</time>
      </trkpt>
      <trkpt lat="48.36515" lon="-4.76437">
        <ele>27.799999237061</ele>
        <time>2022-03-30T16:44:23.000Z</time>
      </trkpt>
      <trkpt lat="48.36503" lon="-4.76444">
        <ele>26.799999237061</ele>
        <time>2022-03-30T16:44:25.000Z</time>
      </trkpt>
      <trkpt lat="48.3648" lon="-4.76457">
        <ele>25</ele>
        <time>2022-03-30T16:44:29.000Z</time>
      </trkpt>
      <trkpt lat="48.36473" lon="-4.76459">
        <ele>24.60000038147</ele>
        <time>2022-03-30T16:44:30.000Z</time>
      </trkpt>
      <trkpt lat="48.36451" lon="-4.76464">
        <ele>22.60000038147</ele>
        <time>2022-03-30T16:44:33.000Z</time>
      </trkpt>
      <trkpt lat="48.36444" lon="-4.76468">
        <ele>21.799999237061</ele>
        <time>2022-03-30T16:44:34.000Z</time>
      </trkpt>
      <trkpt lat="48.36439" lon="-4.76476">
        <ele>21</ele>
        <time>2022-03-30T16:44:35.000Z</time>
      </trkpt>
      <trkpt lat="48.36436" lon="-4.76487">
        <ele>20.39999961853</ele>
        <time>2022-03-30T16:44:36.000Z</time>
      </trkpt>
      <trkpt lat="48.36434" lon="-4.76498">
        <ele>19.799999237061</ele>
        <time>2022-03-30T16:44:37.000Z</time>
      </trkpt>
      <trkpt lat="48.3643" lon="-4.76533">
        <ele>18</ele>
        <time>2022-03-30T16:44:40.000Z</time>
      </trkpt>
      <trkpt lat="48.36422" lon="-4.76542">
        <ele>16.799999237061</ele>
        <time>2022-03-30T16:44:42.000Z</time>
      </trkpt>
      <trkpt lat="48.36393" lon="-4.76536">
        <ele>13.800000190735</ele>
        <time>2022-03-30T16:44:46.000Z</time>
      </trkpt>
      <trkpt lat="48.36385" lon="-4.76536">
        <ele>13</ele>
        <time>2022-03-30T16:44:47.000Z</time>
      </trkpt>
      <trkpt lat="48.36372" lon="-4.76546">
        <ele>10.39999961853</ele>
        <time>2022-03-30T16:44:49.000Z</time>
      </trkpt>
      <trkpt lat="48.36367" lon="-4.76567">
        <ele>8</ele>
        <time>2022-03-30T16:44:51.000Z</time>
      </trkpt>
      <trkpt lat="48.36366" lon="-4.76578">
        <ele>7.1999998092651</ele>
        <time>2022-03-30T16:44:52.000Z</time>
      </trkpt>
      <trkpt lat="48.36366" lon="-4.76596">
        <ele>6.1999998092651</ele>
        <time>2022-03-30T16:44:54.000Z</time>
      </trkpt>
      <trkpt lat="48.36363" lon="-4.76601">
        <ele>5.8000001907349</ele>
        <time>2022-03-30T16:44:55.000Z</time>
      </trkpt>
      <trkpt lat="48.36361" lon="-4.76604">
        <ele>5.1999998092651</ele>
        <time>2022-03-30T16:44:56.000Z</time>
      </trkpt>
      <trkpt lat="48.36353" lon="-4.76608">
        <ele>3.7999999523163</ele>
        <time>2022-03-30T16:44:59.000Z</time>
      </trkpt>
      <trkpt lat="48.36337" lon="-4.76616">
        <ele>1.2000000476837</ele>
        <time>2022-03-30T16:45:06.000Z</time>
      </trkpt>
      <trkpt lat="48.36303" lon="-4.76636">
        <time>2022-03-30T16:45:18.000Z</time>
      </trkpt>
      <trkpt lat="48.36279" lon="-4.7665">
        <time>2022-03-30T16:45:26.000Z</time>
      </trkpt>
      <trkpt lat="48.3626" lon="-4.76662">
        <time>2022-03-30T16:45:32.000Z</time>
      </trkpt>
      <trkpt lat="48.36226" lon="-4.76681">
        <time>2022-03-30T16:45:42.000Z</time>
      </trkpt>
      <trkpt lat="48.362" lon="-4.76696">
        <ele>2</ele>
        <time>2022-03-30T16:45:50.000Z</time>
      </trkpt>
      <trkpt lat="48.36177" lon="-4.76708">
        <ele>3</ele>
        <time>2022-03-30T16:45:58.000Z</time>
      </trkpt>
      <trkpt lat="48.36176" lon="-4.76709">
        <ele>3.4000000953674</ele>
        <time>2022-03-30T16:45:59.000Z</time>
      </trkpt>
      <trkpt lat="48.36176" lon="-4.76712">
        <ele>3.4000000953674</ele>
        <time>2022-03-30T16:46:02.000Z</time>
      </trkpt>
      <trkpt lat="48.36176" lon="-4.76712">
        <ele>3.4000000953674</ele>
        <time>2022-03-30T16:46:03.000Z</time>
      </trkpt>
      <trkpt lat="48.36173" lon="-4.76711">
        <ele>4</ele>
        <time>2022-03-30T16:46:09.000Z</time>
      </trkpt>
      <trkpt lat="48.36169" lon="-4.76709">
        <ele>4.8000001907349</ele>
        <time>2022-03-30T16:46:12.000Z</time>
      </trkpt>
      <trkpt lat="48.36157" lon="-4.76708">
        <ele>7</ele>
        <time>2022-03-30T16:46:19.000Z</time>
      </trkpt>
      <trkpt lat="48.3614" lon="-4.76711">
        <ele>9</ele>
        <time>2022-03-30T16:46:25.000Z</time>
      </trkpt>
      <trkpt lat="48.36133" lon="-4.76714">
        <ele>10</ele>
        <time>2022-03-30T16:46:29.000Z</time>
      </trkpt>
      <trkpt lat="48.36132" lon="-4.76707">
        <ele>9.8000001907349</ele>
        <time>2022-03-30T16:46:32.000Z</time>
      </trkpt>
      <trkpt lat="48.36134" lon="-4.76682">
        <ele>8.3999996185303</ele>
        <time>2022-03-30T16:46:37.000Z</time>
      </trkpt>
      <trkpt lat="48.36137" lon="-4.7663">
        <ele>5.4000000953674</ele>
        <time>2022-03-30T16:46:44.000Z</time>
      </trkpt>
      <trkpt lat="48.36134" lon="-4.76603">
        <ele>4.5999999046326</ele>
        <time>2022-03-30T16:46:48.000Z</time>
      </trkpt>
      <trkpt lat="48.36131" lon="-4.76595">
        <ele>4.5999999046326</ele>
        <time>2022-03-30T16:46:50.000Z</time>
      </trkpt>
      <trkpt lat="48.36129" lon="-4.76595">
        <ele>5</ele>
        <time>2022-03-30T16:46:51.000Z</time>
      </trkpt>
      <trkpt lat="48.36116" lon="-4.76597">
        <ele>7</ele>
        <time>2022-03-30T16:46:57.000Z</time>
      </trkpt>
      <trkpt lat="48.36104" lon="-4.76593">
        <ele>8.3999996185303</ele>
        <time>2022-03-30T16:47:02.000Z</time>
      </trkpt>
      <trkpt lat="48.36085" lon="-4.76586">
        <ele>9.3999996185303</ele>
        <time>2022-03-30T16:47:10.000Z</time>
      </trkpt>
      <trkpt lat="48.36073" lon="-4.7658">
        <ele>10</ele>
        <time>2022-03-30T16:47:16.000Z</time>
      </trkpt>
      <trkpt lat="48.36072" lon="-4.76567">
        <ele>9.6000003814697</ele>
        <time>2022-03-30T16:47:20.000Z</time>
      </trkpt>
      <trkpt lat="48.36071" lon="-4.76564">
        <ele>9.6000003814697</ele>
        <time>2022-03-30T16:47:21.000Z</time>
      </trkpt>
      <trkpt lat="48.36062" lon="-4.7656">
        <ele>10</ele>
        <time>2022-03-30T16:47:24.000Z</time>
      </trkpt>
      <trkpt lat="48.36049" lon="-4.76557">
        <ele>11</ele>
        <time>2022-03-30T16:47:29.000Z</time>
      </trkpt>
      <trkpt lat="48.36027" lon="-4.76554">
        <ele>12.39999961853</ele>
        <time>2022-03-30T16:47:36.000Z</time>
      </trkpt>
      <trkpt lat="48.36011" lon="-4.76556">
        <ele>13.199999809265</ele>
        <time>2022-03-30T16:47:42.000Z</time>
      </trkpt>
      <trkpt lat="48.36007" lon="-4.76556">
        <ele>13.39999961853</ele>
        <time>2022-03-30T16:47:45.000Z</time>
      </trkpt>
      <trkpt lat="48.36004" lon="-4.76551">
        <ele>13.199999809265</ele>
        <time>2022-03-30T16:47:47.000Z</time>
      </trkpt>
      <trkpt lat="48.36" lon="-4.76529">
        <ele>12.60000038147</ele>
        <time>2022-03-30T16:47:52.000Z</time>
      </trkpt>
      <trkpt lat="48.35994" lon="-4.76498">
        <ele>11.199999809265</ele>
        <time>2022-03-30T16:47:57.000Z</time>
      </trkpt>
      <trkpt lat="48.35982" lon="-4.76441">
        <ele>8.1999998092651</ele>
        <time>2022-03-30T16:48:05.000Z</time>
      </trkpt>
      <trkpt lat="48.35979" lon="-4.76436">
        <ele>8</ele>
        <time>2022-03-30T16:48:06.000Z</time>
      </trkpt>
      <trkpt lat="48.35977" lon="-4.76432">
        <ele>8</ele>
        <time>2022-03-30T16:48:07.000Z</time>
      </trkpt>
      <trkpt lat="48.35973" lon="-4.7642">
        <ele>8</ele>
        <time>2022-03-30T16:48:09.000Z</time>
      </trkpt>
      <trkpt lat="48.35972" lon="-4.76413">
        <ele>8</ele>
        <time>2022-03-30T16:48:10.000Z</time>
      </trkpt>
      <trkpt lat="48.35972" lon="-4.76398">
        <ele>8</ele>
        <time>2022-03-30T16:48:12.000Z</time>
      </trkpt>
      <trkpt lat="48.35975" lon="-4.76393">
        <ele>7.8000001907349</ele>
        <time>2022-03-30T16:48:13.000Z</time>
      </trkpt>
      <trkpt lat="48.35982" lon="-4.76386">
        <ele>7.5999999046326</ele>
        <time>2022-03-30T16:48:15.000Z</time>
      </trkpt>
      <trkpt lat="48.3599" lon="-4.76378">
        <ele>7.4000000953674</ele>
        <time>2022-03-30T16:48:17.000Z</time>
      </trkpt>
      <trkpt lat="48.36017" lon="-4.76353">
        <ele>7</ele>
        <time>2022-03-30T16:48:23.000Z</time>
      </trkpt>
      <trkpt lat="48.36022" lon="-4.76349">
        <ele>7</ele>
        <time>2022-03-30T16:48:24.000Z</time>
      </trkpt>
      <trkpt lat="48.36032" lon="-4.76347">
        <ele>7</ele>
        <time>2022-03-30T16:48:26.000Z</time>
      </trkpt>
      <trkpt lat="48.36037" lon="-4.76346">
        <ele>7</ele>
        <time>2022-03-30T16:48:27.000Z</time>
      </trkpt>
      <trkpt lat="48.36052" lon="-4.76346">
        <ele>7</ele>
        <time>2022-03-30T16:48:30.000Z</time>
      </trkpt>
      <trkpt lat="48.36066" lon="-4.76348">
        <ele>5.4000000953674</ele>
        <time>2022-03-30T16:48:33.000Z</time>
      </trkpt>
      <trkpt lat="48.36081" lon="-4.76349">
        <ele>4.1999998092651</ele>
        <time>2022-03-30T16:48:36.000Z</time>
      </trkpt>
      <trkpt lat="48.36089" lon="-4.76344">
        <ele>2.7999999523163</ele>
        <time>2022-03-30T16:48:38.000Z</time>
      </trkpt>
      <trkpt lat="48.36092" lon="-4.76333">
        <ele>2.2000000476837</ele>
        <time>2022-03-30T16:48:40.000Z</time>
      </trkpt>
      <trkpt lat="48.36092" lon="-4.76328">
        <ele>2.2000000476837</ele>
        <time>2022-03-30T16:48:41.000Z</time>
      </trkpt>
      <trkpt lat="48.36083" lon="-4.76305">
        <ele>2.2000000476837</ele>
        <time>2022-03-30T16:48:46.000Z</time>
      </trkpt>
      <trkpt lat="48.36069" lon="-4.76265">
        <ele>1.7999999523163</ele>
        <time>2022-03-30T16:48:54.000Z</time>
      </trkpt>
      <trkpt lat="48.3606" lon="-4.76239">
        <ele>2.2000000476837</ele>
        <time>2022-03-30T16:49:00.000Z</time>
      </trkpt>
      <trkpt lat="48.36046" lon="-4.76216">
        <ele>4.1999998092651</ele>
        <time>2022-03-30T16:49:06.000Z</time>
      </trkpt>
      <trkpt lat="48.36042" lon="-4.76216">
        <ele>4.4000000953674</ele>
        <time>2022-03-30T16:49:07.000Z</time>
      </trkpt>
      <trkpt lat="48.36036" lon="-4.76221">
        <ele>5</ele>
        <time>2022-03-30T16:49:09.000Z</time>
      </trkpt>
      <trkpt lat="48.36014" lon="-4.76246">
        <ele>6.4000000953674</ele>
        <time>2022-03-30T16:49:16.000Z</time>
      </trkpt>
      <trkpt lat="48.35983" lon="-4.76282">
        <ele>6.5999999046326</ele>
        <time>2022-03-30T16:49:25.000Z</time>
      </trkpt>
      <trkpt lat="48.3596" lon="-4.76306">
        <ele>7.1999998092651</ele>
        <time>2022-03-30T16:49:33.000Z</time>
      </trkpt>
      <trkpt lat="48.35958" lon="-4.76307">
        <ele>7.4000000953674</ele>
        <time>2022-03-30T16:49:34.000Z</time>
      </trkpt>
      <trkpt lat="48.35955" lon="-4.76302">
        <ele>7.4000000953674</ele>
        <time>2022-03-30T16:49:36.000Z</time>
      </trkpt>
      <trkpt lat="48.35954" lon="-4.76285">
        <ele>7.5999999046326</ele>
        <time>2022-03-30T16:49:40.000Z</time>
      </trkpt>
      <trkpt lat="48.35951" lon="-4.76248">
        <ele>8</ele>
        <time>2022-03-30T16:49:47.000Z</time>
      </trkpt>
      <trkpt lat="48.35949" lon="-4.76209">
        <ele>9.3999996185303</ele>
        <time>2022-03-30T16:49:55.000Z</time>
      </trkpt>
      <trkpt lat="48.35946" lon="-4.76163">
        <ele>9.8000001907349</ele>
        <time>2022-03-30T16:50:03.000Z</time>
      </trkpt>
      <trkpt lat="48.35943" lon="-4.76114">
        <ele>9.8000001907349</ele>
        <time>2022-03-30T16:50:12.000Z</time>
      </trkpt>
      <trkpt lat="48.35941" lon="-4.76064">
        <ele>9</ele>
        <time>2022-03-30T16:50:21.000Z</time>
      </trkpt>
      <trkpt lat="48.35938" lon="-4.76032">
        <ele>8</ele>
        <time>2022-03-30T16:50:27.000Z</time>
      </trkpt>
      <trkpt lat="48.35934" lon="-4.75982">
        <ele>7.1999998092651</ele>
        <time>2022-03-30T16:50:34.000Z</time>
      </trkpt>
      <trkpt lat="48.35933" lon="-4.75961">
        <ele>6.4000000953674</ele>
        <time>2022-03-30T16:50:38.000Z</time>
      </trkpt>
      <trkpt lat="48.35935" lon="-4.75956">
        <ele>6.1999998092651</ele>
        <time>2022-03-30T16:50:40.000Z</time>
      </trkpt>
      <trkpt lat="48.35935" lon="-4.75951">
        <ele>6.1999998092651</ele>
        <time>2022-03-30T16:50:41.000Z</time>
      </trkpt>
      <trkpt lat="48.35931" lon="-4.75907">
        <ele>5.8000001907349</ele>
        <time>2022-03-30T16:50:49.000Z</time>
      </trkpt>
      <trkpt lat="48.35929" lon="-4.75872">
        <ele>5.8000001907349</ele>
        <time>2022-03-30T16:50:54.000Z</time>
      </trkpt>
      <trkpt lat="48.3593" lon="-4.75865">
        <ele>5.8000001907349</ele>
        <time>2022-03-30T16:50:55.000Z</time>
      </trkpt>
      <trkpt lat="48.35945" lon="-4.75812">
        <ele>4.5999999046326</ele>
        <time>2022-03-30T16:51:04.000Z</time>
      </trkpt>
      <trkpt lat="48.35947" lon="-4.75799">
        <ele>3.7999999523163</ele>
        <time>2022-03-30T16:51:06.000Z</time>
      </trkpt>
      <trkpt lat="48.35944" lon="-4.75788">
        <ele>3</ele>
        <time>2022-03-30T16:51:08.000Z</time>
      </trkpt>
      <trkpt lat="48.3594" lon="-4.75776">
        <ele>2.7999999523163</ele>
        <time>2022-03-30T16:51:10.000Z</time>
      </trkpt>
      <trkpt lat="48.35937" lon="-4.75758">
        <ele>2.2000000476837</ele>
        <time>2022-03-30T16:51:13.000Z</time>
      </trkpt>
      <trkpt lat="48.35925" lon="-4.75702">
        <ele>2.2000000476837</ele>
        <time>2022-03-30T16:51:22.000Z</time>
      </trkpt>
      <trkpt lat="48.35923" lon="-4.75696">
        <ele>2.7999999523163</ele>
        <time>2022-03-30T16:51:23.000Z</time>
      </trkpt>
      <trkpt lat="48.35917" lon="-4.75673">
        <ele>3.5999999046326</ele>
        <time>2022-03-30T16:51:27.000Z</time>
      </trkpt>
      <trkpt lat="48.35913" lon="-4.75646">
        <ele>5</ele>
        <time>2022-03-30T16:51:32.000Z</time>
      </trkpt>
      <trkpt lat="48.35913" lon="-4.75607">
        <ele>7</ele>
        <time>2022-03-30T16:51:39.000Z</time>
      </trkpt>
      <trkpt lat="48.35919" lon="-4.75571">
        <ele>6.8000001907349</ele>
        <time>2022-03-30T16:51:46.000Z</time>
      </trkpt>
      <trkpt lat="48.35923" lon="-4.75539">
        <ele>7</ele>
        <time>2022-03-30T16:51:52.000Z</time>
      </trkpt>
      <trkpt lat="48.35925" lon="-4.75515">
        <ele>6.8000001907349</ele>
        <time>2022-03-30T16:51:57.000Z</time>
      </trkpt>
      <trkpt lat="48.3593" lon="-4.7549">
        <ele>6</ele>
        <time>2022-03-30T16:52:02.000Z</time>
      </trkpt>
      <trkpt lat="48.35934" lon="-4.75461">
        <ele>6.1999998092651</ele>
        <time>2022-03-30T16:52:08.000Z</time>
      </trkpt>
      <trkpt lat="48.35939" lon="-4.75425">
        <ele>5.1999998092651</ele>
        <time>2022-03-30T16:52:14.000Z</time>
      </trkpt>
      <trkpt lat="48.35946" lon="-4.75375">
        <ele>4.1999998092651</ele>
        <time>2022-03-30T16:52:22.000Z</time>
      </trkpt>
      <trkpt lat="48.35944" lon="-4.75354">
        <ele>4.5999999046326</ele>
        <time>2022-03-30T16:52:26.000Z</time>
      </trkpt>
      <trkpt lat="48.35945" lon="-4.75349">
        <ele>4.5999999046326</ele>
        <time>2022-03-30T16:52:28.000Z</time>
      </trkpt>
      <trkpt lat="48.35945" lon="-4.75349">
        <ele>4.5999999046326</ele>
        <time>2022-03-30T16:52:30.000Z</time>
      </trkpt>
      <trkpt lat="48.35945" lon="-4.75347">
        <ele>4.4000000953674</ele>
        <time>2022-03-30T16:52:53.000Z</time>
      </trkpt>
      <trkpt lat="48.35947" lon="-4.7534">
        <ele>4.4000000953674</ele>
        <time>2022-03-30T16:52:56.000Z</time>
      </trkpt>
      <trkpt lat="48.35947" lon="-4.7532">
        <ele>5.1999998092651</ele>
        <time>2022-03-30T16:53:01.000Z</time>
      </trkpt>
      <trkpt lat="48.35952" lon="-4.75286">
        <ele>6.8000001907349</ele>
        <time>2022-03-30T16:53:07.000Z</time>
      </trkpt>
      <trkpt lat="48.35957" lon="-4.75248">
        <ele>8.1999998092651</ele>
        <time>2022-03-30T16:53:13.000Z</time>
      </trkpt>
      <trkpt lat="48.35955" lon="-4.7524">
        <ele>8.8000001907349</ele>
        <time>2022-03-30T16:53:15.000Z</time>
      </trkpt>
      <trkpt lat="48.35952" lon="-4.75238">
        <ele>9.3999996185303</ele>
        <time>2022-03-30T16:53:16.000Z</time>
      </trkpt>
      <trkpt lat="48.35938" lon="-4.75232">
        <ele>12.39999961853</ele>
        <time>2022-03-30T16:53:21.000Z</time>
      </trkpt>
      <trkpt lat="48.35939" lon="-4.75219">
        <ele>13</ele>
        <time>2022-03-30T16:53:25.000Z</time>
      </trkpt>
      <trkpt lat="48.3594" lon="-4.75216">
        <ele>13</ele>
        <time>2022-03-30T16:53:27.000Z</time>
      </trkpt>
      <trkpt lat="48.35941" lon="-4.75212">
        <ele>13.199999809265</ele>
        <time>2022-03-30T16:54:27.000Z</time>
      </trkpt>
      <trkpt lat="48.35941" lon="-4.75209">
        <ele>13.199999809265</ele>
        <time>2022-03-30T16:54:28.000Z</time>
      </trkpt>
      <trkpt lat="48.3594" lon="-4.752">
        <ele>14</ele>
        <time>2022-03-30T16:54:32.000Z</time>
      </trkpt>
      <trkpt lat="48.35939" lon="-4.75189">
        <ele>14.39999961853</ele>
        <time>2022-03-30T16:54:38.000Z</time>
      </trkpt>
      <trkpt lat="48.3594" lon="-4.75174">
        <ele>14.199999809265</ele>
        <time>2022-03-30T16:54:43.000Z</time>
      </trkpt>
      <trkpt lat="48.35938" lon="-4.75171">
        <ele>14.60000038147</ele>
        <time>2022-03-30T16:54:44.000Z</time>
      </trkpt>
      <trkpt lat="48.3593" lon="-4.75161">
        <ele>16.60000038147</ele>
        <time>2022-03-30T16:54:49.000Z</time>
      </trkpt>
      <trkpt lat="48.35927" lon="-4.7516">
        <ele>17.60000038147</ele>
        <time>2022-03-30T16:54:51.000Z</time>
      </trkpt>
      <trkpt lat="48.35923" lon="-4.75161">
        <ele>18.39999961853</ele>
        <time>2022-03-30T16:54:54.000Z</time>
      </trkpt>
      <trkpt lat="48.35914" lon="-4.75168">
        <ele>20</ele>
        <time>2022-03-30T16:55:00.000Z</time>
      </trkpt>
      <trkpt lat="48.35906" lon="-4.75173">
        <ele>20.799999237061</ele>
        <time>2022-03-30T16:55:05.000Z</time>
      </trkpt>
      <trkpt lat="48.35896" lon="-4.75183">
        <ele>21.60000038147</ele>
        <time>2022-03-30T16:55:11.000Z</time>
      </trkpt>
      <trkpt lat="48.35894" lon="-4.75184">
        <ele>21.60000038147</ele>
        <time>2022-03-30T16:55:12.000Z</time>
      </trkpt>
      <trkpt lat="48.35889" lon="-4.75186">
        <ele>22</ele>
        <time>2022-03-30T16:55:15.000Z</time>
      </trkpt>
      <trkpt lat="48.35888" lon="-4.75187">
        <ele>22.200000762939</ele>
        <time>2022-03-30T16:55:16.000Z</time>
      </trkpt>
      <trkpt lat="48.35881" lon="-4.7519">
        <ele>22.799999237061</ele>
        <time>2022-03-30T16:55:20.000Z</time>
      </trkpt>
      <trkpt lat="48.3588" lon="-4.75191">
        <ele>23</ele>
        <time>2022-03-30T16:55:21.000Z</time>
      </trkpt>
      <trkpt lat="48.35873" lon="-4.75193">
        <ele>23.60000038147</ele>
        <time>2022-03-30T16:55:26.000Z</time>
      </trkpt>
      <trkpt lat="48.3587" lon="-4.75192">
        <ele>23.799999237061</ele>
        <time>2022-03-30T16:55:28.000Z</time>
      </trkpt>
      <trkpt lat="48.35868" lon="-4.75193">
        <ele>24.200000762939</ele>
        <time>2022-03-30T16:55:30.000Z</time>
      </trkpt>
      <trkpt lat="48.35866" lon="-4.75192">
        <ele>24.39999961853</ele>
        <time>2022-03-30T16:55:31.000Z</time>
      </trkpt>
      <trkpt lat="48.35865" lon="-4.75191">
        <ele>24.39999961853</ele>
        <time>2022-03-30T16:55:32.000Z</time>
      </trkpt>
      <trkpt lat="48.35858" lon="-4.75189">
        <ele>25</ele>
        <time>2022-03-30T16:55:36.000Z</time>
      </trkpt>
      <trkpt lat="48.35845" lon="-4.75185">
        <ele>26.39999961853</ele>
        <time>2022-03-30T16:55:43.000Z</time>
      </trkpt>
      <trkpt lat="48.35837" lon="-4.7518">
        <ele>27.200000762939</ele>
        <time>2022-03-30T16:55:49.000Z</time>
      </trkpt>
      <trkpt lat="48.35836" lon="-4.75179">
        <ele>27.200000762939</ele>
        <time>2022-03-30T16:55:50.000Z</time>
      </trkpt>
      <trkpt lat="48.35839" lon="-4.75175">
        <ele>27</ele>
        <time>2022-03-30T16:55:53.000Z</time>
      </trkpt>
      <trkpt lat="48.35849" lon="-4.75163">
        <ele>26.200000762939</ele>
        <time>2022-03-30T16:55:57.000Z</time>
      </trkpt>
      <trkpt lat="48.35854" lon="-4.75154">
        <ele>26</ele>
        <time>2022-03-30T16:55:59.000Z</time>
      </trkpt>
      <trkpt lat="48.3586" lon="-4.75137">
        <ele>25.799999237061</ele>
        <time>2022-03-30T16:56:02.000Z</time>
      </trkpt>
      <trkpt lat="48.35863" lon="-4.75124">
        <ele>25.60000038147</ele>
        <time>2022-03-30T16:56:04.000Z</time>
      </trkpt>
      <trkpt lat="48.35863" lon="-4.75109">
        <ele>25.60000038147</ele>
        <time>2022-03-30T16:56:06.000Z</time>
      </trkpt>
      <trkpt lat="48.35857" lon="-4.75058">
        <ele>25</ele>
        <time>2022-03-30T16:56:13.000Z</time>
      </trkpt>
      <trkpt lat="48.35854" lon="-4.75021">
        <ele>24.60000038147</ele>
        <time>2022-03-30T16:56:19.000Z</time>
      </trkpt>
      <trkpt lat="48.35863" lon="-4.75019">
        <ele>24</ele>
        <time>2022-03-30T16:56:22.000Z</time>
      </trkpt>
      <trkpt lat="48.35865" lon="-4.75023">
        <ele>24</ele>
        <time>2022-03-30T16:56:23.000Z</time>
      </trkpt>
      <trkpt lat="48.35867" lon="-4.75032">
        <ele>24.200000762939</ele>
        <time>2022-03-30T16:56:25.000Z</time>
      </trkpt>
      <trkpt lat="48.3587" lon="-4.75064">
        <ele>24.200000762939</ele>
        <time>2022-03-30T16:56:31.000Z</time>
      </trkpt>
      <trkpt lat="48.35871" lon="-4.75104">
        <ele>25</ele>
        <time>2022-03-30T16:56:38.000Z</time>
      </trkpt>
      <trkpt lat="48.3586" lon="-4.75135">
        <ele>25.799999237061</ele>
        <time>2022-03-30T16:56:44.000Z</time>
      </trkpt>
      <trkpt lat="48.35847" lon="-4.75162">
        <ele>26.39999961853</ele>
        <time>2022-03-30T16:56:50.000Z</time>
      </trkpt>
      <trkpt lat="48.35832" lon="-4.75182">
        <ele>27.799999237061</ele>
        <time>2022-03-30T16:56:56.000Z</time>
      </trkpt>
      <trkpt lat="48.35813" lon="-4.75184">
        <ele>29.799999237061</ele>
        <time>2022-03-30T16:57:02.000Z</time>
      </trkpt>
      <trkpt lat="48.35798" lon="-4.75184">
        <ele>31.200000762939</ele>
        <time>2022-03-30T16:57:07.000Z</time>
      </trkpt>
      <trkpt lat="48.35777" lon="-4.75188">
        <ele>32.400001525879</ele>
        <time>2022-03-30T16:57:14.000Z</time>
      </trkpt>
      <trkpt lat="48.35753" lon="-4.75188">
        <ele>33.200000762939</ele>
        <time>2022-03-30T16:57:22.000Z</time>
      </trkpt>
      <trkpt lat="48.3574" lon="-4.7518">
        <ele>33.400001525879</ele>
        <time>2022-03-30T16:57:27.000Z</time>
      </trkpt>
      <trkpt lat="48.35736" lon="-4.75157">
        <ele>33.799999237061</ele>
        <time>2022-03-30T16:57:32.000Z</time>
      </trkpt>
      <trkpt lat="48.35735" lon="-4.75126">
        <ele>33.799999237061</ele>
        <time>2022-03-30T16:57:38.000Z</time>
      </trkpt>
      <trkpt lat="48.35734" lon="-4.75093">
        <ele>33</ele>
        <time>2022-03-30T16:57:43.000Z</time>
      </trkpt>
      <trkpt lat="48.35733" lon="-4.75086">
        <ele>32.799999237061</ele>
        <time>2022-03-30T16:57:44.000Z</time>
      </trkpt>
      <trkpt lat="48.35725" lon="-4.75037">
        <ele>31.60000038147</ele>
        <time>2022-03-30T16:57:50.000Z</time>
      </trkpt>
      <trkpt lat="48.35718" lon="-4.75004">
        <ele>30.799999237061</ele>
        <time>2022-03-30T16:57:54.000Z</time>
      </trkpt>
      <trkpt lat="48.35716" lon="-4.74994">
        <ele>30.39999961853</ele>
        <time>2022-03-30T16:57:57.000Z</time>
      </trkpt>
      <trkpt lat="48.35715" lon="-4.74992">
        <ele>30.200000762939</ele>
        <time>2022-03-30T16:58:01.000Z</time>
      </trkpt>
      <trkpt lat="48.35717" lon="-4.74991">
        <ele>30</ele>
        <time>2022-03-30T16:58:10.000Z</time>
      </trkpt>
      <trkpt lat="48.35725" lon="-4.7499">
        <ele>29</ele>
        <time>2022-03-30T16:58:13.000Z</time>
      </trkpt>
      <trkpt lat="48.3573" lon="-4.74988">
        <ele>28.39999961853</ele>
        <time>2022-03-30T16:58:14.000Z</time>
      </trkpt>
      <trkpt lat="48.3574" lon="-4.74982">
        <ele>26.799999237061</ele>
        <time>2022-03-30T16:58:16.000Z</time>
      </trkpt>
      <trkpt lat="48.35748" lon="-4.74969">
        <ele>25.39999961853</ele>
        <time>2022-03-30T16:58:18.000Z</time>
      </trkpt>
      <trkpt lat="48.35751" lon="-4.74947">
        <ele>24.200000762939</ele>
        <time>2022-03-30T16:58:20.000Z</time>
      </trkpt>
      <trkpt lat="48.35751" lon="-4.74935">
        <ele>23.799999237061</ele>
        <time>2022-03-30T16:58:21.000Z</time>
      </trkpt>
      <trkpt lat="48.35746" lon="-4.74887">
        <ele>22.39999961853</ele>
        <time>2022-03-30T16:58:25.000Z</time>
      </trkpt>
      <trkpt lat="48.35742" lon="-4.74866">
        <ele>21.60000038147</ele>
        <time>2022-03-30T16:58:27.000Z</time>
      </trkpt>
      <trkpt lat="48.35738" lon="-4.74836">
        <ele>19.799999237061</ele>
        <time>2022-03-30T16:58:30.000Z</time>
      </trkpt>
      <trkpt lat="48.35737" lon="-4.74827">
        <ele>19.39999961853</ele>
        <time>2022-03-30T16:58:31.000Z</time>
      </trkpt>
      <trkpt lat="48.35731" lon="-4.74803">
        <ele>18.799999237061</ele>
        <time>2022-03-30T16:58:34.000Z</time>
      </trkpt>
      <trkpt lat="48.35724" lon="-4.74761">
        <ele>18.39999961853</ele>
        <time>2022-03-30T16:58:39.000Z</time>
      </trkpt>
      <trkpt lat="48.35719" lon="-4.74731">
        <ele>18</ele>
        <time>2022-03-30T16:58:42.000Z</time>
      </trkpt>
      <trkpt lat="48.35717" lon="-4.7472">
        <ele>17.799999237061</ele>
        <time>2022-03-30T16:58:43.000Z</time>
      </trkpt>
      <trkpt lat="48.3571" lon="-4.74699">
        <ele>17.60000038147</ele>
        <time>2022-03-30T16:58:45.000Z</time>
      </trkpt>
      <trkpt lat="48.35704" lon="-4.74678">
        <ele>17.200000762939</ele>
        <time>2022-03-30T16:58:47.000Z</time>
      </trkpt>
      <trkpt lat="48.35696" lon="-4.7465">
        <ele>16</ele>
        <time>2022-03-30T16:58:50.000Z</time>
      </trkpt>
      <trkpt lat="48.35693" lon="-4.74641">
        <ele>15.199999809265</ele>
        <time>2022-03-30T16:58:51.000Z</time>
      </trkpt>
      <trkpt lat="48.3569" lon="-4.74632">
        <ele>14.60000038147</ele>
        <time>2022-03-30T16:58:52.000Z</time>
      </trkpt>
      <trkpt lat="48.35682" lon="-4.74618">
        <ele>14.199999809265</ele>
        <time>2022-03-30T16:58:54.000Z</time>
      </trkpt>
      <trkpt lat="48.3567" lon="-4.7461">
        <ele>15</ele>
        <time>2022-03-30T16:58:57.000Z</time>
      </trkpt>
      <trkpt lat="48.35666" lon="-4.74605">
        <ele>15.60000038147</ele>
        <time>2022-03-30T16:58:59.000Z</time>
      </trkpt>
      <trkpt lat="48.35663" lon="-4.74603">
        <ele>15.800000190735</ele>
        <time>2022-03-30T16:59:00.000Z</time>
      </trkpt>
      <trkpt lat="48.35654" lon="-4.74597">
        <ele>17</ele>
        <time>2022-03-30T16:59:04.000Z</time>
      </trkpt>
      <trkpt lat="48.3565" lon="-4.74593">
        <ele>17.200000762939</ele>
        <time>2022-03-30T16:59:06.000Z</time>
      </trkpt>
      <trkpt lat="48.35646" lon="-4.74592">
        <ele>17.60000038147</ele>
        <time>2022-03-30T16:59:07.000Z</time>
      </trkpt>
      <trkpt lat="48.35637" lon="-4.74586">
        <ele>18.200000762939</ele>
        <time>2022-03-30T16:59:12.000Z</time>
      </trkpt>
      <trkpt lat="48.35632" lon="-4.74582">
        <ele>18.200000762939</ele>
        <time>2022-03-30T16:59:15.000Z</time>
      </trkpt>
      <trkpt lat="48.35628" lon="-4.74578">
        <ele>18.200000762939</ele>
        <time>2022-03-30T16:59:17.000Z</time>
      </trkpt>
      <trkpt lat="48.35621" lon="-4.74575">
        <ele>18.799999237061</ele>
        <time>2022-03-30T16:59:19.000Z</time>
      </trkpt>
      <trkpt lat="48.35618" lon="-4.74576">
        <ele>19.39999961853</ele>
        <time>2022-03-30T16:59:20.000Z</time>
      </trkpt>
      <trkpt lat="48.35613" lon="-4.74578">
        <ele>20.39999961853</ele>
        <time>2022-03-30T16:59:24.000Z</time>
      </trkpt>
      <trkpt lat="48.35604" lon="-4.74578">
        <ele>21.39999961853</ele>
        <time>2022-03-30T16:59:30.000Z</time>
      </trkpt>
      <trkpt lat="48.35593" lon="-4.74569">
        <ele>21.200000762939</ele>
        <time>2022-03-30T16:59:35.000Z</time>
      </trkpt>
      <trkpt lat="48.35592" lon="-4.74568">
        <ele>21.200000762939</ele>
        <time>2022-03-30T16:59:36.000Z</time>
      </trkpt>
      <trkpt lat="48.35588" lon="-4.74565">
        <ele>21.39999961853</ele>
        <time>2022-03-30T16:59:38.000Z</time>
      </trkpt>
      <trkpt lat="48.35584" lon="-4.74562">
        <ele>21.39999961853</ele>
        <time>2022-03-30T16:59:42.000Z</time>
      </trkpt>
      <trkpt lat="48.35576" lon="-4.74559">
        <ele>21.799999237061</ele>
        <time>2022-03-30T16:59:45.000Z</time>
      </trkpt>
      <trkpt lat="48.35573" lon="-4.74556">
        <ele>21.799999237061</ele>
        <time>2022-03-30T16:59:47.000Z</time>
      </trkpt>
      <trkpt lat="48.35569" lon="-4.74553">
        <ele>21.799999237061</ele>
        <time>2022-03-30T16:59:49.000Z</time>
      </trkpt>
      <trkpt lat="48.35558" lon="-4.74544">
        <ele>22</ele>
        <time>2022-03-30T16:59:54.000Z</time>
      </trkpt>
      <trkpt lat="48.35555" lon="-4.7454">
        <ele>22</ele>
        <time>2022-03-30T16:59:55.000Z</time>
      </trkpt>
      <trkpt lat="48.35541" lon="-4.7453">
        <ele>22.39999961853</ele>
        <time>2022-03-30T16:59:58.000Z</time>
      </trkpt>
      <trkpt lat="48.35526" lon="-4.74519">
        <ele>21.799999237061</ele>
        <time>2022-03-30T17:00:02.000Z</time>
      </trkpt>
      <trkpt lat="48.35517" lon="-4.74518">
        <ele>21.799999237061</ele>
        <time>2022-03-30T17:00:05.000Z</time>
      </trkpt>
      <trkpt lat="48.35507" lon="-4.74518">
        <ele>22.39999961853</ele>
        <time>2022-03-30T17:00:11.000Z</time>
      </trkpt>
      <trkpt lat="48.355" lon="-4.74516">
        <ele>22.799999237061</ele>
        <time>2022-03-30T17:00:14.000Z</time>
      </trkpt>
      <trkpt lat="48.35496" lon="-4.74513">
        <ele>22.60000038147</ele>
        <time>2022-03-30T17:00:16.000Z</time>
      </trkpt>
      <trkpt lat="48.35489" lon="-4.74504">
        <ele>22.200000762939</ele>
        <time>2022-03-30T17:00:19.000Z</time>
      </trkpt>
      <trkpt lat="48.35484" lon="-4.74499">
        <ele>21.799999237061</ele>
        <time>2022-03-30T17:00:21.000Z</time>
      </trkpt>
      <trkpt lat="48.3548" lon="-4.74492">
        <ele>21.200000762939</ele>
        <time>2022-03-30T17:00:23.000Z</time>
      </trkpt>
      <trkpt lat="48.35479" lon="-4.74488">
        <ele>20.799999237061</ele>
        <time>2022-03-30T17:00:24.000Z</time>
      </trkpt>
      <trkpt lat="48.35474" lon="-4.74481">
        <ele>20.60000038147</ele>
        <time>2022-03-30T17:00:26.000Z</time>
      </trkpt>
      <trkpt lat="48.35468" lon="-4.74467">
        <ele>19.60000038147</ele>
        <time>2022-03-30T17:00:29.000Z</time>
      </trkpt>
      <trkpt lat="48.35461" lon="-4.74459">
        <ele>19</ele>
        <time>2022-03-30T17:00:32.000Z</time>
      </trkpt>
      <trkpt lat="48.35454" lon="-4.74452">
        <ele>19</ele>
        <time>2022-03-30T17:00:35.000Z</time>
      </trkpt>
      <trkpt lat="48.35453" lon="-4.7445">
        <ele>19</ele>
        <time>2022-03-30T17:00:36.000Z</time>
      </trkpt>
      <trkpt lat="48.35448" lon="-4.74445">
        <ele>18.799999237061</ele>
        <time>2022-03-30T17:00:39.000Z</time>
      </trkpt>
      <trkpt lat="48.35446" lon="-4.74442">
        <ele>18.60000038147</ele>
        <time>2022-03-30T17:00:40.000Z</time>
      </trkpt>
      <trkpt lat="48.35442" lon="-4.74437">
        <ele>18.39999961853</ele>
        <time>2022-03-30T17:00:42.000Z</time>
      </trkpt>
      <trkpt lat="48.35437" lon="-4.74436">
        <ele>18.39999961853</ele>
        <time>2022-03-30T17:00:44.000Z</time>
      </trkpt>
      <trkpt lat="48.3543" lon="-4.74432">
        <ele>18.39999961853</ele>
        <time>2022-03-30T17:00:48.000Z</time>
      </trkpt>
      <trkpt lat="48.35424" lon="-4.74427">
        <ele>18.39999961853</ele>
        <time>2022-03-30T17:00:52.000Z</time>
      </trkpt>
      <trkpt lat="48.35422" lon="-4.74425">
        <ele>18.39999961853</ele>
        <time>2022-03-30T17:00:53.000Z</time>
      </trkpt>
      <trkpt lat="48.35418" lon="-4.74414">
        <ele>17.799999237061</ele>
        <time>2022-03-30T17:00:55.000Z</time>
      </trkpt>
      <trkpt lat="48.35411" lon="-4.744">
        <ele>16.39999961853</ele>
        <time>2022-03-30T17:00:58.000Z</time>
      </trkpt>
      <trkpt lat="48.35411" lon="-4.74391">
        <ele>15.800000190735</ele>
        <time>2022-03-30T17:01:02.000Z</time>
      </trkpt>
      <trkpt lat="48.3541" lon="-4.7439">
        <ele>15.800000190735</ele>
        <time>2022-03-30T17:01:21.000Z</time>
      </trkpt>
      <trkpt lat="48.35407" lon="-4.74385">
        <ele>15.800000190735</ele>
        <time>2022-03-30T17:01:23.000Z</time>
      </trkpt>
      <trkpt lat="48.35403" lon="-4.74371">
        <ele>15.199999809265</ele>
        <time>2022-03-30T17:01:26.000Z</time>
      </trkpt>
      <trkpt lat="48.35401" lon="-4.74358">
        <ele>14.800000190735</ele>
        <time>2022-03-30T17:01:28.000Z</time>
      </trkpt>
      <trkpt lat="48.35399" lon="-4.74352">
        <ele>14.800000190735</ele>
        <time>2022-03-30T17:01:29.000Z</time>
      </trkpt>
      <trkpt lat="48.35385" lon="-4.74335">
        <ele>14.60000038147</ele>
        <time>2022-03-30T17:01:34.000Z</time>
      </trkpt>
      <trkpt lat="48.35369" lon="-4.74324">
        <ele>14.800000190735</ele>
        <time>2022-03-30T17:01:39.000Z</time>
      </trkpt>
      <trkpt lat="48.35353" lon="-4.74324">
        <ele>15</ele>
        <time>2022-03-30T17:01:44.000Z</time>
      </trkpt>
      <trkpt lat="48.35337" lon="-4.74335">
        <ele>15.800000190735</ele>
        <time>2022-03-30T17:01:49.000Z</time>
      </trkpt>
      <trkpt lat="48.35333" lon="-4.74337">
        <ele>15.800000190735</ele>
        <time>2022-03-30T17:01:50.000Z</time>
      </trkpt>
      <trkpt lat="48.35326" lon="-4.74334">
        <ele>15.60000038147</ele>
        <time>2022-03-30T17:01:52.000Z</time>
      </trkpt>
      <trkpt lat="48.35307" lon="-4.74322">
        <ele>15</ele>
        <time>2022-03-30T17:01:58.000Z</time>
      </trkpt>
      <trkpt lat="48.35292" lon="-4.74303">
        <ele>15.39999961853</ele>
        <time>2022-03-30T17:02:04.000Z</time>
      </trkpt>
      <trkpt lat="48.35287" lon="-4.74297">
        <ele>15.60000038147</ele>
        <time>2022-03-30T17:02:06.000Z</time>
      </trkpt>
      <trkpt lat="48.35284" lon="-4.74297">
        <ele>15.800000190735</ele>
        <time>2022-03-30T17:02:07.000Z</time>
      </trkpt>
      <trkpt lat="48.35282" lon="-4.74299">
        <ele>16</ele>
        <time>2022-03-30T17:02:08.000Z</time>
      </trkpt>
      <trkpt lat="48.35277" lon="-4.74303">
        <ele>16</ele>
        <time>2022-03-30T17:02:10.000Z</time>
      </trkpt>
      <trkpt lat="48.35269" lon="-4.74305">
        <ele>16.200000762939</ele>
        <time>2022-03-30T17:02:13.000Z</time>
      </trkpt>
      <trkpt lat="48.35266" lon="-4.74302">
        <ele>16.39999961853</ele>
        <time>2022-03-30T17:02:14.000Z</time>
      </trkpt>
      <trkpt lat="48.35258" lon="-4.74292">
        <ele>17</ele>
        <time>2022-03-30T17:02:17.000Z</time>
      </trkpt>
      <trkpt lat="48.35241" lon="-4.74272">
        <ele>18.39999961853</ele>
        <time>2022-03-30T17:02:23.000Z</time>
      </trkpt>
      <trkpt lat="48.35224" lon="-4.74255">
        <ele>19</ele>
        <time>2022-03-30T17:02:29.000Z</time>
      </trkpt>
      <trkpt lat="48.35221" lon="-4.74254">
        <ele>19</ele>
        <time>2022-03-30T17:02:30.000Z</time>
      </trkpt>
      <trkpt lat="48.35215" lon="-4.74259">
        <ele>19</ele>
        <time>2022-03-30T17:02:32.000Z</time>
      </trkpt>
      <trkpt lat="48.35208" lon="-4.74278">
        <ele>19</ele>
        <time>2022-03-30T17:02:37.000Z</time>
      </trkpt>
      <trkpt lat="48.352" lon="-4.74301">
        <ele>18.60000038147</ele>
        <time>2022-03-30T17:02:43.000Z</time>
      </trkpt>
      <trkpt lat="48.35188" lon="-4.74333">
        <ele>18.39999961853</ele>
        <time>2022-03-30T17:02:51.000Z</time>
      </trkpt>
      <trkpt lat="48.35186" lon="-4.74335">
        <ele>18.39999961853</ele>
        <time>2022-03-30T17:02:52.000Z</time>
      </trkpt>
      <trkpt lat="48.35181" lon="-4.74334">
        <ele>19</ele>
        <time>2022-03-30T17:02:54.000Z</time>
      </trkpt>
      <trkpt lat="48.35162" lon="-4.74321">
        <ele>20</ele>
        <time>2022-03-30T17:03:01.000Z</time>
      </trkpt>
      <trkpt lat="48.35141" lon="-4.74304">
        <ele>21.799999237061</ele>
        <time>2022-03-30T17:03:09.000Z</time>
      </trkpt>
      <trkpt lat="48.35123" lon="-4.74289">
        <ele>23.60000038147</ele>
        <time>2022-03-30T17:03:16.000Z</time>
      </trkpt>
      <trkpt lat="48.35109" lon="-4.7428">
        <ele>24.799999237061</ele>
        <time>2022-03-30T17:03:21.000Z</time>
      </trkpt>
      <trkpt lat="48.35087" lon="-4.74268">
        <ele>25</ele>
        <time>2022-03-30T17:03:28.000Z</time>
      </trkpt>
      <trkpt lat="48.35065" lon="-4.74258">
        <ele>24</ele>
        <time>2022-03-30T17:03:34.000Z</time>
      </trkpt>
      <trkpt lat="48.35039" lon="-4.74243">
        <ele>25.39999961853</ele>
        <time>2022-03-30T17:03:42.000Z</time>
      </trkpt>
      <trkpt lat="48.35019" lon="-4.74233">
        <ele>27.39999961853</ele>
        <time>2022-03-30T17:03:48.000Z</time>
      </trkpt>
      <trkpt lat="48.35004" lon="-4.74223">
        <ele>28.39999961853</ele>
        <time>2022-03-30T17:03:54.000Z</time>
      </trkpt>
      <trkpt lat="48.34988" lon="-4.74209">
        <ele>29.799999237061</ele>
        <time>2022-03-30T17:04:01.000Z</time>
      </trkpt>
      <trkpt lat="48.34974" lon="-4.74197">
        <ele>30.39999961853</ele>
        <time>2022-03-30T17:04:08.000Z</time>
      </trkpt>
      <trkpt lat="48.34959" lon="-4.7419">
        <ele>31.200000762939</ele>
        <time>2022-03-30T17:04:14.000Z</time>
      </trkpt>
      <trkpt lat="48.34948" lon="-4.74192">
        <ele>32</ele>
        <time>2022-03-30T17:04:19.000Z</time>
      </trkpt>
      <trkpt lat="48.3494" lon="-4.74197">
        <ele>32.799999237061</ele>
        <time>2022-03-30T17:04:24.000Z</time>
      </trkpt>
      <trkpt lat="48.34932" lon="-4.74199">
        <ele>33.799999237061</ele>
        <time>2022-03-30T17:04:29.000Z</time>
      </trkpt>
      <trkpt lat="48.34926" lon="-4.7419">
        <ele>34.200000762939</ele>
        <time>2022-03-30T17:04:34.000Z</time>
      </trkpt>
      <trkpt lat="48.34911" lon="-4.74171">
        <ele>35.200000762939</ele>
        <time>2022-03-30T17:04:42.000Z</time>
      </trkpt>
      <trkpt lat="48.349" lon="-4.74155">
        <ele>36.400001525879</ele>
        <time>2022-03-30T17:04:48.000Z</time>
      </trkpt>
      <trkpt lat="48.34883" lon="-4.74132">
        <ele>37.400001525879</ele>
        <time>2022-03-30T17:04:56.000Z</time>
      </trkpt>
      <trkpt lat="48.34863" lon="-4.74105">
        <ele>36.400001525879</ele>
        <time>2022-03-30T17:05:03.000Z</time>
      </trkpt>
      <trkpt lat="48.34848" lon="-4.74087">
        <ele>35.200000762939</ele>
        <time>2022-03-30T17:05:07.000Z</time>
      </trkpt>
      <trkpt lat="48.34846" lon="-4.74082">
        <ele>35.200000762939</ele>
        <time>2022-03-30T17:05:08.000Z</time>
      </trkpt>
      <trkpt lat="48.34843" lon="-4.74067">
        <ele>35</ele>
        <time>2022-03-30T17:05:10.000Z</time>
      </trkpt>
      <trkpt lat="48.34847" lon="-4.74049">
        <ele>34.200000762939</ele>
        <time>2022-03-30T17:05:12.000Z</time>
      </trkpt>
      <trkpt lat="48.3486" lon="-4.7402">
        <ele>32.799999237061</ele>
        <time>2022-03-30T17:05:15.000Z</time>
      </trkpt>
      <trkpt lat="48.34874" lon="-4.73983">
        <ele>32.400001525879</ele>
        <time>2022-03-30T17:05:18.000Z</time>
      </trkpt>
      <trkpt lat="48.3488" lon="-4.73956">
        <ele>33</ele>
        <time>2022-03-30T17:05:20.000Z</time>
      </trkpt>
      <trkpt lat="48.34885" lon="-4.73912">
        <ele>34.400001525879</ele>
        <time>2022-03-30T17:05:24.000Z</time>
      </trkpt>
      <trkpt lat="48.34888" lon="-4.73876">
        <ele>35</ele>
        <time>2022-03-30T17:05:29.000Z</time>
      </trkpt>
      <trkpt lat="48.34893" lon="-4.73837">
        <ele>35.799999237061</ele>
        <time>2022-03-30T17:05:37.000Z</time>
      </trkpt>
      <trkpt lat="48.34895" lon="-4.73803">
        <ele>36</ele>
        <time>2022-03-30T17:05:44.000Z</time>
      </trkpt>
      <trkpt lat="48.34898" lon="-4.73762">
        <ele>37.400001525879</ele>
        <time>2022-03-30T17:05:52.000Z</time>
      </trkpt>
      <trkpt lat="48.34901" lon="-4.73718">
        <ele>37.400001525879</ele>
        <time>2022-03-30T17:06:00.000Z</time>
      </trkpt>
      <trkpt lat="48.34903" lon="-4.73691">
        <ele>37.400001525879</ele>
        <time>2022-03-30T17:06:05.000Z</time>
      </trkpt>
      <trkpt lat="48.34904" lon="-4.73652">
        <ele>37.400001525879</ele>
        <time>2022-03-30T17:06:12.000Z</time>
      </trkpt>
      <trkpt lat="48.34906" lon="-4.73598">
        <ele>39</ele>
        <time>2022-03-30T17:06:20.000Z</time>
      </trkpt>
      <trkpt lat="48.34909" lon="-4.73548">
        <ele>39.599998474121</ele>
        <time>2022-03-30T17:06:27.000Z</time>
      </trkpt>
      <trkpt lat="48.3491" lon="-4.73541">
        <ele>39.200000762939</ele>
        <time>2022-03-30T17:06:28.000Z</time>
      </trkpt>
      <trkpt lat="48.34914" lon="-4.73482">
        <ele>38.799999237061</ele>
        <time>2022-03-30T17:06:36.000Z</time>
      </trkpt>
      <trkpt lat="48.34917" lon="-4.73415">
        <ele>38.599998474121</ele>
        <time>2022-03-30T17:06:44.000Z</time>
      </trkpt>
      <trkpt lat="48.34919" lon="-4.73354">
        <ele>38.799999237061</ele>
        <time>2022-03-30T17:06:51.000Z</time>
      </trkpt>
      <trkpt lat="48.34918" lon="-4.73346">
        <ele>39.200000762939</ele>
        <time>2022-03-30T17:06:52.000Z</time>
      </trkpt>
      <trkpt lat="48.34909" lon="-4.73288">
        <ele>39.200000762939</ele>
        <time>2022-03-30T17:06:59.000Z</time>
      </trkpt>
      <trkpt lat="48.34894" lon="-4.73234">
        <ele>37.599998474121</ele>
        <time>2022-03-30T17:07:06.000Z</time>
      </trkpt>
      <trkpt lat="48.34872" lon="-4.73187">
        <ele>37.400001525879</ele>
        <time>2022-03-30T17:07:13.000Z</time>
      </trkpt>
      <trkpt lat="48.34844" lon="-4.73149">
        <ele>37.599998474121</ele>
        <time>2022-03-30T17:07:20.000Z</time>
      </trkpt>
      <trkpt lat="48.34799" lon="-4.73101">
        <ele>36.400001525879</ele>
        <time>2022-03-30T17:07:30.000Z</time>
      </trkpt>
      <trkpt lat="48.34794" lon="-4.73096">
        <ele>36.599998474121</ele>
        <time>2022-03-30T17:07:31.000Z</time>
      </trkpt>
      <trkpt lat="48.3475" lon="-4.73051">
        <ele>40.599998474121</ele>
        <time>2022-03-30T17:07:40.000Z</time>
      </trkpt>
      <trkpt lat="48.34721" lon="-4.73021">
        <ele>41.599998474121</ele>
        <time>2022-03-30T17:07:47.000Z</time>
      </trkpt>
      <trkpt lat="48.34719" lon="-4.73009">
        <ele>41</ele>
        <time>2022-03-30T17:07:49.000Z</time>
      </trkpt>
      <trkpt lat="48.3472" lon="-4.73002">
        <ele>41</ele>
        <time>2022-03-30T17:07:50.000Z</time>
      </trkpt>
      <trkpt lat="48.34722" lon="-4.72995">
        <ele>41</ele>
        <time>2022-03-30T17:07:51.000Z</time>
      </trkpt>
      <trkpt lat="48.34727" lon="-4.72981">
        <ele>41</ele>
        <time>2022-03-30T17:07:53.000Z</time>
      </trkpt>
      <trkpt lat="48.3473" lon="-4.72974">
        <ele>41</ele>
        <time>2022-03-30T17:07:54.000Z</time>
      </trkpt>
      <trkpt lat="48.34754" lon="-4.72925">
        <ele>41.400001525879</ele>
        <time>2022-03-30T17:08:00.000Z</time>
      </trkpt>
      <trkpt lat="48.34771" lon="-4.72871">
        <ele>39.200000762939</ele>
        <time>2022-03-30T17:08:06.000Z</time>
      </trkpt>
      <trkpt lat="48.34788" lon="-4.72809">
        <ele>38</ele>
        <time>2022-03-30T17:08:13.000Z</time>
      </trkpt>
      <trkpt lat="48.34802" lon="-4.72758">
        <ele>38</ele>
        <time>2022-03-30T17:08:20.000Z</time>
      </trkpt>
      <trkpt lat="48.34813" lon="-4.72713">
        <ele>39</ele>
        <time>2022-03-30T17:08:27.000Z</time>
      </trkpt>
      <trkpt lat="48.34823" lon="-4.72683">
        <ele>39.599998474121</ele>
        <time>2022-03-30T17:08:32.000Z</time>
      </trkpt>
      <trkpt lat="48.34829" lon="-4.72671">
        <ele>40</ele>
        <time>2022-03-30T17:08:34.000Z</time>
      </trkpt>
      <trkpt lat="48.34841" lon="-4.7265">
        <ele>40</ele>
        <time>2022-03-30T17:08:38.000Z</time>
      </trkpt>
      <trkpt lat="48.34848" lon="-4.72641">
        <ele>40.200000762939</ele>
        <time>2022-03-30T17:08:40.000Z</time>
      </trkpt>
      <trkpt lat="48.34878" lon="-4.72607">
        <ele>41.400001525879</ele>
        <time>2022-03-30T17:08:48.000Z</time>
      </trkpt>
      <trkpt lat="48.34915" lon="-4.72564">
        <ele>43.200000762939</ele>
        <time>2022-03-30T17:08:58.000Z</time>
      </trkpt>
      <trkpt lat="48.34948" lon="-4.72521">
        <ele>44</ele>
        <time>2022-03-30T17:09:07.000Z</time>
      </trkpt>
      <trkpt lat="48.3498" lon="-4.72478">
        <ele>45</ele>
        <time>2022-03-30T17:09:16.000Z</time>
      </trkpt>
      <trkpt lat="48.34997" lon="-4.72452">
        <ele>45</ele>
        <time>2022-03-30T17:09:21.000Z</time>
      </trkpt>
      <trkpt lat="48.35006" lon="-4.72435">
        <ele>45.599998474121</ele>
        <time>2022-03-30T17:09:24.000Z</time>
      </trkpt>
      <trkpt lat="48.35011" lon="-4.72424">
        <ele>46</ele>
        <time>2022-03-30T17:09:26.000Z</time>
      </trkpt>
      <trkpt lat="48.35012" lon="-4.7241">
        <ele>46</ele>
        <time>2022-03-30T17:09:28.000Z</time>
      </trkpt>
      <trkpt lat="48.35005" lon="-4.72379">
        <ele>47.200000762939</ele>
        <time>2022-03-30T17:09:33.000Z</time>
      </trkpt>
      <trkpt lat="48.34994" lon="-4.72332">
        <ele>48</ele>
        <time>2022-03-30T17:09:40.000Z</time>
      </trkpt>
      <trkpt lat="48.34986" lon="-4.72293">
        <ele>48.599998474121</ele>
        <time>2022-03-30T17:09:46.000Z</time>
      </trkpt>
      <trkpt lat="48.34975" lon="-4.72245">
        <ele>49</ele>
        <time>2022-03-30T17:09:53.000Z</time>
      </trkpt>
      <trkpt lat="48.34961" lon="-4.72184">
        <ele>48</ele>
        <time>2022-03-30T17:10:02.000Z</time>
      </trkpt>
      <trkpt lat="48.34948" lon="-4.72129">
        <ele>48.599998474121</ele>
        <time>2022-03-30T17:10:10.000Z</time>
      </trkpt>
      <trkpt lat="48.34947" lon="-4.72122">
        <ele>48.799999237061</ele>
        <time>2022-03-30T17:10:11.000Z</time>
      </trkpt>
      <trkpt lat="48.3494" lon="-4.72094">
        <ele>49</ele>
        <time>2022-03-30T17:10:15.000Z</time>
      </trkpt>
      <trkpt lat="48.34939" lon="-4.72087">
        <ele>49</ele>
        <time>2022-03-30T17:10:16.000Z</time>
      </trkpt>
      <trkpt lat="48.34928" lon="-4.7204">
        <ele>49.400001525879</ele>
        <time>2022-03-30T17:10:23.000Z</time>
      </trkpt>
      <trkpt lat="48.34915" lon="-4.71981">
        <ele>49</ele>
        <time>2022-03-30T17:10:31.000Z</time>
      </trkpt>
      <trkpt lat="48.3491" lon="-4.71953">
        <ele>49</ele>
        <time>2022-03-30T17:10:36.000Z</time>
      </trkpt>
      <trkpt lat="48.3491" lon="-4.7194">
        <ele>48.599998474121</ele>
        <time>2022-03-30T17:10:40.000Z</time>
      </trkpt>
      <trkpt lat="48.34909" lon="-4.71928">
        <ele>48.200000762939</ele>
        <time>2022-03-30T17:10:42.000Z</time>
      </trkpt>
      <trkpt lat="48.34908" lon="-4.71908">
        <ele>48</ele>
        <time>2022-03-30T17:10:45.000Z</time>
      </trkpt>
      <trkpt lat="48.34907" lon="-4.71893">
        <ele>47.799999237061</ele>
        <time>2022-03-30T17:10:47.000Z</time>
      </trkpt>
      <trkpt lat="48.34906" lon="-4.71878">
        <ele>47.799999237061</ele>
        <time>2022-03-30T17:10:49.000Z</time>
      </trkpt>
      <trkpt lat="48.34909" lon="-4.71863">
        <ele>47.599998474121</ele>
        <time>2022-03-30T17:10:52.000Z</time>
      </trkpt>
      <trkpt lat="48.34921" lon="-4.71858">
        <ele>47.599998474121</ele>
        <time>2022-03-30T17:10:56.000Z</time>
      </trkpt>
      <trkpt lat="48.34939" lon="-4.7185">
        <ele>47.400001525879</ele>
        <time>2022-03-30T17:11:01.000Z</time>
      </trkpt>
      <trkpt lat="48.34943" lon="-4.71846">
        <ele>47.200000762939</ele>
        <time>2022-03-30T17:11:02.000Z</time>
      </trkpt>
      <trkpt lat="48.3495" lon="-4.71837">
        <ele>46.799999237061</ele>
        <time>2022-03-30T17:11:04.000Z</time>
      </trkpt>
      <trkpt lat="48.34952" lon="-4.71831">
        <ele>46.400001525879</ele>
        <time>2022-03-30T17:11:05.000Z</time>
      </trkpt>
      <trkpt lat="48.34953" lon="-4.71824">
        <ele>45.799999237061</ele>
        <time>2022-03-30T17:11:06.000Z</time>
      </trkpt>
      <trkpt lat="48.34952" lon="-4.71809">
        <ele>44.799999237061</ele>
        <time>2022-03-30T17:11:08.000Z</time>
      </trkpt>
      <trkpt lat="48.34951" lon="-4.71801">
        <ele>44.200000762939</ele>
        <time>2022-03-30T17:11:09.000Z</time>
      </trkpt>
      <trkpt lat="48.34949" lon="-4.71793">
        <ele>44</ele>
        <time>2022-03-30T17:11:10.000Z</time>
      </trkpt>
      <trkpt lat="48.34948" lon="-4.71765">
        <ele>42.400001525879</ele>
        <time>2022-03-30T17:11:13.000Z</time>
      </trkpt>
      <trkpt lat="48.34948" lon="-4.71755">
        <ele>41.599998474121</ele>
        <time>2022-03-30T17:11:14.000Z</time>
      </trkpt>
      <trkpt lat="48.34952" lon="-4.71737">
        <ele>40.599998474121</ele>
        <time>2022-03-30T17:11:16.000Z</time>
      </trkpt>
      <trkpt lat="48.3497" lon="-4.7172">
        <ele>39.799999237061</ele>
        <time>2022-03-30T17:11:19.000Z</time>
      </trkpt>
      <trkpt lat="48.34994" lon="-4.71702">
        <ele>40</ele>
        <time>2022-03-30T17:11:23.000Z</time>
      </trkpt>
      <trkpt lat="48.34999" lon="-4.717">
        <ele>40.200000762939</ele>
        <time>2022-03-30T17:11:24.000Z</time>
      </trkpt>
      <trkpt lat="48.35018" lon="-4.7169">
        <ele>41.599998474121</ele>
        <time>2022-03-30T17:11:29.000Z</time>
      </trkpt>
      <trkpt lat="48.35027" lon="-4.71675">
        <ele>42.200000762939</ele>
        <time>2022-03-30T17:11:33.000Z</time>
      </trkpt>
      <trkpt lat="48.35031" lon="-4.71665">
        <ele>42.200000762939</ele>
        <time>2022-03-30T17:11:35.000Z</time>
      </trkpt>
      <trkpt lat="48.35036" lon="-4.71653">
        <ele>42.400001525879</ele>
        <time>2022-03-30T17:11:37.000Z</time>
      </trkpt>
      <trkpt lat="48.35039" lon="-4.71647">
        <ele>42.599998474121</ele>
        <time>2022-03-30T17:11:38.000Z</time>
      </trkpt>
      <trkpt lat="48.3506" lon="-4.71596">
        <ele>44.400001525879</ele>
        <time>2022-03-30T17:11:46.000Z</time>
      </trkpt>
      <trkpt lat="48.35079" lon="-4.71565">
        <ele>45.200000762939</ele>
        <time>2022-03-30T17:11:53.000Z</time>
      </trkpt>
      <trkpt lat="48.35094" lon="-4.71542">
        <ele>44.799999237061</ele>
        <time>2022-03-30T17:11:59.000Z</time>
      </trkpt>
      <trkpt lat="48.35112" lon="-4.71515">
        <ele>45.400001525879</ele>
        <time>2022-03-30T17:12:06.000Z</time>
      </trkpt>
      <trkpt lat="48.35129" lon="-4.71487">
        <ele>46.599998474121</ele>
        <time>2022-03-30T17:12:13.000Z</time>
      </trkpt>
      <trkpt lat="48.35151" lon="-4.7145">
        <ele>48.200000762939</ele>
        <time>2022-03-30T17:12:22.000Z</time>
      </trkpt>
      <trkpt lat="48.35162" lon="-4.71429">
        <ele>48.200000762939</ele>
        <time>2022-03-30T17:12:27.000Z</time>
      </trkpt>
      <trkpt lat="48.35172" lon="-4.71404">
        <ele>47.599998474121</ele>
        <time>2022-03-30T17:12:33.000Z</time>
      </trkpt>
      <trkpt lat="48.35181" lon="-4.71378">
        <ele>47.599998474121</ele>
        <time>2022-03-30T17:12:39.000Z</time>
      </trkpt>
      <trkpt lat="48.35195" lon="-4.71347">
        <ele>48.799999237061</ele>
        <time>2022-03-30T17:12:46.000Z</time>
      </trkpt>
      <trkpt lat="48.35197" lon="-4.71344">
        <ele>48.799999237061</ele>
        <time>2022-03-30T17:12:47.000Z</time>
      </trkpt>
      <trkpt lat="48.35203" lon="-4.71346">
        <ele>48.799999237061</ele>
        <time>2022-03-30T17:12:49.000Z</time>
      </trkpt>
      <trkpt lat="48.35219" lon="-4.71362">
        <ele>49</ele>
        <time>2022-03-30T17:12:54.000Z</time>
      </trkpt>
      <trkpt lat="48.35239" lon="-4.71378">
        <ele>49.599998474121</ele>
        <time>2022-03-30T17:13:00.000Z</time>
      </trkpt>
      <trkpt lat="48.35249" lon="-4.71371">
        <ele>49.799999237061</ele>
        <time>2022-03-30T17:13:03.000Z</time>
      </trkpt>
      <trkpt lat="48.35258" lon="-4.71346">
        <ele>50</ele>
        <time>2022-03-30T17:13:08.000Z</time>
      </trkpt>
      <trkpt lat="48.35269" lon="-4.71298">
        <ele>50</ele>
        <time>2022-03-30T17:13:16.000Z</time>
      </trkpt>
      <trkpt lat="48.35278" lon="-4.71263">
        <ele>49.200000762939</ele>
        <time>2022-03-30T17:13:22.000Z</time>
      </trkpt>
      <trkpt lat="48.35283" lon="-4.71244">
        <ele>49</ele>
        <time>2022-03-30T17:13:25.000Z</time>
      </trkpt>
      <trkpt lat="48.35286" lon="-4.71232">
        <ele>49</ele>
        <time>2022-03-30T17:13:27.000Z</time>
      </trkpt>
      <trkpt lat="48.35287" lon="-4.71218">
        <ele>49</ele>
        <time>2022-03-30T17:13:29.000Z</time>
      </trkpt>
      <trkpt lat="48.35286" lon="-4.7121">
        <ele>49</ele>
        <time>2022-03-30T17:13:30.000Z</time>
      </trkpt>
      <trkpt lat="48.35286" lon="-4.71202">
        <ele>49</ele>
        <time>2022-03-30T17:13:31.000Z</time>
      </trkpt>
      <trkpt lat="48.35287" lon="-4.71187">
        <ele>48.599998474121</ele>
        <time>2022-03-30T17:13:33.000Z</time>
      </trkpt>
      <trkpt lat="48.35293" lon="-4.71139">
        <ele>48.599998474121</ele>
        <time>2022-03-30T17:13:40.000Z</time>
      </trkpt>
      <trkpt lat="48.35301" lon="-4.71102">
        <ele>50</ele>
        <time>2022-03-30T17:13:45.000Z</time>
      </trkpt>
      <trkpt lat="48.35312" lon="-4.7106">
        <ele>51.599998474121</ele>
        <time>2022-03-30T17:13:51.000Z</time>
      </trkpt>
      <trkpt lat="48.35316" lon="-4.71047">
        <ele>51.400001525879</ele>
        <time>2022-03-30T17:13:53.000Z</time>
      </trkpt>
      <trkpt lat="48.35325" lon="-4.7102">
        <ele>51.200000762939</ele>
        <time>2022-03-30T17:13:57.000Z</time>
      </trkpt>
      <trkpt lat="48.35329" lon="-4.71007">
        <ele>51</ele>
        <time>2022-03-30T17:13:59.000Z</time>
      </trkpt>
      <trkpt lat="48.35334" lon="-4.70993">
        <ele>51</ele>
        <time>2022-03-30T17:14:01.000Z</time>
      </trkpt>
      <trkpt lat="48.35337" lon="-4.70986">
        <ele>51</ele>
        <time>2022-03-30T17:14:02.000Z</time>
      </trkpt>
      <trkpt lat="48.35351" lon="-4.70939">
        <ele>50</ele>
        <time>2022-03-30T17:14:08.000Z</time>
      </trkpt>
      <trkpt lat="48.35371" lon="-4.70894">
        <ele>49</ele>
        <time>2022-03-30T17:14:14.000Z</time>
      </trkpt>
      <trkpt lat="48.35374" lon="-4.70886">
        <ele>48.799999237061</ele>
        <time>2022-03-30T17:14:15.000Z</time>
      </trkpt>
      <trkpt lat="48.35378" lon="-4.70871">
        <ele>48.200000762939</ele>
        <time>2022-03-30T17:14:17.000Z</time>
      </trkpt>
      <trkpt lat="48.35379" lon="-4.70862">
        <ele>47.799999237061</ele>
        <time>2022-03-30T17:14:18.000Z</time>
      </trkpt>
      <trkpt lat="48.35391" lon="-4.70808">
        <ele>46.599998474121</ele>
        <time>2022-03-30T17:14:25.000Z</time>
      </trkpt>
      <trkpt lat="48.35393" lon="-4.70802">
        <ele>46.599998474121</ele>
        <time>2022-03-30T17:14:26.000Z</time>
      </trkpt>
      <trkpt lat="48.354" lon="-4.70781">
        <ele>47.599998474121</ele>
        <time>2022-03-30T17:14:29.000Z</time>
      </trkpt>
      <trkpt lat="48.35405" lon="-4.7076">
        <ele>48.400001525879</ele>
        <time>2022-03-30T17:14:32.000Z</time>
      </trkpt>
      <trkpt lat="48.3542" lon="-4.70719">
        <ele>49.799999237061</ele>
        <time>2022-03-30T17:14:38.000Z</time>
      </trkpt>
      <trkpt lat="48.35439" lon="-4.70671">
        <ele>51</ele>
        <time>2022-03-30T17:14:45.000Z</time>
      </trkpt>
      <trkpt lat="48.35446" lon="-4.70656">
        <ele>51.400001525879</ele>
        <time>2022-03-30T17:14:47.000Z</time>
      </trkpt>
      <trkpt lat="48.35452" lon="-4.7064">
        <ele>51.599998474121</ele>
        <time>2022-03-30T17:14:49.000Z</time>
      </trkpt>
      <trkpt lat="48.35468" lon="-4.70598">
        <ele>52</ele>
        <time>2022-03-30T17:14:54.000Z</time>
      </trkpt>
      <trkpt lat="48.35491" lon="-4.70543">
        <ele>50.400001525879</ele>
        <time>2022-03-30T17:15:01.000Z</time>
      </trkpt>
      <trkpt lat="48.35495" lon="-4.70536">
        <ele>50</ele>
        <time>2022-03-30T17:15:02.000Z</time>
      </trkpt>
      <trkpt lat="48.35505" lon="-4.7053">
        <ele>50</ele>
        <time>2022-03-30T17:15:04.000Z</time>
      </trkpt>
      <trkpt lat="48.35516" lon="-4.70533">
        <ele>50.799999237061</ele>
        <time>2022-03-30T17:15:06.000Z</time>
      </trkpt>
      <trkpt lat="48.35526" lon="-4.70539">
        <ele>51.200000762939</ele>
        <time>2022-03-30T17:15:08.000Z</time>
      </trkpt>
      <trkpt lat="48.35549" lon="-4.70549">
        <ele>51.599998474121</ele>
        <time>2022-03-30T17:15:13.000Z</time>
      </trkpt>
      <trkpt lat="48.35553" lon="-4.70551">
        <ele>51.799999237061</ele>
        <time>2022-03-30T17:15:14.000Z</time>
      </trkpt>
      <trkpt lat="48.35577" lon="-4.70559">
        <ele>53</ele>
        <time>2022-03-30T17:15:20.000Z</time>
      </trkpt>
      <trkpt lat="48.35599" lon="-4.70568">
        <ele>54.599998474121</ele>
        <time>2022-03-30T17:15:26.000Z</time>
      </trkpt>
      <trkpt lat="48.35609" lon="-4.70574">
        <ele>54.599998474121</ele>
        <time>2022-03-30T17:15:29.000Z</time>
      </trkpt>
      <trkpt lat="48.35612" lon="-4.70575">
        <ele>54.599998474121</ele>
        <time>2022-03-30T17:15:30.000Z</time>
      </trkpt>
      <trkpt lat="48.35632" lon="-4.70587">
        <ele>54</ele>
        <time>2022-03-30T17:15:35.000Z</time>
      </trkpt>
      <trkpt lat="48.35659" lon="-4.70605">
        <ele>53.599998474121</ele>
        <time>2022-03-30T17:15:42.000Z</time>
      </trkpt>
      <trkpt lat="48.3567" lon="-4.70612">
        <ele>53.200000762939</ele>
        <time>2022-03-30T17:15:45.000Z</time>
      </trkpt>
      <trkpt lat="48.35679" lon="-4.70616">
        <ele>53</ele>
        <time>2022-03-30T17:15:47.000Z</time>
      </trkpt>
      <trkpt lat="48.35689" lon="-4.7062">
        <ele>53</ele>
        <time>2022-03-30T17:15:49.000Z</time>
      </trkpt>
      <trkpt lat="48.35709" lon="-4.70624">
        <ele>52.799999237061</ele>
        <time>2022-03-30T17:15:53.000Z</time>
      </trkpt>
      <trkpt lat="48.35714" lon="-4.70626">
        <ele>52.599998474121</ele>
        <time>2022-03-30T17:15:54.000Z</time>
      </trkpt>
      <trkpt lat="48.35733" lon="-4.70636">
        <ele>52.599998474121</ele>
        <time>2022-03-30T17:15:58.000Z</time>
      </trkpt>
      <trkpt lat="48.35738" lon="-4.70639">
        <ele>52.400001525879</ele>
        <time>2022-03-30T17:15:59.000Z</time>
      </trkpt>
      <trkpt lat="48.35751" lon="-4.70649">
        <ele>52</ele>
        <time>2022-03-30T17:16:02.000Z</time>
      </trkpt>
      <trkpt lat="48.3576" lon="-4.70651">
        <ele>52</ele>
        <time>2022-03-30T17:16:04.000Z</time>
      </trkpt>
      <trkpt lat="48.35764" lon="-4.70641">
        <ele>52.200000762939</ele>
        <time>2022-03-30T17:16:06.000Z</time>
      </trkpt>
      <trkpt lat="48.35764" lon="-4.70635">
        <ele>52.400001525879</ele>
        <time>2022-03-30T17:16:07.000Z</time>
      </trkpt>
      <trkpt lat="48.35763" lon="-4.70611">
        <ele>53.599998474121</ele>
        <time>2022-03-30T17:16:11.000Z</time>
      </trkpt>
      <trkpt lat="48.35761" lon="-4.70586">
        <ele>54.400001525879</ele>
        <time>2022-03-30T17:16:15.000Z</time>
      </trkpt>
      <trkpt lat="48.35759" lon="-4.70567">
        <ele>54.599998474121</ele>
        <time>2022-03-30T17:16:18.000Z</time>
      </trkpt>
      <trkpt lat="48.35757" lon="-4.70547">
        <ele>54</ele>
        <time>2022-03-30T17:16:21.000Z</time>
      </trkpt>
      <trkpt lat="48.35757" lon="-4.70526">
        <ele>53.599998474121</ele>
        <time>2022-03-30T17:16:24.000Z</time>
      </trkpt>
      <trkpt lat="48.35763" lon="-4.70487">
        <ele>52.599998474121</ele>
        <time>2022-03-30T17:16:29.000Z</time>
      </trkpt>
      <trkpt lat="48.35771" lon="-4.70428">
        <ele>51.200000762939</ele>
        <time>2022-03-30T17:16:36.000Z</time>
      </trkpt>
      <trkpt lat="48.35779" lon="-4.70377">
        <ele>51</ele>
        <time>2022-03-30T17:16:42.000Z</time>
      </trkpt>
      <trkpt lat="48.35782" lon="-4.70369">
        <ele>51</ele>
        <time>2022-03-30T17:16:43.000Z</time>
      </trkpt>
      <trkpt lat="48.35792" lon="-4.70349">
        <ele>51</ele>
        <time>2022-03-30T17:16:46.000Z</time>
      </trkpt>
      <trkpt lat="48.35811" lon="-4.70336">
        <ele>50.599998474121</ele>
        <time>2022-03-30T17:16:49.000Z</time>
      </trkpt>
      <trkpt lat="48.35844" lon="-4.70316">
        <ele>49</ele>
        <time>2022-03-30T17:16:54.000Z</time>
      </trkpt>
      <trkpt lat="48.3585" lon="-4.70311">
        <ele>48.400001525879</ele>
        <time>2022-03-30T17:16:55.000Z</time>
      </trkpt>
      <trkpt lat="48.35861" lon="-4.70296">
        <ele>47.400001525879</ele>
        <time>2022-03-30T17:16:57.000Z</time>
      </trkpt>
      <trkpt lat="48.35873" lon="-4.70262">
        <ele>46.799999237061</ele>
        <time>2022-03-30T17:17:01.000Z</time>
      </trkpt>
      <trkpt lat="48.35877" lon="-4.7025">
        <ele>46.599998474121</ele>
        <time>2022-03-30T17:17:04.000Z</time>
      </trkpt>
      <trkpt lat="48.35883" lon="-4.70233">
        <ele>46.200000762939</ele>
        <time>2022-03-30T17:17:09.000Z</time>
      </trkpt>
      <trkpt lat="48.35887" lon="-4.70216">
        <ele>46</ele>
        <time>2022-03-30T17:17:11.000Z</time>
      </trkpt>
      <trkpt lat="48.35891" lon="-4.70198">
        <ele>46</ele>
        <time>2022-03-30T17:17:13.000Z</time>
      </trkpt>
      <trkpt lat="48.35901" lon="-4.70126">
        <ele>43.400001525879</ele>
        <time>2022-03-30T17:17:20.000Z</time>
      </trkpt>
      <trkpt lat="48.3591" lon="-4.70099">
        <ele>42.400001525879</ele>
        <time>2022-03-30T17:17:23.000Z</time>
      </trkpt>
      <trkpt lat="48.35919" lon="-4.70082">
        <ele>41.799999237061</ele>
        <time>2022-03-30T17:17:25.000Z</time>
      </trkpt>
      <trkpt lat="48.35957" lon="-4.70017">
        <ele>41.599998474121</ele>
        <time>2022-03-30T17:17:33.000Z</time>
      </trkpt>
      <trkpt lat="48.35962" lon="-4.70009">
        <ele>41.799999237061</ele>
        <time>2022-03-30T17:17:34.000Z</time>
      </trkpt>
      <trkpt lat="48.35993" lon="-4.69953">
        <ele>40.200000762939</ele>
        <time>2022-03-30T17:17:41.000Z</time>
      </trkpt>
      <trkpt lat="48.35998" lon="-4.69946">
        <ele>39.799999237061</ele>
        <time>2022-03-30T17:17:42.000Z</time>
      </trkpt>
      <trkpt lat="48.36014" lon="-4.69917">
        <ele>39.599998474121</ele>
        <time>2022-03-30T17:17:46.000Z</time>
      </trkpt>
      <trkpt lat="48.36017" lon="-4.69909">
        <ele>39.799999237061</ele>
        <time>2022-03-30T17:17:47.000Z</time>
      </trkpt>
      <trkpt lat="48.3603" lon="-4.69889">
        <ele>40.200000762939</ele>
        <time>2022-03-30T17:17:50.000Z</time>
      </trkpt>
      <trkpt lat="48.36055" lon="-4.69849">
        <ele>40.599998474121</ele>
        <time>2022-03-30T17:17:56.000Z</time>
      </trkpt>
      <trkpt lat="48.36059" lon="-4.69843">
        <ele>40.599998474121</ele>
        <time>2022-03-30T17:17:57.000Z</time>
      </trkpt>
      <trkpt lat="48.36074" lon="-4.69817">
        <ele>40.799999237061</ele>
        <time>2022-03-30T17:18:01.000Z</time>
      </trkpt>
      <trkpt lat="48.36077" lon="-4.6981">
        <ele>40.799999237061</ele>
        <time>2022-03-30T17:18:02.000Z</time>
      </trkpt>
      <trkpt lat="48.36086" lon="-4.69787">
        <ele>41.200000762939</ele>
        <time>2022-03-30T17:18:05.000Z</time>
      </trkpt>
      <trkpt lat="48.36088" lon="-4.69778">
        <ele>41.200000762939</ele>
        <time>2022-03-30T17:18:06.000Z</time>
      </trkpt>
      <trkpt lat="48.36095" lon="-4.69726">
        <ele>40.599998474121</ele>
        <time>2022-03-30T17:18:12.000Z</time>
      </trkpt>
      <trkpt lat="48.36096" lon="-4.69694">
        <ele>41.599998474121</ele>
        <time>2022-03-30T17:18:16.000Z</time>
      </trkpt>
      <trkpt lat="48.36098" lon="-4.6968">
        <ele>41.599998474121</ele>
        <time>2022-03-30T17:18:18.000Z</time>
      </trkpt>
      <trkpt lat="48.36098" lon="-4.69666">
        <ele>41.599998474121</ele>
        <time>2022-03-30T17:18:20.000Z</time>
      </trkpt>
      <trkpt lat="48.36096" lon="-4.69636">
        <ele>41.599998474121</ele>
        <time>2022-03-30T17:18:24.000Z</time>
      </trkpt>
      <trkpt lat="48.36091" lon="-4.69611">
        <ele>40.799999237061</ele>
        <time>2022-03-30T17:18:27.000Z</time>
      </trkpt>
      <trkpt lat="48.3609" lon="-4.69597">
        <ele>41</ele>
        <time>2022-03-30T17:18:29.000Z</time>
      </trkpt>
      <trkpt lat="48.36086" lon="-4.69536">
        <ele>40.599998474121</ele>
        <time>2022-03-30T17:18:37.000Z</time>
      </trkpt>
      <trkpt lat="48.36082" lon="-4.69471">
        <ele>39</ele>
        <time>2022-03-30T17:18:44.000Z</time>
      </trkpt>
      <trkpt lat="48.36076" lon="-4.69398">
        <ele>38.799999237061</ele>
        <time>2022-03-30T17:18:51.000Z</time>
      </trkpt>
      <trkpt lat="48.36071" lon="-4.69342">
        <ele>39.799999237061</ele>
        <time>2022-03-30T17:18:56.000Z</time>
      </trkpt>
      <trkpt lat="48.36069" lon="-4.69312">
        <ele>40.799999237061</ele>
        <time>2022-03-30T17:18:59.000Z</time>
      </trkpt>
      <trkpt lat="48.36069" lon="-4.69304">
        <ele>41.200000762939</ele>
        <time>2022-03-30T17:19:00.000Z</time>
      </trkpt>
      <trkpt lat="48.36067" lon="-4.69274">
        <ele>42.599998474121</ele>
        <time>2022-03-30T17:19:04.000Z</time>
      </trkpt>
      <trkpt lat="48.36066" lon="-4.69267">
        <ele>43</ele>
        <time>2022-03-30T17:19:05.000Z</time>
      </trkpt>
      <trkpt lat="48.36064" lon="-4.69233">
        <ele>45.400001525879</ele>
        <time>2022-03-30T17:19:11.000Z</time>
      </trkpt>
      <trkpt lat="48.36064" lon="-4.6919">
        <ele>48</ele>
        <time>2022-03-30T17:19:19.000Z</time>
      </trkpt>
      <trkpt lat="48.36067" lon="-4.69185">
        <ele>48</ele>
        <time>2022-03-30T17:19:21.000Z</time>
      </trkpt>
      <trkpt lat="48.36069" lon="-4.69184">
        <ele>48</ele>
        <time>2022-03-30T17:19:22.000Z</time>
      </trkpt>
      <trkpt lat="48.36083" lon="-4.6918">
        <ele>47.799999237061</ele>
        <time>2022-03-30T17:19:28.000Z</time>
      </trkpt>
      <trkpt lat="48.36107" lon="-4.69176">
        <ele>47.799999237061</ele>
        <time>2022-03-30T17:19:34.000Z</time>
      </trkpt>
      <trkpt lat="48.36137" lon="-4.69171">
        <ele>49</ele>
        <time>2022-03-30T17:19:41.000Z</time>
      </trkpt>
      <trkpt lat="48.36144" lon="-4.69167">
        <ele>49.200000762939</ele>
        <time>2022-03-30T17:19:43.000Z</time>
      </trkpt>
      <trkpt lat="48.3615" lon="-4.69159">
        <ele>49.400001525879</ele>
        <time>2022-03-30T17:19:45.000Z</time>
      </trkpt>
      <trkpt lat="48.36159" lon="-4.69134">
        <ele>49.799999237061</ele>
        <time>2022-03-30T17:19:50.000Z</time>
      </trkpt>
      <trkpt lat="48.3617" lon="-4.69104">
        <ele>50</ele>
        <time>2022-03-30T17:19:57.000Z</time>
      </trkpt>
      <trkpt lat="48.36181" lon="-4.69065">
        <ele>50</ele>
        <time>2022-03-30T17:20:05.000Z</time>
      </trkpt>
      <trkpt lat="48.36186" lon="-4.69018">
        <ele>50.200000762939</ele>
        <time>2022-03-30T17:20:13.000Z</time>
      </trkpt>
      <trkpt lat="48.36189" lon="-4.68988">
        <ele>50</ele>
        <time>2022-03-30T17:20:18.000Z</time>
      </trkpt>
      <trkpt lat="48.36189" lon="-4.68982">
        <ele>50</ele>
        <time>2022-03-30T17:20:19.000Z</time>
      </trkpt>
      <trkpt lat="48.36193" lon="-4.68918">
        <ele>50</ele>
        <time>2022-03-30T17:20:28.000Z</time>
      </trkpt>
      <trkpt lat="48.36196" lon="-4.68857">
        <ele>50.799999237061</ele>
        <time>2022-03-30T17:20:36.000Z</time>
      </trkpt>
      <trkpt lat="48.36199" lon="-4.68813">
        <ele>49.400001525879</ele>
        <time>2022-03-30T17:20:42.000Z</time>
      </trkpt>
      <trkpt lat="48.36204" lon="-4.68748">
        <ele>49</ele>
        <time>2022-03-30T17:20:51.000Z</time>
      </trkpt>
      <trkpt lat="48.36208" lon="-4.68684">
        <ele>49.599998474121</ele>
        <time>2022-03-30T17:20:59.000Z</time>
      </trkpt>
      <trkpt lat="48.36213" lon="-4.68628">
        <ele>48.799999237061</ele>
        <time>2022-03-30T17:21:05.000Z</time>
      </trkpt>
      <trkpt lat="48.36217" lon="-4.68571">
        <ele>44.799999237061</ele>
        <time>2022-03-30T17:21:10.000Z</time>
      </trkpt>
      <trkpt lat="48.36219" lon="-4.6852">
        <ele>41.599998474121</ele>
        <time>2022-03-30T17:21:14.000Z</time>
      </trkpt>
      <trkpt lat="48.36219" lon="-4.68507">
        <ele>41</ele>
        <time>2022-03-30T17:21:15.000Z</time>
      </trkpt>
      <trkpt lat="48.3621" lon="-4.68452">
        <ele>39.400001525879</ele>
        <time>2022-03-30T17:21:19.000Z</time>
      </trkpt>
      <trkpt lat="48.36191" lon="-4.68396">
        <ele>36.200000762939</ele>
        <time>2022-03-30T17:21:23.000Z</time>
      </trkpt>
      <trkpt lat="48.36181" lon="-4.68363">
        <ele>34.799999237061</ele>
        <time>2022-03-30T17:21:25.000Z</time>
      </trkpt>
      <trkpt lat="48.36178" lon="-4.68346">
        <ele>34</ele>
        <time>2022-03-30T17:21:26.000Z</time>
      </trkpt>
      <trkpt lat="48.36169" lon="-4.68253">
        <ele>30.60000038147</ele>
        <time>2022-03-30T17:21:31.000Z</time>
      </trkpt>
      <trkpt lat="48.36158" lon="-4.68156">
        <ele>24.39999961853</ele>
        <time>2022-03-30T17:21:36.000Z</time>
      </trkpt>
      <trkpt lat="48.36156" lon="-4.68078">
        <ele>20.200000762939</ele>
        <time>2022-03-30T17:21:40.000Z</time>
      </trkpt>
      <trkpt lat="48.36168" lon="-4.67982">
        <ele>16.39999961853</ele>
        <time>2022-03-30T17:21:45.000Z</time>
      </trkpt>
      <trkpt lat="48.36173" lon="-4.67933">
        <ele>19.200000762939</ele>
        <time>2022-03-30T17:21:48.000Z</time>
      </trkpt>
      <trkpt lat="48.36171" lon="-4.67887">
        <ele>22.200000762939</ele>
        <time>2022-03-30T17:21:52.000Z</time>
      </trkpt>
      <trkpt lat="48.36171" lon="-4.67878">
        <ele>22.60000038147</ele>
        <time>2022-03-30T17:21:53.000Z</time>
      </trkpt>
      <trkpt lat="48.36168" lon="-4.67855">
        <ele>24</ele>
        <time>2022-03-30T17:21:56.000Z</time>
      </trkpt>
      <trkpt lat="48.36164" lon="-4.67831">
        <ele>24.39999961853</ele>
        <time>2022-03-30T17:22:00.000Z</time>
      </trkpt>
      <trkpt lat="48.36163" lon="-4.67823">
        <ele>24.60000038147</ele>
        <time>2022-03-30T17:22:02.000Z</time>
      </trkpt>
      <trkpt lat="48.36163" lon="-4.67821">
        <ele>24.60000038147</ele>
        <time>2022-03-30T17:22:03.000Z</time>
      </trkpt>
      <trkpt lat="48.36163" lon="-4.67807">
        <ele>25.200000762939</ele>
        <time>2022-03-30T17:22:08.000Z</time>
      </trkpt>
      <trkpt lat="48.36162" lon="-4.67802">
        <ele>25.39999961853</ele>
        <time>2022-03-30T17:22:10.000Z</time>
      </trkpt>
      <trkpt lat="48.36158" lon="-4.67795">
        <ele>25.60000038147</ele>
        <time>2022-03-30T17:22:13.000Z</time>
      </trkpt>
      <trkpt lat="48.36154" lon="-4.6778">
        <ele>26.39999961853</ele>
        <time>2022-03-30T17:22:18.000Z</time>
      </trkpt>
      <trkpt lat="48.36146" lon="-4.67762">
        <ele>27.39999961853</ele>
        <time>2022-03-30T17:22:24.000Z</time>
      </trkpt>
      <trkpt lat="48.36137" lon="-4.67737">
        <ele>29</ele>
        <time>2022-03-30T17:22:31.000Z</time>
      </trkpt>
      <trkpt lat="48.36129" lon="-4.67717">
        <ele>30.60000038147</ele>
        <time>2022-03-30T17:22:37.000Z</time>
      </trkpt>
      <trkpt lat="48.3612" lon="-4.67687">
        <ele>32.200000762939</ele>
        <time>2022-03-30T17:22:45.000Z</time>
      </trkpt>
      <trkpt lat="48.36112" lon="-4.67659">
        <ele>34.400001525879</ele>
        <time>2022-03-30T17:22:53.000Z</time>
      </trkpt>
      <trkpt lat="48.36106" lon="-4.67627">
        <ele>36.599998474121</ele>
        <time>2022-03-30T17:23:02.000Z</time>
      </trkpt>
      <trkpt lat="48.36103" lon="-4.67606">
        <ele>37.799999237061</ele>
        <time>2022-03-30T17:23:08.000Z</time>
      </trkpt>
      <trkpt lat="48.36102" lon="-4.67576">
        <ele>39</ele>
        <time>2022-03-30T17:23:16.000Z</time>
      </trkpt>
      <trkpt lat="48.36106" lon="-4.67549">
        <ele>40.799999237061</ele>
        <time>2022-03-30T17:23:24.000Z</time>
      </trkpt>
      <trkpt lat="48.36111" lon="-4.67526">
        <ele>42.400001525879</ele>
        <time>2022-03-30T17:23:31.000Z</time>
      </trkpt>
      <trkpt lat="48.36118" lon="-4.67501">
        <ele>44.200000762939</ele>
        <time>2022-03-30T17:23:39.000Z</time>
      </trkpt>
      <trkpt lat="48.36129" lon="-4.67472">
        <ele>45.400001525879</ele>
        <time>2022-03-30T17:23:48.000Z</time>
      </trkpt>
      <trkpt lat="48.36138" lon="-4.67453">
        <ele>46</ele>
        <time>2022-03-30T17:23:54.000Z</time>
      </trkpt>
      <trkpt lat="48.3615" lon="-4.67433">
        <ele>47.200000762939</ele>
        <time>2022-03-30T17:24:01.000Z</time>
      </trkpt>
      <trkpt lat="48.3616" lon="-4.6742">
        <ele>48</ele>
        <time>2022-03-30T17:24:06.000Z</time>
      </trkpt>
      <trkpt lat="48.36179" lon="-4.67405">
        <ele>49.200000762939</ele>
        <time>2022-03-30T17:24:14.000Z</time>
      </trkpt>
      <trkpt lat="48.36203" lon="-4.67385">
        <ele>51</ele>
        <time>2022-03-30T17:24:24.000Z</time>
      </trkpt>
      <trkpt lat="48.36218" lon="-4.67372">
        <ele>52.599998474121</ele>
        <time>2022-03-30T17:24:31.000Z</time>
      </trkpt>
      <trkpt lat="48.36239" lon="-4.67354">
        <ele>54.200000762939</ele>
        <time>2022-03-30T17:24:40.000Z</time>
      </trkpt>
      <trkpt lat="48.36255" lon="-4.67337">
        <ele>55</ele>
        <time>2022-03-30T17:24:47.000Z</time>
      </trkpt>
      <trkpt lat="48.36268" lon="-4.67317">
        <ele>55.799999237061</ele>
        <time>2022-03-30T17:24:54.000Z</time>
      </trkpt>
      <trkpt lat="48.3628" lon="-4.673">
        <ele>56.200000762939</ele>
        <time>2022-03-30T17:25:01.000Z</time>
      </trkpt>
      <trkpt lat="48.36286" lon="-4.67288">
        <ele>56.400001525879</ele>
        <time>2022-03-30T17:25:05.000Z</time>
      </trkpt>
      <trkpt lat="48.36298" lon="-4.6726">
        <ele>57.599998474121</ele>
        <time>2022-03-30T17:25:13.000Z</time>
      </trkpt>
      <trkpt lat="48.3631" lon="-4.67228">
        <ele>57.400001525879</ele>
        <time>2022-03-30T17:25:21.000Z</time>
      </trkpt>
      <trkpt lat="48.36318" lon="-4.67203">
        <ele>56.200000762939</ele>
        <time>2022-03-30T17:25:27.000Z</time>
      </trkpt>
      <trkpt lat="48.36326" lon="-4.67174">
        <ele>55.400001525879</ele>
        <time>2022-03-30T17:25:34.000Z</time>
      </trkpt>
      <trkpt lat="48.36332" lon="-4.67148">
        <ele>55</ele>
        <time>2022-03-30T17:25:40.000Z</time>
      </trkpt>
      <trkpt lat="48.36338" lon="-4.6713">
        <ele>55</ele>
        <time>2022-03-30T17:25:45.000Z</time>
      </trkpt>
      <trkpt lat="48.36347" lon="-4.67105">
        <ele>55</ele>
        <time>2022-03-30T17:25:51.000Z</time>
      </trkpt>
      <trkpt lat="48.36361" lon="-4.67076">
        <ele>55.599998474121</ele>
        <time>2022-03-30T17:25:58.000Z</time>
      </trkpt>
      <trkpt lat="48.3637" lon="-4.6705">
        <ele>57.200000762939</ele>
        <time>2022-03-30T17:26:04.000Z</time>
      </trkpt>
      <trkpt lat="48.36372" lon="-4.67014">
        <ele>58.799999237061</ele>
        <time>2022-03-30T17:26:11.000Z</time>
      </trkpt>
      <trkpt lat="48.36376" lon="-4.66985">
        <ele>59.400001525879</ele>
        <time>2022-03-30T17:26:17.000Z</time>
      </trkpt>
      <trkpt lat="48.3638" lon="-4.66976">
        <ele>59.599998474121</ele>
        <time>2022-03-30T17:26:19.000Z</time>
      </trkpt>
      <trkpt lat="48.36386" lon="-4.66971">
        <ele>60</ele>
        <time>2022-03-30T17:26:21.000Z</time>
      </trkpt>
      <trkpt lat="48.36392" lon="-4.66965">
        <ele>60.599998474121</ele>
        <time>2022-03-30T17:26:23.000Z</time>
      </trkpt>
      <trkpt lat="48.36393" lon="-4.66961">
        <ele>60.599998474121</ele>
        <time>2022-03-30T17:26:24.000Z</time>
      </trkpt>
      <trkpt lat="48.36398" lon="-4.66934">
        <ele>61</ele>
        <time>2022-03-30T17:26:29.000Z</time>
      </trkpt>
      <trkpt lat="48.36409" lon="-4.66898">
        <ele>62.799999237061</ele>
        <time>2022-03-30T17:26:36.000Z</time>
      </trkpt>
      <trkpt lat="48.36418" lon="-4.6688">
        <ele>62.799999237061</ele>
        <time>2022-03-30T17:26:40.000Z</time>
      </trkpt>
      <trkpt lat="48.36429" lon="-4.66868">
        <ele>63.200000762939</ele>
        <time>2022-03-30T17:26:44.000Z</time>
      </trkpt>
      <trkpt lat="48.3644" lon="-4.66854">
        <ele>64.400001525879</ele>
        <time>2022-03-30T17:26:49.000Z</time>
      </trkpt>
      <trkpt lat="48.36454" lon="-4.66834">
        <ele>66</ele>
        <time>2022-03-30T17:26:56.000Z</time>
      </trkpt>
      <trkpt lat="48.36465" lon="-4.66817">
        <ele>67.599998474121</ele>
        <time>2022-03-30T17:27:02.000Z</time>
      </trkpt>
      <trkpt lat="48.3648" lon="-4.66795">
        <ele>68.599998474121</ele>
        <time>2022-03-30T17:27:09.000Z</time>
      </trkpt>
      <trkpt lat="48.36494" lon="-4.66773">
        <ele>69.400001525879</ele>
        <time>2022-03-30T17:27:16.000Z</time>
      </trkpt>
      <trkpt lat="48.36504" lon="-4.66756">
        <ele>70</ele>
        <time>2022-03-30T17:27:21.000Z</time>
      </trkpt>
      <trkpt lat="48.36522" lon="-4.66728">
        <ele>70</ele>
        <time>2022-03-30T17:27:29.000Z</time>
      </trkpt>
      <trkpt lat="48.36537" lon="-4.66697">
        <ele>70</ele>
        <time>2022-03-30T17:27:37.000Z</time>
      </trkpt>
      <trkpt lat="48.3655" lon="-4.66661">
        <ele>70.400001525879</ele>
        <time>2022-03-30T17:27:45.000Z</time>
      </trkpt>
      <trkpt lat="48.36559" lon="-4.66624">
        <ele>71.800003051758</ele>
        <time>2022-03-30T17:27:53.000Z</time>
      </trkpt>
      <trkpt lat="48.36567" lon="-4.66583">
        <ele>72.599998474121</ele>
        <time>2022-03-30T17:28:01.000Z</time>
      </trkpt>
      <trkpt lat="48.36572" lon="-4.66546">
        <ele>72.800003051758</ele>
        <time>2022-03-30T17:28:08.000Z</time>
      </trkpt>
      <trkpt lat="48.36576" lon="-4.66512">
        <ele>72.199996948242</ele>
        <time>2022-03-30T17:28:14.000Z</time>
      </trkpt>
      <trkpt lat="48.3658" lon="-4.66469">
        <ele>72.400001525879</ele>
        <time>2022-03-30T17:28:21.000Z</time>
      </trkpt>
      <trkpt lat="48.36586" lon="-4.66426">
        <ele>74.400001525879</ele>
        <time>2022-03-30T17:28:28.000Z</time>
      </trkpt>
      <trkpt lat="48.36588" lon="-4.6642">
        <ele>74.599998474121</ele>
        <time>2022-03-30T17:28:29.000Z</time>
      </trkpt>
      <trkpt lat="48.3659" lon="-4.66407">
        <ele>75.199996948242</ele>
        <time>2022-03-30T17:28:31.000Z</time>
      </trkpt>
      <trkpt lat="48.36594" lon="-4.66394">
        <ele>75.599998474121</ele>
        <time>2022-03-30T17:28:33.000Z</time>
      </trkpt>
      <trkpt lat="48.36597" lon="-4.66381">
        <ele>75.400001525879</ele>
        <time>2022-03-30T17:28:35.000Z</time>
      </trkpt>
      <trkpt lat="48.36606" lon="-4.66349">
        <ele>75.199996948242</ele>
        <time>2022-03-30T17:28:40.000Z</time>
      </trkpt>
      <trkpt lat="48.36613" lon="-4.66325">
        <ele>75.199996948242</ele>
        <time>2022-03-30T17:28:44.000Z</time>
      </trkpt>
      <trkpt lat="48.36615" lon="-4.66312">
        <ele>75.199996948242</ele>
        <time>2022-03-30T17:28:46.000Z</time>
      </trkpt>
      <trkpt lat="48.36619" lon="-4.66298">
        <ele>75</ele>
        <time>2022-03-30T17:28:48.000Z</time>
      </trkpt>
      <trkpt lat="48.36627" lon="-4.66278">
        <ele>74.800003051758</ele>
        <time>2022-03-30T17:28:51.000Z</time>
      </trkpt>
      <trkpt lat="48.36646" lon="-4.66233">
        <ele>75</ele>
        <time>2022-03-30T17:28:58.000Z</time>
      </trkpt>
      <trkpt lat="48.36665" lon="-4.66194">
        <ele>75</ele>
        <time>2022-03-30T17:29:05.000Z</time>
      </trkpt>
      <trkpt lat="48.36685" lon="-4.66153">
        <ele>75</ele>
        <time>2022-03-30T17:29:12.000Z</time>
      </trkpt>
      <trkpt lat="48.36709" lon="-4.66106">
        <ele>75.599998474121</ele>
        <time>2022-03-30T17:29:20.000Z</time>
      </trkpt>
      <trkpt lat="48.36715" lon="-4.66095">
        <ele>75.800003051758</ele>
        <time>2022-03-30T17:29:22.000Z</time>
      </trkpt>
      <trkpt lat="48.36729" lon="-4.66072">
        <ele>76</ele>
        <time>2022-03-30T17:29:26.000Z</time>
      </trkpt>
      <trkpt lat="48.3675" lon="-4.66033">
        <ele>76</ele>
        <time>2022-03-30T17:29:32.000Z</time>
      </trkpt>
      <trkpt lat="48.3678" lon="-4.65984">
        <ele>75.199996948242</ele>
        <time>2022-03-30T17:29:39.000Z</time>
      </trkpt>
      <trkpt lat="48.36806" lon="-4.65939">
        <ele>73.400001525879</ele>
        <time>2022-03-30T17:29:45.000Z</time>
      </trkpt>
      <trkpt lat="48.36838" lon="-4.65902">
        <ele>73.400001525879</ele>
        <time>2022-03-30T17:29:51.000Z</time>
      </trkpt>
      <trkpt lat="48.36849" lon="-4.65892">
        <ele>74</ele>
        <time>2022-03-30T17:29:53.000Z</time>
      </trkpt>
      <trkpt lat="48.36862" lon="-4.65877">
        <ele>74.599998474121</ele>
        <time>2022-03-30T17:29:56.000Z</time>
      </trkpt>
      <trkpt lat="48.36878" lon="-4.65859">
        <ele>75</ele>
        <time>2022-03-30T17:30:00.000Z</time>
      </trkpt>
      <trkpt lat="48.36884" lon="-4.65847">
        <ele>75</ele>
        <time>2022-03-30T17:30:02.000Z</time>
      </trkpt>
      <trkpt lat="48.36882" lon="-4.65834">
        <ele>75.199996948242</ele>
        <time>2022-03-30T17:30:04.000Z</time>
      </trkpt>
      <trkpt lat="48.3688" lon="-4.65828">
        <ele>75.599998474121</ele>
        <time>2022-03-30T17:30:05.000Z</time>
      </trkpt>
      <trkpt lat="48.36872" lon="-4.65819">
        <ele>75.800003051758</ele>
        <time>2022-03-30T17:30:07.000Z</time>
      </trkpt>
      <trkpt lat="48.36862" lon="-4.65805">
        <ele>75.199996948242</ele>
        <time>2022-03-30T17:30:10.000Z</time>
      </trkpt>
      <trkpt lat="48.36843" lon="-4.65767">
        <ele>75</ele>
        <time>2022-03-30T17:30:17.000Z</time>
      </trkpt>
      <trkpt lat="48.36841" lon="-4.65761">
        <ele>74.800003051758</ele>
        <time>2022-03-30T17:30:18.000Z</time>
      </trkpt>
      <trkpt lat="48.36839" lon="-4.65746">
        <ele>74.800003051758</ele>
        <time>2022-03-30T17:30:20.000Z</time>
      </trkpt>
      <trkpt lat="48.36841" lon="-4.6574">
        <ele>75</ele>
        <time>2022-03-30T17:30:21.000Z</time>
      </trkpt>
      <trkpt lat="48.36843" lon="-4.65734">
        <ele>75.199996948242</ele>
        <time>2022-03-30T17:30:22.000Z</time>
      </trkpt>
      <trkpt lat="48.36849" lon="-4.65724">
        <ele>75.599998474121</ele>
        <time>2022-03-30T17:30:24.000Z</time>
      </trkpt>
      <trkpt lat="48.36852" lon="-4.65719">
        <ele>75.800003051758</ele>
        <time>2022-03-30T17:30:25.000Z</time>
      </trkpt>
      <trkpt lat="48.36877" lon="-4.65681">
        <ele>76.599998474121</ele>
        <time>2022-03-30T17:30:33.000Z</time>
      </trkpt>
      <trkpt lat="48.36894" lon="-4.65651">
        <ele>77.800003051758</ele>
        <time>2022-03-30T17:30:39.000Z</time>
      </trkpt>
      <trkpt lat="48.36913" lon="-4.65621">
        <ele>78.800003051758</ele>
        <time>2022-03-30T17:30:45.000Z</time>
      </trkpt>
      <trkpt lat="48.36918" lon="-4.65611">
        <ele>79.199996948242</ele>
        <time>2022-03-30T17:30:47.000Z</time>
      </trkpt>
      <trkpt lat="48.36918" lon="-4.65598">
        <ele>79.199996948242</ele>
        <time>2022-03-30T17:30:49.000Z</time>
      </trkpt>
      <trkpt lat="48.3691" lon="-4.65585">
        <ele>79.199996948242</ele>
        <time>2022-03-30T17:30:52.000Z</time>
      </trkpt>
      <trkpt lat="48.36906" lon="-4.65582">
        <ele>79.199996948242</ele>
        <time>2022-03-30T17:30:53.000Z</time>
      </trkpt>
      <trkpt lat="48.36886" lon="-4.65568">
        <ele>79</ele>
        <time>2022-03-30T17:30:58.000Z</time>
      </trkpt>
      <trkpt lat="48.36882" lon="-4.65565">
        <ele>78.800003051758</ele>
        <time>2022-03-30T17:30:59.000Z</time>
      </trkpt>
      <trkpt lat="48.36866" lon="-4.65547">
        <ele>78.400001525879</ele>
        <time>2022-03-30T17:31:03.000Z</time>
      </trkpt>
      <trkpt lat="48.36859" lon="-4.65535">
        <ele>78</ele>
        <time>2022-03-30T17:31:05.000Z</time>
      </trkpt>
      <trkpt lat="48.36839" lon="-4.65501">
        <ele>76.400001525879</ele>
        <time>2022-03-30T17:31:10.000Z</time>
      </trkpt>
      <trkpt lat="48.3681" lon="-4.65455">
        <ele>75</ele>
        <time>2022-03-30T17:31:16.000Z</time>
      </trkpt>
      <trkpt lat="48.36774" lon="-4.65398">
        <ele>73.199996948242</ele>
        <time>2022-03-30T17:31:23.000Z</time>
      </trkpt>
      <trkpt lat="48.36769" lon="-4.65391">
        <ele>73.199996948242</ele>
        <time>2022-03-30T17:31:24.000Z</time>
      </trkpt>
      <trkpt lat="48.36758" lon="-4.65379">
        <ele>73.599998474121</ele>
        <time>2022-03-30T17:31:26.000Z</time>
      </trkpt>
      <trkpt lat="48.36752" lon="-4.65376">
        <ele>73.400001525879</ele>
        <time>2022-03-30T17:31:27.000Z</time>
      </trkpt>
      <trkpt lat="48.36746" lon="-4.65373">
        <ele>73.199996948242</ele>
        <time>2022-03-30T17:31:28.000Z</time>
      </trkpt>
      <trkpt lat="48.36715" lon="-4.65363">
        <ele>72.800003051758</ele>
        <time>2022-03-30T17:31:33.000Z</time>
      </trkpt>
      <trkpt lat="48.3668" lon="-4.65348">
        <ele>72</ele>
        <time>2022-03-30T17:31:39.000Z</time>
      </trkpt>
      <trkpt lat="48.36675" lon="-4.65344">
        <ele>72</ele>
        <time>2022-03-30T17:31:40.000Z</time>
      </trkpt>
      <trkpt lat="48.36669" lon="-4.65332">
        <ele>72</ele>
        <time>2022-03-30T17:31:42.000Z</time>
      </trkpt>
      <trkpt lat="48.36674" lon="-4.65318">
        <ele>72</ele>
        <time>2022-03-30T17:31:44.000Z</time>
      </trkpt>
      <trkpt lat="48.36678" lon="-4.65313">
        <ele>72</ele>
        <time>2022-03-30T17:31:45.000Z</time>
      </trkpt>
      <trkpt lat="48.36687" lon="-4.65304">
        <ele>72</ele>
        <time>2022-03-30T17:31:47.000Z</time>
      </trkpt>
      <trkpt lat="48.36696" lon="-4.65296">
        <ele>72.199996948242</ele>
        <time>2022-03-30T17:31:49.000Z</time>
      </trkpt>
      <trkpt lat="48.36706" lon="-4.65285">
        <ele>72.599998474121</ele>
        <time>2022-03-30T17:31:51.000Z</time>
      </trkpt>
      <trkpt lat="48.3671" lon="-4.65271">
        <ele>72.599998474121</ele>
        <time>2022-03-30T17:31:53.000Z</time>
      </trkpt>
      <trkpt lat="48.36708" lon="-4.65256">
        <ele>73</ele>
        <time>2022-03-30T17:31:55.000Z</time>
      </trkpt>
      <trkpt lat="48.36705" lon="-4.65251">
        <ele>73.199996948242</ele>
        <time>2022-03-30T17:31:56.000Z</time>
      </trkpt>
      <trkpt lat="48.36692" lon="-4.65232">
        <ele>74.599998474121</ele>
        <time>2022-03-30T17:32:00.000Z</time>
      </trkpt>
      <trkpt lat="48.36687" lon="-4.65221">
        <ele>75</ele>
        <time>2022-03-30T17:32:02.000Z</time>
      </trkpt>
      <trkpt lat="48.36667" lon="-4.65187">
        <ele>76.400001525879</ele>
        <time>2022-03-30T17:32:09.000Z</time>
      </trkpt>
      <trkpt lat="48.36648" lon="-4.65154">
        <ele>76.599998474121</ele>
        <time>2022-03-30T17:32:15.000Z</time>
      </trkpt>
      <trkpt lat="48.36625" lon="-4.65112">
        <ele>74.800003051758</ele>
        <time>2022-03-30T17:32:21.000Z</time>
      </trkpt>
      <trkpt lat="48.36592" lon="-4.65044">
        <ele>71.400001525879</ele>
        <time>2022-03-30T17:32:29.000Z</time>
      </trkpt>
      <trkpt lat="48.36562" lon="-4.64985">
        <ele>69.400001525879</ele>
        <time>2022-03-30T17:32:36.000Z</time>
      </trkpt>
      <trkpt lat="48.3653" lon="-4.64945">
        <ele>70</ele>
        <time>2022-03-30T17:32:42.000Z</time>
      </trkpt>
      <trkpt lat="48.36521" lon="-4.64929">
        <ele>70.199996948242</ele>
        <time>2022-03-30T17:32:44.000Z</time>
      </trkpt>
      <trkpt lat="48.36515" lon="-4.64911">
        <ele>70.599998474121</ele>
        <time>2022-03-30T17:32:46.000Z</time>
      </trkpt>
      <trkpt lat="48.36494" lon="-4.64848">
        <ele>71</ele>
        <time>2022-03-30T17:32:53.000Z</time>
      </trkpt>
      <trkpt lat="48.36475" lon="-4.648">
        <ele>70</ele>
        <time>2022-03-30T17:32:59.000Z</time>
      </trkpt>
      <trkpt lat="48.36471" lon="-4.64793">
        <ele>70</ele>
        <time>2022-03-30T17:33:00.000Z</time>
      </trkpt>
      <trkpt lat="48.3644" lon="-4.64744">
        <ele>69</ele>
        <time>2022-03-30T17:33:08.000Z</time>
      </trkpt>
      <trkpt lat="48.36415" lon="-4.64704">
        <ele>70</ele>
        <time>2022-03-30T17:33:15.000Z</time>
      </trkpt>
      <trkpt lat="48.36413" lon="-4.6469">
        <ele>70</ele>
        <time>2022-03-30T17:33:17.000Z</time>
      </trkpt>
      <trkpt lat="48.36415" lon="-4.64683">
        <ele>70</ele>
        <time>2022-03-30T17:33:18.000Z</time>
      </trkpt>
      <trkpt lat="48.36433" lon="-4.64643">
        <ele>69.199996948242</ele>
        <time>2022-03-30T17:33:24.000Z</time>
      </trkpt>
      <trkpt lat="48.36456" lon="-4.64585">
        <ele>68.400001525879</ele>
        <time>2022-03-30T17:33:31.000Z</time>
      </trkpt>
      <trkpt lat="48.36476" lon="-4.64521">
        <ele>67</ele>
        <time>2022-03-30T17:33:38.000Z</time>
      </trkpt>
      <trkpt lat="48.36497" lon="-4.64451">
        <ele>67</ele>
        <time>2022-03-30T17:33:46.000Z</time>
      </trkpt>
      <trkpt lat="48.36519" lon="-4.64404">
        <ele>68.800003051758</ele>
        <time>2022-03-30T17:33:52.000Z</time>
      </trkpt>
      <trkpt lat="48.36523" lon="-4.64397">
        <ele>69</ele>
        <time>2022-03-30T17:33:53.000Z</time>
      </trkpt>
      <trkpt lat="48.3654" lon="-4.64369">
        <ele>69</ele>
        <time>2022-03-30T17:33:57.000Z</time>
      </trkpt>
      <trkpt lat="48.36558" lon="-4.64319">
        <ele>67.199996948242</ele>
        <time>2022-03-30T17:34:03.000Z</time>
      </trkpt>
      <trkpt lat="48.36567" lon="-4.64263">
        <ele>65</ele>
        <time>2022-03-30T17:34:09.000Z</time>
      </trkpt>
      <trkpt lat="48.36572" lon="-4.64215">
        <ele>64</ele>
        <time>2022-03-30T17:34:15.000Z</time>
      </trkpt>
      <trkpt lat="48.36579" lon="-4.64207">
        <ele>64</ele>
        <time>2022-03-30T17:34:17.000Z</time>
      </trkpt>
      <trkpt lat="48.36593" lon="-4.64209">
        <ele>65</ele>
        <time>2022-03-30T17:34:20.000Z</time>
      </trkpt>
      <trkpt lat="48.36597" lon="-4.64207">
        <ele>65.199996948242</ele>
        <time>2022-03-30T17:34:21.000Z</time>
      </trkpt>
      <trkpt lat="48.36623" lon="-4.64203">
        <ele>65.800003051758</ele>
        <time>2022-03-30T17:34:27.000Z</time>
      </trkpt>
      <trkpt lat="48.3663" lon="-4.6421">
        <ele>65.800003051758</ele>
        <time>2022-03-30T17:34:29.000Z</time>
      </trkpt>
      <trkpt lat="48.36635" lon="-4.64214">
        <ele>66</ele>
        <time>2022-03-30T17:34:30.000Z</time>
      </trkpt>
      <trkpt lat="48.36639" lon="-4.64216">
        <ele>66</ele>
        <time>2022-03-30T17:34:31.000Z</time>
      </trkpt>
      <trkpt lat="48.36649" lon="-4.64217">
        <ele>66</ele>
        <time>2022-03-30T17:34:33.000Z</time>
      </trkpt>
      <trkpt lat="48.36653" lon="-4.64213">
        <ele>66</ele>
        <time>2022-03-30T17:34:34.000Z</time>
      </trkpt>
      <trkpt lat="48.36656" lon="-4.64207">
        <ele>66</ele>
        <time>2022-03-30T17:34:35.000Z</time>
      </trkpt>
      <trkpt lat="48.36664" lon="-4.64188">
        <ele>66.400001525879</ele>
        <time>2022-03-30T17:34:38.000Z</time>
      </trkpt>
      <trkpt lat="48.36678" lon="-4.64138">
        <ele>68</ele>
        <time>2022-03-30T17:34:45.000Z</time>
      </trkpt>
      <trkpt lat="48.36697" lon="-4.6408">
        <ele>68.400001525879</ele>
        <time>2022-03-30T17:34:53.000Z</time>
      </trkpt>
      <trkpt lat="48.36715" lon="-4.64032">
        <ele>68.800003051758</ele>
        <time>2022-03-30T17:35:00.000Z</time>
      </trkpt>
      <trkpt lat="48.36734" lon="-4.63987">
        <ele>69</ele>
        <time>2022-03-30T17:35:07.000Z</time>
      </trkpt>
      <trkpt lat="48.36738" lon="-4.63981">
        <ele>68.800003051758</ele>
        <time>2022-03-30T17:35:08.000Z</time>
      </trkpt>
      <trkpt lat="48.3676" lon="-4.63935">
        <ele>68</ele>
        <time>2022-03-30T17:35:15.000Z</time>
      </trkpt>
      <trkpt lat="48.36784" lon="-4.63887">
        <ele>68</ele>
        <time>2022-03-30T17:35:22.000Z</time>
      </trkpt>
      <trkpt lat="48.36805" lon="-4.63844">
        <ele>66.199996948242</ele>
        <time>2022-03-30T17:35:28.000Z</time>
      </trkpt>
      <trkpt lat="48.36823" lon="-4.63788">
        <ele>65.800003051758</ele>
        <time>2022-03-30T17:35:35.000Z</time>
      </trkpt>
      <trkpt lat="48.3684" lon="-4.6372">
        <ele>67</ele>
        <time>2022-03-30T17:35:43.000Z</time>
      </trkpt>
      <trkpt lat="48.36858" lon="-4.63647">
        <ele>66.199996948242</ele>
        <time>2022-03-30T17:35:51.000Z</time>
      </trkpt>
      <trkpt lat="48.3687" lon="-4.63581">
        <ele>65.400001525879</ele>
        <time>2022-03-30T17:35:58.000Z</time>
      </trkpt>
      <trkpt lat="48.3688" lon="-4.63518">
        <ele>61.799999237061</ele>
        <time>2022-03-30T17:36:05.000Z</time>
      </trkpt>
      <trkpt lat="48.3688" lon="-4.63509">
        <ele>61.599998474121</ele>
        <time>2022-03-30T17:36:06.000Z</time>
      </trkpt>
      <trkpt lat="48.36876" lon="-4.63492">
        <ele>61.599998474121</ele>
        <time>2022-03-30T17:36:08.000Z</time>
      </trkpt>
      <trkpt lat="48.36865" lon="-4.63484">
        <ele>62</ele>
        <time>2022-03-30T17:36:10.000Z</time>
      </trkpt>
      <trkpt lat="48.36859" lon="-4.63483">
        <ele>62.200000762939</ele>
        <time>2022-03-30T17:36:11.000Z</time>
      </trkpt>
      <trkpt lat="48.36817" lon="-4.63479">
        <ele>63.599998474121</ele>
        <time>2022-03-30T17:36:18.000Z</time>
      </trkpt>
      <trkpt lat="48.36776" lon="-4.63467">
        <ele>64</ele>
        <time>2022-03-30T17:36:25.000Z</time>
      </trkpt>
      <trkpt lat="48.3674" lon="-4.63449">
        <ele>63.200000762939</ele>
        <time>2022-03-30T17:36:31.000Z</time>
      </trkpt>
      <trkpt lat="48.36735" lon="-4.63445">
        <ele>63.400001525879</ele>
        <time>2022-03-30T17:36:32.000Z</time>
      </trkpt>
      <trkpt lat="48.3673" lon="-4.63439">
        <ele>63.599998474121</ele>
        <time>2022-03-30T17:36:33.000Z</time>
      </trkpt>
      <trkpt lat="48.36718" lon="-4.63418">
        <ele>63.799999237061</ele>
        <time>2022-03-30T17:36:36.000Z</time>
      </trkpt>
      <trkpt lat="48.36709" lon="-4.63405">
        <ele>63</ele>
        <time>2022-03-30T17:36:38.000Z</time>
      </trkpt>
      <trkpt lat="48.36697" lon="-4.63398">
        <ele>62.400001525879</ele>
        <time>2022-03-30T17:36:40.000Z</time>
      </trkpt>
      <trkpt lat="48.36686" lon="-4.63396">
        <ele>62</ele>
        <time>2022-03-30T17:36:42.000Z</time>
      </trkpt>
      <trkpt lat="48.36675" lon="-4.63396">
        <ele>62</ele>
        <time>2022-03-30T17:36:44.000Z</time>
      </trkpt>
      <trkpt lat="48.36669" lon="-4.63396">
        <ele>62</ele>
        <time>2022-03-30T17:36:45.000Z</time>
      </trkpt>
      <trkpt lat="48.36646" lon="-4.63388">
        <ele>61.200000762939</ele>
        <time>2022-03-30T17:36:49.000Z</time>
      </trkpt>
      <trkpt lat="48.36602" lon="-4.6337">
        <ele>59.799999237061</ele>
        <time>2022-03-30T17:36:56.000Z</time>
      </trkpt>
      <trkpt lat="48.36564" lon="-4.63341">
        <ele>59.200000762939</ele>
        <time>2022-03-30T17:37:02.000Z</time>
      </trkpt>
      <trkpt lat="48.3654" lon="-4.63317">
        <ele>58</ele>
        <time>2022-03-30T17:37:06.000Z</time>
      </trkpt>
      <trkpt lat="48.36527" lon="-4.63308">
        <ele>58</ele>
        <time>2022-03-30T17:37:08.000Z</time>
      </trkpt>
      <trkpt lat="48.36495" lon="-4.63298">
        <ele>59.400001525879</ele>
        <time>2022-03-30T17:37:13.000Z</time>
      </trkpt>
      <trkpt lat="48.3649" lon="-4.63296">
        <ele>59.400001525879</ele>
        <time>2022-03-30T17:37:14.000Z</time>
      </trkpt>
      <trkpt lat="48.36487" lon="-4.6329">
        <ele>59.599998474121</ele>
        <time>2022-03-30T17:37:15.000Z</time>
      </trkpt>
      <trkpt lat="48.36484" lon="-4.63278">
        <ele>60</ele>
        <time>2022-03-30T17:37:17.000Z</time>
      </trkpt>
      <trkpt lat="48.36481" lon="-4.63275">
        <ele>60</ele>
        <time>2022-03-30T17:37:18.000Z</time>
      </trkpt>
      <trkpt lat="48.36477" lon="-4.63272">
        <ele>60</ele>
        <time>2022-03-30T17:37:19.000Z</time>
      </trkpt>
      <trkpt lat="48.36468" lon="-4.63265">
        <ele>60</ele>
        <time>2022-03-30T17:37:21.000Z</time>
      </trkpt>
      <trkpt lat="48.36461" lon="-4.63258">
        <ele>60</ele>
        <time>2022-03-30T17:37:23.000Z</time>
      </trkpt>
      <trkpt lat="48.36453" lon="-4.63251">
        <ele>60</ele>
        <time>2022-03-30T17:37:25.000Z</time>
      </trkpt>
      <trkpt lat="48.36445" lon="-4.63239">
        <ele>60</ele>
        <time>2022-03-30T17:37:28.000Z</time>
      </trkpt>
      <trkpt lat="48.36439" lon="-4.63216">
        <ele>60.400001525879</ele>
        <time>2022-03-30T17:37:32.000Z</time>
      </trkpt>
      <trkpt lat="48.36437" lon="-4.63209">
        <ele>60.799999237061</ele>
        <time>2022-03-30T17:37:33.000Z</time>
      </trkpt>
      <trkpt lat="48.36434" lon="-4.63183">
        <ele>61.599998474121</ele>
        <time>2022-03-30T17:37:37.000Z</time>
      </trkpt>
      <trkpt lat="48.36429" lon="-4.6314">
        <ele>62.599998474121</ele>
        <time>2022-03-30T17:37:44.000Z</time>
      </trkpt>
      <trkpt lat="48.36426" lon="-4.63105">
        <ele>63</ele>
        <time>2022-03-30T17:37:50.000Z</time>
      </trkpt>
      <trkpt lat="48.36426" lon="-4.63079">
        <ele>63.799999237061</ele>
        <time>2022-03-30T17:37:55.000Z</time>
      </trkpt>
      <trkpt lat="48.36425" lon="-4.63047">
        <ele>65</ele>
        <time>2022-03-30T17:38:01.000Z</time>
      </trkpt>
      <trkpt lat="48.36429" lon="-4.63019">
        <ele>65.800003051758</ele>
        <time>2022-03-30T17:38:06.000Z</time>
      </trkpt>
      <trkpt lat="48.36434" lon="-4.62995">
        <ele>66.800003051758</ele>
        <time>2022-03-30T17:38:10.000Z</time>
      </trkpt>
      <trkpt lat="48.36435" lon="-4.62989">
        <ele>66.800003051758</ele>
        <time>2022-03-30T17:38:11.000Z</time>
      </trkpt>
      <trkpt lat="48.36433" lon="-4.62979">
        <ele>66.800003051758</ele>
        <time>2022-03-30T17:38:13.000Z</time>
      </trkpt>
      <trkpt lat="48.3643" lon="-4.62976">
        <ele>67</ele>
        <time>2022-03-30T17:38:14.000Z</time>
      </trkpt>
      <trkpt lat="48.36426" lon="-4.62975">
        <ele>67</ele>
        <time>2022-03-30T17:38:15.000Z</time>
      </trkpt>
      <trkpt lat="48.36414" lon="-4.62972">
        <ele>67</ele>
        <time>2022-03-30T17:38:18.000Z</time>
      </trkpt>
      <trkpt lat="48.36386" lon="-4.62963">
        <ele>66.400001525879</ele>
        <time>2022-03-30T17:38:25.000Z</time>
      </trkpt>
      <trkpt lat="48.36353" lon="-4.6295">
        <ele>67.199996948242</ele>
        <time>2022-03-30T17:38:33.000Z</time>
      </trkpt>
      <trkpt lat="48.36332" lon="-4.6294">
        <ele>68.800003051758</ele>
        <time>2022-03-30T17:38:39.000Z</time>
      </trkpt>
      <trkpt lat="48.36314" lon="-4.62923">
        <ele>69.599998474121</ele>
        <time>2022-03-30T17:38:45.000Z</time>
      </trkpt>
      <trkpt lat="48.36307" lon="-4.62904">
        <ele>69.800003051758</ele>
        <time>2022-03-30T17:38:49.000Z</time>
      </trkpt>
      <trkpt lat="48.36314" lon="-4.62882">
        <ele>69.599998474121</ele>
        <time>2022-03-30T17:38:54.000Z</time>
      </trkpt>
      <trkpt lat="48.36327" lon="-4.62854">
        <ele>69.400001525879</ele>
        <time>2022-03-30T17:39:00.000Z</time>
      </trkpt>
      <trkpt lat="48.36331" lon="-4.62843">
        <ele>69.800003051758</ele>
        <time>2022-03-30T17:39:02.000Z</time>
      </trkpt>
      <trkpt lat="48.3634" lon="-4.62821">
        <ele>70.199996948242</ele>
        <time>2022-03-30T17:39:06.000Z</time>
      </trkpt>
      <trkpt lat="48.36357" lon="-4.6278">
        <ele>71</ele>
        <time>2022-03-30T17:39:13.000Z</time>
      </trkpt>
      <trkpt lat="48.36379" lon="-4.62736">
        <ele>69.400001525879</ele>
        <time>2022-03-30T17:39:20.000Z</time>
      </trkpt>
      <trkpt lat="48.36393" lon="-4.62694">
        <ele>68.400001525879</ele>
        <time>2022-03-30T17:39:26.000Z</time>
      </trkpt>
      <trkpt lat="48.36404" lon="-4.62658">
        <ele>67.400001525879</ele>
        <time>2022-03-30T17:39:31.000Z</time>
      </trkpt>
      <trkpt lat="48.36412" lon="-4.62647">
        <ele>67</ele>
        <time>2022-03-30T17:39:33.000Z</time>
      </trkpt>
      <trkpt lat="48.36421" lon="-4.6264">
        <ele>67.199996948242</ele>
        <time>2022-03-30T17:39:35.000Z</time>
      </trkpt>
      <trkpt lat="48.3643" lon="-4.62631">
        <ele>67.599998474121</ele>
        <time>2022-03-30T17:39:37.000Z</time>
      </trkpt>
      <trkpt lat="48.36441" lon="-4.62617">
        <ele>68</ele>
        <time>2022-03-30T17:39:40.000Z</time>
      </trkpt>
      <trkpt lat="48.3645" lon="-4.6261">
        <ele>68</ele>
        <time>2022-03-30T17:39:42.000Z</time>
      </trkpt>
      <trkpt lat="48.36463" lon="-4.626">
        <ele>68</ele>
        <time>2022-03-30T17:39:45.000Z</time>
      </trkpt>
      <trkpt lat="48.36471" lon="-4.62592">
        <ele>68</ele>
        <time>2022-03-30T17:39:47.000Z</time>
      </trkpt>
      <trkpt lat="48.36487" lon="-4.62562">
        <ele>68.199996948242</ele>
        <time>2022-03-30T17:39:53.000Z</time>
      </trkpt>
      <trkpt lat="48.36497" lon="-4.62526">
        <ele>69.199996948242</ele>
        <time>2022-03-30T17:40:00.000Z</time>
      </trkpt>
      <trkpt lat="48.36503" lon="-4.625">
        <ele>70.199996948242</ele>
        <time>2022-03-30T17:40:05.000Z</time>
      </trkpt>
      <trkpt lat="48.36511" lon="-4.62469">
        <ele>71.199996948242</ele>
        <time>2022-03-30T17:40:11.000Z</time>
      </trkpt>
      <trkpt lat="48.36521" lon="-4.62433">
        <ele>72.599998474121</ele>
        <time>2022-03-30T17:40:18.000Z</time>
      </trkpt>
      <trkpt lat="48.36527" lon="-4.62413">
        <ele>73</ele>
        <time>2022-03-30T17:40:22.000Z</time>
      </trkpt>
      <trkpt lat="48.36525" lon="-4.62409">
        <ele>73</ele>
        <time>2022-03-30T17:40:23.000Z</time>
      </trkpt>
      <trkpt lat="48.36511" lon="-4.62401">
        <ele>73.199996948242</ele>
        <time>2022-03-30T17:40:27.000Z</time>
      </trkpt>
      <trkpt lat="48.36487" lon="-4.62389">
        <ele>74.400001525879</ele>
        <time>2022-03-30T17:40:33.000Z</time>
      </trkpt>
      <trkpt lat="48.36471" lon="-4.6238">
        <ele>75</ele>
        <time>2022-03-30T17:40:37.000Z</time>
      </trkpt>
      <trkpt lat="48.36457" lon="-4.62376">
        <ele>75</ele>
        <time>2022-03-30T17:40:40.000Z</time>
      </trkpt>
      <trkpt lat="48.36447" lon="-4.62371">
        <ele>75</ele>
        <time>2022-03-30T17:40:42.000Z</time>
      </trkpt>
      <trkpt lat="48.36444" lon="-4.62366">
        <ele>75</ele>
        <time>2022-03-30T17:40:43.000Z</time>
      </trkpt>
      <trkpt lat="48.36442" lon="-4.6236">
        <ele>75</ele>
        <time>2022-03-30T17:40:44.000Z</time>
      </trkpt>
      <trkpt lat="48.36443" lon="-4.62347">
        <ele>75</ele>
        <time>2022-03-30T17:40:46.000Z</time>
      </trkpt>
      <trkpt lat="48.36448" lon="-4.62314">
        <ele>75</ele>
        <time>2022-03-30T17:40:52.000Z</time>
      </trkpt>
      <trkpt lat="48.36454" lon="-4.62278">
        <ele>76</ele>
        <time>2022-03-30T17:40:59.000Z</time>
      </trkpt>
      <trkpt lat="48.36465" lon="-4.62262">
        <ele>76</ele>
        <time>2022-03-30T17:41:03.000Z</time>
      </trkpt>
      <trkpt lat="48.36469" lon="-4.62245">
        <ele>76</ele>
        <time>2022-03-30T17:41:06.000Z</time>
      </trkpt>
      <trkpt lat="48.36471" lon="-4.62233">
        <ele>75.800003051758</ele>
        <time>2022-03-30T17:41:08.000Z</time>
      </trkpt>
      <trkpt lat="48.36474" lon="-4.62208">
        <ele>75.800003051758</ele>
        <time>2022-03-30T17:41:12.000Z</time>
      </trkpt>
      <trkpt lat="48.36474" lon="-4.62188">
        <ele>76</ele>
        <time>2022-03-30T17:41:15.000Z</time>
      </trkpt>
      <trkpt lat="48.36474" lon="-4.62134">
        <ele>77</ele>
        <time>2022-03-30T17:41:23.000Z</time>
      </trkpt>
      <trkpt lat="48.36475" lon="-4.62112">
        <ele>77</ele>
        <time>2022-03-30T17:41:26.000Z</time>
      </trkpt>
      <trkpt lat="48.36478" lon="-4.62089">
        <ele>76.599998474121</ele>
        <time>2022-03-30T17:41:29.000Z</time>
      </trkpt>
      <trkpt lat="48.36485" lon="-4.6204">
        <ele>77</ele>
        <time>2022-03-30T17:41:35.000Z</time>
      </trkpt>
      <trkpt lat="48.36491" lon="-4.62026">
        <ele>76.800003051758</ele>
        <time>2022-03-30T17:41:37.000Z</time>
      </trkpt>
      <trkpt lat="48.365" lon="-4.62013">
        <ele>76</ele>
        <time>2022-03-30T17:41:39.000Z</time>
      </trkpt>
      <trkpt lat="48.36504" lon="-4.62006">
        <ele>75.599998474121</ele>
        <time>2022-03-30T17:41:40.000Z</time>
      </trkpt>
      <trkpt lat="48.36513" lon="-4.61984">
        <ele>74.800003051758</ele>
        <time>2022-03-30T17:41:43.000Z</time>
      </trkpt>
      <trkpt lat="48.36519" lon="-4.61962">
        <ele>73.800003051758</ele>
        <time>2022-03-30T17:41:46.000Z</time>
      </trkpt>
      <trkpt lat="48.36518" lon="-4.61955">
        <ele>73.599998474121</ele>
        <time>2022-03-30T17:41:47.000Z</time>
      </trkpt>
      <trkpt lat="48.36516" lon="-4.61949">
        <ele>73.599998474121</ele>
        <time>2022-03-30T17:41:48.000Z</time>
      </trkpt>
      <trkpt lat="48.36508" lon="-4.61942">
        <ele>74.199996948242</ele>
        <time>2022-03-30T17:41:50.000Z</time>
      </trkpt>
      <trkpt lat="48.365" lon="-4.61939">
        <ele>74.800003051758</ele>
        <time>2022-03-30T17:41:52.000Z</time>
      </trkpt>
      <trkpt lat="48.36492" lon="-4.61932">
        <ele>75.199996948242</ele>
        <time>2022-03-30T17:41:54.000Z</time>
      </trkpt>
      <trkpt lat="48.3649" lon="-4.61919">
        <ele>75.199996948242</ele>
        <time>2022-03-30T17:41:56.000Z</time>
      </trkpt>
      <trkpt lat="48.36491" lon="-4.61912">
        <ele>75.199996948242</ele>
        <time>2022-03-30T17:41:57.000Z</time>
      </trkpt>
      <trkpt lat="48.36498" lon="-4.61839">
        <ele>75.800003051758</ele>
        <time>2022-03-30T17:42:06.000Z</time>
      </trkpt>
      <trkpt lat="48.36499" lon="-4.61781">
        <ele>75.800003051758</ele>
        <time>2022-03-30T17:42:13.000Z</time>
      </trkpt>
      <trkpt lat="48.36499" lon="-4.61773">
        <ele>76</ele>
        <time>2022-03-30T17:42:14.000Z</time>
      </trkpt>
      <trkpt lat="48.36497" lon="-4.61758">
        <ele>76</ele>
        <time>2022-03-30T17:42:16.000Z</time>
      </trkpt>
      <trkpt lat="48.36496" lon="-4.61744">
        <ele>76</ele>
        <time>2022-03-30T17:42:18.000Z</time>
      </trkpt>
      <trkpt lat="48.36495" lon="-4.61725">
        <ele>76.199996948242</ele>
        <time>2022-03-30T17:42:21.000Z</time>
      </trkpt>
      <trkpt lat="48.36494" lon="-4.61707">
        <ele>77</ele>
        <time>2022-03-30T17:42:24.000Z</time>
      </trkpt>
      <trkpt lat="48.36491" lon="-4.61667">
        <ele>78.400001525879</ele>
        <time>2022-03-30T17:42:31.000Z</time>
      </trkpt>
      <trkpt lat="48.36489" lon="-4.61636">
        <ele>79.400001525879</ele>
        <time>2022-03-30T17:42:37.000Z</time>
      </trkpt>
      <trkpt lat="48.36489" lon="-4.61609">
        <ele>80.400001525879</ele>
        <time>2022-03-30T17:42:43.000Z</time>
      </trkpt>
      <trkpt lat="48.36492" lon="-4.61583">
        <ele>81.199996948242</ele>
        <time>2022-03-30T17:42:48.000Z</time>
      </trkpt>
      <trkpt lat="48.36494" lon="-4.61554">
        <ele>82.199996948242</ele>
        <time>2022-03-30T17:42:54.000Z</time>
      </trkpt>
      <trkpt lat="48.36499" lon="-4.61517">
        <ele>83.400001525879</ele>
        <time>2022-03-30T17:43:01.000Z</time>
      </trkpt>
      <trkpt lat="48.36502" lon="-4.61488">
        <ele>83.800003051758</ele>
        <time>2022-03-30T17:43:06.000Z</time>
      </trkpt>
      <trkpt lat="48.36506" lon="-4.61457">
        <ele>83.599998474121</ele>
        <time>2022-03-30T17:43:11.000Z</time>
      </trkpt>
      <trkpt lat="48.36513" lon="-4.61417">
        <ele>81.800003051758</ele>
        <time>2022-03-30T17:43:17.000Z</time>
      </trkpt>
      <trkpt lat="48.36515" lon="-4.6141">
        <ele>81.400001525879</ele>
        <time>2022-03-30T17:43:18.000Z</time>
      </trkpt>
      <trkpt lat="48.36518" lon="-4.61397">
        <ele>80.400001525879</ele>
        <time>2022-03-30T17:43:20.000Z</time>
      </trkpt>
      <trkpt lat="48.36523" lon="-4.61375">
        <ele>79.400001525879</ele>
        <time>2022-03-30T17:43:23.000Z</time>
      </trkpt>
      <trkpt lat="48.36526" lon="-4.6136">
        <ele>78.800003051758</ele>
        <time>2022-03-30T17:43:25.000Z</time>
      </trkpt>
      <trkpt lat="48.36537" lon="-4.61309">
        <ele>78.400001525879</ele>
        <time>2022-03-30T17:43:31.000Z</time>
      </trkpt>
      <trkpt lat="48.3654" lon="-4.61292">
        <ele>79</ele>
        <time>2022-03-30T17:43:33.000Z</time>
      </trkpt>
      <trkpt lat="48.36537" lon="-4.61277">
        <ele>79.599998474121</ele>
        <time>2022-03-30T17:43:35.000Z</time>
      </trkpt>
      <trkpt lat="48.36523" lon="-4.61256">
        <ele>80</ele>
        <time>2022-03-30T17:43:39.000Z</time>
      </trkpt>
      <trkpt lat="48.36507" lon="-4.61211">
        <ele>78.400001525879</ele>
        <time>2022-03-30T17:43:45.000Z</time>
      </trkpt>
      <trkpt lat="48.36485" lon="-4.61132">
        <ele>76</ele>
        <time>2022-03-30T17:43:55.000Z</time>
      </trkpt>
      <trkpt lat="48.36482" lon="-4.61125">
        <ele>76</ele>
        <time>2022-03-30T17:43:56.000Z</time>
      </trkpt>
      <trkpt lat="48.36475" lon="-4.61116">
        <ele>76.599998474121</ele>
        <time>2022-03-30T17:43:58.000Z</time>
      </trkpt>
      <trkpt lat="48.36466" lon="-4.61116">
        <ele>77</ele>
        <time>2022-03-30T17:44:00.000Z</time>
      </trkpt>
      <trkpt lat="48.36457" lon="-4.61119">
        <ele>77</ele>
        <time>2022-03-30T17:44:02.000Z</time>
      </trkpt>
      <trkpt lat="48.3643" lon="-4.61125">
        <ele>77.400001525879</ele>
        <time>2022-03-30T17:44:08.000Z</time>
      </trkpt>
      <trkpt lat="48.36396" lon="-4.61131">
        <ele>78.800003051758</ele>
        <time>2022-03-30T17:44:16.000Z</time>
      </trkpt>
      <trkpt lat="48.36387" lon="-4.6113">
        <ele>79.400001525879</ele>
        <time>2022-03-30T17:44:18.000Z</time>
      </trkpt>
      <trkpt lat="48.3638" lon="-4.61124">
        <ele>79.800003051758</ele>
        <time>2022-03-30T17:44:20.000Z</time>
      </trkpt>
      <trkpt lat="48.36362" lon="-4.61116">
        <ele>81.599998474121</ele>
        <time>2022-03-30T17:44:25.000Z</time>
      </trkpt>
      <trkpt lat="48.36356" lon="-4.6112">
        <ele>82.199996948242</ele>
        <time>2022-03-30T17:44:27.000Z</time>
      </trkpt>
      <trkpt lat="48.36353" lon="-4.61123">
        <ele>82.199996948242</ele>
        <time>2022-03-30T17:44:28.000Z</time>
      </trkpt>
      <trkpt lat="48.36342" lon="-4.6113">
        <ele>83.199996948242</ele>
        <time>2022-03-30T17:44:32.000Z</time>
      </trkpt>
      <trkpt lat="48.36327" lon="-4.61136">
        <ele>84</ele>
        <time>2022-03-30T17:44:36.000Z</time>
      </trkpt>
      <trkpt lat="48.36301" lon="-4.61147">
        <ele>85</ele>
        <time>2022-03-30T17:44:43.000Z</time>
      </trkpt>
      <trkpt lat="48.3628" lon="-4.61155">
        <ele>85</ele>
        <time>2022-03-30T17:44:49.000Z</time>
      </trkpt>
      <trkpt lat="48.36259" lon="-4.61163">
        <ele>86</ele>
        <time>2022-03-30T17:44:55.000Z</time>
      </trkpt>
      <trkpt lat="48.36243" lon="-4.6118">
        <ele>87.199996948242</ele>
        <time>2022-03-30T17:45:00.000Z</time>
      </trkpt>
      <trkpt lat="48.36243" lon="-4.61211">
        <ele>87</ele>
        <time>2022-03-30T17:45:05.000Z</time>
      </trkpt>
      <trkpt lat="48.36245" lon="-4.6126">
        <ele>87</ele>
        <time>2022-03-30T17:45:13.000Z</time>
      </trkpt>
      <trkpt lat="48.36245" lon="-4.61266">
        <ele>87</ele>
        <time>2022-03-30T17:45:14.000Z</time>
      </trkpt>
      <trkpt lat="48.36244" lon="-4.61284">
        <ele>87</ele>
        <time>2022-03-30T17:45:17.000Z</time>
      </trkpt>
      <trkpt lat="48.36241" lon="-4.61296">
        <ele>87.199996948242</ele>
        <time>2022-03-30T17:45:19.000Z</time>
      </trkpt>
      <trkpt lat="48.36239" lon="-4.61301">
        <ele>87.199996948242</ele>
        <time>2022-03-30T17:45:20.000Z</time>
      </trkpt>
      <trkpt lat="48.36236" lon="-4.61306">
        <ele>87.400001525879</ele>
        <time>2022-03-30T17:45:21.000Z</time>
      </trkpt>
      <trkpt lat="48.3622" lon="-4.61333">
        <ele>88.800003051758</ele>
        <time>2022-03-30T17:45:26.000Z</time>
      </trkpt>
      <trkpt lat="48.36209" lon="-4.6135">
        <ele>89.400001525879</ele>
        <time>2022-03-30T17:45:29.000Z</time>
      </trkpt>
      <trkpt lat="48.36198" lon="-4.61354">
        <ele>89.599998474121</ele>
        <time>2022-03-30T17:45:31.000Z</time>
      </trkpt>
      <trkpt lat="48.36173" lon="-4.61351">
        <ele>89.599998474121</ele>
        <time>2022-03-30T17:45:35.000Z</time>
      </trkpt>
      <trkpt lat="48.36142" lon="-4.61351">
        <ele>90</ele>
        <time>2022-03-30T17:45:39.000Z</time>
      </trkpt>
      <trkpt lat="48.36134" lon="-4.61349">
        <ele>90</ele>
        <time>2022-03-30T17:45:40.000Z</time>
      </trkpt>
      <trkpt lat="48.36127" lon="-4.61345">
        <ele>90</ele>
        <time>2022-03-30T17:45:41.000Z</time>
      </trkpt>
      <trkpt lat="48.36114" lon="-4.61334">
        <ele>89.199996948242</ele>
        <time>2022-03-30T17:45:43.000Z</time>
      </trkpt>
      <trkpt lat="48.36104" lon="-4.61322">
        <ele>89</ele>
        <time>2022-03-30T17:45:45.000Z</time>
      </trkpt>
      <trkpt lat="48.36095" lon="-4.61308">
        <ele>89</ele>
        <time>2022-03-30T17:45:47.000Z</time>
      </trkpt>
      <trkpt lat="48.36089" lon="-4.61285">
        <ele>89.800003051758</ele>
        <time>2022-03-30T17:45:50.000Z</time>
      </trkpt>
      <trkpt lat="48.36089" lon="-4.61277">
        <ele>90</ele>
        <time>2022-03-30T17:45:51.000Z</time>
      </trkpt>
      <trkpt lat="48.36091" lon="-4.61253">
        <ele>90</ele>
        <time>2022-03-30T17:45:54.000Z</time>
      </trkpt>
      <trkpt lat="48.36093" lon="-4.61239">
        <ele>90.400001525879</ele>
        <time>2022-03-30T17:45:56.000Z</time>
      </trkpt>
      <trkpt lat="48.36101" lon="-4.61185">
        <ele>89.400001525879</ele>
        <time>2022-03-30T17:46:04.000Z</time>
      </trkpt>
      <trkpt lat="48.36105" lon="-4.61138">
        <ele>89</ele>
        <time>2022-03-30T17:46:11.000Z</time>
      </trkpt>
      <trkpt lat="48.36097" lon="-4.61123">
        <ele>89</ele>
        <time>2022-03-30T17:46:14.000Z</time>
      </trkpt>
      <trkpt lat="48.3609" lon="-4.61119">
        <ele>89</ele>
        <time>2022-03-30T17:46:16.000Z</time>
      </trkpt>
      <trkpt lat="48.36081" lon="-4.61117">
        <ele>89</ele>
        <time>2022-03-30T17:46:18.000Z</time>
      </trkpt>
      <trkpt lat="48.36049" lon="-4.6111">
        <ele>89</ele>
        <time>2022-03-30T17:46:25.000Z</time>
      </trkpt>
      <trkpt lat="48.36006" lon="-4.61104">
        <ele>89</ele>
        <time>2022-03-30T17:46:34.000Z</time>
      </trkpt>
      <trkpt lat="48.35969" lon="-4.61101">
        <ele>90</ele>
        <time>2022-03-30T17:46:41.000Z</time>
      </trkpt>
      <trkpt lat="48.35925" lon="-4.61096">
        <ele>89.800003051758</ele>
        <time>2022-03-30T17:46:49.000Z</time>
      </trkpt>
      <trkpt lat="48.35886" lon="-4.6108">
        <ele>89</ele>
        <time>2022-03-30T17:46:56.000Z</time>
      </trkpt>
      <trkpt lat="48.3584" lon="-4.6106">
        <ele>89.599998474121</ele>
        <time>2022-03-30T17:47:04.000Z</time>
      </trkpt>
      <trkpt lat="48.35791" lon="-4.61038">
        <ele>89.400001525879</ele>
        <time>2022-03-30T17:47:12.000Z</time>
      </trkpt>
      <trkpt lat="48.35747" lon="-4.61023">
        <ele>86</ele>
        <time>2022-03-30T17:47:19.000Z</time>
      </trkpt>
      <trkpt lat="48.35742" lon="-4.61018">
        <ele>86</ele>
        <time>2022-03-30T17:47:20.000Z</time>
      </trkpt>
      <trkpt lat="48.35739" lon="-4.61009">
        <ele>86</ele>
        <time>2022-03-30T17:47:21.000Z</time>
      </trkpt>
      <trkpt lat="48.35738" lon="-4.60999">
        <ele>85.800003051758</ele>
        <time>2022-03-30T17:47:22.000Z</time>
      </trkpt>
      <trkpt lat="48.3574" lon="-4.60988">
        <ele>85.400001525879</ele>
        <time>2022-03-30T17:47:23.000Z</time>
      </trkpt>
      <trkpt lat="48.35747" lon="-4.60958">
        <ele>85</ele>
        <time>2022-03-30T17:47:26.000Z</time>
      </trkpt>
      <trkpt lat="48.35751" lon="-4.60939">
        <ele>85.199996948242</ele>
        <time>2022-03-30T17:47:28.000Z</time>
      </trkpt>
      <trkpt lat="48.35763" lon="-4.60902">
        <ele>85.400001525879</ele>
        <time>2022-03-30T17:47:32.000Z</time>
      </trkpt>
      <trkpt lat="48.3578" lon="-4.60854">
        <ele>86</ele>
        <time>2022-03-30T17:47:37.000Z</time>
      </trkpt>
      <trkpt lat="48.35784" lon="-4.60846">
        <ele>86</ele>
        <time>2022-03-30T17:47:38.000Z</time>
      </trkpt>
      <trkpt lat="48.35803" lon="-4.60814">
        <ele>86</ele>
        <time>2022-03-30T17:47:43.000Z</time>
      </trkpt>
      <trkpt lat="48.3581" lon="-4.60803">
        <ele>86.400001525879</ele>
        <time>2022-03-30T17:47:45.000Z</time>
      </trkpt>
      <trkpt lat="48.35821" lon="-4.60786">
        <ele>86.599998474121</ele>
        <time>2022-03-30T17:47:48.000Z</time>
      </trkpt>
      <trkpt lat="48.35835" lon="-4.60764">
        <ele>86.599998474121</ele>
        <time>2022-03-30T17:47:52.000Z</time>
      </trkpt>
      <trkpt lat="48.35841" lon="-4.60751">
        <ele>86.400001525879</ele>
        <time>2022-03-30T17:47:54.000Z</time>
      </trkpt>
      <trkpt lat="48.35853" lon="-4.60724">
        <ele>86.800003051758</ele>
        <time>2022-03-30T17:47:58.000Z</time>
      </trkpt>
      <trkpt lat="48.35855" lon="-4.60717">
        <ele>87</ele>
        <time>2022-03-30T17:47:59.000Z</time>
      </trkpt>
      <trkpt lat="48.35855" lon="-4.60709">
        <ele>87</ele>
        <time>2022-03-30T17:48:00.000Z</time>
      </trkpt>
      <trkpt lat="48.35855" lon="-4.60676">
        <ele>87.800003051758</ele>
        <time>2022-03-30T17:48:04.000Z</time>
      </trkpt>
      <trkpt lat="48.35855" lon="-4.60668">
        <ele>88</ele>
        <time>2022-03-30T17:48:05.000Z</time>
      </trkpt>
      <trkpt lat="48.35854" lon="-4.60628">
        <ele>88</ele>
        <time>2022-03-30T17:48:10.000Z</time>
      </trkpt>
      <trkpt lat="48.35857" lon="-4.60575">
        <ele>89.400001525879</ele>
        <time>2022-03-30T17:48:17.000Z</time>
      </trkpt>
      <trkpt lat="48.35858" lon="-4.60526">
        <ele>89.800003051758</ele>
        <time>2022-03-30T17:48:24.000Z</time>
      </trkpt>
      <trkpt lat="48.35854" lon="-4.60487">
        <ele>88.800003051758</ele>
        <time>2022-03-30T17:48:30.000Z</time>
      </trkpt>
      <trkpt lat="48.35854" lon="-4.60481">
        <ele>88.800003051758</ele>
        <time>2022-03-30T17:48:31.000Z</time>
      </trkpt>
      <trkpt lat="48.35851" lon="-4.60446">
        <ele>88.800003051758</ele>
        <time>2022-03-30T17:48:37.000Z</time>
      </trkpt>
      <trkpt lat="48.35849" lon="-4.60406">
        <ele>89.199996948242</ele>
        <time>2022-03-30T17:48:43.000Z</time>
      </trkpt>
      <trkpt lat="48.35845" lon="-4.60365">
        <ele>89.199996948242</ele>
        <time>2022-03-30T17:48:48.000Z</time>
      </trkpt>
      <trkpt lat="48.35842" lon="-4.60308">
        <ele>88.400001525879</ele>
        <time>2022-03-30T17:48:54.000Z</time>
      </trkpt>
      <trkpt lat="48.35838" lon="-4.60281">
        <ele>88</ele>
        <time>2022-03-30T17:48:57.000Z</time>
      </trkpt>
      <trkpt lat="48.35833" lon="-4.60264">
        <ele>87.599998474121</ele>
        <time>2022-03-30T17:48:59.000Z</time>
      </trkpt>
      <trkpt lat="48.35828" lon="-4.60245">
        <ele>86.599998474121</ele>
        <time>2022-03-30T17:49:01.000Z</time>
      </trkpt>
      <trkpt lat="48.35824" lon="-4.60225">
        <ele>85.800003051758</ele>
        <time>2022-03-30T17:49:03.000Z</time>
      </trkpt>
      <trkpt lat="48.35822" lon="-4.60215">
        <ele>85.400001525879</ele>
        <time>2022-03-30T17:49:04.000Z</time>
      </trkpt>
      <trkpt lat="48.35815" lon="-4.60186">
        <ele>84.400001525879</ele>
        <time>2022-03-30T17:49:07.000Z</time>
      </trkpt>
      <trkpt lat="48.35813" lon="-4.60177">
        <ele>84.400001525879</ele>
        <time>2022-03-30T17:49:08.000Z</time>
      </trkpt>
      <trkpt lat="48.35814" lon="-4.60157">
        <ele>84</ele>
        <time>2022-03-30T17:49:10.000Z</time>
      </trkpt>
      <trkpt lat="48.35815" lon="-4.60148">
        <ele>83.599998474121</ele>
        <time>2022-03-30T17:49:11.000Z</time>
      </trkpt>
      <trkpt lat="48.35817" lon="-4.60121">
        <ele>84</ele>
        <time>2022-03-30T17:49:14.000Z</time>
      </trkpt>
      <trkpt lat="48.3582" lon="-4.60107">
        <ele>84.400001525879</ele>
        <time>2022-03-30T17:49:16.000Z</time>
      </trkpt>
      <trkpt lat="48.35826" lon="-4.60092">
        <ele>84.800003051758</ele>
        <time>2022-03-30T17:49:18.000Z</time>
      </trkpt>
      <trkpt lat="48.35831" lon="-4.6008">
        <ele>85.199996948242</ele>
        <time>2022-03-30T17:49:20.000Z</time>
      </trkpt>
      <trkpt lat="48.35837" lon="-4.60063">
        <ele>85.599998474121</ele>
        <time>2022-03-30T17:49:22.000Z</time>
      </trkpt>
      <trkpt lat="48.3584" lon="-4.60044">
        <ele>85.400001525879</ele>
        <time>2022-03-30T17:49:24.000Z</time>
      </trkpt>
      <trkpt lat="48.35841" lon="-4.60026">
        <ele>85.199996948242</ele>
        <time>2022-03-30T17:49:26.000Z</time>
      </trkpt>
      <trkpt lat="48.35841" lon="-4.60009">
        <ele>85</ele>
        <time>2022-03-30T17:49:28.000Z</time>
      </trkpt>
      <trkpt lat="48.35841" lon="-4.6">
        <ele>85</ele>
        <time>2022-03-30T17:49:29.000Z</time>
      </trkpt>
      <trkpt lat="48.35843" lon="-4.59981">
        <ele>84.800003051758</ele>
        <time>2022-03-30T17:49:32.000Z</time>
      </trkpt>
      <trkpt lat="48.35849" lon="-4.59955">
        <ele>84</ele>
        <time>2022-03-30T17:49:37.000Z</time>
      </trkpt>
      <trkpt lat="48.35849" lon="-4.59916">
        <ele>83.599998474121</ele>
        <time>2022-03-30T17:49:43.000Z</time>
      </trkpt>
      <trkpt lat="48.35848" lon="-4.59862">
        <ele>81.599998474121</ele>
        <time>2022-03-30T17:49:50.000Z</time>
      </trkpt>
      <trkpt lat="48.35847" lon="-4.59801">
        <ele>79.599998474121</ele>
        <time>2022-03-30T17:49:57.000Z</time>
      </trkpt>
      <trkpt lat="48.35852" lon="-4.59732">
        <ele>79</ele>
        <time>2022-03-30T17:50:04.000Z</time>
      </trkpt>
      <trkpt lat="48.35862" lon="-4.59644">
        <ele>76</ele>
        <time>2022-03-30T17:50:12.000Z</time>
      </trkpt>
      <trkpt lat="48.35866" lon="-4.59558">
        <ele>74.599998474121</ele>
        <time>2022-03-30T17:50:19.000Z</time>
      </trkpt>
      <trkpt lat="48.35866" lon="-4.59545">
        <ele>74.199996948242</ele>
        <time>2022-03-30T17:50:20.000Z</time>
      </trkpt>
      <trkpt lat="48.3587" lon="-4.59456">
        <ele>73.400001525879</ele>
        <time>2022-03-30T17:50:27.000Z</time>
      </trkpt>
      <trkpt lat="48.35869" lon="-4.59443">
        <ele>73.400001525879</ele>
        <time>2022-03-30T17:50:28.000Z</time>
      </trkpt>
      <trkpt lat="48.35863" lon="-4.59421">
        <ele>72.199996948242</ele>
        <time>2022-03-30T17:50:30.000Z</time>
      </trkpt>
      <trkpt lat="48.35848" lon="-4.5941">
        <ele>71.599998474121</ele>
        <time>2022-03-30T17:50:32.000Z</time>
      </trkpt>
      <trkpt lat="48.35817" lon="-4.59403">
        <ele>71</ele>
        <time>2022-03-30T17:50:36.000Z</time>
      </trkpt>
      <trkpt lat="48.35764" lon="-4.59384">
        <ele>69.800003051758</ele>
        <time>2022-03-30T17:50:43.000Z</time>
      </trkpt>
      <trkpt lat="48.35756" lon="-4.59381">
        <ele>69.599998474121</ele>
        <time>2022-03-30T17:50:44.000Z</time>
      </trkpt>
      <trkpt lat="48.35731" lon="-4.59368">
        <ele>68.599998474121</ele>
        <time>2022-03-30T17:50:47.000Z</time>
      </trkpt>
      <trkpt lat="48.35724" lon="-4.5936">
        <ele>68</ele>
        <time>2022-03-30T17:50:48.000Z</time>
      </trkpt>
      <trkpt lat="48.35719" lon="-4.59349">
        <ele>67.599998474121</ele>
        <time>2022-03-30T17:50:49.000Z</time>
      </trkpt>
      <trkpt lat="48.35714" lon="-4.59323">
        <ele>65.800003051758</ele>
        <time>2022-03-30T17:50:51.000Z</time>
      </trkpt>
      <trkpt lat="48.35713" lon="-4.59266">
        <ele>63.400001525879</ele>
        <time>2022-03-30T17:50:55.000Z</time>
      </trkpt>
      <trkpt lat="48.35712" lon="-4.59239">
        <ele>62.799999237061</ele>
        <time>2022-03-30T17:50:57.000Z</time>
      </trkpt>
      <trkpt lat="48.35708" lon="-4.59229">
        <ele>62.599998474121</ele>
        <time>2022-03-30T17:50:58.000Z</time>
      </trkpt>
      <trkpt lat="48.35701" lon="-4.59221">
        <ele>62.200000762939</ele>
        <time>2022-03-30T17:50:59.000Z</time>
      </trkpt>
      <trkpt lat="48.35693" lon="-4.59216">
        <ele>61.799999237061</ele>
        <time>2022-03-30T17:51:00.000Z</time>
      </trkpt>
      <trkpt lat="48.35685" lon="-4.59214">
        <ele>61.200000762939</ele>
        <time>2022-03-30T17:51:01.000Z</time>
      </trkpt>
      <trkpt lat="48.35659" lon="-4.59208">
        <ele>58.599998474121</ele>
        <time>2022-03-30T17:51:04.000Z</time>
      </trkpt>
      <trkpt lat="48.35601" lon="-4.59194">
        <ele>55.599998474121</ele>
        <time>2022-03-30T17:51:11.000Z</time>
      </trkpt>
      <trkpt lat="48.35577" lon="-4.59189">
        <ele>54.400001525879</ele>
        <time>2022-03-30T17:51:14.000Z</time>
      </trkpt>
      <trkpt lat="48.35571" lon="-4.59182">
        <ele>54</ele>
        <time>2022-03-30T17:51:15.000Z</time>
      </trkpt>
      <trkpt lat="48.35567" lon="-4.59173">
        <ele>53.200000762939</ele>
        <time>2022-03-30T17:51:16.000Z</time>
      </trkpt>
      <trkpt lat="48.35567" lon="-4.59161">
        <ele>52.799999237061</ele>
        <time>2022-03-30T17:51:17.000Z</time>
      </trkpt>
      <trkpt lat="48.35568" lon="-4.59149">
        <ele>52.200000762939</ele>
        <time>2022-03-30T17:51:18.000Z</time>
      </trkpt>
      <trkpt lat="48.35574" lon="-4.59127">
        <ele>51.200000762939</ele>
        <time>2022-03-30T17:51:20.000Z</time>
      </trkpt>
      <trkpt lat="48.35576" lon="-4.59116">
        <ele>51</ele>
        <time>2022-03-30T17:51:21.000Z</time>
      </trkpt>
      <trkpt lat="48.35576" lon="-4.59092">
        <ele>50.799999237061</ele>
        <time>2022-03-30T17:51:23.000Z</time>
      </trkpt>
      <trkpt lat="48.35564" lon="-4.5905">
        <ele>50.799999237061</ele>
        <time>2022-03-30T17:51:26.000Z</time>
      </trkpt>
      <trkpt lat="48.35562" lon="-4.59037">
        <ele>51.400001525879</ele>
        <time>2022-03-30T17:51:27.000Z</time>
      </trkpt>
      <trkpt lat="48.35563" lon="-4.59019">
        <ele>52.400001525879</ele>
        <time>2022-03-30T17:51:29.000Z</time>
      </trkpt>
      <trkpt lat="48.3557" lon="-4.59002">
        <ele>53.400001525879</ele>
        <time>2022-03-30T17:51:33.000Z</time>
      </trkpt>
      <trkpt lat="48.35575" lon="-4.58986">
        <ele>53.200000762939</ele>
        <time>2022-03-30T17:51:37.000Z</time>
      </trkpt>
      <trkpt lat="48.35577" lon="-4.58969">
        <ele>53.200000762939</ele>
        <time>2022-03-30T17:51:42.000Z</time>
      </trkpt>
      <trkpt lat="48.35581" lon="-4.58953">
        <ele>52.799999237061</ele>
        <time>2022-03-30T17:51:47.000Z</time>
      </trkpt>
      <trkpt lat="48.35584" lon="-4.58945">
        <ele>52.599998474121</ele>
        <time>2022-03-30T17:51:50.000Z</time>
      </trkpt>
      <trkpt lat="48.35586" lon="-4.58937">
        <ele>52.599998474121</ele>
        <time>2022-03-30T17:51:53.000Z</time>
      </trkpt>
      <trkpt lat="48.35588" lon="-4.58916">
        <ele>52.599998474121</ele>
        <time>2022-03-30T17:52:00.000Z</time>
      </trkpt>
      <trkpt lat="48.35589" lon="-4.5891">
        <ele>53</ele>
        <time>2022-03-30T17:52:02.000Z</time>
      </trkpt>
      <trkpt lat="48.3559" lon="-4.58904">
        <ele>53.200000762939</ele>
        <time>2022-03-30T17:52:04.000Z</time>
      </trkpt>
      <trkpt lat="48.35591" lon="-4.58902">
        <ele>53.200000762939</ele>
        <time>2022-03-30T17:52:05.000Z</time>
      </trkpt>
      <trkpt lat="48.35592" lon="-4.58896">
        <ele>53.400001525879</ele>
        <time>2022-03-30T17:52:08.000Z</time>
      </trkpt>
      <trkpt lat="48.35595" lon="-4.58886">
        <ele>53.599998474121</ele>
        <time>2022-03-30T17:52:11.000Z</time>
      </trkpt>
      <trkpt lat="48.35595" lon="-4.58883">
        <ele>53.799999237061</ele>
        <time>2022-03-30T17:52:12.000Z</time>
      </trkpt>
      <trkpt lat="48.35597" lon="-4.58876">
        <ele>54</ele>
        <time>2022-03-30T17:52:15.000Z</time>
      </trkpt>
      <trkpt lat="48.35597" lon="-4.58873">
        <ele>54</ele>
        <time>2022-03-30T17:52:16.000Z</time>
      </trkpt>
      <trkpt lat="48.35602" lon="-4.58865">
        <ele>54.200000762939</ele>
        <time>2022-03-30T17:52:19.000Z</time>
      </trkpt>
      <trkpt lat="48.35605" lon="-4.58862">
        <ele>54.200000762939</ele>
        <time>2022-03-30T17:52:20.000Z</time>
      </trkpt>
      <trkpt lat="48.35618" lon="-4.58851">
        <ele>55.400001525879</ele>
        <time>2022-03-30T17:52:24.000Z</time>
      </trkpt>
      <trkpt lat="48.35621" lon="-4.58848">
        <ele>55.599998474121</ele>
        <time>2022-03-30T17:52:26.000Z</time>
      </trkpt>
      <trkpt lat="48.35625" lon="-4.58843">
        <ele>56</ele>
        <time>2022-03-30T17:52:29.000Z</time>
      </trkpt>
      <trkpt lat="48.35629" lon="-4.58841">
        <ele>56.400001525879</ele>
        <time>2022-03-30T17:52:30.000Z</time>
      </trkpt>
      <trkpt lat="48.35642" lon="-4.58833">
        <ele>57.400001525879</ele>
        <time>2022-03-30T17:52:33.000Z</time>
      </trkpt>
      <trkpt lat="48.35657" lon="-4.58818">
        <ele>58.400001525879</ele>
        <time>2022-03-30T17:52:39.000Z</time>
      </trkpt>
      <trkpt lat="48.35663" lon="-4.58813">
        <ele>58.799999237061</ele>
        <time>2022-03-30T17:52:42.000Z</time>
      </trkpt>
      <trkpt lat="48.35665" lon="-4.58809">
        <ele>59</ele>
        <time>2022-03-30T17:52:44.000Z</time>
      </trkpt>
      <trkpt lat="48.35672" lon="-4.58803">
        <ele>59</ele>
        <time>2022-03-30T17:52:48.000Z</time>
      </trkpt>
      <trkpt lat="48.3568" lon="-4.58795">
        <ele>59</ele>
        <time>2022-03-30T17:52:53.000Z</time>
      </trkpt>
      <trkpt lat="48.35687" lon="-4.58789">
        <ele>59</ele>
        <time>2022-03-30T17:52:57.000Z</time>
      </trkpt>
      <trkpt lat="48.35688" lon="-4.58788">
        <ele>59</ele>
        <time>2022-03-30T17:52:58.000Z</time>
      </trkpt>
      <trkpt lat="48.35696" lon="-4.58781">
        <ele>59.200000762939</ele>
        <time>2022-03-30T17:53:03.000Z</time>
      </trkpt>
      <trkpt lat="48.35697" lon="-4.58779">
        <ele>59.200000762939</ele>
        <time>2022-03-30T17:53:04.000Z</time>
      </trkpt>
      <trkpt lat="48.35704" lon="-4.58771">
        <ele>59.799999237061</ele>
        <time>2022-03-30T17:53:09.000Z</time>
      </trkpt>
      <trkpt lat="48.35714" lon="-4.58762">
        <ele>60.599998474121</ele>
        <time>2022-03-30T17:53:13.000Z</time>
      </trkpt>
      <trkpt lat="48.35726" lon="-4.58751">
        <ele>61.400001525879</ele>
        <time>2022-03-30T17:53:18.000Z</time>
      </trkpt>
      <trkpt lat="48.35739" lon="-4.58746">
        <ele>62</ele>
        <time>2022-03-30T17:53:23.000Z</time>
      </trkpt>
      <trkpt lat="48.35748" lon="-4.58741">
        <ele>62.400001525879</ele>
        <time>2022-03-30T17:53:27.000Z</time>
      </trkpt>
      <trkpt lat="48.35748" lon="-4.58739">
        <ele>62.599998474121</ele>
        <time>2022-03-30T17:53:28.000Z</time>
      </trkpt>
      <trkpt lat="48.35744" lon="-4.58726">
        <ele>62.799999237061</ele>
        <time>2022-03-30T17:53:33.000Z</time>
      </trkpt>
      <trkpt lat="48.35745" lon="-4.58711">
        <ele>63.400001525879</ele>
        <time>2022-03-30T17:53:37.000Z</time>
      </trkpt>
      <trkpt lat="48.35752" lon="-4.58696">
        <ele>64.199996948242</ele>
        <time>2022-03-30T17:53:42.000Z</time>
      </trkpt>
      <trkpt lat="48.35755" lon="-4.58687">
        <ele>65</ele>
        <time>2022-03-30T17:53:45.000Z</time>
      </trkpt>
      <trkpt lat="48.35754" lon="-4.58682">
        <ele>65.400001525879</ele>
        <time>2022-03-30T17:53:47.000Z</time>
      </trkpt>
      <trkpt lat="48.35752" lon="-4.58668">
        <ele>66.199996948242</ele>
        <time>2022-03-30T17:53:52.000Z</time>
      </trkpt>
      <trkpt lat="48.35751" lon="-4.58663">
        <ele>66.400001525879</ele>
        <time>2022-03-30T17:53:54.000Z</time>
      </trkpt>
      <trkpt lat="48.35749" lon="-4.58657">
        <ele>66.800003051758</ele>
        <time>2022-03-30T17:53:57.000Z</time>
      </trkpt>
      <trkpt lat="48.35746" lon="-4.58636">
        <ele>68.199996948242</ele>
        <time>2022-03-30T17:54:04.000Z</time>
      </trkpt>
      <trkpt lat="48.35746" lon="-4.58616">
        <ele>69</ele>
        <time>2022-03-30T17:54:10.000Z</time>
      </trkpt>
      <trkpt lat="48.35747" lon="-4.58599">
        <ele>69.599998474121</ele>
        <time>2022-03-30T17:54:15.000Z</time>
      </trkpt>
      <trkpt lat="48.3575" lon="-4.58592">
        <ele>69.800003051758</ele>
        <time>2022-03-30T17:54:17.000Z</time>
      </trkpt>
      <trkpt lat="48.3575" lon="-4.58585">
        <ele>70</ele>
        <time>2022-03-30T17:54:19.000Z</time>
      </trkpt>
      <trkpt lat="48.3575" lon="-4.58581">
        <ele>70</ele>
        <time>2022-03-30T17:54:20.000Z</time>
      </trkpt>
      <trkpt lat="48.35752" lon="-4.58568">
        <ele>70</ele>
        <time>2022-03-30T17:54:24.000Z</time>
      </trkpt>
      <trkpt lat="48.35752" lon="-4.58566">
        <ele>70</ele>
        <time>2022-03-30T17:54:25.000Z</time>
      </trkpt>
      <trkpt lat="48.35746" lon="-4.58554">
        <ele>70</ele>
        <time>2022-03-30T17:54:30.000Z</time>
      </trkpt>
      <trkpt lat="48.35743" lon="-4.58548">
        <ele>69.800003051758</ele>
        <time>2022-03-30T17:54:32.000Z</time>
      </trkpt>
      <trkpt lat="48.35743" lon="-4.58539">
        <ele>69.800003051758</ele>
        <time>2022-03-30T17:54:34.000Z</time>
      </trkpt>
      <trkpt lat="48.35744" lon="-4.58517">
        <ele>70</ele>
        <time>2022-03-30T17:54:40.000Z</time>
      </trkpt>
      <trkpt lat="48.35744" lon="-4.58489">
        <ele>70</ele>
        <time>2022-03-30T17:54:46.000Z</time>
      </trkpt>
      <trkpt lat="48.35744" lon="-4.58472">
        <ele>70</ele>
        <time>2022-03-30T17:54:50.000Z</time>
      </trkpt>
      <trkpt lat="48.35744" lon="-4.58447">
        <ele>70</ele>
        <time>2022-03-30T17:54:55.000Z</time>
      </trkpt>
      <trkpt lat="48.35747" lon="-4.58407">
        <ele>69.599998474121</ele>
        <time>2022-03-30T17:55:03.000Z</time>
      </trkpt>
      <trkpt lat="48.35745" lon="-4.58388">
        <ele>69</ele>
        <time>2022-03-30T17:55:07.000Z</time>
      </trkpt>
      <trkpt lat="48.35733" lon="-4.58371">
        <ele>69</ele>
        <time>2022-03-30T17:55:12.000Z</time>
      </trkpt>
      <trkpt lat="48.35723" lon="-4.58346">
        <ele>69</ele>
        <time>2022-03-30T17:55:17.000Z</time>
      </trkpt>
      <trkpt lat="48.35711" lon="-4.58332">
        <ele>69.400001525879</ele>
        <time>2022-03-30T17:55:21.000Z</time>
      </trkpt>
      <trkpt lat="48.35699" lon="-4.5832">
        <ele>70</ele>
        <time>2022-03-30T17:55:24.000Z</time>
      </trkpt>
      <trkpt lat="48.35698" lon="-4.58314">
        <ele>70</ele>
        <time>2022-03-30T17:55:25.000Z</time>
      </trkpt>
      <trkpt lat="48.35699" lon="-4.58309">
        <ele>70</ele>
        <time>2022-03-30T17:55:26.000Z</time>
      </trkpt>
      <trkpt lat="48.35703" lon="-4.58298">
        <ele>70</ele>
        <time>2022-03-30T17:55:28.000Z</time>
      </trkpt>
      <trkpt lat="48.3571" lon="-4.58281">
        <ele>70</ele>
        <time>2022-03-30T17:55:31.000Z</time>
      </trkpt>
      <trkpt lat="48.35713" lon="-4.58268">
        <ele>70</ele>
        <time>2022-03-30T17:55:33.000Z</time>
      </trkpt>
      <trkpt lat="48.35708" lon="-4.58258">
        <ele>70</ele>
        <time>2022-03-30T17:55:35.000Z</time>
      </trkpt>
      <trkpt lat="48.35705" lon="-4.58255">
        <ele>70</ele>
        <time>2022-03-30T17:55:36.000Z</time>
      </trkpt>
      <trkpt lat="48.35696" lon="-4.58244">
        <ele>69.800003051758</ele>
        <time>2022-03-30T17:55:39.000Z</time>
      </trkpt>
      <trkpt lat="48.35695" lon="-4.58238">
        <ele>69.599998474121</ele>
        <time>2022-03-30T17:55:40.000Z</time>
      </trkpt>
      <trkpt lat="48.35696" lon="-4.58232">
        <ele>69.400001525879</ele>
        <time>2022-03-30T17:55:41.000Z</time>
      </trkpt>
      <trkpt lat="48.35701" lon="-4.5822">
        <ele>69</ele>
        <time>2022-03-30T17:55:43.000Z</time>
      </trkpt>
      <trkpt lat="48.35707" lon="-4.58207">
        <ele>68.400001525879</ele>
        <time>2022-03-30T17:55:45.000Z</time>
      </trkpt>
      <trkpt lat="48.35715" lon="-4.58186">
        <ele>67.599998474121</ele>
        <time>2022-03-30T17:55:48.000Z</time>
      </trkpt>
      <trkpt lat="48.35719" lon="-4.58171">
        <ele>67</ele>
        <time>2022-03-30T17:55:50.000Z</time>
      </trkpt>
      <trkpt lat="48.35725" lon="-4.58151">
        <ele>66.599998474121</ele>
        <time>2022-03-30T17:55:53.000Z</time>
      </trkpt>
      <trkpt lat="48.3573" lon="-4.58136">
        <ele>66.400001525879</ele>
        <time>2022-03-30T17:55:57.000Z</time>
      </trkpt>
      <trkpt lat="48.3573" lon="-4.58136">
        <ele>66.400001525879</ele>
        <time>2022-03-30T17:55:58.000Z</time>
      </trkpt>
      <trkpt lat="48.3573" lon="-4.5813">
        <ele>66.400001525879</ele>
        <time>2022-03-30T17:56:36.000Z</time>
      </trkpt>
      <trkpt lat="48.35731" lon="-4.58122">
        <ele>66.400001525879</ele>
        <time>2022-03-30T17:56:38.000Z</time>
      </trkpt>
      <trkpt lat="48.3573" lon="-4.58097">
        <ele>66.400001525879</ele>
        <time>2022-03-30T17:56:43.000Z</time>
      </trkpt>
      <trkpt lat="48.35733" lon="-4.58054">
        <ele>66.400001525879</ele>
        <time>2022-03-30T17:56:48.000Z</time>
      </trkpt>
      <trkpt lat="48.35736" lon="-4.57995">
        <ele>65.400001525879</ele>
        <time>2022-03-30T17:56:54.000Z</time>
      </trkpt>
      <trkpt lat="48.35741" lon="-4.57927">
        <ele>64</ele>
        <time>2022-03-30T17:57:00.000Z</time>
      </trkpt>
      <trkpt lat="48.35744" lon="-4.57866">
        <ele>64</ele>
        <time>2022-03-30T17:57:06.000Z</time>
      </trkpt>
      <trkpt lat="48.35745" lon="-4.57856">
        <ele>64.199996948242</ele>
        <time>2022-03-30T17:57:07.000Z</time>
      </trkpt>
      <trkpt lat="48.35749" lon="-4.57841">
        <ele>65</ele>
        <time>2022-03-30T17:57:09.000Z</time>
      </trkpt>
      <trkpt lat="48.3576" lon="-4.57829">
        <ele>65.599998474121</ele>
        <time>2022-03-30T17:57:12.000Z</time>
      </trkpt>
      <trkpt lat="48.35776" lon="-4.5782">
        <ele>66.199996948242</ele>
        <time>2022-03-30T17:57:16.000Z</time>
      </trkpt>
      <trkpt lat="48.35793" lon="-4.57826">
        <ele>67</ele>
        <time>2022-03-30T17:57:19.000Z</time>
      </trkpt>
      <trkpt lat="48.35807" lon="-4.57832">
        <ele>67.599998474121</ele>
        <time>2022-03-30T17:57:21.000Z</time>
      </trkpt>
      <trkpt lat="48.3581" lon="-4.57837">
        <ele>67.599998474121</ele>
        <time>2022-03-30T17:57:25.000Z</time>
      </trkpt>
      <trkpt lat="48.35809" lon="-4.5784">
        <ele>67.400001525879</ele>
        <time>2022-03-30T17:57:27.000Z</time>
      </trkpt>
      <trkpt lat="48.35807" lon="-4.57842">
        <ele>67.199996948242</ele>
        <time>2022-03-30T17:57:29.000Z</time>
      </trkpt>
      <trkpt lat="48.35807" lon="-4.57842">
        <ele>67.199996948242</ele>
        <time>2022-03-30T17:57:30.000Z</time>
      </trkpt>
      <trkpt lat="48.35807" lon="-4.57842">
        <ele>67.199996948242</ele>
        <time>2022-03-30T17:57:44.000Z</time>
      </trkpt>
      <trkpt lat="48.35807" lon="-4.57842">
        <ele>67.199996948242</ele>
        <time>2022-03-30T17:57:45.000Z</time>
      </trkpt>
    </trkseg>
  </trk>
</gpx>